Wetterdaten: Samstag, 24.06.2017
Datum Zeit Temp. A. Temp. A. max Feuchte A. Luftdruck Regen Wind Richtung Richtung Sonnenschein ET UV Solar Taupunkt Windchill Windböen
24.06.2017 00:00 20,4 °C 20,6 °C 74 % 1014,3 hPa 0,0 mm 0,0 km/h (0 Bft) W 270 ° 0 min 0,000 mm 0,0 UV-I 0 W/m² 15,6 °C 20,4 °C 0,0 km/h (0 Bft)
24.06.2017 00:01 20,4 °C 20,5 °C 75 % 1014,2 hPa 0,0 mm 0,0 km/h (0 Bft) W 270 ° 0 min 0,000 mm 0,0 UV-I 0 W/m² 15,8 °C 20,4 °C 0,0 km/h (0 Bft)
24.06.2017 00:02 20,3 °C 20,4 °C 75 % 1014,3 hPa 0,0 mm 0,0 km/h (0 Bft) W 270 ° 0 min 0,000 mm 0,0 UV-I 0 W/m² 15,7 °C 20,3 °C 0,0 km/h (0 Bft)
24.06.2017 00:03 20,3 °C 20,3 °C 75 % 1014,3 hPa 0,0 mm 0,0 km/h (0 Bft) W 270 ° 0 min 0,000 mm 0,0 UV-I 0 W/m² 15,7 °C 20,3 °C 0,0 km/h (0 Bft)
24.06.2017 00:04 20,2 °C 20,3 °C 75 % 1014,3 hPa 0,0 mm 0,0 km/h (0 Bft) W 270 ° 0 min 0,000 mm 0,0 UV-I 0 W/m² 15,6 °C 20,2 °C 0,0 km/h (0 Bft)
24.06.2017 00:05 20,2 °C 20,2 °C 75 % 1014,3 hPa 0,0 mm 0,0 km/h (0 Bft) W 270 ° 0 min 0,000 mm 0,0 UV-I 0 W/m² 15,6 °C 20,2 °C 0,0 km/h (0 Bft)
24.06.2017 00:06 20,2 °C 20,2 °C 74 % 1014,3 hPa 0,0 mm 0,0 km/h (0 Bft) W 270 ° 0 min 0,000 mm 0,0 UV-I 0 W/m² 15,4 °C 20,2 °C 0,0 km/h (0 Bft)
24.06.2017 00:07 20,2 °C 20,2 °C 74 % 1014,3 hPa 0,0 mm 0,0 km/h (0 Bft) W 270 ° 0 min 0,000 mm 0,0 UV-I 0 W/m² 15,4 °C 20,2 °C 0,0 km/h (0 Bft)
24.06.2017 00:08 20,2 °C 20,2 °C 74 % 1014,3 hPa 0,0 mm 0,0 km/h (0 Bft) W 270 ° 0 min 0,000 mm 0,0 UV-I 0 W/m² 15,4 °C 20,2 °C 0,0 km/h (0 Bft)
24.06.2017 00:09 20,2 °C 20,2 °C 74 % 1014,3 hPa 0,0 mm 0,0 km/h (0 Bft) W 270 ° 0 min 0,000 mm 0,0 UV-I 0 W/m² 15,4 °C 20,2 °C 0,0 km/h (0 Bft)
24.06.2017 00:10 20,1 °C 20,2 °C 75 % 1014,3 hPa 0,0 mm 0,0 km/h (0 Bft) W 270 ° 0 min 0,000 mm 0,0 UV-I 0 W/m² 15,5 °C 20,1 °C 0,0 km/h (0 Bft)
24.06.2017 00:11 20,1 °C 20,1 °C 75 % 1014,3 hPa 0,0 mm 0,0 km/h (0 Bft) W 270 ° 0 min 0,000 mm 0,0 UV-I 0 W/m² 15,5 °C 20,1 °C 0,0 km/h (0 Bft)
24.06.2017 00:12 20,1 °C 20,1 °C 75 % 1014,3 hPa 0,0 mm 0,0 km/h (0 Bft) W 270 ° 0 min 0,000 mm 0,0 UV-I 0 W/m² 15,5 °C 20,1 °C 0,0 km/h (0 Bft)
24.06.2017 00:13 20,1 °C 20,1 °C 75 % 1014,3 hPa 0,0 mm 0,0 km/h (0 Bft) W 270 ° 0 min 0,000 mm 0,0 UV-I 0 W/m² 15,5 °C 20,1 °C 0,0 km/h (0 Bft)
24.06.2017 00:14 19,9 °C 20,1 °C 76 % 1014,3 hPa 0,0 mm 0,0 km/h (0 Bft) W 270 ° 0 min 0,000 mm 0,0 UV-I 0 W/m² 15,5 °C 19,9 °C 0,0 km/h (0 Bft)
24.06.2017 00:15 19,8 °C 19,9 °C 76 % 1014,3 hPa 0,0 mm 0,0 km/h (0 Bft) W 270 ° 0 min 0,000 mm 0,0 UV-I 0 W/m² 15,4 °C 19,8 °C 0,0 km/h (0 Bft)
24.06.2017 00:16 19,7 °C 19,8 °C 76 % 1014,3 hPa 0,0 mm 0,0 km/h (0 Bft) W 270 ° 0 min 0,000 mm 0,0 UV-I 0 W/m² 15,3 °C 19,7 °C 0,0 km/h (0 Bft)
24.06.2017 00:17 19,7 °C 19,7 °C 76 % 1014,4 hPa 0,0 mm 0,0 km/h (0 Bft) W 270 ° 0 min 0,000 mm 0,0 UV-I 0 W/m² 15,3 °C 19,7 °C 0,0 km/h (0 Bft)
24.06.2017 00:18 19,7 °C 19,7 °C 76 % 1014,3 hPa 0,0 mm 0,0 km/h (0 Bft) W 270 ° 0 min 0,000 mm 0,0 UV-I 0 W/m² 15,3 °C 19,7 °C 0,0 km/h (0 Bft)
24.06.2017 00:19 19,8 °C 19,8 °C 75 % 1014,4 hPa 0,0 mm 0,0 km/h (0 Bft) W 270 ° 0 min 0,000 mm 0,0 UV-I 0 W/m² 15,2 °C 19,8 °C 0,0 km/h (0 Bft)
24.06.2017 00:20 19,8 °C 19,8 °C 75 % 1014,4 hPa 0,0 mm 0,0 km/h (0 Bft) W 270 ° 0 min 0,000 mm 0,0 UV-I 0 W/m² 15,2 °C 19,8 °C 0,0 km/h (0 Bft)
24.06.2017 00:21 19,8 °C 19,8 °C 75 % 1014,4 hPa 0,0 mm 0,0 km/h (0 Bft) W 270 ° 0 min 0,000 mm 0,0 UV-I 0 W/m² 15,2 °C 19,8 °C 0,0 km/h (0 Bft)
24.06.2017 00:22 19,7 °C 19,8 °C 77 % 1014,4 hPa 0,0 mm 0,0 km/h (0 Bft) W 270 ° 0 min 0,000 mm 0,0 UV-I 0 W/m² 15,5 °C 19,7 °C 0,0 km/h (0 Bft)
24.06.2017 00:23 19,6 °C 19,7 °C 77 % 1014,4 hPa 0,0 mm 0,0 km/h (0 Bft) W 270 ° 0 min 0,000 mm 0,0 UV-I 0 W/m² 15,5 °C 19,6 °C 0,0 km/h (0 Bft)
24.06.2017 00:24 19,6 °C 19,6 °C 78 % 1014,4 hPa 0,0 mm 0,0 km/h (0 Bft) W 270 ° 0 min 0,000 mm 0,0 UV-I 0 W/m² 15,7 °C 19,6 °C 0,0 km/h (0 Bft)
24.06.2017 00:25 19,6 °C 19,6 °C 78 % 1014,4 hPa 0,0 mm 0,0 km/h (0 Bft) W 270 ° 0 min 0,000 mm 0,0 UV-I 0 W/m² 15,7 °C 19,6 °C 0,0 km/h (0 Bft)
24.06.2017 00:26 19,6 °C 19,6 °C 78 % 1014,4 hPa 0,0 mm 0,0 km/h (0 Bft) W 270 ° 0 min 0,000 mm 0,0 UV-I 0 W/m² 15,7 °C 19,6 °C 0,0 km/h (0 Bft)
24.06.2017 00:27 19,6 °C 19,6 °C 78 % 1014,4 hPa 0,0 mm 0,0 km/h (0 Bft) W 270 ° 0 min 0,000 mm 0,0 UV-I 0 W/m² 15,7 °C 19,6 °C 0,0 km/h (0 Bft)
24.06.2017 00:28 19,5 °C 19,6 °C 79 % 1014,4 hPa 0,0 mm 0,0 km/h (0 Bft) W 270 ° 0 min 0,000 mm 0,0 UV-I 0 W/m² 15,8 °C 19,5 °C 0,0 km/h (0 Bft)
24.06.2017 00:29 19,5 °C 19,5 °C 79 % 1014,4 hPa 0,0 mm 0,0 km/h (0 Bft) W 270 ° 0 min 0,000 mm 0,0 UV-I 0 W/m² 15,8 °C 19,5 °C 0,0 km/h (0 Bft)
24.06.2017 00:30 19,4 °C 19,5 °C 79 % 1014,4 hPa 0,0 mm 0,0 km/h (0 Bft) W 270 ° 0 min 0,000 mm 0,0 UV-I 0 W/m² 15,7 °C 19,4 °C 0,0 km/h (0 Bft)
24.06.2017 00:31 19,4 °C 19,4 °C 79 % 1014,4 hPa 0,0 mm 0,0 km/h (0 Bft) W 270 ° 0 min 0,000 mm 0,0 UV-I 0 W/m² 15,7 °C 19,4 °C 0,0 km/h (0 Bft)
24.06.2017 00:32 19,4 °C 19,4 °C 79 % 1014,4 hPa 0,0 mm 0,0 km/h (0 Bft) W 270 ° 0 min 0,000 mm 0,0 UV-I 0 W/m² 15,7 °C 19,4 °C 0,0 km/h (0 Bft)
24.06.2017 00:33 19,4 °C 19,4 °C 79 % 1014,4 hPa 0,0 mm 0,0 km/h (0 Bft) W 270 ° 0 min 0,000 mm 0,0 UV-I 0 W/m² 15,7 °C 19,4 °C 0,0 km/h (0 Bft)
24.06.2017 00:34 19,4 °C 19,4 °C 79 % 1014,5 hPa 0,0 mm 0,0 km/h (0 Bft) W 270 ° 0 min 0,000 mm 0,0 UV-I 0 W/m² 15,7 °C 19,4 °C 0,0 km/h (0 Bft)
24.06.2017 00:35 19,4 °C 19,4 °C 79 % 1014,5 hPa 0,0 mm 0,0 km/h (0 Bft) W 270 ° 0 min 0,000 mm 0,0 UV-I 0 W/m² 15,7 °C 19,4 °C 0,0 km/h (0 Bft)
24.06.2017 00:36 19,4 °C 19,4 °C 79 % 1014,5 hPa 0,0 mm 0,0 km/h (0 Bft) W 270 ° 0 min 0,000 mm 0,0 UV-I 0 W/m² 15,7 °C 19,4 °C 0,0 km/h (0 Bft)
24.06.2017 00:37 19,4 °C 19,4 °C 79 % 1014,5 hPa 0,0 mm 0,0 km/h (0 Bft) S 176 ° 0 min 0,000 mm 0,0 UV-I 0 W/m² 15,7 °C 19,4 °C 0,0 km/h (0 Bft)
24.06.2017 00:38 19,4 °C 19,4 °C 80 % 1014,5 hPa 0,0 mm 3,7 km/h (1 Bft) S-SO 160 ° 0 min 0,000 mm 0,0 UV-I 0 W/m² 15,9 °C 19,4 °C 6,4 km/h (2 Bft)
24.06.2017 00:39 19,5 °C 19,5 °C 77 % 1014,4 hPa 0,0 mm 1,1 km/h (1 Bft) S-SO 158 ° 0 min 0,000 mm 0,0 UV-I 0 W/m² 15,4 °C 19,5 °C 3,2 km/h (1 Bft)
24.06.2017 00:40 19,7 °C 19,7 °C 76 % 1014,5 hPa 0,0 mm 1,3 km/h (1 Bft) W 260 ° 0 min 0,000 mm 0,0 UV-I 0 W/m² 15,3 °C 19,7 °C 4,8 km/h (1 Bft)
24.06.2017 00:41 19,8 °C 19,8 °C 75 % 1014,5 hPa 0,0 mm 4,1 km/h (1 Bft) W-NW 294 ° 0 min 0,000 mm 0,0 UV-I 0 W/m² 15,2 °C 19,8 °C 4,8 km/h (1 Bft)
24.06.2017 00:42 19,9 °C 19,9 °C 77 % 1014,6 hPa 0,0 mm 1,9 km/h (1 Bft) W-NW 294 ° 0 min 0,000 mm 0,0 UV-I 0 W/m² 15,7 °C 19,9 °C 4,8 km/h (1 Bft)
24.06.2017 00:43 19,9 °C 19,9 °C 78 % 1014,5 hPa 0,0 mm 0,2 km/h (0 Bft) W-NW 293 ° 0 min 0,000 mm 0,0 UV-I 0 W/m² 15,9 °C 19,9 °C 1,6 km/h (1 Bft)
24.06.2017 00:44 19,9 °C 19,9 °C 75 % 1014,5 hPa 0,0 mm 3,5 km/h (1 Bft) S-SO 165 ° 0 min 0,000 mm 0,0 UV-I 0 W/m² 15,3 °C 19,9 °C 6,4 km/h (2 Bft)
24.06.2017 00:45 20,0 °C 20,0 °C 74 % 1014,5 hPa 0,0 mm 3,0 km/h (1 Bft) S 170 ° 0 min 0,000 mm 0,0 UV-I 0 W/m² 15,2 °C 20,0 °C 6,4 km/h (2 Bft)
24.06.2017 00:46 20,1 °C 20,1 °C 74 % 1014,6 hPa 0,0 mm 5,4 km/h (1 Bft) S 171 ° 0 min 0,000 mm 0,0 UV-I 0 W/m² 15,3 °C 20,1 °C 6,4 km/h (2 Bft)
24.06.2017 00:47 20,2 °C 20,2 °C 74 % 1014,5 hPa 0,0 mm 0,9 km/h (0 Bft) S 171 ° 0 min 0,000 mm 0,0 UV-I 0 W/m² 15,4 °C 20,2 °C 3,2 km/h (1 Bft)
24.06.2017 00:48 20,2 °C 20,2 °C 74 % 1014,6 hPa 0,0 mm 1,1 km/h (1 Bft) S 171 ° 0 min 0,000 mm 0,0 UV-I 0 W/m² 15,4 °C 20,2 °C 1,6 km/h (1 Bft)
24.06.2017 00:49 20,3 °C 20,3 °C 74 % 1014,7 hPa 0,0 mm 0,0 km/h (0 Bft) S 171 ° 0 min 0,000 mm 0,0 UV-I 0 W/m² 15,5 °C 20,3 °C 0,0 km/h (0 Bft)
24.06.2017 00:50 20,2 °C 20,3 °C 75 % 1014,7 hPa 0,0 mm 0,9 km/h (0 Bft) S 171 ° 0 min 0,000 mm 0,0 UV-I 0 W/m² 15,6 °C 20,2 °C 3,2 km/h (1 Bft)
24.06.2017 00:51 20,1 °C 20,2 °C 77 % 1014,6 hPa 0,0 mm 0,4 km/h (0 Bft) S 171 ° 0 min 0,000 mm 0,0 UV-I 0 W/m² 15,9 °C 20,1 °C 1,6 km/h (1 Bft)
24.06.2017 00:52 20,0 °C 20,1 °C 77 % 1014,7 hPa 0,0 mm 0,0 km/h (0 Bft) S 171 ° 0 min 0,000 mm 0,0 UV-I 0 W/m² 15,8 °C 20,0 °C 0,0 km/h (0 Bft)
24.06.2017 00:53 19,9 °C 20,0 °C 75 % 1014,7 hPa 0,0 mm 0,7 km/h (0 Bft) S 171 ° 0 min 0,000 mm 0,0 UV-I 0 W/m² 15,3 °C 19,9 °C 1,6 km/h (1 Bft)
24.06.2017 00:54 19,9 °C 19,9 °C 75 % 1014,7 hPa 0,0 mm 0,8 km/h (0 Bft) S 171 ° 0 min 0,000 mm 0,0 UV-I 0 W/m² 15,3 °C 19,9 °C 1,6 km/h (1 Bft)
24.06.2017 00:55 20,0 °C 20,0 °C 75 % 1014,7 hPa 0,0 mm 0,5 km/h (0 Bft) S 171 ° 0 min 0,000 mm 0,0 UV-I 0 W/m² 15,4 °C 20,0 °C 1,6 km/h (1 Bft)
24.06.2017 00:56 20,1 °C 20,1 °C 75 % 1014,6 hPa 0,0 mm 0,0 km/h (0 Bft) S 171 ° 0 min 0,000 mm 0,0 UV-I 0 W/m² 15,5 °C 20,1 °C 0,0 km/h (0 Bft)
24.06.2017 00:57 20,1 °C 20,1 °C 73 % 1014,7 hPa 0,0 mm 0,3 km/h (0 Bft) S 171 ° 0 min 0,000 mm 0,0 UV-I 0 W/m² 15,1 °C 20,1 °C 1,6 km/h (1 Bft)
24.06.2017 00:58 20,2 °C 20,2 °C 72 % 1014,7 hPa 0,0 mm 2,4 km/h (1 Bft) S 171 ° 0 min 0,000 mm 0,0 UV-I 0 W/m² 15,0 °C 20,2 °C 6,4 km/h (2 Bft)
24.06.2017 00:59 20,3 °C 20,3 °C 71 % 1014,6 hPa 0,0 mm 2,5 km/h (1 Bft) S 171 ° 0 min 0,000 mm 0,0 UV-I 0 W/m² 14,9 °C 20,3 °C 3,2 km/h (1 Bft)
24.06.2017 01:00 20,4 °C 20,4 °C 72 % 1014,6 hPa 0,0 mm 0,6 km/h (0 Bft) S 171 ° 0 min 0,025 mm 0,0 UV-I 0 W/m² 15,2 °C 20,4 °C 1,6 km/h (1 Bft)
24.06.2017 01:01 20,4 °C 20,4 °C 71 % 1014,6 hPa 0,0 mm 0,1 km/h (0 Bft) S 171 ° 0 min 0,000 mm 0,0 UV-I 0 W/m² 15,0 °C 20,4 °C 1,6 km/h (1 Bft)
24.06.2017 01:02 20,4 °C 20,4 °C 71 % 1014,6 hPa 0,0 mm 0,0 km/h (0 Bft) S 171 ° 0 min 0,000 mm 0,0 UV-I 0 W/m² 15,0 °C 20,4 °C 0,0 km/h (0 Bft)
24.06.2017 01:03 20,5 °C 20,5 °C 70 % 1014,6 hPa 0,0 mm 0,2 km/h (0 Bft) S 171 ° 0 min 0,000 mm 0,0 UV-I 0 W/m² 14,8 °C 20,5 °C 1,6 km/h (1 Bft)
24.06.2017 01:04 20,6 °C 20,6 °C 71 % 1014,6 hPa 0,0 mm 1,1 km/h (1 Bft) S 171 ° 0 min 0,000 mm 0,0 UV-I 0 W/m² 15,2 °C 20,6 °C 3,2 km/h (1 Bft)
24.06.2017 01:05 20,6 °C 20,6 °C 70 % 1014,6 hPa 0,0 mm 2,5 km/h (1 Bft) S 171 ° 0 min 0,000 mm 0,0 UV-I 0 W/m² 14,9 °C 20,6 °C 6,4 km/h (2 Bft)
24.06.2017 01:06 20,6 °C 20,6 °C 70 % 1014,6 hPa 0,0 mm 1,9 km/h (1 Bft) S 171 ° 0 min 0,000 mm 0,0 UV-I 0 W/m² 14,9 °C 20,6 °C 3,2 km/h (1 Bft)
24.06.2017 01:07 20,6 °C 20,6 °C 70 % 1014,7 hPa 0,0 mm 0,2 km/h (0 Bft) S 171 ° 0 min 0,000 mm 0,0 UV-I 0 W/m² 14,9 °C 20,6 °C 1,6 km/h (1 Bft)
24.06.2017 01:08 20,5 °C 20,6 °C 71 % 1014,7 hPa 0,0 mm 0,0 km/h (0 Bft) S 171 ° 0 min 0,000 mm 0,0 UV-I 0 W/m² 15,1 °C 20,5 °C 0,0 km/h (0 Bft)
24.06.2017 01:09 20,4 °C 20,5 °C 74 % 1014,7 hPa 0,0 mm 0,0 km/h (0 Bft) S 171 ° 0 min 0,000 mm 0,0 UV-I 0 W/m² 15,6 °C 20,4 °C 0,0 km/h (0 Bft)
24.06.2017 01:10 20,3 °C 20,4 °C 76 % 1014,7 hPa 0,0 mm 0,5 km/h (0 Bft) S-SW 207 ° 0 min 0,000 mm 0,0 UV-I 0 W/m² 15,9 °C 20,3 °C 3,2 km/h (1 Bft)
24.06.2017 01:11 20,2 °C 20,3 °C 75 % 1014,7 hPa 0,0 mm 0,8 km/h (0 Bft) S-SW 207 ° 0 min 0,000 mm 0,0 UV-I 0 W/m² 15,6 °C 20,2 °C 3,2 km/h (1 Bft)
24.06.2017 01:12 20,1 °C 20,2 °C 75 % 1014,7 hPa 0,0 mm 0,0 km/h (0 Bft) S-SW 207 ° 0 min 0,000 mm 0,0 UV-I 0 W/m² 15,5 °C 20,1 °C 0,0 km/h (0 Bft)
24.06.2017 01:13 20,0 °C 20,1 °C 75 % 1014,7 hPa 0,0 mm 1,6 km/h (1 Bft) S-SW 207 ° 0 min 0,000 mm 0,0 UV-I 0 W/m² 15,4 °C 20,0 °C 3,2 km/h (1 Bft)
24.06.2017 01:14 20,0 °C 20,0 °C 75 % 1014,7 hPa 0,0 mm 2,9 km/h (1 Bft) S-SW 206 ° 0 min 0,000 mm 0,0 UV-I 0 W/m² 15,4 °C 20,0 °C 4,8 km/h (1 Bft)
24.06.2017 01:15 19,9 °C 20,0 °C 74 % 1014,7 hPa 0,0 mm 1,5 km/h (1 Bft) S-SW 206 ° 0 min 0,000 mm 0,0 UV-I 0 W/m² 15,1 °C 19,9 °C 3,2 km/h (1 Bft)
24.06.2017 01:16 20,0 °C 20,0 °C 74 % 1014,7 hPa 0,0 mm 0,0 km/h (0 Bft) S-SW 206 ° 0 min 0,000 mm 0,0 UV-I 0 W/m² 15,2 °C 20,0 °C 0,0 km/h (0 Bft)
24.06.2017 01:17 20,0 °C 20,0 °C 75 % 1014,7 hPa 0,0 mm 0,2 km/h (0 Bft) S-SW 206 ° 0 min 0,000 mm 0,0 UV-I 0 W/m² 15,4 °C 20,0 °C 1,6 km/h (1 Bft)
24.06.2017 01:18 19,9 °C 20,0 °C 74 % 1014,6 hPa 0,0 mm 0,1 km/h (0 Bft) S-SW 206 ° 0 min 0,000 mm 0,0 UV-I 0 W/m² 15,1 °C 19,9 °C 1,6 km/h (1 Bft)
24.06.2017 01:19 19,9 °C 20,0 °C 74 % 1014,6 hPa 0,0 mm 0,0 km/h (0 Bft) S-SW 206 ° 0 min 0,000 mm 0,0 UV-I 0 W/m² 15,1 °C 19,9 °C 0,0 km/h (0 Bft)
24.06.2017 01:20 20,0 °C 20,0 °C 73 % 1014,6 hPa 0,0 mm 0,3 km/h (0 Bft) S-SW 206 ° 0 min 0,000 mm 0,0 UV-I 0 W/m² 15,0 °C 20,0 °C 1,6 km/h (1 Bft)
24.06.2017 01:21 20,1 °C 20,1 °C 72 % 1014,6 hPa 0,0 mm 0,9 km/h (0 Bft) S-SW 206 ° 0 min 0,000 mm 0,0 UV-I 0 W/m² 14,9 °C 20,1 °C 1,6 km/h (1 Bft)
24.06.2017 01:22 20,1 °C 20,1 °C 73 % 1014,6 hPa 0,0 mm 0,0 km/h (0 Bft) S-SW 206 ° 0 min 0,000 mm 0,0 UV-I 0 W/m² 15,1 °C 20,1 °C 0,0 km/h (0 Bft)
24.06.2017 01:23 20,1 °C 20,1 °C 74 % 1014,6 hPa 0,0 mm 0,2 km/h (0 Bft) S-SW 206 ° 0 min 0,000 mm 0,0 UV-I 0 W/m² 15,3 °C 20,1 °C 1,6 km/h (1 Bft)
24.06.2017 01:24 20,1 °C 20,1 °C 74 % 1014,6 hPa 0,0 mm 1,5 km/h (1 Bft) S-SW 206 ° 0 min 0,000 mm 0,0 UV-I 0 W/m² 15,3 °C 20,1 °C 3,2 km/h (1 Bft)
24.06.2017 01:25 20,1 °C 20,2 °C 74 % 1014,6 hPa 0,0 mm 0,0 km/h (0 Bft) S-SW 206 ° 0 min 0,000 mm 0,0 UV-I 0 W/m² 15,3 °C 20,1 °C 0,0 km/h (0 Bft)
24.06.2017 01:26 20,1 °C 20,2 °C 77 % 1014,7 hPa 0,0 mm 2,5 km/h (1 Bft) W-NW 293 ° 0 min 0,000 mm 0,0 UV-I 0 W/m² 15,9 °C 20,1 °C 3,2 km/h (1 Bft)
24.06.2017 01:27 20,0 °C 20,1 °C 77 % 1014,7 hPa 0,0 mm 1,8 km/h (1 Bft) W-NW 293 ° 0 min 0,000 mm 0,0 UV-I 0 W/m² 15,8 °C 20,0 °C 3,2 km/h (1 Bft)
24.06.2017 01:28 19,9 °C 20,0 °C 77 % 1014,7 hPa 0,0 mm 0,1 km/h (0 Bft) W-NW 293 ° 0 min 0,000 mm 0,0 UV-I 0 W/m² 15,7 °C 19,9 °C 1,6 km/h (1 Bft)
24.06.2017 01:29 19,8 °C 19,9 °C 78 % 1014,7 hPa 0,0 mm 0,0 km/h (0 Bft) W-NW 293 ° 0 min 0,000 mm 0,0 UV-I 0 W/m² 15,8 °C 19,8 °C 0,0 km/h (0 Bft)
24.06.2017 01:30 19,6 °C 19,8 °C 78 % 1014,7 hPa 0,0 mm 0,0 km/h (0 Bft) W-NW 293 ° 0 min 0,000 mm 0,0 UV-I 0 W/m² 15,7 °C 19,6 °C 0,0 km/h (0 Bft)
24.06.2017 01:31 19,6 °C 19,6 °C 78 % 1014,7 hPa 0,0 mm 0,0 km/h (0 Bft) W-NW 293 ° 0 min 0,000 mm 0,0 UV-I 0 W/m² 15,7 °C 19,6 °C 0,0 km/h (0 Bft)
24.06.2017 01:32 19,5 °C 19,6 °C 79 % 1014,7 hPa 0,0 mm 0,0 km/h (0 Bft) W-NW 293 ° 0 min 0,000 mm 0,0 UV-I 0 W/m² 15,8 °C 19,5 °C 0,0 km/h (0 Bft)
24.06.2017 01:33 19,4 °C 19,5 °C 79 % 1014,8 hPa 0,0 mm 0,0 km/h (0 Bft) W-NW 293 ° 0 min 0,000 mm 0,0 UV-I 0 W/m² 15,7 °C 19,4 °C 0,0 km/h (0 Bft)
24.06.2017 01:34 19,4 °C 19,4 °C 78 % 1014,8 hPa 0,0 mm 0,0 km/h (0 Bft) W-NW 293 ° 0 min 0,000 mm 0,0 UV-I 0 W/m² 15,5 °C 19,4 °C 0,0 km/h (0 Bft)
24.06.2017 01:35 19,4 °C 19,4 °C 78 % 1014,7 hPa 0,0 mm 0,0 km/h (0 Bft) W-NW 293 ° 0 min 0,000 mm 0,0 UV-I 0 W/m² 15,5 °C 19,4 °C 0,0 km/h (0 Bft)
24.06.2017 01:36 19,5 °C 19,5 °C 77 % 1014,7 hPa 0,0 mm 0,0 km/h (0 Bft) W-NW 293 ° 0 min 0,000 mm 0,0 UV-I 0 W/m² 15,4 °C 19,5 °C 0,0 km/h (0 Bft)
24.06.2017 01:37 19,5 °C 19,5 °C 77 % 1014,7 hPa 0,0 mm 0,0 km/h (0 Bft) W-NW 293 ° 0 min 0,000 mm 0,0 UV-I 0 W/m² 15,4 °C 19,5 °C 0,0 km/h (0 Bft)
24.06.2017 01:38 19,6 °C 19,6 °C 76 % 1014,7 hPa 0,0 mm 0,0 km/h (0 Bft) W-NW 293 ° 0 min 0,000 mm 0,0 UV-I 0 W/m² 15,2 °C 19,6 °C 0,0 km/h (0 Bft)
24.06.2017 01:39 19,6 °C 19,6 °C 76 % 1014,7 hPa 0,0 mm 0,0 km/h (0 Bft) W-NW 293 ° 0 min 0,000 mm 0,0 UV-I 0 W/m² 15,2 °C 19,6 °C 0,0 km/h (0 Bft)
24.06.2017 01:40 19,7 °C 19,7 °C 75 % 1014,7 hPa 0,0 mm 0,0 km/h (0 Bft) W-NW 293 ° 0 min 0,000 mm 0,0 UV-I 0 W/m² 15,1 °C 19,7 °C 0,0 km/h (0 Bft)
24.06.2017 01:41 19,7 °C 19,7 °C 75 % 1014,7 hPa 0,0 mm 1,3 km/h (1 Bft) W-NW 293 ° 0 min 0,000 mm 0,0 UV-I 0 W/m² 15,1 °C 19,7 °C 3,2 km/h (1 Bft)
24.06.2017 01:42 19,8 °C 19,8 °C 75 % 1014,7 hPa 0,0 mm 0,8 km/h (0 Bft) W-NW 293 ° 0 min 0,000 mm 0,0 UV-I 0 W/m² 15,2 °C 19,8 °C 3,2 km/h (1 Bft)
24.06.2017 01:43 19,8 °C 19,8 °C 75 % 1014,7 hPa 0,0 mm 0,0 km/h (0 Bft) W-NW 293 ° 0 min 0,000 mm 0,0 UV-I 0 W/m² 15,2 °C 19,8 °C 0,0 km/h (0 Bft)
24.06.2017 01:44 19,8 °C 19,8 °C 77 % 1014,7 hPa 0,0 mm 0,5 km/h (0 Bft) W-NW 293 ° 0 min 0,000 mm 0,0 UV-I 0 W/m² 15,6 °C 19,8 °C 1,6 km/h (1 Bft)
24.06.2017 01:45 19,8 °C 19,8 °C 77 % 1014,7 hPa 0,0 mm 1,4 km/h (1 Bft) W-NW 293 ° 0 min 0,000 mm 0,0 UV-I 0 W/m² 15,6 °C 19,8 °C 1,6 km/h (1 Bft)
24.06.2017 01:46 19,8 °C 19,8 °C 76 % 1014,7 hPa 0,0 mm 0,9 km/h (0 Bft) W-NW 293 ° 0 min 0,000 mm 0,0 UV-I 0 W/m² 15,4 °C 19,8 °C 3,2 km/h (1 Bft)
24.06.2017 01:47 19,8 °C 19,8 °C 76 % 1014,7 hPa 0,0 mm 0,0 km/h (0 Bft) W-NW 293 ° 0 min 0,000 mm 0,0 UV-I 0 W/m² 15,4 °C 19,8 °C 0,0 km/h (0 Bft)
24.06.2017 01:48 19,8 °C 19,8 °C 75 % 1014,7 hPa 0,0 mm 0,0 km/h (0 Bft) W-NW 293 ° 0 min 0,000 mm 0,0 UV-I 0 W/m² 15,2 °C 19,8 °C 0,0 km/h (0 Bft)
24.06.2017 01:49 19,8 °C 19,8 °C 74 % 1014,7 hPa 0,0 mm 0,0 km/h (0 Bft) W-NW 293 ° 0 min 0,000 mm 0,0 UV-I 0 W/m² 15,0 °C 19,8 °C 0,0 km/h (0 Bft)
24.06.2017 01:50 19,8 °C 19,8 °C 75 % 1014,7 hPa 0,0 mm 1,4 km/h (1 Bft) W-NW 293 ° 0 min 0,000 mm 0,0 UV-I 0 W/m² 15,2 °C 19,8 °C 3,2 km/h (1 Bft)
24.06.2017 01:51 19,8 °C 19,8 °C 76 % 1014,7 hPa 0,0 mm 0,2 km/h (0 Bft) W-NW 293 ° 0 min 0,000 mm 0,0 UV-I 0 W/m² 15,4 °C 19,8 °C 1,6 km/h (1 Bft)
24.06.2017 01:52 19,8 °C 19,8 °C 76 % 1014,7 hPa 0,0 mm 0,1 km/h (0 Bft) W-NW 293 ° 0 min 0,000 mm 0,0 UV-I 0 W/m² 15,4 °C 19,8 °C 1,6 km/h (1 Bft)
24.06.2017 01:53 19,8 °C 19,8 °C 77 % 1014,6 hPa 0,0 mm 0,2 km/h (0 Bft) W-NW 293 ° 0 min 0,000 mm 0,0 UV-I 0 W/m² 15,6 °C 19,8 °C 1,6 km/h (1 Bft)
24.06.2017 01:54 19,7 °C 19,8 °C 77 % 1014,7 hPa 0,0 mm 2,0 km/h (1 Bft) W-NW 293 ° 0 min 0,000 mm 0,0 UV-I 0 W/m² 15,5 °C 19,7 °C 3,2 km/h (1 Bft)
24.06.2017 01:55 19,6 °C 19,7 °C 78 % 1014,7 hPa 0,0 mm 1,0 km/h (0 Bft) W-NW 293 ° 0 min 0,000 mm 0,0 UV-I 0 W/m² 15,7 °C 19,6 °C 3,2 km/h (1 Bft)
24.06.2017 01:56 19,4 °C 19,6 °C 79 % 1014,7 hPa 0,0 mm 0,1 km/h (0 Bft) W-NW 293 ° 0 min 0,000 mm 0,0 UV-I 0 W/m² 15,7 °C 19,4 °C 1,6 km/h (1 Bft)
24.06.2017 01:57 19,4 °C 19,4 °C 79 % 1014,7 hPa 0,0 mm 0,0 km/h (0 Bft) W-NW 293 ° 0 min 0,000 mm 0,0 UV-I 0 W/m² 15,7 °C 19,4 °C 0,0 km/h (0 Bft)
24.06.2017 01:58 19,3 °C 19,4 °C 78 % 1014,7 hPa 0,0 mm 0,0 km/h (0 Bft) W-NW 293 ° 0 min 0,000 mm 0,0 UV-I 0 W/m² 15,4 °C 19,3 °C 0,0 km/h (0 Bft)
24.06.2017 01:59 19,2 °C 19,3 °C 79 % 1014,7 hPa 0,0 mm 0,0 km/h (0 Bft) W-NW 293 ° 0 min 0,000 mm 0,0 UV-I 0 W/m² 15,5 °C 19,2 °C 0,0 km/h (0 Bft)
24.06.2017 02:00 19,2 °C 19,2 °C 79 % 1014,7 hPa 0,0 mm 0,0 km/h (0 Bft) W-NW 293 ° 0 min 0,000 mm 0,0 UV-I 0 W/m² 15,5 °C 19,2 °C 0,0 km/h (0 Bft)
24.06.2017 02:01 19,2 °C 19,2 °C 79 % 1014,7 hPa 0,0 mm 0,6 km/h (0 Bft) W-NW 293 ° 0 min 0,026 mm 0,0 UV-I 0 W/m² 15,5 °C 19,2 °C 1,6 km/h (1 Bft)
24.06.2017 02:02 19,2 °C 19,2 °C 79 % 1014,6 hPa 0,0 mm 0,0 km/h (0 Bft) W-NW 293 ° 0 min 0,000 mm 0,0 UV-I 0 W/m² 15,5 °C 19,2 °C 0,0 km/h (0 Bft)
24.06.2017 02:03 19,2 °C 19,3 °C 79 % 1014,6 hPa 0,0 mm 0,0 km/h (0 Bft) W-NW 293 ° 0 min 0,000 mm 0,0 UV-I 0 W/m² 15,5 °C 19,2 °C 0,0 km/h (0 Bft)
24.06.2017 02:04 19,2 °C 19,3 °C 79 % 1014,6 hPa 0,0 mm 0,0 km/h (0 Bft) W-NW 293 ° 0 min 0,000 mm 0,0 UV-I 0 W/m² 15,5 °C 19,2 °C 0,0 km/h (0 Bft)
24.06.2017 02:05 19,2 °C 19,2 °C 79 % 1014,6 hPa 0,0 mm 0,0 km/h (0 Bft) W-NW 293 ° 0 min 0,000 mm 0,0 UV-I 0 W/m² 15,5 °C 19,2 °C 0,0 km/h (0 Bft)
24.06.2017 02:06 19,2 °C 19,2 °C 80 % 1014,6 hPa 0,0 mm 0,0 km/h (0 Bft) W-NW 293 ° 0 min 0,000 mm 0,0 UV-I 0 W/m² 15,7 °C 19,2 °C 0,0 km/h (0 Bft)
24.06.2017 02:07 19,2 °C 19,2 °C 80 % 1014,6 hPa 0,0 mm 0,0 km/h (0 Bft) W-NW 293 ° 0 min 0,000 mm 0,0 UV-I 0 W/m² 15,7 °C 19,2 °C 0,0 km/h (0 Bft)
24.06.2017 02:08 19,1 °C 19,2 °C 79 % 1014,6 hPa 0,0 mm 0,0 km/h (0 Bft) W-NW 293 ° 0 min 0,000 mm 0,0 UV-I 0 W/m² 15,4 °C 19,1 °C 0,0 km/h (0 Bft)
24.06.2017 02:09 19,1 °C 19,2 °C 80 % 1014,6 hPa 0,0 mm 0,0 km/h (0 Bft) W-NW 293 ° 0 min 0,000 mm 0,0 UV-I 0 W/m² 15,6 °C 19,1 °C 0,0 km/h (0 Bft)
24.06.2017 02:10 19,1 °C 19,2 °C 80 % 1014,6 hPa 0,0 mm 0,0 km/h (0 Bft) W-NW 293 ° 0 min 0,000 mm 0,0 UV-I 0 W/m² 15,6 °C 19,1 °C 0,0 km/h (0 Bft)
24.06.2017 02:11 19,1 °C 19,1 °C 80 % 1014,6 hPa 0,0 mm 0,0 km/h (0 Bft) W-NW 293 ° 0 min 0,000 mm 0,0 UV-I 0 W/m² 15,6 °C 19,1 °C 0,0 km/h (0 Bft)
24.06.2017 02:12 19,1 °C 19,1 °C 80 % 1014,5 hPa 0,0 mm 0,0 km/h (0 Bft) W-NW 293 ° 0 min 0,000 mm 0,0 UV-I 0 W/m² 15,6 °C 19,1 °C 0,0 km/h (0 Bft)
24.06.2017 02:13 19,1 °C 19,1 °C 80 % 1014,5 hPa 0,0 mm 0,0 km/h (0 Bft) W-NW 293 ° 0 min 0,000 mm 0,0 UV-I 0 W/m² 15,6 °C 19,1 °C 0,0 km/h (0 Bft)
24.06.2017 02:14 19,1 °C 19,1 °C 79 % 1014,5 hPa 0,0 mm 0,0 km/h (0 Bft) W-NW 293 ° 0 min 0,000 mm 0,0 UV-I 0 W/m² 15,4 °C 19,1 °C 0,0 km/h (0 Bft)
24.06.2017 02:15 19,1 °C 19,1 °C 79 % 1014,5 hPa 0,0 mm 0,0 km/h (0 Bft) W-NW 293 ° 0 min 0,000 mm 0,0 UV-I 0 W/m² 15,4 °C 19,1 °C 0,0 km/h (0 Bft)
24.06.2017 02:16 19,0 °C 19,1 °C 79 % 1014,5 hPa 0,0 mm 0,0 km/h (0 Bft) W-NW 293 ° 0 min 0,000 mm 0,0 UV-I 0 W/m² 15,3 °C 19,0 °C 0,0 km/h (0 Bft)
24.06.2017 02:17 18,9 °C 19,0 °C 79 % 1014,5 hPa 0,0 mm 0,0 km/h (0 Bft) W-NW 293 ° 0 min 0,000 mm 0,0 UV-I 0 W/m² 15,2 °C 18,9 °C 0,0 km/h (0 Bft)
24.06.2017 02:18 18,9 °C 18,9 °C 79 % 1014,5 hPa 0,0 mm 0,0 km/h (0 Bft) W-NW 293 ° 0 min 0,000 mm 0,0 UV-I 0 W/m² 15,2 °C 18,9 °C 0,0 km/h (0 Bft)
24.06.2017 02:19 18,9 °C 18,9 °C 79 % 1014,5 hPa 0,0 mm 0,0 km/h (0 Bft) W-NW 293 ° 0 min 0,000 mm 0,0 UV-I 0 W/m² 15,2 °C 18,9 °C 0,0 km/h (0 Bft)
24.06.2017 02:20 18,8 °C 18,9 °C 79 % 1014,5 hPa 0,0 mm 0,0 km/h (0 Bft) W-NW 293 ° 0 min 0,000 mm 0,0 UV-I 0 W/m² 15,1 °C 18,8 °C 0,0 km/h (0 Bft)
24.06.2017 02:21 18,8 °C 18,8 °C 79 % 1014,5 hPa 0,0 mm 0,0 km/h (0 Bft) W-NW 293 ° 0 min 0,000 mm 0,0 UV-I 0 W/m² 15,1 °C 18,8 °C 0,0 km/h (0 Bft)
24.06.2017 02:22 18,8 °C 18,8 °C 79 % 1014,5 hPa 0,0 mm 0,0 km/h (0 Bft) W-NW 293 ° 0 min 0,000 mm 0,0 UV-I 0 W/m² 15,1 °C 18,8 °C 0,0 km/h (0 Bft)
24.06.2017 02:23 18,7 °C 18,8 °C 79 % 1014,6 hPa 0,0 mm 0,0 km/h (0 Bft) W-NW 293 ° 0 min 0,000 mm 0,0 UV-I 0 W/m² 15,0 °C 18,7 °C 0,0 km/h (0 Bft)
24.06.2017 02:24 18,7 °C 18,7 °C 80 % 1014,6 hPa 0,0 mm 0,0 km/h (0 Bft) W-NW 293 ° 0 min 0,000 mm 0,0 UV-I 0 W/m² 15,2 °C 18,7 °C 0,0 km/h (0 Bft)
24.06.2017 02:25 18,7 °C 18,7 °C 80 % 1014,5 hPa 0,0 mm 0,0 km/h (0 Bft) W-NW 293 ° 0 min 0,000 mm 0,0 UV-I 0 W/m² 15,2 °C 18,7 °C 0,0 km/h (0 Bft)
24.06.2017 02:26 18,7 °C 18,7 °C 80 % 1014,6 hPa 0,0 mm 0,0 km/h (0 Bft) W-NW 293 ° 0 min 0,000 mm 0,0 UV-I 0 W/m² 15,2 °C 18,7 °C 0,0 km/h (0 Bft)
24.06.2017 02:27 18,6 °C 18,7 °C 80 % 1014,6 hPa 0,0 mm 0,0 km/h (0 Bft) W-NW 293 ° 0 min 0,000 mm 0,0 UV-I 0 W/m² 15,1 °C 18,6 °C 0,0 km/h (0 Bft)
24.06.2017 02:28 18,7 °C 18,7 °C 80 % 1014,6 hPa 0,0 mm 0,0 km/h (0 Bft) W-NW 293 ° 0 min 0,000 mm 0,0 UV-I 0 W/m² 15,2 °C 18,7 °C 0,0 km/h (0 Bft)
24.06.2017 02:29 18,7 °C 18,7 °C 80 % 1014,6 hPa 0,0 mm 0,0 km/h (0 Bft) W-NW 293 ° 0 min 0,000 mm 0,0 UV-I 0 W/m² 15,2 °C 18,7 °C 0,0 km/h (0 Bft)
24.06.2017 02:30 18,7 °C 18,7 °C 79 % 1014,6 hPa 0,0 mm 0,0 km/h (0 Bft) W-NW 293 ° 0 min 0,000 mm 0,0 UV-I 0 W/m² 15,0 °C 18,7 °C 0,0 km/h (0 Bft)
24.06.2017 02:31 18,7 °C 18,7 °C 80 % 1014,6 hPa 0,0 mm 0,0 km/h (0 Bft) W-NW 293 ° 0 min 0,000 mm 0,0 UV-I 0 W/m² 15,2 °C 18,7 °C 0,0 km/h (0 Bft)
24.06.2017 02:32 18,6 °C 18,7 °C 80 % 1014,6 hPa 0,0 mm 0,0 km/h (0 Bft) W-NW 293 ° 0 min 0,000 mm 0,0 UV-I 0 W/m² 15,1 °C 18,6 °C 0,0 km/h (0 Bft)
24.06.2017 02:33 18,6 °C 18,6 °C 80 % 1014,5 hPa 0,0 mm 0,0 km/h (0 Bft) W-NW 293 ° 0 min 0,000 mm 0,0 UV-I 0 W/m² 15,1 °C 18,6 °C 0,0 km/h (0 Bft)
24.06.2017 02:34 18,6 °C 18,6 °C 80 % 1014,5 hPa 0,0 mm 0,0 km/h (0 Bft) W-NW 293 ° 0 min 0,000 mm 0,0 UV-I 0 W/m² 15,1 °C 18,6 °C 0,0 km/h (0 Bft)
24.06.2017 02:35 18,6 °C 18,6 °C 80 % 1014,5 hPa 0,0 mm 0,0 km/h (0 Bft) W-NW 293 ° 0 min 0,000 mm 0,0 UV-I 0 W/m² 15,1 °C 18,6 °C 0,0 km/h (0 Bft)
24.06.2017 02:36 18,6 °C 18,6 °C 80 % 1014,5 hPa 0,0 mm 0,0 km/h (0 Bft) W-NW 293 ° 0 min 0,000 mm 0,0 UV-I 0 W/m² 15,1 °C 18,6 °C 0,0 km/h (0 Bft)
24.06.2017 02:37 18,6 °C 18,6 °C 79 % 1014,5 hPa 0,0 mm 0,0 km/h (0 Bft) W-NW 293 ° 0 min 0,000 mm 0,0 UV-I 0 W/m² 14,9 °C 18,6 °C 0,0 km/h (0 Bft)
24.06.2017 02:38 18,6 °C 18,6 °C 80 % 1014,5 hPa 0,0 mm 0,0 km/h (0 Bft) W-NW 293 ° 0 min 0,000 mm 0,0 UV-I 0 W/m² 15,1 °C 18,6 °C 0,0 km/h (0 Bft)
24.06.2017 02:39 18,5 °C 18,6 °C 79 % 1014,5 hPa 0,0 mm 0,0 km/h (0 Bft) W-NW 293 ° 0 min 0,000 mm 0,0 UV-I 0 W/m² 14,8 °C 18,5 °C 0,0 km/h (0 Bft)
24.06.2017 02:40 18,4 °C 18,5 °C 79 % 1014,5 hPa 0,0 mm 0,0 km/h (0 Bft) W-NW 293 ° 0 min 0,000 mm 0,0 UV-I 0 W/m² 14,7 °C 18,4 °C 0,0 km/h (0 Bft)
24.06.2017 02:41 18,4 °C 18,5 °C 79 % 1014,5 hPa 0,0 mm 0,0 km/h (0 Bft) W-NW 293 ° 0 min 0,000 mm 0,0 UV-I 0 W/m² 14,7 °C 18,4 °C 0,0 km/h (0 Bft)
24.06.2017 02:42 18,4 °C 18,5 °C 79 % 1014,5 hPa 0,0 mm 0,0 km/h (0 Bft) W-NW 293 ° 0 min 0,000 mm 0,0 UV-I 0 W/m² 14,7 °C 18,4 °C 0,0 km/h (0 Bft)
24.06.2017 02:43 18,4 °C 18,4 °C 79 % 1014,5 hPa 0,0 mm 0,0 km/h (0 Bft) W-NW 293 ° 0 min 0,000 mm 0,0 UV-I 0 W/m² 14,7 °C 18,4 °C 0,0 km/h (0 Bft)
24.06.2017 02:44 18,5 °C 18,5 °C 79 % 1014,5 hPa 0,0 mm 0,0 km/h (0 Bft) W-NW 293 ° 0 min 0,000 mm 0,0 UV-I 0 W/m² 14,8 °C 18,5 °C 0,0 km/h (0 Bft)
24.06.2017 02:45 18,4 °C 18,5 °C 79 % 1014,5 hPa 0,0 mm 0,0 km/h (0 Bft) W-NW 293 ° 0 min 0,000 mm 0,0 UV-I 0 W/m² 14,7 °C 18,4 °C 0,0 km/h (0 Bft)
24.06.2017 02:46 18,4 °C 18,4 °C 79 % 1014,5 hPa 0,0 mm 0,0 km/h (0 Bft) W-NW 293 ° 0 min 0,000 mm 0,0 UV-I 0 W/m² 14,7 °C 18,4 °C 0,0 km/h (0 Bft)
24.06.2017 02:47 18,4 °C 18,4 °C 79 % 1014,5 hPa 0,0 mm 0,0 km/h (0 Bft) W-NW 293 ° 0 min 0,000 mm 0,0 UV-I 0 W/m² 14,7 °C 18,4 °C 0,0 km/h (0 Bft)
24.06.2017 02:48 18,4 °C 18,4 °C 79 % 1014,5 hPa 0,0 mm 0,0 km/h (0 Bft) W-NW 293 ° 0 min 0,000 mm 0,0 UV-I 0 W/m² 14,7 °C 18,4 °C 0,0 km/h (0 Bft)
24.06.2017 02:49 18,3 °C 18,4 °C 79 % 1014,6 hPa 0,0 mm 0,0 km/h (0 Bft) W-NW 293 ° 0 min 0,000 mm 0,0 UV-I 0 W/m² 14,6 °C 18,3 °C 0,0 km/h (0 Bft)
24.06.2017 02:50 18,3 °C 18,3 °C 79 % 1014,5 hPa 0,0 mm 0,0 km/h (0 Bft) W-NW 293 ° 0 min 0,000 mm 0,0 UV-I 0 W/m² 14,6 °C 18,3 °C 0,0 km/h (0 Bft)
24.06.2017 02:51 18,3 °C 18,3 °C 80 % 1014,5 hPa 0,0 mm 0,0 km/h (0 Bft) W-NW 293 ° 0 min 0,000 mm 0,0 UV-I 0 W/m² 14,8 °C 18,3 °C 0,0 km/h (0 Bft)
24.06.2017 02:52 18,3 °C 18,3 °C 80 % 1014,4 hPa 0,0 mm 0,0 km/h (0 Bft) W-NW 293 ° 0 min 0,000 mm 0,0 UV-I 0 W/m² 14,8 °C 18,3 °C 0,0 km/h (0 Bft)
24.06.2017 02:53 18,3 °C 18,3 °C 79 % 1014,5 hPa 0,0 mm 0,0 km/h (0 Bft) W-NW 293 ° 0 min 0,000 mm 0,0 UV-I 0 W/m² 14,6 °C 18,3 °C 0,0 km/h (0 Bft)
24.06.2017 02:54 18,3 °C 18,4 °C 80 % 1014,4 hPa 0,0 mm 0,0 km/h (0 Bft) W-NW 293 ° 0 min 0,000 mm 0,0 UV-I 0 W/m² 14,8 °C 18,3 °C 0,0 km/h (0 Bft)
24.06.2017 02:55 18,3 °C 18,4 °C 80 % 1014,4 hPa 0,0 mm 0,0 km/h (0 Bft) W-NW 293 ° 0 min 0,000 mm 0,0 UV-I 0 W/m² 14,8 °C 18,3 °C 0,0 km/h (0 Bft)
24.06.2017 02:56 18,3 °C 18,3 °C 80 % 1014,4 hPa 0,0 mm 0,0 km/h (0 Bft) W-NW 293 ° 0 min 0,000 mm 0,0 UV-I 0 W/m² 14,8 °C 18,3 °C 0,0 km/h (0 Bft)
24.06.2017 02:57 18,2 °C 18,3 °C 80 % 1014,4 hPa 0,0 mm 0,0 km/h (0 Bft) W-NW 293 ° 0 min 0,000 mm 0,0 UV-I 0 W/m² 14,7 °C 18,2 °C 0,0 km/h (0 Bft)
24.06.2017 02:58 18,2 °C 18,3 °C 80 % 1014,4 hPa 0,0 mm 0,0 km/h (0 Bft) W-NW 293 ° 0 min 0,000 mm 0,0 UV-I 0 W/m² 14,7 °C 18,2 °C 0,0 km/h (0 Bft)
24.06.2017 02:59 18,2 °C 18,2 °C 81 % 1014,4 hPa 0,0 mm 0,0 km/h (0 Bft) W-NW 293 ° 0 min 0,000 mm 0,0 UV-I 0 W/m² 14,9 °C 18,2 °C 0,0 km/h (0 Bft)
24.06.2017 03:00 18,1 °C 18,2 °C 81 % 1014,3 hPa 0,0 mm 0,0 km/h (0 Bft) W-NW 293 ° 0 min 0,000 mm 0,0 UV-I 0 W/m² 14,8 °C 18,1 °C 0,0 km/h (0 Bft)
24.06.2017 03:01 18,0 °C 18,1 °C 81 % 1014,3 hPa 0,0 mm 0,0 km/h (0 Bft) W-NW 293 ° 0 min 0,025 mm 0,0 UV-I 0 W/m² 14,7 °C 18,0 °C 0,0 km/h (0 Bft)
24.06.2017 03:02 17,9 °C 18,0 °C 81 % 1014,3 hPa 0,0 mm 0,0 km/h (0 Bft) W-NW 293 ° 0 min 0,000 mm 0,0 UV-I 0 W/m² 14,6 °C 17,9 °C 0,0 km/h (0 Bft)
24.06.2017 03:03 17,9 °C 17,9 °C 81 % 1014,3 hPa 0,0 mm 0,0 km/h (0 Bft) W-NW 293 ° 0 min 0,000 mm 0,0 UV-I 0 W/m² 14,6 °C 17,9 °C 0,0 km/h (0 Bft)
24.06.2017 03:04 17,9 °C 17,9 °C 81 % 1014,3 hPa 0,0 mm 0,0 km/h (0 Bft) W-NW 293 ° 0 min 0,000 mm 0,0 UV-I 0 W/m² 14,6 °C 17,9 °C 0,0 km/h (0 Bft)
24.06.2017 03:05 17,9 °C 17,9 °C 81 % 1014,3 hPa 0,0 mm 0,0 km/h (0 Bft) W-NW 293 ° 0 min 0,000 mm 0,0 UV-I 0 W/m² 14,6 °C 17,9 °C 0,0 km/h (0 Bft)
24.06.2017 03:06 17,9 °C 17,9 °C 81 % 1014,3 hPa 0,0 mm 0,0 km/h (0 Bft) W-NW 293 ° 0 min 0,000 mm 0,0 UV-I 0 W/m² 14,6 °C 17,9 °C 0,0 km/h (0 Bft)
24.06.2017 03:07 17,9 °C 17,9 °C 81 % 1014,3 hPa 0,0 mm 0,0 km/h (0 Bft) W-NW 293 ° 0 min 0,000 mm 0,0 UV-I 0 W/m² 14,6 °C 17,9 °C 0,0 km/h (0 Bft)
24.06.2017 03:08 17,9 °C 17,9 °C 81 % 1014,3 hPa 0,0 mm 0,0 km/h (0 Bft) W-NW 293 ° 0 min 0,000 mm 0,0 UV-I 0 W/m² 14,6 °C 17,9 °C 0,0 km/h (0 Bft)
24.06.2017 03:09 17,9 °C 17,9 °C 81 % 1014,3 hPa 0,0 mm 0,0 km/h (0 Bft) W-NW 293 ° 0 min 0,000 mm 0,0 UV-I 0 W/m² 14,6 °C 17,9 °C 0,0 km/h (0 Bft)
24.06.2017 03:10 17,9 °C 17,9 °C 80 % 1014,2 hPa 0,0 mm 0,0 km/h (0 Bft) W-NW 293 ° 0 min 0,000 mm 0,0 UV-I 0 W/m² 14,4 °C 17,9 °C 0,0 km/h (0 Bft)
24.06.2017 03:11 17,9 °C 18,0 °C 80 % 1014,3 hPa 0,0 mm 0,0 km/h (0 Bft) W-NW 293 ° 0 min 0,000 mm 0,0 UV-I 0 W/m² 14,4 °C 17,9 °C 0,0 km/h (0 Bft)
24.06.2017 03:12 17,9 °C 17,9 °C 80 % 1014,3 hPa 0,0 mm 0,0 km/h (0 Bft) W-NW 293 ° 0 min 0,000 mm 0,0 UV-I 0 W/m² 14,4 °C 17,9 °C 0,0 km/h (0 Bft)
24.06.2017 03:13 17,9 °C 17,9 °C 80 % 1014,3 hPa 0,0 mm 0,0 km/h (0 Bft) W-NW 293 ° 0 min 0,000 mm 0,0 UV-I 0 W/m² 14,4 °C 17,9 °C 0,0 km/h (0 Bft)
24.06.2017 03:14 17,8 °C 17,9 °C 81 % 1014,3 hPa 0,0 mm 0,0 km/h (0 Bft) W-NW 293 ° 0 min 0,000 mm 0,0 UV-I 0 W/m² 14,5 °C 17,8 °C 0,0 km/h (0 Bft)
24.06.2017 03:15 17,8 °C 17,8 °C 81 % 1014,3 hPa 0,0 mm 0,0 km/h (0 Bft) W-NW 293 ° 0 min 0,000 mm 0,0 UV-I 0 W/m² 14,5 °C 17,8 °C 0,0 km/h (0 Bft)
24.06.2017 03:16 17,8 °C 17,8 °C 81 % 1014,3 hPa 0,0 mm 0,0 km/h (0 Bft) W-NW 293 ° 0 min 0,000 mm 0,0 UV-I 0 W/m² 14,5 °C 17,8 °C 0,0 km/h (0 Bft)
24.06.2017 03:17 17,7 °C 17,8 °C 81 % 1014,3 hPa 0,0 mm 0,0 km/h (0 Bft) W-NW 293 ° 0 min 0,000 mm 0,0 UV-I 0 W/m² 14,4 °C 17,7 °C 0,0 km/h (0 Bft)
24.06.2017 03:18 17,7 °C 17,7 °C 81 % 1014,3 hPa 0,0 mm 0,0 km/h (0 Bft) W-NW 293 ° 0 min 0,000 mm 0,0 UV-I 0 W/m² 14,4 °C 17,7 °C 0,0 km/h (0 Bft)
24.06.2017 03:19 17,6 °C 17,7 °C 81 % 1014,3 hPa 0,0 mm 0,0 km/h (0 Bft) W-NW 293 ° 0 min 0,000 mm 0,0 UV-I 0 W/m² 14,3 °C 17,6 °C 0,0 km/h (0 Bft)
24.06.2017 03:20 17,6 °C 17,6 °C 81 % 1014,4 hPa 0,0 mm 0,0 km/h (0 Bft) W-NW 293 ° 0 min 0,000 mm 0,0 UV-I 0 W/m² 14,3 °C 17,6 °C 0,0 km/h (0 Bft)
24.06.2017 03:21 17,6 °C 17,7 °C 81 % 1014,4 hPa 0,0 mm 0,0 km/h (0 Bft) W-NW 293 ° 0 min 0,000 mm 0,0 UV-I 0 W/m² 14,3 °C 17,6 °C 0,0 km/h (0 Bft)
24.06.2017 03:22 17,6 °C 17,6 °C 81 % 1014,4 hPa 0,0 mm 0,0 km/h (0 Bft) W-NW 293 ° 0 min 0,000 mm 0,0 UV-I 0 W/m² 14,3 °C 17,6 °C 0,0 km/h (0 Bft)
24.06.2017 03:23 17,7 °C 17,7 °C 81 % 1014,4 hPa 0,0 mm 0,0 km/h (0 Bft) W-NW 293 ° 0 min 0,000 mm 0,0 UV-I 0 W/m² 14,4 °C 17,7 °C 0,0 km/h (0 Bft)
24.06.2017 03:24 17,6 °C 17,7 °C 82 % 1014,3 hPa 0,0 mm 0,0 km/h (0 Bft) W-NW 293 ° 0 min 0,000 mm 0,0 UV-I 0 W/m² 14,5 °C 17,6 °C 0,0 km/h (0 Bft)
24.06.2017 03:25 17,7 °C 17,7 °C 82 % 1014,3 hPa 0,0 mm 0,0 km/h (0 Bft) W-NW 293 ° 0 min 0,000 mm 0,0 UV-I 0 W/m² 14,6 °C 17,7 °C 0,0 km/h (0 Bft)
24.06.2017 03:26 17,6 °C 17,7 °C 82 % 1014,3 hPa 0,0 mm 0,0 km/h (0 Bft) W-NW 293 ° 0 min 0,000 mm 0,0 UV-I 0 W/m² 14,5 °C 17,6 °C 0,0 km/h (0 Bft)
24.06.2017 03:27 17,6 °C 17,7 °C 82 % 1014,3 hPa 0,0 mm 0,0 km/h (0 Bft) W-NW 293 ° 0 min 0,000 mm 0,0 UV-I 0 W/m² 14,5 °C 17,6 °C 0,0 km/h (0 Bft)
24.06.2017 03:28 17,6 °C 17,6 °C 82 % 1014,3 hPa 0,0 mm 0,0 km/h (0 Bft) W-NW 293 ° 0 min 0,000 mm 0,0 UV-I 0 W/m² 14,5 °C 17,6 °C 0,0 km/h (0 Bft)
24.06.2017 03:29 17,4 °C 17,6 °C 83 % 1014,3 hPa 0,0 mm 0,0 km/h (0 Bft) W-NW 293 ° 0 min 0,000 mm 0,0 UV-I 0 W/m² 14,5 °C 17,4 °C 0,0 km/h (0 Bft)
24.06.2017 03:30 17,4 °C 17,4 °C 83 % 1014,3 hPa 0,0 mm 0,0 km/h (0 Bft) W-NW 293 ° 0 min 0,000 mm 0,0 UV-I 0 W/m² 14,5 °C 17,4 °C 0,0 km/h (0 Bft)
24.06.2017 03:31 17,4 °C 17,4 °C 83 % 1014,3 hPa 0,0 mm 0,0 km/h (0 Bft) W-NW 293 ° 0 min 0,000 mm 0,0 UV-I 0 W/m² 14,5 °C 17,4 °C 0,0 km/h (0 Bft)
24.06.2017 03:32 17,3 °C 17,4 °C 83 % 1014,3 hPa 0,0 mm 0,0 km/h (0 Bft) W-NW 293 ° 0 min 0,000 mm 0,0 UV-I 0 W/m² 14,4 °C 17,3 °C 0,0 km/h (0 Bft)
24.06.2017 03:33 17,3 °C 17,4 °C 83 % 1014,3 hPa 0,0 mm 0,0 km/h (0 Bft) W-NW 293 ° 0 min 0,000 mm 0,0 UV-I 0 W/m² 14,4 °C 17,3 °C 0,0 km/h (0 Bft)
24.06.2017 03:34 17,3 °C 17,4 °C 83 % 1014,2 hPa 0,0 mm 0,0 km/h (0 Bft) W-NW 293 ° 0 min 0,000 mm 0,0 UV-I 0 W/m² 14,4 °C 17,3 °C 0,0 km/h (0 Bft)
24.06.2017 03:35 17,3 °C 17,3 °C 83 % 1014,3 hPa 0,0 mm 0,0 km/h (0 Bft) W-NW 293 ° 0 min 0,000 mm 0,0 UV-I 0 W/m² 14,4 °C 17,3 °C 0,0 km/h (0 Bft)
24.06.2017 03:36 17,3 °C 17,3 °C 84 % 1014,3 hPa 0,0 mm 0,0 km/h (0 Bft) W-NW 293 ° 0 min 0,000 mm 0,0 UV-I 0 W/m² 14,6 °C 17,3 °C 0,0 km/h (0 Bft)
24.06.2017 03:37 17,3 °C 17,3 °C 84 % 1014,3 hPa 0,0 mm 0,0 km/h (0 Bft) W-NW 293 ° 0 min 0,000 mm 0,0 UV-I 0 W/m² 14,6 °C 17,3 °C 0,0 km/h (0 Bft)
24.06.2017 03:38 17,3 °C 17,3 °C 83 % 1014,2 hPa 0,0 mm 0,0 km/h (0 Bft) W-NW 293 ° 0 min 0,000 mm 0,0 UV-I 0 W/m² 14,4 °C 17,3 °C 0,0 km/h (0 Bft)
24.06.2017 03:39 17,2 °C 17,3 °C 83 % 1014,3 hPa 0,0 mm 0,0 km/h (0 Bft) W-NW 293 ° 0 min 0,000 mm 0,0 UV-I 0 W/m² 14,3 °C 17,2 °C 0,0 km/h (0 Bft)
24.06.2017 03:40 17,2 °C 17,2 °C 84 % 1014,2 hPa 0,0 mm 0,0 km/h (0 Bft) W-NW 293 ° 0 min 0,000 mm 0,0 UV-I 0 W/m² 14,5 °C 17,2 °C 0,0 km/h (0 Bft)
24.06.2017 03:41 17,2 °C 17,2 °C 84 % 1014,3 hPa 0,0 mm 0,0 km/h (0 Bft) W-NW 293 ° 0 min 0,000 mm 0,0 UV-I 0 W/m² 14,5 °C 17,2 °C 0,0 km/h (0 Bft)
24.06.2017 03:42 17,2 °C 17,2 °C 84 % 1014,2 hPa 0,0 mm 0,0 km/h (0 Bft) W-NW 293 ° 0 min 0,000 mm 0,0 UV-I 0 W/m² 14,5 °C 17,2 °C 0,0 km/h (0 Bft)
24.06.2017 03:43 17,2 °C 17,2 °C 83 % 1014,2 hPa 0,0 mm 0,0 km/h (0 Bft) W-NW 293 ° 0 min 0,000 mm 0,0 UV-I 0 W/m² 14,3 °C 17,2 °C 0,0 km/h (0 Bft)
24.06.2017 03:44 17,2 °C 17,2 °C 83 % 1014,2 hPa 0,0 mm 0,0 km/h (0 Bft) W-NW 293 ° 0 min 0,000 mm 0,0 UV-I 0 W/m² 14,3 °C 17,2 °C 0,0 km/h (0 Bft)
24.06.2017 03:45 17,2 °C 17,2 °C 83 % 1014,2 hPa 0,0 mm 0,0 km/h (0 Bft) W-NW 293 ° 0 min 0,000 mm 0,0 UV-I 0 W/m² 14,3 °C 17,2 °C 0,0 km/h (0 Bft)
24.06.2017 03:46 17,2 °C 17,2 °C 84 % 1014,2 hPa 0,0 mm 0,0 km/h (0 Bft) W-NW 293 ° 0 min 0,000 mm 0,0 UV-I 0 W/m² 14,5 °C 17,2 °C 0,0 km/h (0 Bft)
24.06.2017 03:47 17,2 °C 17,2 °C 83 % 1014,2 hPa 0,0 mm 0,0 km/h (0 Bft) W-NW 293 ° 0 min 0,000 mm 0,0 UV-I 0 W/m² 14,3 °C 17,2 °C 0,0 km/h (0 Bft)
24.06.2017 03:48 17,2 °C 17,2 °C 83 % 1014,2 hPa 0,0 mm 0,0 km/h (0 Bft) W-NW 293 ° 0 min 0,000 mm 0,0 UV-I 0 W/m² 14,3 °C 17,2 °C 0,0 km/h (0 Bft)
24.06.2017 03:49 17,2 °C 17,2 °C 83 % 1014,3 hPa 0,0 mm 0,0 km/h (0 Bft) W-NW 293 ° 0 min 0,000 mm 0,0 UV-I 0 W/m² 14,3 °C 17,2 °C 0,0 km/h (0 Bft)
24.06.2017 03:50 17,1 °C 17,2 °C 84 % 1014,3 hPa 0,0 mm 0,0 km/h (0 Bft) W-NW 293 ° 0 min 0,000 mm 0,0 UV-I 0 W/m² 14,4 °C 17,1 °C 0,0 km/h (0 Bft)
24.06.2017 03:51 17,1 °C 17,1 °C 84 % 1014,3 hPa 0,0 mm 0,0 km/h (0 Bft) W-NW 293 ° 0 min 0,000 mm 0,0 UV-I 0 W/m² 14,4 °C 17,1 °C 0,0 km/h (0 Bft)
24.06.2017 03:52 17,1 °C 17,1 °C 84 % 1014,3 hPa 0,0 mm 0,0 km/h (0 Bft) W-NW 293 ° 0 min 0,000 mm 0,0 UV-I 0 W/m² 14,4 °C 17,1 °C 0,0 km/h (0 Bft)
24.06.2017 03:53 17,0 °C 17,1 °C 84 % 1014,3 hPa 0,0 mm 0,0 km/h (0 Bft) W-NW 293 ° 0 min 0,000 mm 0,0 UV-I 0 W/m² 14,3 °C 17,0 °C 0,0 km/h (0 Bft)
24.06.2017 03:54 17,0 °C 17,1 °C 84 % 1014,3 hPa 0,0 mm 0,0 km/h (0 Bft) W-NW 293 ° 0 min 0,000 mm 0,0 UV-I 0 W/m² 14,3 °C 17,0 °C 0,0 km/h (0 Bft)
24.06.2017 03:55 17,0 °C 17,1 °C 84 % 1014,3 hPa 0,0 mm 0,0 km/h (0 Bft) W-NW 293 ° 0 min 0,000 mm 0,0 UV-I 0 W/m² 14,3 °C 17,0 °C 0,0 km/h (0 Bft)
24.06.2017 03:56 17,0 °C 17,0 °C 85 % 1014,3 hPa 0,0 mm 0,0 km/h (0 Bft) W-NW 293 ° 0 min 0,000 mm 0,0 UV-I 0 W/m² 14,5 °C 17,0 °C 0,0 km/h (0 Bft)
24.06.2017 03:57 17,0 °C 17,0 °C 85 % 1014,3 hPa 0,0 mm 0,0 km/h (0 Bft) W-NW 293 ° 0 min 0,000 mm 0,0 UV-I 0 W/m² 14,5 °C 17,0 °C 0,0 km/h (0 Bft)
24.06.2017 03:58 17,0 °C 17,1 °C 85 % 1014,3 hPa 0,0 mm 0,0 km/h (0 Bft) W-NW 293 ° 0 min 0,000 mm 0,0 UV-I 0 W/m² 14,5 °C 17,0 °C 0,0 km/h (0 Bft)
24.06.2017 03:59 17,0 °C 17,1 °C 85 % 1014,2 hPa 0,0 mm 0,0 km/h (0 Bft) W-NW 293 ° 0 min 0,000 mm 0,0 UV-I 0 W/m² 14,5 °C 17,0 °C 0,0 km/h (0 Bft)
24.06.2017 04:00 17,0 °C 17,0 °C 85 % 1014,3 hPa 0,0 mm 0,0 km/h (0 Bft) W-NW 293 ° 0 min 0,000 mm 0,0 UV-I 0 W/m² 14,5 °C 17,0 °C 0,0 km/h (0 Bft)
24.06.2017 04:02 17,0 °C 17,0 °C 85 % 1014,2 hPa 0,0 mm 0,0 km/h (0 Bft) W-NW 293 ° 0 min 0,026 mm 0,0 UV-I 0 W/m² 14,5 °C 17,0 °C 0,0 km/h (0 Bft)
24.06.2017 04:03 17,0 °C 17,0 °C 85 % 1014,2 hPa 0,0 mm 0,0 km/h (0 Bft) W-NW 293 ° 0 min 0,000 mm 0,0 UV-I 0 W/m² 14,5 °C 17,0 °C 0,0 km/h (0 Bft)
24.06.2017 04:04 17,1 °C 17,1 °C 85 % 1014,2 hPa 0,0 mm 0,0 km/h (0 Bft) W-NW 293 ° 0 min 0,000 mm 0,0 UV-I 0 W/m² 14,6 °C 17,1 °C 0,0 km/h (0 Bft)
24.06.2017 04:05 17,2 °C 17,2 °C 85 % 1014,3 hPa 0,0 mm 0,0 km/h (0 Bft) W-NW 293 ° 0 min 0,000 mm 0,0 UV-I 0 W/m² 14,7 °C 17,2 °C 0,0 km/h (0 Bft)
24.06.2017 04:06 17,3 °C 17,3 °C 85 % 1014,2 hPa 0,0 mm 0,0 km/h (0 Bft) W-NW 293 ° 0 min 0,000 mm 0,0 UV-I 0 W/m² 14,8 °C 17,3 °C 0,0 km/h (0 Bft)
24.06.2017 04:07 17,4 °C 17,4 °C 84 % 1014,3 hPa 0,0 mm 0,0 km/h (0 Bft) W-NW 293 ° 0 min 0,000 mm 0,0 UV-I 0 W/m² 14,7 °C 17,4 °C 0,0 km/h (0 Bft)
24.06.2017 04:08 17,3 °C 17,4 °C 84 % 1014,3 hPa 0,0 mm 0,0 km/h (0 Bft) W-NW 293 ° 0 min 0,000 mm 0,0 UV-I 0 W/m² 14,6 °C 17,3 °C 0,0 km/h (0 Bft)
24.06.2017 04:09 17,2 °C 17,3 °C 84 % 1014,3 hPa 0,0 mm 0,0 km/h (0 Bft) W-NW 293 ° 0 min 0,000 mm 0,0 UV-I 0 W/m² 14,5 °C 17,2 °C 0,0 km/h (0 Bft)
24.06.2017 04:10 17,2 °C 17,2 °C 84 % 1014,3 hPa 0,0 mm 0,0 km/h (0 Bft) W-NW 293 ° 0 min 0,000 mm 0,0 UV-I 0 W/m² 14,5 °C 17,2 °C 0,0 km/h (0 Bft)
24.06.2017 04:11 17,1 °C 17,2 °C 84 % 1014,3 hPa 0,0 mm 0,3 km/h (0 Bft) W-NW 293 ° 0 min 0,000 mm 0,0 UV-I 0 W/m² 14,4 °C 17,1 °C 1,6 km/h (1 Bft)
24.06.2017 04:12 17,0 °C 17,1 °C 85 % 1014,3 hPa 0,0 mm 0,5 km/h (0 Bft) W-NW 293 ° 0 min 0,000 mm 0,0 UV-I 0 W/m² 14,5 °C 17,0 °C 1,6 km/h (1 Bft)
24.06.2017 04:13 16,9 °C 17,0 °C 85 % 1014,3 hPa 0,0 mm 0,1 km/h (0 Bft) W-NW 293 ° 0 min 0,000 mm 0,0 UV-I 0 W/m² 14,4 °C 16,9 °C 1,6 km/h (1 Bft)
24.06.2017 04:14 16,8 °C 16,9 °C 85 % 1014,2 hPa 0,0 mm 0,0 km/h (0 Bft) W-NW 293 ° 0 min 0,000 mm 0,0 UV-I 0 W/m² 14,3 °C 16,8 °C 0,0 km/h (0 Bft)
24.06.2017 04:15 16,8 °C 16,8 °C 86 % 1014,2 hPa 0,0 mm 0,0 km/h (0 Bft) W-NW 293 ° 0 min 0,000 mm 0,0 UV-I 0 W/m² 14,4 °C 16,8 °C 0,0 km/h (0 Bft)
24.06.2017 04:16 16,8 °C 16,8 °C 86 % 1014,2 hPa 0,0 mm 0,0 km/h (0 Bft) W-NW 293 ° 0 min 0,000 mm 0,0 UV-I 0 W/m² 14,4 °C 16,8 °C 0,0 km/h (0 Bft)
24.06.2017 04:17 16,8 °C 16,8 °C 86 % 1014,2 hPa 0,0 mm 0,0 km/h (0 Bft) W-NW 293 ° 0 min 0,000 mm 0,0 UV-I 0 W/m² 14,4 °C 16,8 °C 0,0 km/h (0 Bft)
24.06.2017 04:18 16,8 °C 16,9 °C 85 % 1014,2 hPa 0,0 mm 0,0 km/h (0 Bft) W-NW 293 ° 0 min 0,000 mm 0,0 UV-I 0 W/m² 14,3 °C 16,8 °C 0,0 km/h (0 Bft)
24.06.2017 04:19 16,9 °C 16,9 °C 85 % 1014,2 hPa 0,0 mm 0,0 km/h (0 Bft) W-NW 293 ° 0 min 0,000 mm 0,0 UV-I 0 W/m² 14,4 °C 16,9 °C 0,0 km/h (0 Bft)
24.06.2017 04:20 16,9 °C 17,0 °C 85 % 1014,3 hPa 0,0 mm 0,0 km/h (0 Bft) W-NW 293 ° 0 min 0,000 mm 0,0 UV-I 0 W/m² 14,4 °C 16,9 °C 0,0 km/h (0 Bft)
24.06.2017 04:21 16,9 °C 16,9 °C 85 % 1014,3 hPa 0,0 mm 0,0 km/h (0 Bft) W-NW 293 ° 0 min 0,000 mm 0,0 UV-I 0 W/m² 14,4 °C 16,9 °C 0,0 km/h (0 Bft)
24.06.2017 04:22 16,9 °C 16,9 °C 85 % 1014,3 hPa 0,0 mm 0,0 km/h (0 Bft) W-NW 293 ° 0 min 0,000 mm 0,0 UV-I 0 W/m² 14,4 °C 16,9 °C 0,0 km/h (0 Bft)
24.06.2017 04:23 16,8 °C 16,9 °C 85 % 1014,3 hPa 0,0 mm 0,0 km/h (0 Bft) W-NW 293 ° 0 min 0,000 mm 0,0 UV-I 0 W/m² 14,3 °C 16,8 °C 0,0 km/h (0 Bft)
24.06.2017 04:24 16,8 °C 16,8 °C 85 % 1014,3 hPa 0,0 mm 0,0 km/h (0 Bft) W-NW 293 ° 0 min 0,000 mm 0,0 UV-I 0 W/m² 14,3 °C 16,8 °C 0,0 km/h (0 Bft)
24.06.2017 04:25 16,8 °C 16,8 °C 85 % 1014,3 hPa 0,0 mm 0,0 km/h (0 Bft) W-NW 293 ° 0 min 0,000 mm 0,0 UV-I 0 W/m² 14,3 °C 16,8 °C 0,0 km/h (0 Bft)
24.06.2017 04:26 16,8 °C 16,8 °C 85 % 1014,2 hPa 0,0 mm 0,0 km/h (0 Bft) W-NW 293 ° 0 min 0,000 mm 0,0 UV-I 0 W/m² 14,3 °C 16,8 °C 0,0 km/h (0 Bft)
24.06.2017 04:27 16,8 °C 16,8 °C 85 % 1014,2 hPa 0,0 mm 0,0 km/h (0 Bft) W-NW 293 ° 0 min 0,000 mm 0,0 UV-I 0 W/m² 14,3 °C 16,8 °C 0,0 km/h (0 Bft)
24.06.2017 04:28 16,9 °C 16,9 °C 85 % 1014,2 hPa 0,0 mm 0,0 km/h (0 Bft) W-NW 293 ° 0 min 0,000 mm 0,0 UV-I 0 W/m² 14,4 °C 16,9 °C 0,0 km/h (0 Bft)
24.06.2017 04:29 16,8 °C 16,9 °C 85 % 1014,3 hPa 0,0 mm 0,0 km/h (0 Bft) W-NW 293 ° 0 min 0,000 mm 0,0 UV-I 0 W/m² 14,3 °C 16,8 °C 0,0 km/h (0 Bft)
24.06.2017 04:30 16,8 °C 16,8 °C 85 % 1014,3 hPa 0,0 mm 0,0 km/h (0 Bft) W-NW 293 ° 0 min 0,000 mm 0,0 UV-I 0 W/m² 14,3 °C 16,8 °C 0,0 km/h (0 Bft)
24.06.2017 04:31 16,8 °C 16,8 °C 85 % 1014,3 hPa 0,0 mm 0,0 km/h (0 Bft) W-NW 293 ° 0 min 0,000 mm 0,0 UV-I 0 W/m² 14,3 °C 16,8 °C 0,0 km/h (0 Bft)
24.06.2017 04:32 16,7 °C 16,8 °C 85 % 1014,3 hPa 0,0 mm 0,0 km/h (0 Bft) W-NW 293 ° 0 min 0,000 mm 0,0 UV-I 0 W/m² 14,2 °C 16,7 °C 0,0 km/h (0 Bft)
24.06.2017 04:33 16,7 °C 16,7 °C 85 % 1014,3 hPa 0,0 mm 0,0 km/h (0 Bft) W-NW 293 ° 0 min 0,000 mm 0,0 UV-I 0 W/m² 14,2 °C 16,7 °C 0,0 km/h (0 Bft)
24.06.2017 04:34 16,7 °C 16,7 °C 85 % 1014,3 hPa 0,0 mm 0,0 km/h (0 Bft) W-NW 293 ° 0 min 0,000 mm 0,0 UV-I 0 W/m² 14,2 °C 16,7 °C 0,0 km/h (0 Bft)
24.06.2017 04:35 16,7 °C 16,7 °C 86 % 1014,2 hPa 0,0 mm 0,0 km/h (0 Bft) W-NW 293 ° 0 min 0,000 mm 0,0 UV-I 0 W/m² 14,3 °C 16,7 °C 0,0 km/h (0 Bft)
24.06.2017 04:36 16,6 °C 16,7 °C 85 % 1014,2 hPa 0,0 mm 0,0 km/h (0 Bft) W-NW 293 ° 0 min 0,000 mm 0,0 UV-I 0 W/m² 14,1 °C 16,6 °C 0,0 km/h (0 Bft)
24.06.2017 04:37 16,6 °C 16,6 °C 85 % 1014,2 hPa 0,0 mm 0,0 km/h (0 Bft) W-NW 293 ° 0 min 0,000 mm 0,0 UV-I 0 W/m² 14,1 °C 16,6 °C 0,0 km/h (0 Bft)
24.06.2017 04:38 16,6 °C 16,6 °C 85 % 1014,2 hPa 0,0 mm 0,0 km/h (0 Bft) W-NW 293 ° 0 min 0,000 mm 0,0 UV-I 0 W/m² 14,1 °C 16,6 °C 0,0 km/h (0 Bft)
24.06.2017 04:39 16,4 °C 16,6 °C 86 % 1014,2 hPa 0,0 mm 0,0 km/h (0 Bft) W-NW 293 ° 0 min 0,000 mm 0,0 UV-I 0 W/m² 14,1 °C 16,4 °C 0,0 km/h (0 Bft)
24.06.2017 04:40 16,4 °C 16,4 °C 86 % 1014,2 hPa 0,0 mm 0,0 km/h (0 Bft) W-NW 293 ° 0 min 0,000 mm 0,0 UV-I 0 W/m² 14,1 °C 16,4 °C 0,0 km/h (0 Bft)
24.06.2017 04:41 16,3 °C 16,4 °C 86 % 1014,2 hPa 0,0 mm 0,0 km/h (0 Bft) W-NW 293 ° 0 min 0,000 mm 0,0 UV-I 0 W/m² 14,0 °C 16,3 °C 0,0 km/h (0 Bft)
24.06.2017 04:42 16,3 °C 16,3 °C 86 % 1014,2 hPa 0,0 mm 0,0 km/h (0 Bft) W-NW 293 ° 0 min 0,000 mm 0,0 UV-I 0 W/m² 14,0 °C 16,3 °C 0,0 km/h (0 Bft)
24.06.2017 04:43 16,3 °C 16,3 °C 86 % 1014,2 hPa 0,0 mm 0,0 km/h (0 Bft) W-NW 293 ° 0 min 0,000 mm 0,0 UV-I 0 W/m² 14,0 °C 16,3 °C 0,0 km/h (0 Bft)
24.06.2017 04:44 16,3 °C 16,3 °C 87 % 1014,2 hPa 0,0 mm 0,0 km/h (0 Bft) W-NW 293 ° 0 min 0,000 mm 0,0 UV-I 0 W/m² 14,1 °C 16,3 °C 0,0 km/h (0 Bft)
24.06.2017 04:45 16,3 °C 16,3 °C 86 % 1014,2 hPa 0,0 mm 0,0 km/h (0 Bft) W-NW 293 ° 0 min 0,000 mm 0,0 UV-I 0 W/m² 14,0 °C 16,3 °C 0,0 km/h (0 Bft)
24.06.2017 04:46 16,3 °C 16,3 °C 86 % 1014,2 hPa 0,0 mm 0,0 km/h (0 Bft) W-NW 293 ° 0 min 0,000 mm 0,0 UV-I 0 W/m² 14,0 °C 16,3 °C 0,0 km/h (0 Bft)
24.06.2017 04:47 16,3 °C 16,4 °C 86 % 1014,2 hPa 0,0 mm 0,0 km/h (0 Bft) W-NW 293 ° 0 min 0,000 mm 0,0 UV-I 0 W/m² 14,0 °C 16,3 °C 0,0 km/h (0 Bft)
24.06.2017 04:48 16,4 °C 16,4 °C 86 % 1014,2 hPa 0,0 mm 0,0 km/h (0 Bft) W-NW 293 ° 0 min 0,000 mm 0,0 UV-I 0 W/m² 14,1 °C 16,4 °C 0,0 km/h (0 Bft)
24.06.2017 04:49 16,3 °C 16,4 °C 86 % 1014,2 hPa 0,0 mm 0,0 km/h (0 Bft) W-NW 293 ° 0 min 0,000 mm 0,0 UV-I 0 W/m² 14,0 °C 16,3 °C 0,0 km/h (0 Bft)
24.06.2017 04:50 16,3 °C 16,3 °C 86 % 1014,2 hPa 0,0 mm 0,0 km/h (0 Bft) W-NW 293 ° 0 min 0,000 mm 0,0 UV-I 0 W/m² 14,0 °C 16,3 °C 0,0 km/h (0 Bft)
24.06.2017 04:51 16,3 °C 16,3 °C 86 % 1014,2 hPa 0,0 mm 0,0 km/h (0 Bft) W-NW 293 ° 0 min 0,000 mm 0,0 UV-I 0 W/m² 14,0 °C 16,3 °C 0,0 km/h (0 Bft)
24.06.2017 04:52 16,3 °C 16,3 °C 86 % 1014,3 hPa 0,0 mm 0,0 km/h (0 Bft) W-NW 293 ° 0 min 0,000 mm 0,0 UV-I 0 W/m² 14,0 °C 16,3 °C 0,0 km/h (0 Bft)
24.06.2017 04:53 16,3 °C 16,3 °C 86 % 1014,2 hPa 0,0 mm 0,0 km/h (0 Bft) W-NW 293 ° 0 min 0,000 mm 0,0 UV-I 0 W/m² 14,0 °C 16,3 °C 0,0 km/h (0 Bft)
24.06.2017 04:54 16,3 °C 16,3 °C 86 % 1014,2 hPa 0,0 mm 0,0 km/h (0 Bft) W-NW 293 ° 0 min 0,000 mm 0,0 UV-I 0 W/m² 14,0 °C 16,3 °C 0,0 km/h (0 Bft)
24.06.2017 04:55 16,2 °C 16,3 °C 86 % 1014,2 hPa 0,0 mm 0,0 km/h (0 Bft) W-NW 293 ° 0 min 0,000 mm 0,0 UV-I 0 W/m² 13,9 °C 16,2 °C 0,0 km/h (0 Bft)
24.06.2017 04:56 16,2 °C 16,2 °C 86 % 1014,2 hPa 0,0 mm 0,0 km/h (0 Bft) W-NW 293 ° 0 min 0,000 mm 0,0 UV-I 0 W/m² 13,9 °C 16,2 °C 0,0 km/h (0 Bft)
24.06.2017 04:57 16,2 °C 16,2 °C 86 % 1014,2 hPa 0,0 mm 0,0 km/h (0 Bft) W-NW 293 ° 0 min 0,000 mm 0,0 UV-I 0 W/m² 13,9 °C 16,2 °C 0,0 km/h (0 Bft)
24.06.2017 04:58 16,1 °C 16,2 °C 86 % 1014,2 hPa 0,0 mm 0,5 km/h (0 Bft) W-NW 293 ° 0 min 0,000 mm 0,0 UV-I 0 W/m² 13,8 °C 16,1 °C 1,6 km/h (1 Bft)
24.06.2017 04:59 16,1 °C 16,1 °C 86 % 1014,2 hPa 0,0 mm 0,0 km/h (0 Bft) W-NW 293 ° 0 min 0,000 mm 0,0 UV-I 0 W/m² 13,8 °C 16,1 °C 0,0 km/h (0 Bft)
24.06.2017 05:00 16,1 °C 16,1 °C 86 % 1014,2 hPa 0,0 mm 0,0 km/h (0 Bft) W-NW 293 ° 0 min 0,000 mm 0,0 UV-I 0 W/m² 13,8 °C 16,1 °C 0,0 km/h (0 Bft)
24.06.2017 05:01 16,0 °C 16,1 °C 86 % 1014,2 hPa 0,0 mm 0,0 km/h (0 Bft) W-NW 293 ° 0 min 0,000 mm 0,0 UV-I 0 W/m² 13,7 °C 16,0 °C 0,0 km/h (0 Bft)
24.06.2017 05:02 16,0 °C 16,1 °C 87 % 1014,2 hPa 0,0 mm 0,0 km/h (0 Bft) W-NW 293 ° 0 min 0,000 mm 0,0 UV-I 0 W/m² 13,8 °C 16,0 °C 0,0 km/h (0 Bft)
24.06.2017 05:03 16,0 °C 16,0 °C 87 % 1014,2 hPa 0,0 mm 0,0 km/h (0 Bft) W-NW 293 ° 0 min 0,000 mm 0,0 UV-I 0 W/m² 13,8 °C 16,0 °C 0,0 km/h (0 Bft)
24.06.2017 05:04 15,9 °C 16,0 °C 87 % 1014,1 hPa 0,0 mm 0,0 km/h (0 Bft) W-NW 293 ° 0 min 0,000 mm 0,0 UV-I 0 W/m² 13,7 °C 15,9 °C 0,0 km/h (0 Bft)
24.06.2017 05:05 15,8 °C 15,9 °C 87 % 1014,2 hPa 0,0 mm 0,0 km/h (0 Bft) W-NW 293 ° 0 min 0,000 mm 0,0 UV-I 0 W/m² 13,6 °C 15,8 °C 0,0 km/h (0 Bft)
24.06.2017 05:06 15,8 °C 15,8 °C 87 % 1014,2 hPa 0,0 mm 0,0 km/h (0 Bft) W-NW 293 ° 0 min 0,000 mm 0,0 UV-I 0 W/m² 13,6 °C 15,8 °C 0,0 km/h (0 Bft)
24.06.2017 05:07 15,8 °C 15,8 °C 87 % 1014,2 hPa 0,0 mm 0,0 km/h (0 Bft) W-NW 293 ° 0 min 0,000 mm 0,0 UV-I 0 W/m² 13,6 °C 15,8 °C 0,0 km/h (0 Bft)
24.06.2017 05:08 15,8 °C 15,8 °C 88 % 1014,2 hPa 0,0 mm 0,0 km/h (0 Bft) W-NW 293 ° 0 min 0,000 mm 0,0 UV-I 0 W/m² 13,8 °C 15,8 °C 0,0 km/h (0 Bft)
24.06.2017 05:09 15,7 °C 15,8 °C 87 % 1014,2 hPa 0,0 mm 0,0 km/h (0 Bft) W-NW 293 ° 0 min 0,000 mm 0,0 UV-I 0 W/m² 13,5 °C 15,7 °C 0,0 km/h (0 Bft)
24.06.2017 05:10 15,7 °C 15,7 °C 87 % 1014,2 hPa 0,0 mm 0,0 km/h (0 Bft) W-NW 293 ° 0 min 0,000 mm 0,0 UV-I 0 W/m² 13,5 °C 15,7 °C 0,0 km/h (0 Bft)
24.06.2017 05:11 15,7 °C 15,7 °C 87 % 1014,2 hPa 0,0 mm 0,0 km/h (0 Bft) W-NW 293 ° 0 min 0,000 mm 0,0 UV-I 0 W/m² 13,5 °C 15,7 °C 0,0 km/h (0 Bft)
24.06.2017 05:12 15,7 °C 15,7 °C 86 % 1014,3 hPa 0,0 mm 0,0 km/h (0 Bft) W-NW 293 ° 0 min 0,000 mm 0,0 UV-I 0 W/m² 13,4 °C 15,7 °C 0,0 km/h (0 Bft)
24.06.2017 05:13 15,8 °C 15,8 °C 86 % 1014,3 hPa 0,0 mm 0,0 km/h (0 Bft) W-NW 293 ° 0 min 0,000 mm 0,0 UV-I 0 W/m² 13,5 °C 15,8 °C 0,0 km/h (0 Bft)
24.06.2017 05:14 15,8 °C 15,8 °C 86 % 1014,3 hPa 0,0 mm 0,0 km/h (0 Bft) W-NW 293 ° 0 min 0,000 mm 0,0 UV-I 0 W/m² 13,5 °C 15,8 °C 0,0 km/h (0 Bft)
24.06.2017 05:15 15,9 °C 15,9 °C 86 % 1014,3 hPa 0,0 mm 0,0 km/h (0 Bft) W-NW 293 ° 0 min 0,000 mm 0,0 UV-I 0 W/m² 13,6 °C 15,9 °C 0,0 km/h (0 Bft)
24.06.2017 05:16 15,9 °C 15,9 °C 86 % 1014,3 hPa 0,0 mm 0,0 km/h (0 Bft) W-NW 293 ° 0 min 0,000 mm 0,0 UV-I 0 W/m² 13,6 °C 15,9 °C 0,0 km/h (0 Bft)
24.06.2017 05:17 15,9 °C 15,9 °C 85 % 1014,2 hPa 0,0 mm 0,0 km/h (0 Bft) W-NW 293 ° 0 min 0,000 mm 0,0 UV-I 0 W/m² 13,4 °C 15,9 °C 0,0 km/h (0 Bft)
24.06.2017 05:18 15,9 °C 15,9 °C 86 % 1014,2 hPa 0,0 mm 0,0 km/h (0 Bft) W-NW 293 ° 0 min 0,000 mm 0,0 UV-I 0 W/m² 13,6 °C 15,9 °C 0,0 km/h (0 Bft)
24.06.2017 05:19 15,8 °C 15,9 °C 86 % 1014,2 hPa 0,0 mm 0,0 km/h (0 Bft) W-NW 293 ° 0 min 0,000 mm 0,0 UV-I 0 W/m² 13,5 °C 15,8 °C 0,0 km/h (0 Bft)
24.06.2017 05:20 15,8 °C 15,8 °C 86 % 1014,2 hPa 0,0 mm 0,0 km/h (0 Bft) W-NW 293 ° 0 min 0,000 mm 0,0 UV-I 0 W/m² 13,5 °C 15,8 °C 0,0 km/h (0 Bft)
24.06.2017 05:21 15,7 °C 15,8 °C 86 % 1014,2 hPa 0,0 mm 0,0 km/h (0 Bft) W-NW 293 ° 0 min 0,000 mm 0,0 UV-I 0 W/m² 13,4 °C 15,7 °C 0,0 km/h (0 Bft)
24.06.2017 05:22 15,7 °C 15,7 °C 86 % 1014,1 hPa 0,0 mm 0,0 km/h (0 Bft) W-NW 293 ° 0 min 0,000 mm 0,0 UV-I 0 W/m² 13,4 °C 15,7 °C 0,0 km/h (0 Bft)
24.06.2017 05:23 15,6 °C 15,7 °C 86 % 1014,1 hPa 0,0 mm 0,0 km/h (0 Bft) W-NW 293 ° 0 min 0,000 mm 0,0 UV-I 0 W/m² 13,3 °C 15,6 °C 0,0 km/h (0 Bft)
24.06.2017 05:24 15,6 °C 15,7 °C 86 % 1014,1 hPa 0,0 mm 0,0 km/h (0 Bft) W-NW 293 ° 0 min 0,000 mm 0,0 UV-I 0 W/m² 13,3 °C 15,6 °C 0,0 km/h (0 Bft)
24.06.2017 05:25 15,6 °C 15,6 °C 87 % 1014,1 hPa 0,0 mm 0,0 km/h (0 Bft) W-NW 293 ° 0 min 0,000 mm 0,0 UV-I 5 W/m² 13,4 °C 15,6 °C 0,0 km/h (0 Bft)
24.06.2017 05:26 15,6 °C 15,6 °C 87 % 1014,1 hPa 0,0 mm 0,0 km/h (0 Bft) W-NW 293 ° 0 min 0,000 mm 0,0 UV-I 5 W/m² 13,4 °C 15,6 °C 0,0 km/h (0 Bft)
24.06.2017 05:27 15,5 °C 15,6 °C 87 % 1014,1 hPa 0,0 mm 0,0 km/h (0 Bft) W-NW 293 ° 0 min 0,000 mm 0,0 UV-I 5 W/m² 13,3 °C 15,5 °C 0,0 km/h (0 Bft)
24.06.2017 05:28 15,5 °C 15,5 °C 86 % 1014,1 hPa 0,0 mm 0,0 km/h (0 Bft) W-NW 293 ° 0 min 0,000 mm 0,0 UV-I 5 W/m² 13,2 °C 15,5 °C 0,0 km/h (0 Bft)
24.06.2017 05:29 15,4 °C 15,5 °C 86 % 1014,1 hPa 0,0 mm 0,0 km/h (0 Bft) W-NW 293 ° 0 min 0,000 mm 0,0 UV-I 5 W/m² 13,1 °C 15,4 °C 0,0 km/h (0 Bft)
24.06.2017 05:30 15,4 °C 15,4 °C 87 % 1014,1 hPa 0,0 mm 0,0 km/h (0 Bft) W-NW 293 ° 0 min 0,000 mm 0,0 UV-I 7 W/m² 13,2 °C 15,4 °C 0,0 km/h (0 Bft)
24.06.2017 05:31 15,4 °C 15,4 °C 87 % 1014,1 hPa 0,0 mm 0,0 km/h (0 Bft) W-NW 293 ° 0 min 0,000 mm 0,0 UV-I 7 W/m² 13,2 °C 15,4 °C 0,0 km/h (0 Bft)
24.06.2017 05:32 15,3 °C 15,4 °C 87 % 1014,1 hPa 0,0 mm 0,0 km/h (0 Bft) W-NW 293 ° 0 min 0,000 mm 0,0 UV-I 7 W/m² 13,1 °C 15,3 °C 0,0 km/h (0 Bft)
24.06.2017 05:33 15,3 °C 15,3 °C 87 % 1014,1 hPa 0,0 mm 0,0 km/h (0 Bft) W-NW 293 ° 0 min 0,000 mm 0,0 UV-I 9 W/m² 13,1 °C 15,3 °C 0,0 km/h (0 Bft)
24.06.2017 05:34 15,3 °C 15,3 °C 87 % 1014,1 hPa 0,0 mm 0,0 km/h (0 Bft) W-NW 293 ° 0 min 0,000 mm 0,0 UV-I 9 W/m² 13,1 °C 15,3 °C 0,0 km/h (0 Bft)
24.06.2017 05:35 15,3 °C 15,3 °C 87 % 1014,1 hPa 0,0 mm 0,0 km/h (0 Bft) W-NW 293 ° 0 min 0,000 mm 0,0 UV-I 9 W/m² 13,1 °C 15,3 °C 0,0 km/h (0 Bft)
24.06.2017 05:36 15,3 °C 15,3 °C 87 % 1014,1 hPa 0,0 mm 0,0 km/h (0 Bft) W-NW 293 ° 0 min 0,000 mm 0,0 UV-I 11 W/m² 13,1 °C 15,3 °C 0,0 km/h (0 Bft)
24.06.2017 05:37 15,3 °C 15,3 °C 87 % 1014,1 hPa 0,0 mm 0,0 km/h (0 Bft) W-NW 293 ° 0 min 0,000 mm 0,0 UV-I 11 W/m² 13,1 °C 15,3 °C 0,0 km/h (0 Bft)
24.06.2017 05:38 15,4 °C 15,4 °C 87 % 1014,1 hPa 0,0 mm 0,0 km/h (0 Bft) W-NW 293 ° 0 min 0,000 mm 0,0 UV-I 12 W/m² 13,2 °C 15,4 °C 0,0 km/h (0 Bft)
24.06.2017 05:39 15,4 °C 15,4 °C 86 % 1014,1 hPa 0,0 mm 0,0 km/h (0 Bft) W-NW 293 ° 0 min 0,000 mm 0,0 UV-I 12 W/m² 13,1 °C 15,4 °C 0,0 km/h (0 Bft)
24.06.2017 05:40 15,4 °C 15,4 °C 86 % 1014,1 hPa 0,0 mm 0,0 km/h (0 Bft) W-NW 293 ° 0 min 0,000 mm 0,0 UV-I 12 W/m² 13,1 °C 15,4 °C 0,0 km/h (0 Bft)
24.06.2017 05:41 15,6 °C 15,6 °C 86 % 1014,1 hPa 0,0 mm 0,0 km/h (0 Bft) W-NW 293 ° 0 min 0,000 mm 0,0 UV-I 12 W/m² 13,3 °C 15,6 °C 0,0 km/h (0 Bft)
24.06.2017 05:42 15,6 °C 15,6 °C 85 % 1014,1 hPa 0,0 mm 0,0 km/h (0 Bft) W-NW 293 ° 0 min 0,000 mm 0,0 UV-I 14 W/m² 13,1 °C 15,6 °C 0,0 km/h (0 Bft)
24.06.2017 05:43 15,6 °C 15,6 °C 86 % 1014,1 hPa 0,0 mm 0,0 km/h (0 Bft) W-NW 293 ° 0 min 0,000 mm 0,0 UV-I 14 W/m² 13,3 °C 15,6 °C 0,0 km/h (0 Bft)
24.06.2017 05:44 15,6 °C 15,6 °C 86 % 1014,0 hPa 0,0 mm 0,0 km/h (0 Bft) W-NW 293 ° 0 min 0,000 mm 0,0 UV-I 14 W/m² 13,3 °C 15,6 °C 0,0 km/h (0 Bft)
24.06.2017 05:45 15,6 °C 15,6 °C 86 % 1014,1 hPa 0,0 mm 0,0 km/h (0 Bft) W-NW 293 ° 0 min 0,000 mm 0,0 UV-I 14 W/m² 13,3 °C 15,6 °C 0,0 km/h (0 Bft)
24.06.2017 05:46 15,5 °C 15,6 °C 86 % 1014,2 hPa 0,0 mm 0,0 km/h (0 Bft) W-NW 293 ° 0 min 0,000 mm 0,0 UV-I 14 W/m² 13,2 °C 15,5 °C 0,0 km/h (0 Bft)
24.06.2017 05:47 15,5 °C 15,6 °C 86 % 1014,2 hPa 0,0 mm 0,0 km/h (0 Bft) W-NW 293 ° 0 min 0,000 mm 0,0 UV-I 16 W/m² 13,2 °C 15,5 °C 0,0 km/h (0 Bft)
24.06.2017 05:48 15,5 °C 15,5 °C 86 % 1014,1 hPa 0,0 mm 0,0 km/h (0 Bft) W-NW 293 ° 0 min 0,000 mm 0,0 UV-I 16 W/m² 13,2 °C 15,5 °C 0,0 km/h (0 Bft)
24.06.2017 05:49 15,4 °C 15,5 °C 87 % 1014,1 hPa 0,0 mm 0,0 km/h (0 Bft) W-NW 293 ° 0 min 0,000 mm 0,0 UV-I 18 W/m² 13,2 °C 15,4 °C 0,0 km/h (0 Bft)
24.06.2017 05:50 15,4 °C 15,4 °C 87 % 1014,1 hPa 0,0 mm 0,0 km/h (0 Bft) W-NW 293 ° 0 min 0,000 mm 0,0 UV-I 18 W/m² 13,2 °C 15,4 °C 0,0 km/h (0 Bft)
24.06.2017 05:51 15,3 °C 15,4 °C 87 % 1014,1 hPa 0,0 mm 0,0 km/h (0 Bft) W-NW 293 ° 0 min 0,000 mm 0,0 UV-I 18 W/m² 13,1 °C 15,3 °C 0,0 km/h (0 Bft)
24.06.2017 05:52 15,3 °C 15,3 °C 87 % 1014,2 hPa 0,0 mm 0,0 km/h (0 Bft) W-NW 293 ° 0 min 0,000 mm 0,0 UV-I 19 W/m² 13,1 °C 15,3 °C 0,0 km/h (0 Bft)
24.06.2017 05:53 15,2 °C 15,3 °C 87 % 1014,2 hPa 0,0 mm 0,0 km/h (0 Bft) W-NW 293 ° 0 min 0,000 mm 0,0 UV-I 21 W/m² 13,0 °C 15,2 °C 0,0 km/h (0 Bft)
24.06.2017 05:54 15,2 °C 15,2 °C 87 % 1014,2 hPa 0,0 mm 0,0 km/h (0 Bft) W-NW 293 ° 0 min 0,000 mm 0,0 UV-I 21 W/m² 13,0 °C 15,2 °C 0,0 km/h (0 Bft)
24.06.2017 05:55 15,2 °C 15,2 °C 87 % 1014,3 hPa 0,0 mm 0,0 km/h (0 Bft) W-NW 293 ° 0 min 0,000 mm 0,0 UV-I 23 W/m² 13,0 °C 15,2 °C 0,0 km/h (0 Bft)
24.06.2017 05:56 15,2 °C 15,2 °C 87 % 1014,3 hPa 0,0 mm 0,0 km/h (0 Bft) W-NW 293 ° 0 min 0,000 mm 0,0 UV-I 25 W/m² 13,0 °C 15,2 °C 0,0 km/h (0 Bft)
24.06.2017 05:57 15,3 °C 15,3 °C 87 % 1014,3 hPa 0,0 mm 0,0 km/h (0 Bft) W-NW 293 ° 0 min 0,000 mm 0,0 UV-I 26 W/m² 13,1 °C 15,3 °C 0,0 km/h (0 Bft)
24.06.2017 05:58 15,3 °C 15,3 °C 87 % 1014,3 hPa 0,0 mm 0,0 km/h (0 Bft) W-NW 293 ° 0 min 0,000 mm 0,0 UV-I 25 W/m² 13,1 °C 15,3 °C 0,0 km/h (0 Bft)
24.06.2017 05:59 15,3 °C 15,3 °C 87 % 1014,3 hPa 0,0 mm 0,0 km/h (0 Bft) W-NW 293 ° 0 min 0,000 mm 0,0 UV-I 25 W/m² 13,1 °C 15,3 °C 0,0 km/h (0 Bft)
24.06.2017 06:00 15,3 °C 15,3 °C 87 % 1014,3 hPa 0,0 mm 0,0 km/h (0 Bft) W-NW 293 ° 0 min 0,000 mm 0,0 UV-I 25 W/m² 13,1 °C 15,3 °C 0,0 km/h (0 Bft)
24.06.2017 06:01 15,3 °C 15,3 °C 87 % 1014,4 hPa 0,0 mm 0,0 km/h (0 Bft) W-NW 293 ° 0 min 0,000 mm 0,0 UV-I 25 W/m² 13,1 °C 15,3 °C 0,0 km/h (0 Bft)
24.06.2017 06:02 15,3 °C 15,3 °C 87 % 1014,3 hPa 0,0 mm 0,0 km/h (0 Bft) W-NW 293 ° 0 min 0,000 mm 0,0 UV-I 25 W/m² 13,1 °C 15,3 °C 0,0 km/h (0 Bft)
24.06.2017 06:03 15,4 °C 15,4 °C 87 % 1014,3 hPa 0,0 mm 0,0 km/h (0 Bft) W-NW 293 ° 0 min 0,000 mm 0,0 UV-I 23 W/m² 13,2 °C 15,4 °C 0,0 km/h (0 Bft)
24.06.2017 06:04 15,4 °C 15,4 °C 87 % 1014,3 hPa 0,0 mm 0,0 km/h (0 Bft) W-NW 293 ° 0 min 0,000 mm 0,0 UV-I 23 W/m² 13,2 °C 15,4 °C 0,0 km/h (0 Bft)
24.06.2017 06:05 15,4 °C 15,4 °C 87 % 1014,3 hPa 0,0 mm 0,0 km/h (0 Bft) W-NW 293 ° 0 min 0,000 mm 0,0 UV-I 21 W/m² 13,2 °C 15,4 °C 0,0 km/h (0 Bft)
24.06.2017 06:06 15,4 °C 15,4 °C 87 % 1014,2 hPa 0,0 mm 0,0 km/h (0 Bft) W-NW 293 ° 0 min 0,000 mm 0,0 UV-I 21 W/m² 13,2 °C 15,4 °C 0,0 km/h (0 Bft)
24.06.2017 06:07 15,4 °C 15,5 °C 87 % 1014,2 hPa 0,0 mm 0,0 km/h (0 Bft) W-NW 293 ° 0 min 0,000 mm 0,0 UV-I 23 W/m² 13,2 °C 15,4 °C 0,0 km/h (0 Bft)
24.06.2017 06:08 15,4 °C 15,4 °C 87 % 1014,1 hPa 0,0 mm 0,0 km/h (0 Bft) W-NW 293 ° 0 min 0,000 mm 0,0 UV-I 25 W/m² 13,2 °C 15,4 °C 0,0 km/h (0 Bft)
24.06.2017 06:09 15,5 °C 15,5 °C 87 % 1014,1 hPa 0,0 mm 0,0 km/h (0 Bft) W-NW 293 ° 0 min 0,000 mm 0,0 UV-I 28 W/m² 13,3 °C 15,5 °C 0,0 km/h (0 Bft)
24.06.2017 06:10 15,4 °C 15,5 °C 87 % 1014,1 hPa 0,0 mm 0,0 km/h (0 Bft) W-NW 293 ° 0 min 0,000 mm 0,0 UV-I 30 W/m² 13,2 °C 15,4 °C 0,0 km/h (0 Bft)
24.06.2017 06:11 15,4 °C 15,4 °C 87 % 1014,1 hPa 0,0 mm 0,0 km/h (0 Bft) W-NW 293 ° 0 min 0,000 mm 0,0 UV-I 32 W/m² 13,2 °C 15,4 °C 0,0 km/h (0 Bft)
24.06.2017 06:12 15,4 °C 15,4 °C 87 % 1014,1 hPa 0,0 mm 0,0 km/h (0 Bft) W-NW 293 ° 0 min 0,000 mm 0,0 UV-I 33 W/m² 13,2 °C 15,4 °C 0,0 km/h (0 Bft)
24.06.2017 06:13 15,4 °C 15,4 °C 87 % 1014,2 hPa 0,0 mm 0,0 km/h (0 Bft) W-NW 293 ° 0 min 0,000 mm 0,0 UV-I 33 W/m² 13,2 °C 15,4 °C 0,0 km/h (0 Bft)
24.06.2017 06:14 15,5 °C 15,5 °C 87 % 1014,1 hPa 0,0 mm 0,0 km/h (0 Bft) W-NW 293 ° 0 min 0,000 mm 0,0 UV-I 42 W/m² 13,3 °C 15,5 °C 0,0 km/h (0 Bft)
24.06.2017 06:15 15,6 °C 15,6 °C 87 % 1014,2 hPa 0,0 mm 0,0 km/h (0 Bft) W-NW 293 ° 0 min 0,000 mm 0,0 UV-I 47 W/m² 13,4 °C 15,6 °C 0,0 km/h (0 Bft)
24.06.2017 06:16 15,6 °C 15,6 °C 87 % 1014,3 hPa 0,0 mm 0,0 km/h (0 Bft) W-NW 293 ° 0 min 0,000 mm 0,0 UV-I 49 W/m² 13,4 °C 15,6 °C 0,0 km/h (0 Bft)
24.06.2017 06:17 15,6 °C 15,6 °C 87 % 1014,3 hPa 0,0 mm 0,0 km/h (0 Bft) W-NW 293 ° 0 min 0,000 mm 0,0 UV-I 49 W/m² 13,4 °C 15,6 °C 0,0 km/h (0 Bft)
24.06.2017 06:18 15,6 °C 15,6 °C 87 % 1014,3 hPa 0,0 mm 0,0 km/h (0 Bft) W-NW 293 ° 0 min 0,000 mm 0,0 UV-I 49 W/m² 13,4 °C 15,6 °C 0,0 km/h (0 Bft)
24.06.2017 06:19 15,5 °C 15,6 °C 87 % 1014,4 hPa 0,0 mm 0,0 km/h (0 Bft) W-NW 293 ° 0 min 0,000 mm 0,0 UV-I 51 W/m² 13,3 °C 15,5 °C 0,0 km/h (0 Bft)
24.06.2017 06:20 15,5 °C 15,6 °C 87 % 1014,3 hPa 0,0 mm 0,0 km/h (0 Bft) W-NW 293 ° 0 min 0,000 mm 0,0 UV-I 53 W/m² 13,3 °C 15,5 °C 0,0 km/h (0 Bft)
24.06.2017 06:21 15,5 °C 15,6 °C 88 % 1014,4 hPa 0,0 mm 0,0 km/h (0 Bft) W-NW 293 ° 0 min 0,000 mm 0,0 UV-I 54 W/m² 13,5 °C 15,5 °C 0,0 km/h (0 Bft)
24.06.2017 06:22 15,5 °C 15,5 °C 87 % 1014,5 hPa 0,0 mm 0,0 km/h (0 Bft) W-NW 293 ° 0 min 0,000 mm 0,0 UV-I 53 W/m² 13,3 °C 15,5 °C 0,0 km/h (0 Bft)
24.06.2017 06:23 15,4 °C 15,5 °C 87 % 1014,5 hPa 0,0 mm 0,0 km/h (0 Bft) W-NW 293 ° 0 min 0,000 mm 0,0 UV-I 49 W/m² 13,2 °C 15,4 °C 0,0 km/h (0 Bft)
24.06.2017 06:24 15,4 °C 15,4 °C 87 % 1014,5 hPa 0,0 mm 0,0 km/h (0 Bft) W-NW 293 ° 0 min 0,000 mm 0,0 UV-I 53 W/m² 13,2 °C 15,4 °C 0,0 km/h (0 Bft)
24.06.2017 06:25 15,4 °C 15,4 °C 87 % 1014,5 hPa 0,0 mm 0,0 km/h (0 Bft) W-NW 293 ° 0 min 0,000 mm 0,0 UV-I 53 W/m² 13,2 °C 15,4 °C 0,0 km/h (0 Bft)
24.06.2017 06:26 15,5 °C 15,5 °C 88 % 1014,5 hPa 0,0 mm 0,0 km/h (0 Bft) W-NW 293 ° 0 min 0,000 mm 0,0 UV-I 58 W/m² 13,5 °C 15,5 °C 0,0 km/h (0 Bft)
24.06.2017 06:27 15,6 °C 15,6 °C 88 % 1014,5 hPa 0,0 mm 0,0 km/h (0 Bft) W-NW 293 ° 0 min 0,000 mm 0,0 UV-I 65 W/m² 13,6 °C 15,6 °C 0,0 km/h (0 Bft)
24.06.2017 06:28 15,7 °C 15,7 °C 88 % 1014,5 hPa 0,0 mm 0,0 km/h (0 Bft) W-NW 293 ° 0 min 0,000 mm 0,0 UV-I 62 W/m² 13,7 °C 15,7 °C 0,0 km/h (0 Bft)
24.06.2017 06:29 15,7 °C 15,8 °C 88 % 1014,5 hPa 0,0 mm 0,0 km/h (0 Bft) W-NW 293 ° 0 min 0,000 mm 0,0 UV-I 56 W/m² 13,7 °C 15,7 °C 0,0 km/h (0 Bft)
24.06.2017 06:30 15,7 °C 15,8 °C 87 % 1014,5 hPa 0,0 mm 0,0 km/h (0 Bft) W-NW 293 ° 0 min 0,000 mm 0,0 UV-I 46 W/m² 13,5 °C 15,7 °C 0,0 km/h (0 Bft)
24.06.2017 06:31 15,7 °C 15,7 °C 87 % 1014,5 hPa 0,0 mm 0,0 km/h (0 Bft) W-NW 293 ° 0 min 0,000 mm 0,0 UV-I 37 W/m² 13,5 °C 15,7 °C 0,0 km/h (0 Bft)
24.06.2017 06:32 15,8 °C 15,8 °C 87 % 1014,5 hPa 0,0 mm 0,0 km/h (0 Bft) W-NW 293 ° 0 min 0,000 mm 0,0 UV-I 32 W/m² 13,6 °C 15,8 °C 0,0 km/h (0 Bft)
24.06.2017 06:33 15,8 °C 15,8 °C 87 % 1014,4 hPa 0,0 mm 0,0 km/h (0 Bft) W-NW 293 ° 0 min 0,000 mm 0,0 UV-I 32 W/m² 13,6 °C 15,8 °C 0,0 km/h (0 Bft)
24.06.2017 06:34 15,8 °C 15,8 °C 87 % 1014,5 hPa 0,0 mm 0,0 km/h (0 Bft) W-NW 293 ° 0 min 0,000 mm 0,0 UV-I 37 W/m² 13,6 °C 15,8 °C 0,0 km/h (0 Bft)
24.06.2017 06:35 15,8 °C 15,8 °C 87 % 1014,4 hPa 0,0 mm 0,0 km/h (0 Bft) W-NW 293 ° 0 min 0,000 mm 0,0 UV-I 49 W/m² 13,6 °C 15,8 °C 0,0 km/h (0 Bft)
24.06.2017 06:36 15,9 °C 15,9 °C 87 % 1014,5 hPa 0,0 mm 0,0 km/h (0 Bft) W-NW 293 ° 0 min 0,000 mm 0,0 UV-I 62 W/m² 13,7 °C 15,9 °C 0,0 km/h (0 Bft)
24.06.2017 06:37 15,9 °C 15,9 °C 87 % 1014,4 hPa 0,0 mm 0,0 km/h (0 Bft) W-NW 293 ° 0 min 0,000 mm 0,0 UV-I 65 W/m² 13,7 °C 15,9 °C 0,0 km/h (0 Bft)
24.06.2017 06:38 16,0 °C 16,0 °C 86 % 1014,4 hPa 0,0 mm 0,0 km/h (0 Bft) W-NW 293 ° 0 min 0,000 mm 0,0 UV-I 63 W/m² 13,7 °C 16,0 °C 0,0 km/h (0 Bft)
24.06.2017 06:39 16,0 °C 16,1 °C 86 % 1014,4 hPa 0,0 mm 0,0 km/h (0 Bft) W-NW 293 ° 0 min 0,000 mm 0,0 UV-I 54 W/m² 13,7 °C 16,0 °C 0,0 km/h (0 Bft)
24.06.2017 06:40 16,1 °C 16,1 °C 86 % 1014,4 hPa 0,0 mm 0,0 km/h (0 Bft) W-NW 293 ° 0 min 0,000 mm 0,0 UV-I 46 W/m² 13,8 °C 16,1 °C 0,0 km/h (0 Bft)
24.06.2017 06:41 16,1 °C 16,1 °C 87 % 1014,4 hPa 0,0 mm 0,0 km/h (0 Bft) W-NW 293 ° 0 min 0,000 mm 0,0 UV-I 54 W/m² 13,9 °C 16,1 °C 0,0 km/h (0 Bft)
24.06.2017 06:42 16,1 °C 16,2 °C 87 % 1014,4 hPa 0,0 mm 0,0 km/h (0 Bft) W-NW 293 ° 0 min 0,000 mm 0,0 UV-I 63 W/m² 13,9 °C 16,1 °C 0,0 km/h (0 Bft)
24.06.2017 06:43 16,2 °C 16,2 °C 87 % 1014,4 hPa 0,0 mm 0,0 km/h (0 Bft) W-NW 293 ° 0 min 0,000 mm 0,0 UV-I 49 W/m² 14,0 °C 16,2 °C 0,0 km/h (0 Bft)
24.06.2017 06:44 16,2 °C 16,2 °C 87 % 1014,5 hPa 0,0 mm 0,0 km/h (0 Bft) W-NW 293 ° 0 min 0,000 mm 0,0 UV-I 67 W/m² 14,0 °C 16,2 °C 0,0 km/h (0 Bft)
24.06.2017 06:45 16,2 °C 16,2 °C 87 % 1014,4 hPa 0,0 mm 0,0 km/h (0 Bft) W-NW 293 ° 0 min 0,000 mm 0,0 UV-I 79 W/m² 14,0 °C 16,2 °C 0,0 km/h (0 Bft)
24.06.2017 06:46 16,3 °C 16,3 °C 87 % 1014,5 hPa 0,0 mm 0,0 km/h (0 Bft) W-NW 293 ° 0 min 0,000 mm 0,0 UV-I 81 W/m² 14,1 °C 16,3 °C 0,0 km/h (0 Bft)
24.06.2017 06:47 16,3 °C 16,3 °C 87 % 1014,5 hPa 0,0 mm 0,0 km/h (0 Bft) W-NW 293 ° 0 min 0,000 mm 0,0 UV-I 86 W/m² 14,1 °C 16,3 °C 0,0 km/h (0 Bft)
24.06.2017 06:48 16,3 °C 16,3 °C 87 % 1014,5 hPa 0,0 mm 0,0 km/h (0 Bft) W-NW 293 ° 0 min 0,000 mm 0,0 UV-I 90 W/m² 14,1 °C 16,3 °C 0,0 km/h (0 Bft)
24.06.2017 06:49 16,3 °C 16,3 °C 88 % 1014,5 hPa 0,0 mm 0,0 km/h (0 Bft) W-NW 293 ° 0 min 0,000 mm 0,0 UV-I 91 W/m² 14,3 °C 16,3 °C 0,0 km/h (0 Bft)
24.06.2017 06:50 16,3 °C 16,3 °C 88 % 1014,6 hPa 0,0 mm 0,0 km/h (0 Bft) W-NW 293 ° 0 min 0,000 mm 0,0 UV-I 90 W/m² 14,3 °C 16,3 °C 0,0 km/h (0 Bft)
24.06.2017 06:51 16,4 °C 16,4 °C 87 % 1014,6 hPa 0,0 mm 0,0 km/h (0 Bft) W-NW 293 ° 0 min 0,000 mm 0,0 UV-I 93 W/m² 14,2 °C 16,4 °C 0,0 km/h (0 Bft)
24.06.2017 06:52 16,5 °C 16,5 °C 87 % 1014,6 hPa 0,0 mm 0,0 km/h (0 Bft) W-NW 293 ° 0 min 0,000 mm 0,0 UV-I 95 W/m² 14,3 °C 16,5 °C 0,0 km/h (0 Bft)
24.06.2017 06:53 16,6 °C 16,6 °C 86 % 1014,7 hPa 0,0 mm 0,0 km/h (0 Bft) W-NW 293 ° 0 min 0,000 mm 0,0 UV-I 83 W/m² 14,2 °C 16,6 °C 0,0 km/h (0 Bft)
24.06.2017 06:54 16,6 °C 16,6 °C 87 % 1014,7 hPa 0,0 mm 0,0 km/h (0 Bft) W-NW 293 ° 0 min 0,000 mm 0,0 UV-I 63 W/m² 14,4 °C 16,6 °C 0,0 km/h (0 Bft)
24.06.2017 06:55 16,7 °C 16,7 °C 87 % 1014,7 hPa 0,0 mm 0,0 km/h (0 Bft) W-NW 293 ° 0 min 0,000 mm 0,0 UV-I 49 W/m² 14,5 °C 16,7 °C 0,0 km/h (0 Bft)
24.06.2017 06:56 16,7 °C 16,7 °C 87 % 1014,6 hPa 0,0 mm 0,0 km/h (0 Bft) W-NW 293 ° 0 min 0,000 mm 0,0 UV-I 47 W/m² 14,5 °C 16,7 °C 0,0 km/h (0 Bft)
24.06.2017 06:57 16,7 °C 16,7 °C 86 % 1014,6 hPa 0,0 mm 0,0 km/h (0 Bft) W-NW 293 ° 0 min 0,000 mm 0,0 UV-I 51 W/m² 14,3 °C 16,7 °C 0,0 km/h (0 Bft)
24.06.2017 06:58 16,8 °C 16,8 °C 86 % 1014,7 hPa 0,0 mm 0,0 km/h (0 Bft) W-NW 293 ° 0 min 0,000 mm 0,0 UV-I 51 W/m² 14,4 °C 16,8 °C 0,0 km/h (0 Bft)
24.06.2017 06:59 16,8 °C 16,8 °C 86 % 1014,6 hPa 0,0 mm 0,0 km/h (0 Bft) W-NW 293 ° 0 min 0,000 mm 0,0 UV-I 53 W/m² 14,4 °C 16,8 °C 0,0 km/h (0 Bft)
24.06.2017 07:00 16,8 °C 16,8 °C 86 % 1014,6 hPa 0,0 mm 0,0 km/h (0 Bft) W-NW 293 ° 0 min 0,025 mm 0,0 UV-I 56 W/m² 14,4 °C 16,8 °C 0,0 km/h (0 Bft)
24.06.2017 07:01 16,9 °C 16,9 °C 86 % 1014,6 hPa 0,0 mm 0,0 km/h (0 Bft) W-NW 293 ° 0 min 0,000 mm 0,0 UV-I 65 W/m² 14,5 °C 16,9 °C 0,0 km/h (0 Bft)
24.06.2017 07:02 16,9 °C 16,9 °C 86 % 1014,6 hPa 0,0 mm 0,0 km/h (0 Bft) W-NW 293 ° 0 min 0,000 mm 0,0 UV-I 81 W/m² 14,5 °C 16,9 °C 0,0 km/h (0 Bft)
24.06.2017 07:03 16,8 °C 16,9 °C 86 % 1014,6 hPa 0,0 mm 0,0 km/h (0 Bft) W-NW 293 ° 0 min 0,000 mm 0,0 UV-I 93 W/m² 14,4 °C 16,8 °C 0,0 km/h (0 Bft)
24.06.2017 07:04 16,9 °C 16,9 °C 86 % 1014,6 hPa 0,0 mm 0,0 km/h (0 Bft) W-NW 293 ° 0 min 0,000 mm 0,0 UV-I 109 W/m² 14,5 °C 16,9 °C 0,0 km/h (0 Bft)
24.06.2017 07:05 16,9 °C 16,9 °C 87 % 1014,5 hPa 0,0 mm 0,0 km/h (0 Bft) W-NW 293 ° 0 min 0,000 mm 0,5 UV-I 123 W/m² 14,7 °C 16,9 °C 0,0 km/h (0 Bft)
24.06.2017 07:06 16,9 °C 17,0 °C 86 % 1014,6 hPa 0,0 mm 0,0 km/h (0 Bft) W-NW 293 ° 0 min 0,000 mm 0,0 UV-I 127 W/m² 14,5 °C 16,9 °C 0,0 km/h (0 Bft)
24.06.2017 07:07 16,9 °C 17,0 °C 86 % 1014,6 hPa 0,0 mm 0,3 km/h (0 Bft) W-NW 293 ° 0 min 0,000 mm 0,0 UV-I 120 W/m² 14,5 °C 16,9 °C 1,6 km/h (1 Bft)
24.06.2017 07:08 17,0 °C 17,0 °C 87 % 1014,7 hPa 0,0 mm 3,6 km/h (1 Bft) W-NW 293 ° 0 min 0,000 mm 0,0 UV-I 69 W/m² 14,8 °C 17,0 °C 4,8 km/h (1 Bft)
24.06.2017 07:09 17,1 °C 17,1 °C 88 % 1014,7 hPa 0,0 mm 3,3 km/h (1 Bft) W 281 ° 0 min 0,000 mm 0,0 UV-I 42 W/m² 15,1 °C 17,1 °C 4,8 km/h (1 Bft)
24.06.2017 07:10 17,1 °C 17,1 °C 88 % 1014,7 hPa 0,0 mm 1,8 km/h (1 Bft) W 271 ° 0 min 0,000 mm 0,0 UV-I 49 W/m² 15,1 °C 17,1 °C 3,2 km/h (1 Bft)
24.06.2017 07:11 17,1 °C 17,2 °C 86 % 1014,6 hPa 0,0 mm 3,0 km/h (1 Bft) S-SW 207 ° 0 min 0,000 mm 0,5 UV-I 58 W/m² 14,7 °C 17,1 °C 3,2 km/h (1 Bft)
24.06.2017 07:12 17,2 °C 17,2 °C 85 % 1014,4 hPa 0,0 mm 1,1 km/h (1 Bft) S-SW 207 ° 0 min 0,000 mm 0,6 UV-I 70 W/m² 14,7 °C 17,2 °C 1,6 km/h (1 Bft)
24.06.2017 07:13 17,2 °C 17,2 °C 84 % 1014,4 hPa 0,0 mm 0,0 km/h (0 Bft) S-SW 207 ° 0 min 0,000 mm 0,6 UV-I 86 W/m² 14,5 °C 17,2 °C 0,0 km/h (0 Bft)
24.06.2017 07:14 17,2 °C 17,2 °C 84 % 1014,5 hPa 0,0 mm 0,0 km/h (0 Bft) S-SW 207 ° 0 min 0,000 mm 0,6 UV-I 116 W/m² 14,5 °C 17,2 °C 0,0 km/h (0 Bft)
24.06.2017 07:15 17,2 °C 17,2 °C 85 % 1014,6 hPa 0,0 mm 0,1 km/h (0 Bft) S-SW 207 ° 0 min 0,000 mm 0,6 UV-I 127 W/m² 14,7 °C 17,2 °C 1,6 km/h (1 Bft)
24.06.2017 07:16 17,2 °C 17,3 °C 84 % 1014,6 hPa 0,0 mm 1,3 km/h (1 Bft) S-SW 207 ° 0 min 0,000 mm 0,5 UV-I 123 W/m² 14,5 °C 17,2 °C 3,2 km/h (1 Bft)
24.06.2017 07:17 17,3 °C 17,3 °C 85 % 1014,6 hPa 0,0 mm 0,0 km/h (0 Bft) S-SW 207 ° 0 min 0,000 mm 0,0 UV-I 113 W/m² 14,8 °C 17,3 °C 0,0 km/h (0 Bft)
24.06.2017 07:18 17,4 °C 17,4 °C 86 % 1014,7 hPa 0,0 mm 0,0 km/h (0 Bft) S-SW 207 ° 0 min 0,000 mm 0,0 UV-I 83 W/m² 15,0 °C 17,4 °C 0,0 km/h (0 Bft)
24.06.2017 07:19 17,4 °C 17,4 °C 84 % 1014,6 hPa 0,0 mm 0,0 km/h (0 Bft) S-SW 207 ° 0 min 0,000 mm 0,0 UV-I 58 W/m² 14,7 °C 17,4 °C 0,0 km/h (0 Bft)
24.06.2017 07:20 17,5 °C 17,5 °C 84 % 1014,6 hPa 0,0 mm 0,0 km/h (0 Bft) S-SW 208 ° 0 min 0,000 mm 0,0 UV-I 40 W/m² 14,8 °C 17,5 °C 0,0 km/h (0 Bft)
24.06.2017 07:21 17,5 °C 17,6 °C 84 % 1014,5 hPa 0,0 mm 0,0 km/h (0 Bft) S-SW 207 ° 0 min 0,000 mm 0,0 UV-I 46 W/m² 14,8 °C 17,5 °C 0,0 km/h (0 Bft)
24.06.2017 07:22 17,6 °C 17,6 °C 84 % 1014,5 hPa 0,0 mm 0,0 km/h (0 Bft) S-SW 207 ° 0 min 0,000 mm 0,0 UV-I 54 W/m² 14,9 °C 17,6 °C 0,0 km/h (0 Bft)
24.06.2017 07:23 17,6 °C 17,6 °C 85 % 1014,6 hPa 0,0 mm 0,0 km/h (0 Bft) S-SW 208 ° 0 min 0,000 mm 0,6 UV-I 76 W/m² 15,0 °C 17,6 °C 0,0 km/h (0 Bft)
24.06.2017 07:24 17,6 °C 17,6 °C 85 % 1014,6 hPa 0,0 mm 0,1 km/h (0 Bft) S-SW 208 ° 0 min 0,000 mm 0,5 UV-I 83 W/m² 15,0 °C 17,6 °C 1,6 km/h (1 Bft)
24.06.2017 07:25 17,6 °C 17,6 °C 86 % 1014,6 hPa 0,0 mm 0,0 km/h (0 Bft) S-SW 208 ° 0 min 0,000 mm 0,0 UV-I 77 W/m² 15,2 °C 17,6 °C 0,0 km/h (0 Bft)
24.06.2017 07:26 17,6 °C 17,6 °C 86 % 1014,6 hPa 0,0 mm 0,0 km/h (0 Bft) S-SW 208 ° 0 min 0,000 mm 0,0 UV-I 77 W/m² 15,2 °C 17,6 °C 0,0 km/h (0 Bft)
24.06.2017 07:27 17,6 °C 17,7 °C 85 % 1014,6 hPa 0,0 mm 0,0 km/h (0 Bft) S-SW 208 ° 0 min 0,000 mm 0,0 UV-I 67 W/m² 15,0 °C 17,6 °C 0,0 km/h (0 Bft)
24.06.2017 07:28 17,6 °C 17,7 °C 85 % 1014,7 hPa 0,0 mm 0,0 km/h (0 Bft) S-SW 208 ° 0 min 0,000 mm 0,0 UV-I 58 W/m² 15,0 °C 17,6 °C 0,0 km/h (0 Bft)
24.06.2017 07:29 17,6 °C 17,6 °C 84 % 1014,7 hPa 0,0 mm 0,0 km/h (0 Bft) S-SW 208 ° 0 min 0,000 mm 0,0 UV-I 67 W/m² 14,9 °C 17,6 °C 0,0 km/h (0 Bft)
24.06.2017 07:30 17,6 °C 17,6 °C 84 % 1014,7 hPa 0,0 mm 0,0 km/h (0 Bft) S-SW 208 ° 0 min 0,000 mm 0,5 UV-I 83 W/m² 14,9 °C 17,6 °C 0,0 km/h (0 Bft)
24.06.2017 07:31 17,6 °C 17,6 °C 84 % 1014,6 hPa 0,0 mm 0,0 km/h (0 Bft) S-SW 208 ° 0 min 0,000 mm 0,5 UV-I 100 W/m² 14,9 °C 17,6 °C 0,0 km/h (0 Bft)
24.06.2017 07:32 17,6 °C 17,6 °C 84 % 1014,6 hPa 0,0 mm 0,0 km/h (0 Bft) S-SW 208 ° 0 min 0,000 mm 0,5 UV-I 97 W/m² 14,9 °C 17,6 °C 0,0 km/h (0 Bft)
24.06.2017 07:33 17,6 °C 17,6 °C 84 % 1014,7 hPa 0,0 mm 0,0 km/h (0 Bft) S-SW 208 ° 0 min 0,000 mm 0,0 UV-I 70 W/m² 14,9 °C 17,6 °C 0,0 km/h (0 Bft)
24.06.2017 07:34 17,7 °C 17,7 °C 85 % 1014,8 hPa 0,0 mm 0,0 km/h (0 Bft) S-SW 208 ° 0 min 0,000 mm 0,0 UV-I 58 W/m² 15,1 °C 17,7 °C 0,0 km/h (0 Bft)
24.06.2017 07:35 17,7 °C 17,7 °C 85 % 1014,8 hPa 0,0 mm 0,0 km/h (0 Bft) S-SW 208 ° 0 min 0,000 mm 0,0 UV-I 51 W/m² 15,1 °C 17,7 °C 0,0 km/h (0 Bft)
24.06.2017 07:36 17,7 °C 17,7 °C 85 % 1014,8 hPa 0,0 mm 0,0 km/h (0 Bft) S-SW 208 ° 0 min 0,000 mm 0,0 UV-I 49 W/m² 15,1 °C 17,7 °C 0,0 km/h (0 Bft)
24.06.2017 07:37 17,7 °C 17,7 °C 85 % 1014,8 hPa 0,0 mm 0,0 km/h (0 Bft) S-SW 208 ° 0 min 0,000 mm 0,0 UV-I 40 W/m² 15,1 °C 17,7 °C 0,0 km/h (0 Bft)
24.06.2017 07:38 17,7 °C 17,7 °C 85 % 1014,9 hPa 0,0 mm 0,0 km/h (0 Bft) S-SW 208 ° 0 min 0,000 mm 0,0 UV-I 35 W/m² 15,1 °C 17,7 °C 0,0 km/h (0 Bft)
24.06.2017 07:39 17,8 °C 17,8 °C 85 % 1014,9 hPa 0,0 mm 0,0 km/h (0 Bft) S-SW 208 ° 0 min 0,000 mm 0,0 UV-I 28 W/m² 15,2 °C 17,8 °C 0,0 km/h (0 Bft)
24.06.2017 07:40 17,7 °C 17,8 °C 86 % 1014,9 hPa 0,0 mm 0,0 km/h (0 Bft) S-SW 208 ° 0 min 0,000 mm 0,0 UV-I 25 W/m² 15,3 °C 17,7 °C 0,0 km/h (0 Bft)
24.06.2017 07:41 17,8 °C 17,8 °C 85 % 1014,9 hPa 0,0 mm 0,0 km/h (0 Bft) S-SW 208 ° 0 min 0,000 mm 0,0 UV-I 26 W/m² 15,2 °C 17,8 °C 0,0 km/h (0 Bft)
24.06.2017 07:42 17,7 °C 17,8 °C 85 % 1014,9 hPa 0,0 mm 0,0 km/h (0 Bft) S-SW 208 ° 0 min 0,000 mm 0,0 UV-I 30 W/m² 15,1 °C 17,7 °C 0,0 km/h (0 Bft)
24.06.2017 07:43 17,8 °C 17,8 °C 85 % 1014,8 hPa 0,0 mm 0,9 km/h (0 Bft) S-SW 207 ° 0 min 0,000 mm 0,0 UV-I 46 W/m² 15,2 °C 17,8 °C 4,8 km/h (1 Bft)
24.06.2017 07:44 17,7 °C 17,8 °C 86 % 1014,7 hPa 0,0 mm 1,9 km/h (1 Bft) S-SW 207 ° 0 min 0,000 mm 0,0 UV-I 47 W/m² 15,3 °C 17,7 °C 3,2 km/h (1 Bft)
24.06.2017 07:45 17,7 °C 17,8 °C 86 % 1014,8 hPa 0,0 mm 0,1 km/h (0 Bft) S-SW 207 ° 0 min 0,000 mm 0,0 UV-I 51 W/m² 15,3 °C 17,7 °C 1,6 km/h (1 Bft)
24.06.2017 07:46 17,7 °C 17,7 °C 86 % 1014,8 hPa 0,0 mm 0,0 km/h (0 Bft) S-SW 207 ° 0 min 0,000 mm 0,0 UV-I 53 W/m² 15,3 °C 17,7 °C 0,0 km/h (0 Bft)
24.06.2017 07:47 17,8 °C 17,8 °C 85 % 1014,8 hPa 0,0 mm 0,0 km/h (0 Bft) S-SW 207 ° 0 min 0,000 mm 0,0 UV-I 53 W/m² 15,2 °C 17,8 °C 0,0 km/h (0 Bft)
24.06.2017 07:48 17,8 °C 17,8 °C 84 % 1014,8 hPa 0,0 mm 0,0 km/h (0 Bft) S-SW 207 ° 0 min 0,000 mm 0,0 UV-I 60 W/m² 15,1 °C 17,8 °C 0,0 km/h (0 Bft)
24.06.2017 07:49 17,8 °C 17,8 °C 83 % 1014,8 hPa 0,0 mm 0,0 km/h (0 Bft) S-SW 207 ° 0 min 0,000 mm 0,5 UV-I 83 W/m² 14,9 °C 17,8 °C 0,0 km/h (0 Bft)
24.06.2017 07:50 17,9 °C 17,9 °C 81 % 1014,8 hPa 0,0 mm 0,0 km/h (0 Bft) S-SW 207 ° 0 min 0,000 mm 0,5 UV-I 90 W/m² 14,6 °C 17,9 °C 0,0 km/h (0 Bft)
24.06.2017 07:51 17,9 °C 17,9 °C 80 % 1014,8 hPa 0,0 mm 0,0 km/h (0 Bft) S-SW 207 ° 0 min 0,000 mm 0,5 UV-I 90 W/m² 14,4 °C 17,9 °C 0,0 km/h (0 Bft)
24.06.2017 07:52 18,0 °C 18,0 °C 80 % 1014,8 hPa 0,0 mm 0,0 km/h (0 Bft) S-SW 207 ° 0 min 0,000 mm 0,5 UV-I 91 W/m² 14,5 °C 18,0 °C 0,0 km/h (0 Bft)
24.06.2017 07:53 18,1 °C 18,1 °C 77 % 1014,8 hPa 0,0 mm 0,0 km/h (0 Bft) S-SW 207 ° 0 min 0,000 mm 0,5 UV-I 81 W/m² 14,0 °C 18,1 °C 0,0 km/h (0 Bft)
24.06.2017 07:54 18,2 °C 18,2 °C 78 % 1014,8 hPa 0,0 mm 0,0 km/h (0 Bft) S-SW 207 ° 0 min 0,000 mm 0,0 UV-I 69 W/m² 14,3 °C 18,2 °C 0,0 km/h (0 Bft)
24.06.2017 07:55 18,2 °C 18,2 °C 77 % 1014,8 hPa 0,0 mm 0,0 km/h (0 Bft) S-SW 207 ° 0 min 0,000 mm 0,0 UV-I 69 W/m² 14,1 °C 18,2 °C 0,0 km/h (0 Bft)
24.06.2017 07:56 18,3 °C 18,3 °C 79 % 1014,8 hPa 0,0 mm 0,0 km/h (0 Bft) S-SW 207 ° 0 min 0,000 mm 0,6 UV-I 83 W/m² 14,6 °C 18,3 °C 0,0 km/h (0 Bft)
24.06.2017 07:57 18,3 °C 18,3 °C 80 % 1014,7 hPa 0,0 mm 0,8 km/h (0 Bft) S-SW 207 ° 0 min 0,000 mm 0,7 UV-I 105 W/m² 14,8 °C 18,3 °C 1,6 km/h (1 Bft)
24.06.2017 07:58 18,2 °C 18,3 °C 81 % 1014,7 hPa 0,0 mm 1,5 km/h (1 Bft) S-SW 207 ° 0 min 0,000 mm 0,7 UV-I 121 W/m² 14,9 °C 18,2 °C 3,2 km/h (1 Bft)
24.06.2017 07:59 18,2 °C 18,2 °C 79 % 1014,7 hPa 0,0 mm 0,0 km/h (0 Bft) S-SW 207 ° 0 min 0,000 mm 0,7 UV-I 123 W/m² 14,5 °C 18,2 °C 0,0 km/h (0 Bft)
24.06.2017 08:00 18,2 °C 18,2 °C 79 % 1014,8 hPa 0,0 mm 0,6 km/h (0 Bft) S-SW 207 ° 0 min 0,051 mm 0,7 UV-I 118 W/m² 14,5 °C 18,2 °C 1,6 km/h (1 Bft)
24.06.2017 08:01 18,3 °C 18,3 °C 78 % 1014,8 hPa 0,0 mm 0,0 km/h (0 Bft) S-SW 207 ° 0 min 0,000 mm 0,7 UV-I 121 W/m² 14,4 °C 18,3 °C 0,0 km/h (0 Bft)
24.06.2017 08:02 18,3 °C 18,3 °C 78 % 1014,8 hPa 0,0 mm 0,0 km/h (0 Bft) S-SW 207 ° 0 min 0,000 mm 0,6 UV-I 102 W/m² 14,4 °C 18,3 °C 0,0 km/h (0 Bft)
24.06.2017 08:03 18,4 °C 18,4 °C 76 % 1014,8 hPa 0,0 mm 0,0 km/h (0 Bft) S-SW 207 ° 0 min 0,000 mm 0,6 UV-I 84 W/m² 14,1 °C 18,4 °C 0,0 km/h (0 Bft)
24.06.2017 08:04 18,4 °C 18,4 °C 76 % 1014,8 hPa 0,0 mm 0,0 km/h (0 Bft) S-SW 207 ° 0 min 0,000 mm 0,6 UV-I 79 W/m² 14,1 °C 18,4 °C 0,0 km/h (0 Bft)
24.06.2017 08:05 18,4 °C 18,5 °C 77 % 1014,8 hPa 0,0 mm 0,0 km/h (0 Bft) S-SW 207 ° 0 min 0,000 mm 0,6 UV-I 76 W/m² 14,3 °C 18,4 °C 0,0 km/h (0 Bft)
24.06.2017 08:06 18,5 °C 18,5 °C 76 % 1014,9 hPa 0,0 mm 0,0 km/h (0 Bft) S-SW 207 ° 0 min 0,000 mm 0,6 UV-I 83 W/m² 14,2 °C 18,5 °C 0,0 km/h (0 Bft)
24.06.2017 08:07 18,5 °C 18,5 °C 76 % 1014,8 hPa 0,0 mm 0,0 km/h (0 Bft) S-SW 207 ° 0 min 0,000 mm 0,6 UV-I 104 W/m² 14,2 °C 18,5 °C 0,0 km/h (0 Bft)
24.06.2017 08:08 18,5 °C 18,6 °C 75 % 1014,9 hPa 0,0 mm 0,0 km/h (0 Bft) S-SW 207 ° 0 min 0,000 mm 0,6 UV-I 100 W/m² 14,0 °C 18,5 °C 0,0 km/h (0 Bft)
24.06.2017 08:09 18,6 °C 18,6 °C 75 % 1014,9 hPa 0,0 mm 0,0 km/h (0 Bft) S-SW 207 ° 0 min 0,000 mm 0,6 UV-I 88 W/m² 14,1 °C 18,6 °C 0,0 km/h (0 Bft)
24.06.2017 08:10 18,6 °C 18,6 °C 77 % 1014,9 hPa 0,0 mm 0,0 km/h (0 Bft) S-SW 207 ° 0 min 0,000 mm 0,6 UV-I 86 W/m² 14,5 °C 18,6 °C 0,0 km/h (0 Bft)
24.06.2017 08:11 18,6 °C 18,7 °C 76 % 1015,0 hPa 0,0 mm 0,6 km/h (0 Bft) S-SW 207 ° 0 min 0,000 mm 0,6 UV-I 90 W/m² 14,3 °C 18,6 °C 3,2 km/h (1 Bft)
24.06.2017 08:12 18,6 °C 18,7 °C 75 % 1015,0 hPa 0,0 mm 1,8 km/h (1 Bft) S-SW 207 ° 0 min 0,000 mm 0,6 UV-I 93 W/m² 14,1 °C 18,6 °C 3,2 km/h (1 Bft)
24.06.2017 08:13 18,7 °C 18,7 °C 74 % 1015,0 hPa 0,0 mm 0,3 km/h (0 Bft) S-SW 207 ° 0 min 0,000 mm 0,6 UV-I 107 W/m² 14,0 °C 18,7 °C 1,6 km/h (1 Bft)
24.06.2017 08:14 18,7 °C 18,7 °C 77 % 1014,9 hPa 0,0 mm 0,0 km/h (0 Bft) S-SW 207 ° 0 min 0,000 mm 0,7 UV-I 109 W/m² 14,6 °C 18,7 °C 0,0 km/h (0 Bft)
24.06.2017 08:15 18,7 °C 18,7 °C 79 % 1014,9 hPa 0,0 mm 0,0 km/h (0 Bft) S-SW 207 ° 0 min 0,000 mm 0,7 UV-I 111 W/m² 15,0 °C 18,7 °C 0,0 km/h (0 Bft)
24.06.2017 08:16 18,7 °C 18,7 °C 76 % 1015,0 hPa 0,0 mm 0,0 km/h (0 Bft) S-SW 207 ° 0 min 0,000 mm 0,7 UV-I 109 W/m² 14,4 °C 18,7 °C 0,0 km/h (0 Bft)
24.06.2017 08:17 18,6 °C 18,7 °C 76 % 1015,0 hPa 0,0 mm 0,0 km/h (0 Bft) S-SW 207 ° 0 min 0,000 mm 0,7 UV-I 104 W/m² 14,3 °C 18,6 °C 0,0 km/h (0 Bft)
24.06.2017 08:18 18,6 °C 18,7 °C 75 % 1015,0 hPa 0,0 mm 0,1 km/h (0 Bft) S-SW 207 ° 0 min 0,000 mm 0,7 UV-I 111 W/m² 14,1 °C 18,6 °C 1,6 km/h (1 Bft)
24.06.2017 08:19 18,7 °C 18,7 °C 76 % 1015,0 hPa 0,0 mm 0,0 km/h (0 Bft) S-SW 207 ° 0 min 0,000 mm 0,7 UV-I 121 W/m² 14,4 °C 18,7 °C 0,0 km/h (0 Bft)
24.06.2017 08:20 18,7 °C 18,7 °C 75 % 1015,0 hPa 0,0 mm 0,0 km/h (0 Bft) S-SW 207 ° 0 min 0,000 mm 0,8 UV-I 132 W/m² 14,2 °C 18,7 °C 0,0 km/h (0 Bft)
24.06.2017 08:21 18,7 °C 18,7 °C 74 % 1014,9 hPa 0,0 mm 0,8 km/h (0 Bft) S-SW 207 ° 0 min 0,000 mm 0,9 UV-I 141 W/m² 14,0 °C 18,7 °C 3,2 km/h (1 Bft)
24.06.2017 08:22 18,7 °C 18,7 °C 77 % 1014,9 hPa 0,0 mm 1,0 km/h (0 Bft) S-SW 207 ° 0 min 0,000 mm 1,0 UV-I 146 W/m² 14,6 °C 18,7 °C 3,2 km/h (1 Bft)
24.06.2017 08:23 18,7 °C 18,7 °C 75 % 1014,9 hPa 0,0 mm 0,0 km/h (0 Bft) S-SW 207 ° 0 min 0,000 mm 0,9 UV-I 142 W/m² 14,2 °C 18,7 °C 0,0 km/h (0 Bft)
24.06.2017 08:24 18,7 °C 18,7 °C 75 % 1014,9 hPa 0,0 mm 0,0 km/h (0 Bft) S-SW 207 ° 0 min 0,000 mm 1,0 UV-I 153 W/m² 14,2 °C 18,7 °C 0,0 km/h (0 Bft)
24.06.2017 08:25 18,7 °C 18,7 °C 75 % 1014,9 hPa 0,0 mm 0,0 km/h (0 Bft) S-SW 207 ° 0 min 0,000 mm 1,0 UV-I 174 W/m² 14,2 °C 18,7 °C 0,0 km/h (0 Bft)
24.06.2017 08:26 18,8 °C 18,8 °C 76 % 1014,9 hPa 0,0 mm 0,0 km/h (0 Bft) S-SW 207 ° 0 min 0,000 mm 1,1 UV-I 179 W/m² 14,5 °C 18,8 °C 0,0 km/h (0 Bft)
24.06.2017 08:27 18,8 °C 18,8 °C 75 % 1014,9 hPa 0,0 mm 0,4 km/h (0 Bft) S-SW 207 ° 0 min 0,000 mm 1,1 UV-I 181 W/m² 14,3 °C 18,8 °C 3,2 km/h (1 Bft)
24.06.2017 08:28 18,8 °C 18,8 °C 76 % 1014,9 hPa 0,0 mm 1,7 km/h (1 Bft) S-SW 207 ° 0 min 0,000 mm 1,2 UV-I 188 W/m² 14,5 °C 18,8 °C 3,2 km/h (1 Bft)
24.06.2017 08:29 18,8 °C 18,8 °C 75 % 1014,9 hPa 0,0 mm 2,1 km/h (1 Bft) SO 140 ° 0 min 0,000 mm 1,2 UV-I 199 W/m² 14,3 °C 18,8 °C 3,2 km/h (1 Bft)
24.06.2017 08:30 18,9 °C 18,9 °C 74 % 1014,9 hPa 0,0 mm 0,6 km/h (0 Bft) SO 140 ° 0 min 0,000 mm 1,3 UV-I 211 W/m² 14,2 °C 18,9 °C 1,6 km/h (1 Bft)
24.06.2017 08:31 18,9 °C 18,9 °C 75 % 1015,0 hPa 0,0 mm 0,0 km/h (0 Bft) SO 140 ° 0 min 0,000 mm 1,3 UV-I 202 W/m² 14,4 °C 18,9 °C 0,0 km/h (0 Bft)
24.06.2017 08:32 19,0 °C 19,0 °C 74 % 1014,9 hPa 0,0 mm 0,0 km/h (0 Bft) SO 140 ° 0 min 0,000 mm 1,3 UV-I 190 W/m² 14,3 °C 19,0 °C 0,0 km/h (0 Bft)
24.06.2017 08:33 19,1 °C 19,1 °C 76 % 1014,9 hPa 0,0 mm 1,5 km/h (1 Bft) SO 140 ° 0 min 0,000 mm 1,3 UV-I 192 W/m² 14,8 °C 19,1 °C 4,8 km/h (1 Bft)
24.06.2017 08:34 19,1 °C 19,1 °C 74 % 1014,9 hPa 0,0 mm 0,2 km/h (0 Bft) SO 140 ° 0 min 0,000 mm 1,2 UV-I 190 W/m² 14,4 °C 19,1 °C 1,6 km/h (1 Bft)
24.06.2017 08:35 19,1 °C 19,1 °C 75 % 1014,9 hPa 0,0 mm 0,1 km/h (0 Bft) SO 140 ° 0 min 0,000 mm 1,1 UV-I 163 W/m² 14,6 °C 19,1 °C 1,6 km/h (1 Bft)
24.06.2017 08:36 19,1 °C 19,1 °C 75 % 1015,0 hPa 0,0 mm 0,3 km/h (0 Bft) SO 140 ° 0 min 0,000 mm 1,0 UV-I 107 W/m² 14,6 °C 19,1 °C 1,6 km/h (1 Bft)
24.06.2017 08:37 19,1 °C 19,1 °C 75 % 1015,0 hPa 0,0 mm 0,0 km/h (0 Bft) SO 140 ° 0 min 0,000 mm 0,9 UV-I 102 W/m² 14,6 °C 19,1 °C 0,0 km/h (0 Bft)
24.06.2017 08:38 19,1 °C 19,1 °C 74 % 1015,0 hPa 0,0 mm 2,4 km/h (1 Bft) O-NO 71 ° 0 min 0,000 mm 0,9 UV-I 100 W/m² 14,4 °C 19,1 °C 4,8 km/h (1 Bft)
24.06.2017 08:39 19,1 °C 19,2 °C 75 % 1014,9 hPa 0,0 mm 3,7 km/h (1 Bft) O-NO 71 ° 0 min 0,000 mm 0,9 UV-I 93 W/m² 14,6 °C 19,1 °C 4,8 km/h (1 Bft)
24.06.2017 08:40 19,1 °C 19,1 °C 73 % 1015,0 hPa 0,0 mm 2,3 km/h (1 Bft) O-NO 71 ° 0 min 0,000 mm 0,9 UV-I 93 W/m² 14,1 °C 19,1 °C 3,2 km/h (1 Bft)
24.06.2017 08:41 19,1 °C 19,1 °C 73 % 1015,0 hPa 0,0 mm 1,6 km/h (1 Bft) O-NO 71 ° 0 min 0,000 mm 0,9 UV-I 104 W/m² 14,1 °C 19,1 °C 3,2 km/h (1 Bft)
24.06.2017 08:42 19,1 °C 19,1 °C 72 % 1015,0 hPa 0,0 mm 1,3 km/h (1 Bft) O-NO 71 ° 0 min 0,000 mm 0,8 UV-I 97 W/m² 13,9 °C 19,1 °C 3,2 km/h (1 Bft)
24.06.2017 08:43 19,2 °C 19,2 °C 73 % 1015,0 hPa 0,0 mm 0,0 km/h (0 Bft) O-NO 71 ° 0 min 0,000 mm 0,8 UV-I 100 W/m² 14,2 °C 19,2 °C 0,0 km/h (0 Bft)
24.06.2017 08:44 19,2 °C 19,2 °C 75 % 1015,0 hPa 0,0 mm 0,0 km/h (0 Bft) O-NO 71 ° 0 min 0,000 mm 0,9 UV-I 109 W/m² 14,7 °C 19,2 °C 0,0 km/h (0 Bft)
24.06.2017 08:45 19,2 °C 19,2 °C 75 % 1015,0 hPa 0,0 mm 2,1 km/h (1 Bft) O-NO 71 ° 0 min 0,000 mm 0,9 UV-I 95 W/m² 14,7 °C 19,2 °C 4,8 km/h (1 Bft)
24.06.2017 08:46 19,2 °C 19,2 °C 76 % 1015,0 hPa 0,0 mm 2,0 km/h (1 Bft) O-NO 71 ° 0 min 0,000 mm 1,0 UV-I 88 W/m² 14,9 °C 19,2 °C 3,2 km/h (1 Bft)
24.06.2017 08:47 19,2 °C 19,2 °C 73 % 1014,9 hPa 0,0 mm 1,1 km/h (1 Bft) O-NO 71 ° 0 min 0,000 mm 1,0 UV-I 114 W/m² 14,2 °C 19,2 °C 1,6 km/h (1 Bft)
24.06.2017 08:48 19,2 °C 19,2 °C 74 % 1014,9 hPa 0,0 mm 0,0 km/h (0 Bft) O-NO 71 ° 0 min 0,000 mm 1,2 UV-I 174 W/m² 14,4 °C 19,2 °C 0,0 km/h (0 Bft)
24.06.2017 08:49 19,1 °C 19,2 °C 74 % 1015,0 hPa 0,0 mm 0,0 km/h (0 Bft) O-NO 71 ° 0 min 0,000 mm 1,1 UV-I 167 W/m² 14,4 °C 19,1 °C 0,0 km/h (0 Bft)
24.06.2017 08:50 19,1 °C 19,1 °C 74 % 1015,0 hPa 0,0 mm 0,1 km/h (0 Bft) O-NO 71 ° 0 min 0,000 mm 1,1 UV-I 156 W/m² 14,4 °C 19,1 °C 1,6 km/h (1 Bft)
24.06.2017 08:51 19,2 °C 19,2 °C 73 % 1015,0 hPa 0,0 mm 0,1 km/h (0 Bft) O-NO 71 ° 0 min 0,000 mm 1,1 UV-I 156 W/m² 14,2 °C 19,2 °C 1,6 km/h (1 Bft)
24.06.2017 08:52 19,2 °C 19,2 °C 72 % 1015,1 hPa 0,0 mm 0,0 km/h (0 Bft) O-NO 71 ° 0 min 0,000 mm 1,1 UV-I 163 W/m² 14,0 °C 19,2 °C 0,0 km/h (0 Bft)
24.06.2017 08:53 19,2 °C 19,2 °C 71 % 1015,0 hPa 0,0 mm 0,0 km/h (0 Bft) O-NO 71 ° 0 min 0,000 mm 1,2 UV-I 176 W/m² 13,8 °C 19,2 °C 0,0 km/h (0 Bft)
24.06.2017 08:54 19,2 °C 19,2 °C 73 % 1015,0 hPa 0,0 mm 0,0 km/h (0 Bft) O-NO 71 ° 0 min 0,000 mm 1,2 UV-I 160 W/m² 14,2 °C 19,2 °C 0,0 km/h (0 Bft)
24.06.2017 08:55 19,2 °C 19,2 °C 73 % 1015,1 hPa 0,0 mm 0,0 km/h (0 Bft) O-NO 71 ° 0 min 0,000 mm 1,2 UV-I 151 W/m² 14,2 °C 19,2 °C 0,0 km/h (0 Bft)
24.06.2017 08:56 19,2 °C 19,2 °C 72 % 1015,0 hPa 0,0 mm 0,0 km/h (0 Bft) O-NO 71 ° 0 min 0,000 mm 1,2 UV-I 153 W/m² 14,0 °C 19,2 °C 0,0 km/h (0 Bft)
24.06.2017 08:57 19,2 °C 19,2 °C 72 % 1015,1 hPa 0,0 mm 0,0 km/h (0 Bft) O-NO 71 ° 0 min 0,000 mm 1,2 UV-I 162 W/m² 14,0 °C 19,2 °C 0,0 km/h (0 Bft)
24.06.2017 08:58 19,2 °C 19,2 °C 72 % 1015,1 hPa 0,0 mm 0,0 km/h (0 Bft) O-NO 71 ° 0 min 0,000 mm 1,2 UV-I 172 W/m² 14,0 °C 19,2 °C 0,0 km/h (0 Bft)
24.06.2017 08:59 19,3 °C 19,3 °C 73 % 1015,0 hPa 0,0 mm 0,0 km/h (0 Bft) O-NO 71 ° 0 min 0,000 mm 1,2 UV-I 165 W/m² 14,3 °C 19,3 °C 0,0 km/h (0 Bft)
24.06.2017 09:00 19,3 °C 19,3 °C 73 % 1015,1 hPa 0,0 mm 0,0 km/h (0 Bft) O-NO 71 ° 0 min 0,076 mm 1,3 UV-I 193 W/m² 14,3 °C 19,3 °C 0,0 km/h (0 Bft)
24.06.2017 09:01 19,3 °C 19,3 °C 73 % 1015,1 hPa 0,0 mm 0,0 km/h (0 Bft) O-NO 71 ° 0 min 0,000 mm 1,4 UV-I 216 W/m² 14,3 °C 19,3 °C 0,0 km/h (0 Bft)
24.06.2017 09:02 19,4 °C 19,4 °C 74 % 1015,1 hPa 0,0 mm 0,0 km/h (0 Bft) O-NO 71 ° 0 min 0,000 mm 1,4 UV-I 223 W/m² 14,6 °C 19,4 °C 0,0 km/h (0 Bft)
24.06.2017 09:03 19,4 °C 19,4 °C 74 % 1015,0 hPa 0,0 mm 0,0 km/h (0 Bft) O-NO 71 ° 0 min 0,000 mm 1,4 UV-I 229 W/m² 14,6 °C 19,4 °C 0,0 km/h (0 Bft)
24.06.2017 09:04 19,5 °C 19,5 °C 73 % 1015,1 hPa 0,0 mm 0,0 km/h (0 Bft) O-NO 71 ° 0 min 0,000 mm 1,4 UV-I 221 W/m² 14,5 °C 19,5 °C 0,0 km/h (0 Bft)
24.06.2017 09:05 19,6 °C 19,6 °C 73 % 1015,1 hPa 0,0 mm 0,0 km/h (0 Bft) O-NO 71 ° 0 min 0,000 mm 1,4 UV-I 186 W/m² 14,6 °C 19,6 °C 0,0 km/h (0 Bft)
24.06.2017 09:06 19,6 °C 19,6 °C 72 % 1015,1 hPa 0,0 mm 0,0 km/h (0 Bft) O-NO 71 ° 0 min 0,000 mm 1,3 UV-I 172 W/m² 14,4 °C 19,6 °C 0,0 km/h (0 Bft)
24.06.2017 09:07 19,6 °C 19,6 °C 72 % 1015,1 hPa 0,0 mm 0,0 km/h (0 Bft) O-NO 71 ° 0 min 0,000 mm 1,3 UV-I 169 W/m² 14,4 °C 19,6 °C 0,0 km/h (0 Bft)
24.06.2017 09:08 19,6 °C 19,6 °C 71 % 1015,1 hPa 0,0 mm 0,0 km/h (0 Bft) O-NO 71 ° 0 min 0,000 mm 1,4 UV-I 172 W/m² 14,2 °C 19,6 °C 0,0 km/h (0 Bft)
24.06.2017 09:09 19,6 °C 19,6 °C 71 % 1015,1 hPa 0,0 mm 1,0 km/h (0 Bft) O-NO 71 ° 0 min 0,000 mm 1,5 UV-I 181 W/m² 14,2 °C 19,6 °C 3,2 km/h (1 Bft)
24.06.2017 09:10 19,6 °C 19,6 °C 71 % 1015,1 hPa 0,0 mm 3,9 km/h (1 Bft) O 80 ° 0 min 0,000 mm 1,6 UV-I 214 W/m² 14,2 °C 19,6 °C 4,8 km/h (1 Bft)
24.06.2017 09:11 19,5 °C 19,6 °C 71 % 1015,1 hPa 0,0 mm 3,8 km/h (1 Bft) O 80 ° 0 min 0,000 mm 1,7 UV-I 236 W/m² 14,1 °C 19,5 °C 4,8 km/h (1 Bft)
24.06.2017 09:12 19,5 °C 19,5 °C 74 % 1015,1 hPa 0,0 mm 2,7 km/h (1 Bft) O 80 ° 0 min 0,000 mm 1,6 UV-I 216 W/m² 14,7 °C 19,5 °C 4,8 km/h (1 Bft)
24.06.2017 09:13 19,6 °C 19,6 °C 74 % 1015,1 hPa 0,0 mm 0,5 km/h (0 Bft) O 80 ° 0 min 0,000 mm 1,6 UV-I 230 W/m² 14,8 °C 19,6 °C 1,6 km/h (1 Bft)
24.06.2017 09:14 19,6 °C 19,6 °C 73 % 1015,1 hPa 0,0 mm 1,6 km/h (1 Bft) N 11 ° 0 min 0,000 mm 1,5 UV-I 227 W/m² 14,6 °C 19,6 °C 3,2 km/h (1 Bft)
24.06.2017 09:15 19,7 °C 19,7 °C 74 % 1015,1 hPa 0,0 mm 1,5 km/h (1 Bft) N 11 ° 0 min 0,000 mm 1,4 UV-I 227 W/m² 14,9 °C 19,7 °C 1,6 km/h (1 Bft)
24.06.2017 09:16 19,7 °C 19,7 °C 73 % 1015,1 hPa 0,0 mm 0,1 km/h (0 Bft) N 11 ° 0 min 0,000 mm 1,4 UV-I 207 W/m² 14,7 °C 19,7 °C 1,6 km/h (1 Bft)
24.06.2017 09:17 19,7 °C 19,7 °C 71 % 1015,1 hPa 0,0 mm 0,6 km/h (0 Bft) N 11 ° 0 min 0,000 mm 1,4 UV-I 179 W/m² 14,3 °C 19,7 °C 1,6 km/h (1 Bft)
24.06.2017 09:18 19,7 °C 19,7 °C 73 % 1015,0 hPa 0,0 mm 1,0 km/h (0 Bft) N 11 ° 0 min 0,000 mm 1,3 UV-I 156 W/m² 14,7 °C 19,7 °C 1,6 km/h (1 Bft)
24.06.2017 09:19 19,7 °C 19,7 °C 73 % 1015,1 hPa 0,0 mm 0,7 km/h (0 Bft) N 11 ° 0 min 0,000 mm 1,2 UV-I 135 W/m² 14,7 °C 19,7 °C 1,6 km/h (1 Bft)
24.06.2017 09:20 19,7 °C 19,7 °C 72 % 1015,0 hPa 0,0 mm 0,5 km/h (0 Bft) N 11 ° 0 min 0,000 mm 1,2 UV-I 118 W/m² 14,5 °C 19,7 °C 3,2 km/h (1 Bft)
24.06.2017 09:21 19,7 °C 19,7 °C 73 % 1015,1 hPa 0,0 mm 0,0 km/h (0 Bft) N 11 ° 0 min 0,000 mm 1,1 UV-I 104 W/m² 14,7 °C 19,7 °C 0,0 km/h (0 Bft)
24.06.2017 09:22 19,7 °C 19,7 °C 73 % 1015,1 hPa 0,0 mm 0,0 km/h (0 Bft) N 11 ° 0 min 0,000 mm 1,1 UV-I 91 W/m² 14,7 °C 19,7 °C 0,0 km/h (0 Bft)
24.06.2017 09:23 19,7 °C 19,7 °C 74 % 1015,1 hPa 0,0 mm 0,0 km/h (0 Bft) N 11 ° 0 min 0,000 mm 1,0 UV-I 76 W/m² 14,9 °C 19,7 °C 0,0 km/h (0 Bft)
24.06.2017 09:24 19,7 °C 19,7 °C 74 % 1015,1 hPa 0,0 mm 0,0 km/h (0 Bft) N 11 ° 0 min 0,000 mm 1,1 UV-I 93 W/m² 14,9 °C 19,7 °C 0,0 km/h (0 Bft)
24.06.2017 09:25 19,6 °C 19,7 °C 74 % 1015,1 hPa 0,0 mm 0,8 km/h (0 Bft) N 11 ° 0 min 0,000 mm 1,3 UV-I 148 W/m² 14,8 °C 19,6 °C 3,2 km/h (1 Bft)
24.06.2017 09:26 19,6 °C 19,6 °C 74 % 1015,1 hPa 0,0 mm 0,1 km/h (0 Bft) N 11 ° 0 min 0,000 mm 1,5 UV-I 183 W/m² 14,8 °C 19,6 °C 1,6 km/h (1 Bft)
24.06.2017 09:27 19,6 °C 19,6 °C 74 % 1015,0 hPa 0,0 mm 1,3 km/h (1 Bft) N 11 ° 0 min 0,000 mm 1,6 UV-I 204 W/m² 14,8 °C 19,6 °C 3,2 km/h (1 Bft)
24.06.2017 09:28 19,6 °C 19,6 °C 72 % 1015,0 hPa 0,0 mm 0,3 km/h (0 Bft) N 11 ° 0 min 0,000 mm 1,6 UV-I 218 W/m² 14,4 °C 19,6 °C 3,2 km/h (1 Bft)
24.06.2017 09:29 19,6 °C 19,6 °C 72 % 1015,0 hPa 0,0 mm 0,7 km/h (0 Bft) N 11 ° 0 min 0,000 mm 1,6 UV-I 232 W/m² 14,4 °C 19,6 °C 3,2 km/h (1 Bft)
24.06.2017 09:30 19,5 °C 19,6 °C 72 % 1015,0 hPa 0,0 mm 0,0 km/h (0 Bft) N 11 ° 0 min 0,000 mm 1,6 UV-I 236 W/m² 14,3 °C 19,5 °C 0,0 km/h (0 Bft)
24.06.2017 09:31 19,5 °C 19,5 °C 72 % 1015,0 hPa 0,0 mm 0,0 km/h (0 Bft) N 11 ° 0 min 0,000 mm 1,6 UV-I 237 W/m² 14,3 °C 19,5 °C 0,0 km/h (0 Bft)
24.06.2017 09:32 19,6 °C 19,6 °C 73 % 1015,0 hPa 0,0 mm 0,0 km/h (0 Bft) N 11 ° 0 min 0,000 mm 1,4 UV-I 214 W/m² 14,6 °C 19,6 °C 0,0 km/h (0 Bft)
24.06.2017 09:33 19,6 °C 19,7 °C 72 % 1015,0 hPa 0,0 mm 0,0 km/h (0 Bft) N 11 ° 0 min 0,000 mm 1,3 UV-I 179 W/m² 14,4 °C 19,6 °C 0,0 km/h (0 Bft)
24.06.2017 09:34 19,7 °C 19,7 °C 72 % 1015,0 hPa 0,0 mm 0,0 km/h (0 Bft) N 11 ° 0 min 0,000 mm 1,3 UV-I 158 W/m² 14,5 °C 19,7 °C 0,0 km/h (0 Bft)
24.06.2017 09:35 19,7 °C 19,7 °C 74 % 1014,9 hPa 0,0 mm 1,7 km/h (1 Bft) N-NW 339 ° 0 min 0,000 mm 1,4 UV-I 190 W/m² 14,9 °C 19,7 °C 4,8 km/h (1 Bft)
24.06.2017 09:36 19,7 °C 19,8 °C 75 % 1014,9 hPa 0,0 mm 2,7 km/h (1 Bft) N-NW 339 ° 0 min 0,000 mm 1,7 UV-I 214 W/m² 15,1 °C 19,7 °C 4,8 km/h (1 Bft)
24.06.2017 09:37 19,8 °C 19,8 °C 73 % 1014,9 hPa 0,0 mm 0,2 km/h (0 Bft) N-NW 339 ° 0 min 0,000 mm 1,9 UV-I 236 W/m² 14,8 °C 19,8 °C 1,6 km/h (1 Bft)
24.06.2017 09:38 19,8 °C 19,8 °C 72 % 1014,9 hPa 0,0 mm 0,5 km/h (0 Bft) N-NW 339 ° 0 min 0,000 mm 1,9 UV-I 253 W/m² 14,6 °C 19,8 °C 1,6 km/h (1 Bft)
24.06.2017 09:39 19,8 °C 19,8 °C 73 % 1014,9 hPa 0,0 mm 2,3 km/h (1 Bft) N-NW 339 ° 0 min 0,000 mm 1,9 UV-I 250 W/m² 14,8 °C 19,8 °C 3,2 km/h (1 Bft)
24.06.2017 09:40 19,8 °C 19,8 °C 75 % 1014,9 hPa 0,0 mm 0,5 km/h (0 Bft) N-NW 339 ° 0 min 0,000 mm 1,9 UV-I 260 W/m² 15,2 °C 19,8 °C 1,6 km/h (1 Bft)
24.06.2017 09:41 19,8 °C 19,8 °C 73 % 1014,9 hPa 0,0 mm 1,3 km/h (1 Bft) N-NW 339 ° 0 min 0,000 mm 2,0 UV-I 267 W/m² 14,8 °C 19,8 °C 3,2 km/h (1 Bft)
24.06.2017 09:42 19,8 °C 19,8 °C 72 % 1015,0 hPa 0,0 mm 3,2 km/h (1 Bft) N-NW 328 ° 0 min 0,000 mm 1,9 UV-I 251 W/m² 14,6 °C 19,8 °C 4,8 km/h (1 Bft)
24.06.2017 09:43 19,9 °C 19,9 °C 73 % 1014,9 hPa 0,0 mm 3,8 km/h (1 Bft) N-NW 327 ° 0 min 0,000 mm 1,8 UV-I 241 W/m² 14,9 °C 19,9 °C 6,4 km/h (2 Bft)
24.06.2017 09:44 19,9 °C 19,9 °C 71 % 1015,0 hPa 0,0 mm 3,2 km/h (1 Bft) N-NW 341 ° 0 min 0,000 mm 1,8 UV-I 239 W/m² 14,5 °C 19,9 °C 4,8 km/h (1 Bft)
24.06.2017 09:45 19,9 °C 19,9 °C 72 % 1015,0 hPa 0,0 mm 2,6 km/h (1 Bft) N-NW 345 ° 0 min 0,000 mm 2,0 UV-I 251 W/m² 14,7 °C 19,9 °C 4,8 km/h (1 Bft)
24.06.2017 09:46 19,9 °C 19,9 °C 71 % 1014,9 hPa 0,0 mm 2,8 km/h (1 Bft) N-NW 345 ° 0 min 0,000 mm 2,2 UV-I 276 W/m² 14,5 °C 19,9 °C 4,8 km/h (1 Bft)
24.06.2017 09:47 19,8 °C 19,9 °C 69 % 1014,9 hPa 0,0 mm 1,1 km/h (1 Bft) N-NW 345 ° 1 min 0,000 mm 2,3 UV-I 320 W/m² 13,9 °C 19,8 °C 1,6 km/h (1 Bft)
24.06.2017 09:48 19,8 °C 19,9 °C 70 % 1015,0 hPa 0,0 mm 0,9 km/h (0 Bft) N-NW 345 ° 1 min 0,000 mm 2,1 UV-I 299 W/m² 14,2 °C 19,8 °C 3,2 km/h (1 Bft)
24.06.2017 09:49 19,9 °C 19,9 °C 70 % 1015,0 hPa 0,0 mm 2,1 km/h (1 Bft) N-NW 345 ° 0 min 0,000 mm 1,8 UV-I 262 W/m² 14,3 °C 19,9 °C 3,2 km/h (1 Bft)
24.06.2017 09:50 19,9 °C 19,9 °C 70 % 1015,0 hPa 0,0 mm 2,1 km/h (1 Bft) N-NW 345 ° 0 min 0,000 mm 1,7 UV-I 234 W/m² 14,3 °C 19,9 °C 3,2 km/h (1 Bft)
24.06.2017 09:51 19,9 °C 19,9 °C 69 % 1014,9 hPa 0,0 mm 0,1 km/h (0 Bft) N-NW 345 ° 0 min 0,000 mm 1,6 UV-I 211 W/m² 14,0 °C 19,9 °C 1,6 km/h (1 Bft)
24.06.2017 09:52 19,8 °C 19,9 °C 70 % 1014,9 hPa 0,0 mm 0,0 km/h (0 Bft) N-NW 345 ° 0 min 0,000 mm 1,5 UV-I 174 W/m² 14,2 °C 19,8 °C 0,0 km/h (0 Bft)
24.06.2017 09:53 19,8 °C 19,8 °C 72 % 1014,9 hPa 0,0 mm 0,0 km/h (0 Bft) N-NW 345 ° 0 min 0,000 mm 1,4 UV-I 153 W/m² 14,6 °C 19,8 °C 0,0 km/h (0 Bft)
24.06.2017 09:54 19,8 °C 19,8 °C 73 % 1014,9 hPa 0,0 mm 1,4 km/h (1 Bft) N-NW 345 ° 0 min 0,000 mm 1,4 UV-I 141 W/m² 14,8 °C 19,8 °C 3,2 km/h (1 Bft)
24.06.2017 09:55 19,8 °C 19,8 °C 73 % 1014,9 hPa 0,0 mm 1,7 km/h (1 Bft) N-NW 344 ° 0 min 0,000 mm 1,5 UV-I 144 W/m² 14,8 °C 19,8 °C 3,2 km/h (1 Bft)
24.06.2017 09:56 19,8 °C 19,8 °C 71 % 1014,9 hPa 0,0 mm 2,2 km/h (1 Bft) NW 309 ° 0 min 0,000 mm 1,6 UV-I 162 W/m² 14,4 °C 19,8 °C 3,2 km/h (1 Bft)
24.06.2017 09:57 19,8 °C 19,8 °C 71 % 1014,9 hPa 0,0 mm 3,9 km/h (1 Bft) NW 304 ° 0 min 0,000 mm 1,7 UV-I 193 W/m² 14,4 °C 19,8 °C 4,8 km/h (1 Bft)
24.06.2017 09:58 19,8 °C 19,8 °C 71 % 1014,9 hPa 0,0 mm 1,4 km/h (1 Bft) NW 304 ° 0 min 0,000 mm 2,0 UV-I 244 W/m² 14,4 °C 19,8 °C 3,2 km/h (1 Bft)
24.06.2017 09:59 19,8 °C 19,8 °C 70 % 1014,8 hPa 0,0 mm 1,1 km/h (1 Bft) N-NW 342 ° 0 min 0,000 mm 2,2 UV-I 221 W/m² 14,2 °C 19,8 °C 3,2 km/h (1 Bft)
24.06.2017 10:00 19,8 °C 19,8 °C 71 % 1014,8 hPa 0,0 mm 2,1 km/h (1 Bft) N-NW 342 ° 0 min 0,000 mm 2,4 UV-I 221 W/m² 14,4 °C 19,8 °C 3,2 km/h (1 Bft)
24.06.2017 10:01 19,8 °C 19,8 °C 72 % 1014,8 hPa 0,0 mm 2,1 km/h (1 Bft) N-NW 342 ° 0 min 0,127 mm 2,6 UV-I 285 W/m² 14,6 °C 19,8 °C 3,2 km/h (1 Bft)
24.06.2017 10:02 19,9 °C 19,9 °C 71 % 1014,8 hPa 0,0 mm 0,0 km/h (0 Bft) N-NW 342 ° 1 min 0,000 mm 2,9 UV-I 336 W/m² 14,5 °C 19,9 °C 0,0 km/h (0 Bft)
24.06.2017 10:03 19,8 °C 19,9 °C 71 % 1014,8 hPa 0,0 mm 0,0 km/h (0 Bft) N-NW 342 ° 1 min 0,000 mm 2,8 UV-I 308 W/m² 14,4 °C 19,8 °C 0,0 km/h (0 Bft)
24.06.2017 10:04 19,8 °C 19,8 °C 71 % 1014,7 hPa 0,0 mm 0,0 km/h (0 Bft) N-NW 342 ° 1 min 0,000 mm 2,9 UV-I 404 W/m² 14,4 °C 19,8 °C 0,0 km/h (0 Bft)
24.06.2017 10:05 19,9 °C 19,9 °C 72 % 1014,7 hPa 0,0 mm 0,6 km/h (0 Bft) N-NW 342 ° 1 min 0,000 mm 3,0 UV-I 401 W/m² 14,7 °C 19,9 °C 3,2 km/h (1 Bft)
24.06.2017 10:06 20,0 °C 20,0 °C 72 % 1014,8 hPa 0,0 mm 2,2 km/h (1 Bft) N-NW 342 ° 1 min 0,000 mm 2,6 UV-I 327 W/m² 14,8 °C 20,0 °C 3,2 km/h (1 Bft)
24.06.2017 10:07 20,1 °C 20,1 °C 73 % 1014,8 hPa 0,0 mm 1,0 km/h (0 Bft) N-NW 342 ° 1 min 0,000 mm 2,4 UV-I 306 W/m² 15,1 °C 20,1 °C 3,2 km/h (1 Bft)
24.06.2017 10:08 20,1 °C 20,1 °C 71 % 1014,8 hPa 0,0 mm 1,5 km/h (1 Bft) N-NW 342 ° 0 min 0,000 mm 2,3 UV-I 279 W/m² 14,7 °C 20,1 °C 3,2 km/h (1 Bft)
24.06.2017 10:09 20,1 °C 20,2 °C 71 % 1014,8 hPa 0,0 mm 0,0 km/h (0 Bft) N-NW 342 ° 0 min 0,000 mm 2,1 UV-I 229 W/m² 14,7 °C 20,1 °C 0,0 km/h (0 Bft)
24.06.2017 10:10 20,2 °C 20,2 °C 71 % 1014,8 hPa 0,0 mm 0,0 km/h (0 Bft) N-NW 342 ° 0 min 0,000 mm 1,9 UV-I 206 W/m² 14,8 °C 20,2 °C 0,0 km/h (0 Bft)
24.06.2017 10:11 20,1 °C 20,2 °C 72 % 1014,8 hPa 0,0 mm 0,0 km/h (0 Bft) N-NW 342 ° 0 min 0,000 mm 1,9 UV-I 214 W/m² 14,9 °C 20,1 °C 0,0 km/h (0 Bft)
24.06.2017 10:12 20,1 °C 20,1 °C 71 % 1014,8 hPa 0,0 mm 0,0 km/h (0 Bft) N-NW 342 ° 0 min 0,000 mm 2,1 UV-I 236 W/m² 14,7 °C 20,1 °C 0,0 km/h (0 Bft)
24.06.2017 10:13 20,0 °C 20,1 °C 71 % 1014,8 hPa 0,0 mm 0,9 km/h (0 Bft) O-NO 59 ° 0 min 0,000 mm 2,3 UV-I 271 W/m² 14,6 °C 20,0 °C 4,8 km/h (1 Bft)
24.06.2017 10:14 20,0 °C 20,1 °C 71 % 1014,8 hPa 0,0 mm 3,6 km/h (1 Bft) O 80 ° 1 min 0,000 mm 2,5 UV-I 295 W/m² 14,6 °C 20,0 °C 6,4 km/h (2 Bft)
24.06.2017 10:15 20,0 °C 20,1 °C 71 % 1014,8 hPa 0,0 mm 1,9 km/h (1 Bft) O 80 ° 1 min 0,000 mm 2,5 UV-I 302 W/m² 14,6 °C 20,0 °C 3,2 km/h (1 Bft)
24.06.2017 10:16 20,1 °C 20,1 °C 75 % 1014,7 hPa 0,0 mm 3,0 km/h (1 Bft) O-NO 62 ° 1 min 0,000 mm 2,4 UV-I 294 W/m² 15,5 °C 20,1 °C 4,8 km/h (1 Bft)
24.06.2017 10:17 20,1 °C 20,1 °C 71 % 1014,8 hPa 0,0 mm 1,8 km/h (1 Bft) O-NO 62 ° 0 min 0,000 mm 2,3 UV-I 283 W/m² 14,7 °C 20,1 °C 3,2 km/h (1 Bft)
24.06.2017 10:18 20,2 °C 20,2 °C 72 % 1014,8 hPa 0,0 mm 1,5 km/h (1 Bft) O-NO 62 ° 0 min 0,000 mm 2,2 UV-I 272 W/m² 15,0 °C 20,2 °C 3,2 km/h (1 Bft)
24.06.2017 10:19 20,2 °C 20,2 °C 74 % 1014,7 hPa 0,0 mm 1,9 km/h (1 Bft) O-NO 62 ° 0 min 0,000 mm 2,1 UV-I 267 W/m² 15,4 °C 20,2 °C 3,2 km/h (1 Bft)
24.06.2017 10:20 20,2 °C 20,2 °C 71 % 1014,8 hPa 0,0 mm 0,1 km/h (0 Bft) O-NO 62 ° 0 min 0,000 mm 2,1 UV-I 258 W/m² 14,8 °C 20,2 °C 1,6 km/h (1 Bft)
24.06.2017 10:21 20,1 °C 20,2 °C 71 % 1014,8 hPa 0,0 mm 1,3 km/h (1 Bft) O-NO 62 ° 0 min 0,000 mm 2,2 UV-I 267 W/m² 14,7 °C 20,1 °C 4,8 km/h (1 Bft)
24.06.2017 10:22 20,1 °C 20,1 °C 73 % 1014,7 hPa 0,0 mm 4,0 km/h (1 Bft) O-NO 62 ° 1 min 0,000 mm 2,6 UV-I 366 W/m² 15,1 °C 20,1 °C 4,8 km/h (1 Bft)
24.06.2017 10:23 20,1 °C 20,2 °C 72 % 1014,7 hPa 0,0 mm 4,4 km/h (1 Bft) O-NO 62 ° 1 min 0,000 mm 2,8 UV-I 371 W/m² 14,9 °C 20,1 °C 4,8 km/h (1 Bft)
24.06.2017 10:24 20,1 °C 20,2 °C 71 % 1014,7 hPa 0,0 mm 3,6 km/h (1 Bft) O-NO 63 ° 1 min 0,000 mm 2,7 UV-I 343 W/m² 14,7 °C 20,1 °C 4,8 km/h (1 Bft)
24.06.2017 10:25 20,1 °C 20,2 °C 73 % 1014,7 hPa 0,0 mm 2,5 km/h (1 Bft) O-NO 63 ° 1 min 0,000 mm 2,7 UV-I 325 W/m² 15,1 °C 20,1 °C 3,2 km/h (1 Bft)
24.06.2017 10:26 20,1 °C 20,2 °C 71 % 1014,7 hPa 0,0 mm 2,5 km/h (1 Bft) O-NO 65 ° 1 min 0,000 mm 2,8 UV-I 338 W/m² 14,7 °C 20,1 °C 4,8 km/h (1 Bft)
24.06.2017 10:27 20,2 °C 20,2 °C 72 % 1014,7 hPa 0,0 mm 0,9 km/h (0 Bft) O-NO 65 ° 1 min 0,000 mm 2,8 UV-I 338 W/m² 15,0 °C 20,2 °C 3,2 km/h (1 Bft)
24.06.2017 10:28 20,3 °C 20,3 °C 71 % 1014,7 hPa 0,0 mm 1,2 km/h (1 Bft) O-NO 65 ° 1 min 0,000 mm 2,7 UV-I 316 W/m² 14,9 °C 20,3 °C 3,2 km/h (1 Bft)
24.06.2017 10:29 20,3 °C 20,3 °C 72 % 1014,6 hPa 0,0 mm 2,6 km/h (1 Bft) N-NO 29 ° 1 min 0,000 mm 2,5 UV-I 290 W/m² 15,1 °C 20,3 °C 3,2 km/h (1 Bft)
24.06.2017 10:30 20,3 °C 20,3 °C 73 % 1014,6 hPa 0,0 mm 2,9 km/h (1 Bft) N-NO 33 ° 1 min 0,000 mm 2,5 UV-I 290 W/m² 15,3 °C 20,3 °C 4,8 km/h (1 Bft)
24.06.2017 10:31 20,4 °C 20,4 °C 70 % 1014,7 hPa 0,0 mm 1,6 km/h (1 Bft) N-NO 33 ° 1 min 0,000 mm 2,4 UV-I 295 W/m² 14,7 °C 20,4 °C 3,2 km/h (1 Bft)
24.06.2017 10:32 20,4 °C 20,4 °C 72 % 1014,8 hPa 0,0 mm 0,0 km/h (0 Bft) N-NO 33 ° 0 min 0,000 mm 2,2 UV-I 272 W/m² 15,2 °C 20,4 °C 0,0 km/h (0 Bft)
24.06.2017 10:33 20,4 °C 20,4 °C 72 % 1014,7 hPa 0,0 mm 1,6 km/h (1 Bft) NO 45 ° 0 min 0,000 mm 2,1 UV-I 243 W/m² 15,2 °C 20,4 °C 4,8 km/h (1 Bft)
24.06.2017 10:34 20,4 °C 20,4 °C 71 % 1014,7 hPa 0,0 mm 2,8 km/h (1 Bft) NO 45 ° 0 min 0,000 mm 2,2 UV-I 253 W/m² 15,0 °C 20,4 °C 4,8 km/h (1 Bft)
24.06.2017 10:35 20,3 °C 20,4 °C 70 % 1014,7 hPa 0,0 mm 0,1 km/h (0 Bft) NO 45 ° 0 min 0,000 mm 2,1 UV-I 262 W/m² 14,6 °C 20,3 °C 1,6 km/h (1 Bft)
24.06.2017 10:36 20,3 °C 20,3 °C 71 % 1014,7 hPa 0,0 mm 0,0 km/h (0 Bft) NO 45 ° 0 min 0,000 mm 2,0 UV-I 244 W/m² 14,9 °C 20,3 °C 0,0 km/h (0 Bft)
24.06.2017 10:37 20,2 °C 20,3 °C 70 % 1014,7 hPa 0,0 mm 0,0 km/h (0 Bft) NO 45 ° 0 min 0,000 mm 1,9 UV-I 244 W/m² 14,5 °C 20,2 °C 0,0 km/h (0 Bft)
24.06.2017 10:38 20,2 °C 20,2 °C 73 % 1014,6 hPa 0,0 mm 0,1 km/h (0 Bft) NO 45 ° 0 min 0,000 mm 1,9 UV-I 225 W/m² 15,2 °C 20,2 °C 1,6 km/h (1 Bft)
24.06.2017 10:39 20,2 °C 20,2 °C 71 % 1014,6 hPa 0,0 mm 0,0 km/h (0 Bft) NO 45 ° 0 min 0,000 mm 2,0 UV-I 258 W/m² 14,8 °C 20,2 °C 0,0 km/h (0 Bft)
24.06.2017 10:40 20,3 °C 20,3 °C 73 % 1014,6 hPa 0,0 mm 1,0 km/h (0 Bft) NO 45 ° 0 min 0,000 mm 2,2 UV-I 267 W/m² 15,3 °C 20,3 °C 3,2 km/h (1 Bft)
24.06.2017 10:41 20,3 °C 20,3 °C 72 % 1014,6 hPa 0,0 mm 3,4 km/h (1 Bft) NW 306 ° 0 min 0,000 mm 2,0 UV-I 253 W/m² 15,1 °C 20,3 °C 4,8 km/h (1 Bft)
24.06.2017 10:42 20,4 °C 20,4 °C 73 % 1014,7 hPa 0,0 mm 3,1 km/h (1 Bft) W-NW 286 ° 0 min 0,000 mm 2,0 UV-I 237 W/m² 15,4 °C 20,4 °C 4,8 km/h (1 Bft)
24.06.2017 10:43 20,4 °C 20,4 °C 73 % 1014,6 hPa 0,0 mm 0,1 km/h (0 Bft) W-NW 286 ° 0 min 0,000 mm 2,1 UV-I 243 W/m² 15,4 °C 20,4 °C 1,6 km/h (1 Bft)
24.06.2017 10:44 20,4 °C 20,4 °C 73 % 1014,6 hPa 0,0 mm 0,0 km/h (0 Bft) NW 317 ° 0 min 0,000 mm 2,3 UV-I 269 W/m² 15,4 °C 20,4 °C 0,0 km/h (0 Bft)
24.06.2017 10:45 20,4 °C 20,4 °C 74 % 1014,6 hPa 0,0 mm 1,5 km/h (1 Bft) NW 323 ° 1 min 0,000 mm 2,5 UV-I 302 W/m² 15,6 °C 20,4 °C 3,2 km/h (1 Bft)
24.06.2017 10:46 20,4 °C 20,5 °C 72 % 1014,6 hPa 0,0 mm 0,3 km/h (0 Bft) NW 323 ° 1 min 0,000 mm 2,5 UV-I 306 W/m² 15,2 °C 20,4 °C 1,6 km/h (1 Bft)
24.06.2017 10:47 20,5 °C 20,5 °C 72 % 1014,6 hPa 0,0 mm 0,1 km/h (0 Bft) NW 323 ° 1 min 0,000 mm 2,6 UV-I 313 W/m² 15,3 °C 20,5 °C 1,6 km/h (1 Bft)
24.06.2017 10:48 20,6 °C 20,6 °C 72 % 1014,6 hPa 0,0 mm 4,3 km/h (1 Bft) NW 323 ° 1 min 0,000 mm 2,7 UV-I 327 W/m² 15,4 °C 20,6 °C 6,4 km/h (2 Bft)
24.06.2017 10:49 20,6 °C 20,7 °C 71 % 1014,7 hPa 0,0 mm 2,6 km/h (1 Bft) NW 323 ° 1 min 0,000 mm 2,8 UV-I 332 W/m² 15,2 °C 20,6 °C 4,8 km/h (1 Bft)
24.06.2017 10:50 20,6 °C 20,6 °C 71 % 1014,7 hPa 0,0 mm 1,5 km/h (1 Bft) NW 323 ° 1 min 0,000 mm 2,8 UV-I 343 W/m² 15,2 °C 20,6 °C 3,2 km/h (1 Bft)
24.06.2017 10:51 20,6 °C 20,6 °C 71 % 1014,7 hPa 0,0 mm 0,6 km/h (0 Bft) NW 323 ° 1 min 0,000 mm 2,8 UV-I 339 W/m² 15,2 °C 20,6 °C 1,6 km/h (1 Bft)
24.06.2017 10:52 20,5 °C 20,6 °C 72 % 1014,7 hPa 0,0 mm 2,3 km/h (1 Bft) NW 323 ° 1 min 0,000 mm 2,8 UV-I 343 W/m² 15,3 °C 20,5 °C 4,8 km/h (1 Bft)
24.06.2017 10:53 20,6 °C 20,6 °C 72 % 1014,7 hPa 0,0 mm 3,4 km/h (1 Bft) NW 323 ° 1 min 0,000 mm 2,9 UV-I 346 W/m² 15,4 °C 20,6 °C 4,8 km/h (1 Bft)
24.06.2017 10:54 20,6 °C 20,6 °C 71 % 1014,7 hPa 0,0 mm 1,5 km/h (1 Bft) NW 323 ° 1 min 0,000 mm 3,0 UV-I 362 W/m² 15,2 °C 20,6 °C 3,2 km/h (1 Bft)
24.06.2017 10:55 20,7 °C 20,7 °C 72 % 1014,7 hPa 0,0 mm 1,8 km/h (1 Bft) NW 323 ° 1 min 0,000 mm 3,1 UV-I 376 W/m² 15,5 °C 20,7 °C 3,2 km/h (1 Bft)
24.06.2017 10:56 20,7 °C 20,7 °C 73 % 1014,7 hPa 0,0 mm 1,5 km/h (1 Bft) NW 323 ° 1 min 0,000 mm 2,8 UV-I 313 W/m² 15,7 °C 20,7 °C 3,2 km/h (1 Bft)
24.06.2017 10:57 20,7 °C 20,7 °C 74 % 1014,7 hPa 0,0 mm 3,2 km/h (1 Bft) NW 323 ° 1 min 0,000 mm 2,6 UV-I 295 W/m² 15,9 °C 20,7 °C 4,8 km/h (1 Bft)
24.06.2017 10:58 20,7 °C 20,8 °C 72 % 1014,7 hPa 0,0 mm 3,0 km/h (1 Bft) NW 323 ° 1 min 0,000 mm 2,6 UV-I 299 W/m² 15,5 °C 20,7 °C 4,8 km/h (1 Bft)
24.06.2017 10:59 20,8 °C 20,8 °C 74 % 1014,7 hPa 0,0 mm 2,9 km/h (1 Bft) NW 323 ° 1 min 0,000 mm 2,6 UV-I 302 W/m² 16,0 °C 20,8 °C 4,8 km/h (1 Bft)
24.06.2017 11:00 20,8 °C 20,8 °C 72 % 1014,7 hPa 0,0 mm 1,1 km/h (1 Bft) NW 323 ° 1 min 0,000 mm 2,6 UV-I 299 W/m² 15,6 °C 20,8 °C 3,2 km/h (1 Bft)
24.06.2017 11:01 20,8 °C 20,8 °C 72 % 1014,7 hPa 0,0 mm 0,0 km/h (0 Bft) NW 323 ° 1 min 0,178 mm 2,7 UV-I 294 W/m² 15,6 °C 20,8 °C 0,0 km/h (0 Bft)
24.06.2017 11:02 20,8 °C 20,8 °C 71 % 1014,6 hPa 0,0 mm 2,3 km/h (1 Bft) N-NW 344 ° 1 min 0,000 mm 3,0 UV-I 362 W/m² 15,3 °C 20,8 °C 4,8 km/h (1 Bft)
24.06.2017 11:03 20,8 °C 20,8 °C 72 % 1014,6 hPa 0,0 mm 2,6 km/h (1 Bft) N 355 ° 1 min 0,000 mm 3,2 UV-I 374 W/m² 15,6 °C 20,8 °C 3,2 km/h (1 Bft)
24.06.2017 11:04 20,8 °C 20,8 °C 72 % 1014,6 hPa 0,0 mm 3,2 km/h (1 Bft) N 360 ° 1 min 0,000 mm 3,6 UV-I 378 W/m² 15,6 °C 20,8 °C 4,8 km/h (1 Bft)
24.06.2017 11:05 20,9 °C 20,9 °C 73 % 1014,6 hPa 0,0 mm 2,7 km/h (1 Bft) N 355 ° 1 min 0,000 mm 4,3 UV-I 378 W/m² 15,9 °C 20,9 °C 3,2 km/h (1 Bft)
24.06.2017 11:06 21,0 °C 21,0 °C 70 % 1014,5 hPa 0,0 mm 3,0 km/h (1 Bft) N 355 ° 1 min 0,000 mm 4,6 UV-I 378 W/m² 15,3 °C 21,0 °C 3,2 km/h (1 Bft)
24.06.2017 11:07 21,1 °C 21,1 °C 74 % 1014,5 hPa 0,0 mm 4,3 km/h (1 Bft) NW 313 ° 1 min 0,000 mm 4,5 UV-I 564 W/m² 16,3 °C 21,1 °C 4,8 km/h (1 Bft)
24.06.2017 11:08 21,2 °C 21,2 °C 73 % 1014,5 hPa 0,0 mm 3,0 km/h (1 Bft) NW 313 ° 1 min 0,000 mm 4,7 UV-I 622 W/m² 16,2 °C 21,2 °C 4,8 km/h (1 Bft)
24.06.2017 11:09 21,3 °C 21,3 °C 71 % 1014,5 hPa 0,0 mm 2,7 km/h (1 Bft) N-NW 332 ° 1 min 0,000 mm 4,2 UV-I 622 W/m² 15,8 °C 21,3 °C 4,8 km/h (1 Bft)
24.06.2017 11:10 21,2 °C 21,3 °C 70 % 1014,5 hPa 0,0 mm 2,7 km/h (1 Bft) N-NW 332 ° 1 min 0,000 mm 3,5 UV-I 441 W/m² 15,5 °C 21,2 °C 3,2 km/h (1 Bft)
24.06.2017 11:11 21,2 °C 21,2 °C 70 % 1014,5 hPa 0,0 mm 1,5 km/h (1 Bft) N-NW 332 ° 1 min 0,000 mm 3,6 UV-I 436 W/m² 15,5 °C 21,2 °C 3,2 km/h (1 Bft)
24.06.2017 11:12 21,1 °C 21,2 °C 71 % 1014,5 hPa 0,0 mm 1,5 km/h (1 Bft) W 264 ° 1 min 0,000 mm 3,6 UV-I 446 W/m² 15,6 °C 21,1 °C 3,2 km/h (1 Bft)
24.06.2017 11:13 21,1 °C 21,1 °C 72 % 1014,5 hPa 0,0 mm 1,0 km/h (0 Bft) W 264 ° 1 min 0,000 mm 3,4 UV-I 432 W/m² 15,8 °C 21,1 °C 3,2 km/h (1 Bft)
24.06.2017 11:14 21,1 °C 21,1 °C 72 % 1014,6 hPa 0,0 mm 1,9 km/h (1 Bft) W 264 ° 1 min 0,000 mm 3,0 UV-I 315 W/m² 15,8 °C 21,1 °C 3,2 km/h (1 Bft)
24.06.2017 11:15 21,0 °C 21,1 °C 71 % 1014,6 hPa 0,0 mm 1,9 km/h (1 Bft) W 268 ° 1 min 0,000 mm 2,6 UV-I 297 W/m² 15,5 °C 21,0 °C 4,8 km/h (1 Bft)
24.06.2017 11:16 21,1 °C 21,1 °C 73 % 1014,6 hPa 0,0 mm 3,4 km/h (1 Bft) W-NW 283 ° 1 min 0,000 mm 2,8 UV-I 320 W/m² 16,1 °C 21,1 °C 4,8 km/h (1 Bft)
24.06.2017 11:17 21,1 °C 21,1 °C 74 % 1014,6 hPa 0,0 mm 4,0 km/h (1 Bft) W-NW 302 ° 1 min 0,000 mm 2,8 UV-I 336 W/m² 16,3 °C 21,1 °C 6,4 km/h (2 Bft)
24.06.2017 11:18 21,1 °C 21,1 °C 73 % 1014,6 hPa 0,0 mm 2,3 km/h (1 Bft) NW 309 ° 1 min 0,000 mm 2,6 UV-I 315 W/m² 16,1 °C 21,1 °C 4,8 km/h (1 Bft)
24.06.2017 11:19 21,1 °C 21,1 °C 74 % 1014,6 hPa 0,0 mm 2,2 km/h (1 Bft) NW 309 ° 1 min 0,000 mm 2,5 UV-I 290 W/m² 16,3 °C 21,1 °C 4,8 km/h (1 Bft)
24.06.2017 11:20 21,1 °C 21,1 °C 72 % 1014,6 hPa 0,0 mm 3,7 km/h (1 Bft) NW 318 ° 1 min 0,000 mm 2,6 UV-I 313 W/m² 15,8 °C 21,1 °C 4,8 km/h (1 Bft)
24.06.2017 11:21 21,0 °C 21,1 °C 73 % 1014,6 hPa 0,0 mm 3,1 km/h (1 Bft) NW 305 ° 1 min 0,000 mm 2,6 UV-I 308 W/m² 16,0 °C 21,0 °C 4,8 km/h (1 Bft)
24.06.2017 11:22 21,1 °C 21,1 °C 73 % 1014,6 hPa 0,0 mm 4,0 km/h (1 Bft) NW 322 ° 0 min 0,000 mm 2,3 UV-I 274 W/m² 16,1 °C 21,1 °C 4,8 km/h (1 Bft)
24.06.2017 11:23 21,0 °C 21,1 °C 72 % 1014,6 hPa 0,0 mm 3,6 km/h (1 Bft) NW 315 ° 0 min 0,000 mm 2,1 UV-I 255 W/m² 15,8 °C 21,0 °C 4,8 km/h (1 Bft)
24.06.2017 11:24 20,9 °C 21,0 °C 72 % 1014,6 hPa 0,0 mm 4,8 km/h (1 Bft) NW 313 ° 0 min 0,000 mm 1,9 UV-I 220 W/m² 15,7 °C 20,9 °C 6,4 km/h (2 Bft)
24.06.2017 11:25 20,9 °C 20,9 °C 72 % 1014,6 hPa 0,0 mm 4,4 km/h (1 Bft) NW 313 ° 0 min 0,000 mm 1,8 UV-I 197 W/m² 15,7 °C 20,9 °C 4,8 km/h (1 Bft)
24.06.2017 11:26 20,9 °C 20,9 °C 72 % 1014,6 hPa 0,0 mm 2,4 km/h (1 Bft) NW 313 ° 0 min 0,000 mm 2,1 UV-I 279 W/m² 15,7 °C 20,9 °C 3,2 km/h (1 Bft)
24.06.2017 11:27 20,8 °C 20,9 °C 71 % 1014,6 hPa 0,0 mm 3,2 km/h (1 Bft) NW 312 ° 1 min 0,000 mm 3,0 UV-I 330 W/m² 15,3 °C 20,8 °C 4,8 km/h (1 Bft)
24.06.2017 11:28 20,8 °C 20,8 °C 73 % 1014,5 hPa 0,0 mm 4,0 km/h (1 Bft) W-NW 282 ° 1 min 0,000 mm 3,3 UV-I 367 W/m² 15,8 °C 20,8 °C 6,4 km/h (2 Bft)
24.06.2017 11:29 20,8 °C 20,8 °C 73 % 1014,5 hPa 0,0 mm 2,2 km/h (1 Bft) W-NW 286 ° 1 min 0,000 mm 3,4 UV-I 355 W/m² 15,8 °C 20,8 °C 3,2 km/h (1 Bft)
24.06.2017 11:30 20,8 °C 20,8 °C 72 % 1014,5 hPa 0,0 mm 2,2 km/h (1 Bft) W-NW 286 ° 1 min 0,000 mm 3,7 UV-I 408 W/m² 15,6 °C 20,8 °C 3,2 km/h (1 Bft)
24.06.2017 11:31 20,9 °C 20,9 °C 73 % 1014,5 hPa 0,0 mm 3,6 km/h (1 Bft) W 279 ° 1 min 0,000 mm 3,7 UV-I 429 W/m² 15,9 °C 20,9 °C 6,4 km/h (2 Bft)
24.06.2017 11:32 20,9 °C 20,9 °C 73 % 1014,5 hPa 0,0 mm 4,3 km/h (1 Bft) W 274 ° 1 min 0,000 mm 3,0 UV-I 341 W/m² 15,9 °C 20,9 °C 4,8 km/h (1 Bft)
24.06.2017 11:33 21,0 °C 21,0 °C 74 % 1014,5 hPa 0,0 mm 1,7 km/h (1 Bft) W 274 ° 1 min 0,000 mm 3,1 UV-I 357 W/m² 16,2 °C 21,0 °C 3,2 km/h (1 Bft)
24.06.2017 11:34 21,1 °C 21,1 °C 74 % 1014,5 hPa 0,0 mm 2,4 km/h (1 Bft) W 274 ° 0 min 0,000 mm 3,2 UV-I 258 W/m² 16,3 °C 21,1 °C 3,2 km/h (1 Bft)
24.06.2017 11:35 21,1 °C 21,1 °C 72 % 1014,5 hPa 0,0 mm 3,6 km/h (1 Bft) NW 319 ° 0 min 0,000 mm 3,1 UV-I 258 W/m² 15,8 °C 21,1 °C 4,8 km/h (1 Bft)
24.06.2017 11:36 21,2 °C 21,2 °C 73 % 1014,5 hPa 0,0 mm 5,4 km/h (1 Bft) NW 315 ° 1 min 0,000 mm 2,9 UV-I 355 W/m² 16,2 °C 21,2 °C 8,0 km/h (2 Bft)
24.06.2017 11:37 21,2 °C 21,2 °C 73 % 1014,5 hPa 0,0 mm 5,9 km/h (2 Bft) NW 311 ° 1 min 0,000 mm 2,8 UV-I 332 W/m² 16,2 °C 21,2 °C 9,7 km/h (2 Bft)
24.06.2017 11:38 21,3 °C 21,3 °C 76 % 1014,5 hPa 0,0 mm 5,5 km/h (1 Bft) N-NW 331 ° 1 min 0,000 mm 2,7 UV-I 329 W/m² 16,9 °C 21,3 °C 8,0 km/h (2 Bft)
24.06.2017 11:39 21,4 °C 21,4 °C 75 % 1014,5 hPa 0,0 mm 2,3 km/h (1 Bft) NW 313 ° 1 min 0,000 mm 3,0 UV-I 348 W/m² 16,8 °C 21,4 °C 4,8 km/h (1 Bft)
24.06.2017 11:40 21,5 °C 21,5 °C 75 % 1014,4 hPa 0,0 mm 5,2 km/h (1 Bft) NW 313 ° 1 min 0,000 mm 3,0 UV-I 359 W/m² 16,9 °C 21,5 °C 8,0 km/h (2 Bft)
24.06.2017 11:41 21,5 °C 21,6 °C 73 % 1014,4 hPa 0,0 mm 2,1 km/h (1 Bft) W 279 ° 1 min 0,000 mm 2,8 UV-I 336 W/m² 16,4 °C 21,5 °C 4,8 km/h (1 Bft)
24.06.2017 11:42 21,5 °C 21,6 °C 72 % 1014,4 hPa 0,0 mm 4,1 km/h (1 Bft) W 265 ° 1 min 0,000 mm 2,5 UV-I 304 W/m² 16,2 °C 21,5 °C 9,7 km/h (2 Bft)
24.06.2017 11:43 21,4 °C 21,5 °C 72 % 1014,4 hPa 0,0 mm 3,6 km/h (1 Bft) W-NW 297 ° 1 min 0,000 mm 2,4 UV-I 292 W/m² 16,1 °C 21,4 °C 4,8 km/h (1 Bft)
24.06.2017 11:44 21,4 °C 21,4 °C 75 % 1014,4 hPa 0,0 mm 2,4 km/h (1 Bft) W-NW 297 ° 1 min 0,000 mm 2,5 UV-I 297 W/m² 16,8 °C 21,4 °C 4,8 km/h (1 Bft)
24.06.2017 11:45 21,4 °C 21,4 °C 71 % 1014,4 hPa 0,0 mm 4,6 km/h (1 Bft) NW 309 ° 1 min 0,000 mm 2,6 UV-I 301 W/m² 15,9 °C 21,4 °C 6,4 km/h (2 Bft)
24.06.2017 11:46 21,4 °C 21,4 °C 72 % 1014,4 hPa 0,0 mm 1,5 km/h (1 Bft) NW 309 ° 1 min 0,000 mm 2,7 UV-I 316 W/m² 16,1 °C 21,4 °C 3,2 km/h (1 Bft)
24.06.2017 11:47 21,4 °C 21,4 °C 74 % 1014,3 hPa 0,0 mm 3,0 km/h (1 Bft) W-NW 294 ° 1 min 0,000 mm 2,8 UV-I 336 W/m² 16,6 °C 21,4 °C 4,8 km/h (1 Bft)
24.06.2017 11:48 21,4 °C 21,4 °C 72 % 1014,2 hPa 0,0 mm 1,2 km/h (1 Bft) W-NW 294 ° 1 min 0,000 mm 2,8 UV-I 332 W/m² 16,1 °C 21,4 °C 3,2 km/h (1 Bft)
24.06.2017 11:49 21,3 °C 21,4 °C 71 % 1014,2 hPa 0,0 mm 0,0 km/h (0 Bft) W-NW 294 ° 1 min 0,000 mm 2,8 UV-I 323 W/m² 15,8 °C 21,3 °C 0,0 km/h (0 Bft)
24.06.2017 11:50 21,3 °C 21,3 °C 71 % 1014,3 hPa 0,0 mm 2,1 km/h (1 Bft) W-NW 295 ° 1 min 0,000 mm 2,7 UV-I 322 W/m² 15,8 °C 21,3 °C 4,8 km/h (1 Bft)
24.06.2017 11:51 21,3 °C 21,3 °C 73 % 1014,4 hPa 0,0 mm 4,1 km/h (1 Bft) NW 311 ° 1 min 0,000 mm 2,8 UV-I 330 W/m² 16,3 °C 21,3 °C 6,4 km/h (2 Bft)
24.06.2017 11:52 21,4 °C 21,4 °C 76 % 1014,4 hPa 0,0 mm 6,7 km/h (2 Bft) W 279 ° 1 min 0,000 mm 3,0 UV-I 352 W/m² 17,0 °C 21,4 °C 12,9 km/h (3 Bft)
24.06.2017 11:53 21,5 °C 21,5 °C 73 % 1014,3 hPa 0,0 mm 4,0 km/h (1 Bft) W-NW 286 ° 1 min 0,000 mm 3,4 UV-I 399 W/m² 16,4 °C 21,5 °C 9,7 km/h (2 Bft)
24.06.2017 11:54 21,5 °C 21,5 °C 73 % 1014,2 hPa 0,0 mm 2,7 km/h (1 Bft) W-NW 284 ° 1 min 0,000 mm 3,8 UV-I 441 W/m² 16,4 °C 21,5 °C 6,4 km/h (2 Bft)
24.06.2017 11:55 21,5 °C 21,5 °C 75 % 1014,3 hPa 0,0 mm 3,0 km/h (1 Bft) W-SW 246 ° 1 min 0,000 mm 4,2 UV-I 455 W/m² 16,9 °C 21,5 °C 4,8 km/h (1 Bft)
24.06.2017 11:56 21,5 °C 21,6 °C 71 % 1014,2 hPa 0,0 mm 2,5 km/h (1 Bft) W-SW 244 ° 1 min 0,000 mm 3,7 UV-I 468 W/m² 16,0 °C 21,5 °C 4,8 km/h (1 Bft)
24.06.2017 11:57 21,4 °C 21,5 °C 72 % 1014,2 hPa 0,0 mm 1,2 km/h (1 Bft) W-NW 292 ° 1 min 0,000 mm 3,7 UV-I 410 W/m² 16,1 °C 21,4 °C 3,2 km/h (1 Bft)
24.06.2017 11:58 21,5 °C 21,5 °C 74 % 1014,1 hPa 0,0 mm 3,5 km/h (1 Bft) NW 315 ° 1 min 0,000 mm 3,2 UV-I 367 W/m² 16,7 °C 21,5 °C 6,4 km/h (2 Bft)
24.06.2017 11:59 21,6 °C 21,6 °C 73 % 1014,1 hPa 0,0 mm 7,5 km/h (2 Bft) N-NW 342 ° 1 min 0,000 mm 3,1 UV-I 348 W/m² 16,5 °C 21,6 °C 11,3 km/h (2 Bft)
24.06.2017 12:00 21,6 °C 21,6 °C 72 % 1014,1 hPa 0,0 mm 3,1 km/h (1 Bft) N-NW 338 ° 1 min 0,000 mm 2,8 UV-I 325 W/m² 16,3 °C 21,6 °C 6,4 km/h (2 Bft)
24.06.2017 12:01 21,5 °C 21,6 °C 72 % 1014,2 hPa 0,0 mm 3,2 km/h (1 Bft) W-NW 286 ° 0 min 0,228 mm 2,5 UV-I 264 W/m² 16,2 °C 21,5 °C 6,4 km/h (2 Bft)
24.06.2017 12:02 21,4 °C 21,5 °C 73 % 1014,2 hPa 0,0 mm 1,9 km/h (1 Bft) W-NW 286 ° 0 min 0,000 mm 2,2 UV-I 250 W/m² 16,4 °C 21,4 °C 3,2 km/h (1 Bft)
24.06.2017 12:03 21,4 °C 21,5 °C 74 % 1014,3 hPa 0,0 mm 3,0 km/h (1 Bft) W-SW 254 ° 0 min 0,000 mm 2,3 UV-I 258 W/m² 16,6 °C 21,4 °C 6,4 km/h (2 Bft)
24.06.2017 12:04 21,4 °C 21,4 °C 74 % 1014,3 hPa 0,0 mm 6,2 km/h (2 Bft) W 265 ° 0 min 0,000 mm 2,5 UV-I 285 W/m² 16,6 °C 21,4 °C 11,3 km/h (2 Bft)
24.06.2017 12:05 21,4 °C 21,4 °C 72 % 1014,2 hPa 0,0 mm 7,0 km/h (2 Bft) W 279 ° 1 min 0,000 mm 2,7 UV-I 308 W/m² 16,1 °C 21,4 °C 12,9 km/h (3 Bft)
24.06.2017 12:06 21,4 °C 21,4 °C 73 % 1014,2 hPa 0,0 mm 6,1 km/h (2 Bft) NW 317 ° 1 min 0,000 mm 2,6 UV-I 304 W/m² 16,4 °C 21,4 °C 12,9 km/h (3 Bft)
24.06.2017 12:07 21,3 °C 21,4 °C 73 % 1014,2 hPa 0,0 mm 6,7 km/h (2 Bft) NW 325 ° 0 min 0,000 mm 2,5 UV-I 278 W/m² 16,3 °C 21,3 °C 14,5 km/h (3 Bft)
24.06.2017 12:08 21,3 °C 21,3 °C 72 % 1014,2 hPa 0,0 mm 7,3 km/h (2 Bft) NW 313 ° 0 min 0,000 mm 2,3 UV-I 265 W/m² 16,0 °C 21,3 °C 11,3 km/h (2 Bft)
24.06.2017 12:09 21,2 °C 21,3 °C 74 % 1014,2 hPa 0,0 mm 11,8 km/h (2 Bft) W 280 ° 0 min 0,000 mm 2,3 UV-I 269 W/m² 16,4 °C 21,2 °C 16,1 km/h (3 Bft)
24.06.2017 12:10 21,2 °C 21,2 °C 73 % 1014,2 hPa 0,0 mm 8,6 km/h (2 Bft) NW 319 ° 1 min 0,000 mm 2,5 UV-I 294 W/m² 16,2 °C 21,2 °C 12,9 km/h (3 Bft)
24.06.2017 12:11 21,1 °C 21,2 °C 74 % 1014,2 hPa 0,0 mm 5,2 km/h (1 Bft) W-NW 298 ° 1 min 0,000 mm 2,5 UV-I 313 W/m² 16,3 °C 21,1 °C 6,4 km/h (2 Bft)
24.06.2017 12:12 21,2 °C 21,2 °C 75 % 1014,2 hPa 0,0 mm 9,6 km/h (2 Bft) W-NW 286 ° 1 min 0,000 mm 2,9 UV-I 329 W/m² 16,6 °C 21,2 °C 14,5 km/h (3 Bft)
24.06.2017 12:13 21,2 °C 21,2 °C 75 % 1014,1 hPa 0,0 mm 7,4 km/h (2 Bft) W 277 ° 1 min 0,000 mm 3,0 UV-I 346 W/m² 16,6 °C 21,2 °C 11,3 km/h (2 Bft)
24.06.2017 12:14 21,2 °C 21,2 °C 73 % 1014,1 hPa 0,0 mm 8,2 km/h (2 Bft) NW 305 ° 1 min 0,000 mm 3,0 UV-I 343 W/m² 16,2 °C 21,2 °C 14,5 km/h (3 Bft)
24.06.2017 12:15 21,2 °C 21,2 °C 73 % 1014,1 hPa 0,0 mm 7,1 km/h (2 Bft) W-NW 291 ° 1 min 0,000 mm 3,0 UV-I 336 W/m² 16,2 °C 21,2 °C 9,7 km/h (2 Bft)
24.06.2017 12:16 21,2 °C 21,2 °C 73 % 1014,1 hPa 0,0 mm 8,9 km/h (2 Bft) W-NW 288 ° 1 min 0,000 mm 2,9 UV-I 329 W/m² 16,2 °C 21,2 °C 12,9 km/h (3 Bft)
24.06.2017 12:17 21,2 °C 21,2 °C 74 % 1014,2 hPa 0,0 mm 5,8 km/h (2 Bft) NW 308 ° 1 min 0,000 mm 2,9 UV-I 323 W/m² 16,4 °C 21,2 °C 8,0 km/h (2 Bft)
24.06.2017 12:18 21,2 °C 21,2 °C 75 % 1014,2 hPa 0,0 mm 5,8 km/h (2 Bft) W-NW 298 ° 1 min 0,000 mm 2,8 UV-I 313 W/m² 16,6 °C 21,2 °C 8,0 km/h (2 Bft)
24.06.2017 12:19 21,2 °C 21,2 °C 74 % 1014,2 hPa 0,0 mm 3,3 km/h (1 Bft) NW 315 ° 1 min 0,000 mm 2,8 UV-I 309 W/m² 16,4 °C 21,2 °C 4,8 km/h (1 Bft)
24.06.2017 12:20 21,2 °C 21,2 °C 74 % 1014,1 hPa 0,0 mm 4,4 km/h (1 Bft) NW 319 ° 1 min 0,000 mm 2,7 UV-I 304 W/m² 16,4 °C 21,2 °C 6,4 km/h (2 Bft)
24.06.2017 12:21 21,2 °C 21,2 °C 75 % 1014,2 hPa 0,0 mm 11,7 km/h (2 Bft) NW 325 ° 1 min 0,000 mm 2,7 UV-I 302 W/m² 16,6 °C 21,2 °C 16,1 km/h (3 Bft)
24.06.2017 12:22 21,2 °C 21,3 °C 74 % 1014,2 hPa 0,0 mm 7,6 km/h (2 Bft) NW 306 ° 1 min 0,000 mm 2,7 UV-I 299 W/m² 16,4 °C 21,2 °C 11,3 km/h (2 Bft)
24.06.2017 12:23 21,2 °C 21,2 °C 74 % 1014,1 hPa 0,0 mm 8,7 km/h (2 Bft) W 271 ° 1 min 0,000 mm 2,6 UV-I 299 W/m² 16,4 °C 21,2 °C 12,9 km/h (3 Bft)
24.06.2017 12:24 21,2 °C 21,2 °C 74 % 1014,1 hPa 0,0 mm 7,2 km/h (2 Bft) W-NW 303 ° 1 min 0,000 mm 2,6 UV-I 294 W/m² 16,4 °C 21,2 °C 12,9 km/h (3 Bft)
24.06.2017 12:25 21,1 °C 21,2 °C 75 % 1014,1 hPa 0,0 mm 10,1 km/h (2 Bft) NW 316 ° 1 min 0,000 mm 2,6 UV-I 292 W/m² 16,5 °C 21,1 °C 12,9 km/h (3 Bft)
24.06.2017 12:26 21,1 °C 21,2 °C 74 % 1014,2 hPa 0,0 mm 7,5 km/h (2 Bft) NW 326 ° 1 min 0,000 mm 2,6 UV-I 292 W/m² 16,3 °C 21,1 °C 9,7 km/h (2 Bft)
24.06.2017 12:27 21,1 °C 21,2 °C 75 % 1014,2 hPa 0,0 mm 6,3 km/h (2 Bft) W-NW 296 ° 1 min 0,000 mm 2,6 UV-I 292 W/m² 16,5 °C 21,1 °C 11,3 km/h (2 Bft)
24.06.2017 12:28 21,2 °C 21,2 °C 75 % 1014,2 hPa 0,0 mm 9,1 km/h (2 Bft) W-NW 294 ° 1 min 0,000 mm 2,6 UV-I 294 W/m² 16,6 °C 21,2 °C 14,5 km/h (3 Bft)
24.06.2017 12:29 21,2 °C 21,2 °C 75 % 1014,1 hPa 0,0 mm 5,2 km/h (1 Bft) NW 319 ° 1 min 0,000 mm 2,7 UV-I 295 W/m² 16,6 °C 21,2 °C 8,0 km/h (2 Bft)
24.06.2017 12:30 21,2 °C 21,2 °C 75 % 1014,1 hPa 0,0 mm 8,1 km/h (2 Bft) W 280 ° 1 min 0,000 mm 2,7 UV-I 301 W/m² 16,6 °C 21,2 °C 11,3 km/h (2 Bft)
24.06.2017 12:31 21,2 °C 21,2 °C 75 % 1014,1 hPa 0,0 mm 7,0 km/h (2 Bft) NW 315 ° 1 min 0,000 mm 2,8 UV-I 304 W/m² 16,6 °C 21,2 °C 9,7 km/h (2 Bft)
24.06.2017 12:32 21,2 °C 21,2 °C 75 % 1014,0 hPa 0,0 mm 8,9 km/h (2 Bft) W-NW 286 ° 1 min 0,000 mm 2,8 UV-I 308 W/m² 16,6 °C 21,2 °C 14,5 km/h (3 Bft)
24.06.2017 12:33 21,2 °C 21,2 °C 75 % 1014,0 hPa 0,0 mm 9,2 km/h (2 Bft) NW 319 ° 1 min 0,000 mm 2,9 UV-I 311 W/m² 16,6 °C 21,2 °C 14,5 km/h (3 Bft)
24.06.2017 12:34 21,2 °C 21,2 °C 75 % 1014,0 hPa 0,0 mm 8,8 km/h (2 Bft) W 273 ° 1 min 0,000 mm 2,9 UV-I 316 W/m² 16,6 °C 21,2 °C 14,5 km/h (3 Bft)
24.06.2017 12:35 21,2 °C 21,2 °C 75 % 1014,0 hPa 0,0 mm 6,9 km/h (2 Bft) NW 306 ° 1 min 0,000 mm 2,9 UV-I 320 W/m² 16,6 °C 21,2 °C 14,5 km/h (3 Bft)
24.06.2017 12:36 21,2 °C 21,3 °C 74 % 1014,1 hPa 0,0 mm 4,7 km/h (1 Bft) NW 314 ° 1 min 0,000 mm 3,0 UV-I 329 W/m² 16,4 °C 21,2 °C 9,7 km/h (2 Bft)
24.06.2017 12:37 21,2 °C 21,2 °C 74 % 1014,1 hPa 0,0 mm 9,1 km/h (2 Bft) NW 318 ° 1 min 0,000 mm 3,0 UV-I 336 W/m² 16,4 °C 21,2 °C 14,5 km/h (3 Bft)
24.06.2017 12:38 21,2 °C 21,2 °C 74 % 1014,1 hPa 0,0 mm 7,8 km/h (2 Bft) NW 326 ° 1 min 0,000 mm 3,1 UV-I 341 W/m² 16,4 °C 21,2 °C 14,5 km/h (3 Bft)
24.06.2017 12:39 21,2 °C 21,2 °C 74 % 1014,1 hPa 0,0 mm 5,6 km/h (1 Bft) N-NW 334 ° 1 min 0,000 mm 3,2 UV-I 350 W/m² 16,4 °C 21,2 °C 8,0 km/h (2 Bft)
24.06.2017 12:40 21,1 °C 21,2 °C 73 % 1014,1 hPa 0,0 mm 6,4 km/h (2 Bft) N-NW 333 ° 1 min 0,000 mm 3,3 UV-I 360 W/m² 16,1 °C 21,1 °C 12,9 km/h (3 Bft)
24.06.2017 12:41 21,2 °C 21,2 °C 75 % 1014,0 hPa 0,0 mm 5,5 km/h (1 Bft) NW 317 ° 1 min 0,000 mm 3,4 UV-I 369 W/m² 16,6 °C 21,2 °C 8,0 km/h (2 Bft)
24.06.2017 12:42 21,3 °C 21,3 °C 76 % 1014,0 hPa 0,0 mm 4,8 km/h (1 Bft) W-NW 298 ° 1 min 0,000 mm 3,5 UV-I 397 W/m² 16,9 °C 21,3 °C 8,0 km/h (2 Bft)
24.06.2017 12:43 21,3 °C 21,3 °C 76 % 1014,1 hPa 0,0 mm 5,4 km/h (1 Bft) W-NW 300 ° 1 min 0,000 mm 3,6 UV-I 404 W/m² 16,9 °C 21,3 °C 9,7 km/h (2 Bft)
24.06.2017 12:44 21,4 °C 21,4 °C 75 % 1014,1 hPa 0,0 mm 4,8 km/h (1 Bft) W-NW 282 ° 1 min 0,000 mm 3,7 UV-I 406 W/m² 16,8 °C 21,4 °C 9,7 km/h (2 Bft)
24.06.2017 12:45 21,3 °C 21,4 °C 74 % 1014,1 hPa 0,0 mm 6,5 km/h (2 Bft) W-NW 292 ° 1 min 0,000 mm 3,6 UV-I 392 W/m² 16,5 °C 21,3 °C 9,7 km/h (2 Bft)
24.06.2017 12:46 21,3 °C 21,3 °C 74 % 1014,1 hPa 0,0 mm 8,9 km/h (2 Bft) W 279 ° 1 min 0,000 mm 3,6 UV-I 373 W/m² 16,5 °C 21,3 °C 11,3 km/h (2 Bft)
24.06.2017 12:47 21,3 °C 21,3 °C 75 % 1014,1 hPa 0,0 mm 3,0 km/h (1 Bft) W 279 ° 1 min 0,000 mm 3,8 UV-I 403 W/m² 16,7 °C 21,3 °C 4,8 km/h (1 Bft)
24.06.2017 12:48 21,4 °C 21,4 °C 75 % 1014,1 hPa 0,0 mm 3,0 km/h (1 Bft) NW 321 ° 1 min 0,000 mm 4,0 UV-I 464 W/m² 16,8 °C 21,4 °C 4,8 km/h (1 Bft)
24.06.2017 12:49 21,6 °C 21,6 °C 76 % 1014,1 hPa 0,0 mm 8,0 km/h (2 Bft) W-NW 295 ° 1 min 0,000 mm 4,2 UV-I 485 W/m² 17,2 °C 21,6 °C 11,3 km/h (2 Bft)
24.06.2017 12:50 21,6 °C 21,6 °C 75 % 1014,2 hPa 0,0 mm 6,1 km/h (2 Bft) N-NW 336 ° 1 min 0,000 mm 4,3 UV-I 503 W/m² 17,0 °C 21,6 °C 9,7 km/h (2 Bft)
24.06.2017 12:51 21,7 °C 21,7 °C 75 % 1014,1 hPa 0,0 mm 6,0 km/h (2 Bft) NW 318 ° 1 min 0,000 mm 4,3 UV-I 508 W/m² 17,1 °C 21,7 °C 8,0 km/h (2 Bft)
24.06.2017 12:52 21,7 °C 21,7 °C 75 % 1014,1 hPa 0,0 mm 8,0 km/h (2 Bft) W 267 ° 1 min 0,000 mm 4,4 UV-I 519 W/m² 17,1 °C 21,7 °C 11,3 km/h (2 Bft)
24.06.2017 12:53 21,7 °C 21,7 °C 74 % 1014,1 hPa 0,0 mm 5,2 km/h (1 Bft) NW 315 ° 1 min 0,000 mm 4,4 UV-I 520 W/m² 16,9 °C 21,7 °C 9,7 km/h (2 Bft)
24.06.2017 12:54 21,8 °C 21,8 °C 75 % 1014,1 hPa 0,0 mm 7,4 km/h (2 Bft) W-NW 286 ° 1 min 0,000 mm 4,4 UV-I 464 W/m² 17,2 °C 21,8 °C 12,9 km/h (3 Bft)
24.06.2017 12:55 21,8 °C 21,8 °C 74 % 1014,2 hPa 0,0 mm 4,8 km/h (1 Bft) W 281 ° 1 min 0,000 mm 3,9 UV-I 410 W/m² 17,0 °C 21,8 °C 8,0 km/h (2 Bft)
24.06.2017 12:56 21,8 °C 21,8 °C 74 % 1014,1 hPa 0,0 mm 5,0 km/h (1 Bft) NW 315 ° 1 min 0,000 mm 4,0 UV-I 422 W/m² 17,0 °C 21,8 °C 9,7 km/h (2 Bft)
24.06.2017 12:57 21,8 °C 21,8 °C 74 % 1014,2 hPa 0,0 mm 13,9 km/h (3 Bft) W 275 ° 1 min 0,000 mm 4,0 UV-I 473 W/m² 17,0 °C 21,8 °C 16,1 km/h (3 Bft)
24.06.2017 12:58 21,8 °C 21,8 °C 75 % 1014,1 hPa 0,0 mm 11,1 km/h (2 Bft) W 275 ° 1 min 0,000 mm 4,0 UV-I 473 W/m² 17,2 °C 21,8 °C 16,1 km/h (3 Bft)
24.06.2017 12:59 21,7 °C 21,8 °C 73 % 1014,2 hPa 0,0 mm 7,7 km/h (2 Bft) NW 305 ° 1 min 0,000 mm 4,0 UV-I 432 W/m² 16,6 °C 21,7 °C 11,3 km/h (2 Bft)
24.06.2017 13:00 21,7 °C 21,8 °C 75 % 1014,3 hPa 0,0 mm 3,2 km/h (1 Bft) W 281 ° 1 min 0,000 mm 3,8 UV-I 388 W/m² 17,1 °C 21,7 °C 6,4 km/h (2 Bft)
24.06.2017 13:01 21,8 °C 21,8 °C 74 % 1014,2 hPa 0,0 mm 7,6 km/h (2 Bft) NW 321 ° 1 min 0,229 mm 3,7 UV-I 381 W/m² 17,0 °C 21,8 °C 9,7 km/h (2 Bft)
24.06.2017 13:02 21,8 °C 21,8 °C 73 % 1014,2 hPa 0,0 mm 6,9 km/h (2 Bft) W 261 ° 1 min 0,000 mm 3,6 UV-I 380 W/m² 16,7 °C 21,8 °C 9,7 km/h (2 Bft)
24.06.2017 13:03 21,8 °C 21,8 °C 74 % 1014,2 hPa 0,0 mm 7,8 km/h (2 Bft) W 263 ° 1 min 0,000 mm 3,7 UV-I 378 W/m² 17,0 °C 21,8 °C 11,3 km/h (2 Bft)
24.06.2017 13:04 21,7 °C 21,8 °C 74 % 1014,3 hPa 0,0 mm 9,1 km/h (2 Bft) NW 311 ° 1 min 0,000 mm 3,8 UV-I 390 W/m² 16,9 °C 21,7 °C 12,9 km/h (3 Bft)
24.06.2017 13:05 21,7 °C 21,7 °C 74 % 1014,3 hPa 0,0 mm 6,6 km/h (2 Bft) NW 320 ° 1 min 0,000 mm 3,7 UV-I 394 W/m² 16,9 °C 21,7 °C 9,7 km/h (2 Bft)
24.06.2017 13:06 21,7 °C 21,7 °C 75 % 1014,3 hPa 0,0 mm 6,0 km/h (2 Bft) W-NW 295 ° 1 min 0,000 mm 3,7 UV-I 401 W/m² 17,1 °C 21,7 °C 11,3 km/h (2 Bft)
24.06.2017 13:07 21,8 °C 21,8 °C 75 % 1014,2 hPa 0,0 mm 4,0 km/h (1 Bft) W 259 ° 1 min 0,000 mm 3,9 UV-I 418 W/m² 17,2 °C 21,8 °C 6,4 km/h (2 Bft)
24.06.2017 13:08 21,8 °C 21,8 °C 74 % 1014,2 hPa 0,0 mm 7,0 km/h (2 Bft) W 276 ° 1 min 0,000 mm 4,0 UV-I 431 W/m² 17,0 °C 21,8 °C 12,9 km/h (3 Bft)
24.06.2017 13:09 21,8 °C 21,8 °C 77 % 1014,3 hPa 0,0 mm 2,8 km/h (1 Bft) W-SW 251 ° 1 min 0,000 mm 4,2 UV-I 457 W/m² 17,6 °C 21,8 °C 8,0 km/h (2 Bft)
24.06.2017 13:10 21,9 °C 21,9 °C 76 % 1014,2 hPa 0,0 mm 8,5 km/h (2 Bft) W-SW 252 ° 1 min 0,000 mm 3,8 UV-I 410 W/m² 17,5 °C 21,9 °C 12,9 km/h (3 Bft)
24.06.2017 13:11 22,1 °C 22,1 °C 76 % 1014,2 hPa 0,0 mm 8,2 km/h (2 Bft) W-NW 284 ° 1 min 0,000 mm 4,0 UV-I 422 W/m² 17,7 °C 22,1 °C 12,9 km/h (3 Bft)
24.06.2017 13:12 22,2 °C 22,2 °C 75 % 1014,2 hPa 0,0 mm 8,9 km/h (2 Bft) W-NW 297 ° 1 min 0,000 mm 4,6 UV-I 452 W/m² 17,5 °C 22,2 °C 12,9 km/h (3 Bft)
24.06.2017 13:13 22,3 °C 22,3 °C 76 % 1014,2 hPa 0,0 mm 7,1 km/h (2 Bft) W 277 ° 1 min 0,000 mm 4,1 UV-I 441 W/m² 17,9 °C 22,3 °C 12,9 km/h (3 Bft)
24.06.2017 13:14 22,3 °C 22,3 °C 73 % 1014,1 hPa 0,0 mm 5,9 km/h (2 Bft) W-NW 290 ° 1 min 0,000 mm 3,8 UV-I 387 W/m² 17,2 °C 22,3 °C 12,9 km/h (3 Bft)
24.06.2017 13:15 22,3 °C 22,3 °C 75 % 1014,2 hPa 0,0 mm 5,4 km/h (1 Bft) W-NW 284 ° 1 min 0,000 mm 3,9 UV-I 427 W/m² 17,6 °C 22,3 °C 9,7 km/h (2 Bft)
24.06.2017 13:16 22,3 °C 22,3 °C 73 % 1014,2 hPa 0,0 mm 6,0 km/h (2 Bft) W-SW 247 ° 1 min 0,000 mm 3,3 UV-I 427 W/m² 17,2 °C 22,3 °C 14,5 km/h (3 Bft)
24.06.2017 13:17 22,2 °C 22,3 °C 75 % 1014,2 hPa 0,0 mm 7,7 km/h (2 Bft) W-NW 296 ° 1 min 0,000 mm 3,0 UV-I 313 W/m² 17,5 °C 22,2 °C 12,9 km/h (3 Bft)
24.06.2017 13:18 22,1 °C 22,2 °C 73 % 1014,1 hPa 0,0 mm 8,5 km/h (2 Bft) N-NW 342 ° 1 min 0,000 mm 3,0 UV-I 322 W/m² 17,0 °C 22,1 °C 12,9 km/h (3 Bft)
24.06.2017 13:19 22,1 °C 22,1 °C 74 % 1014,2 hPa 0,0 mm 7,8 km/h (2 Bft) W 277 ° 1 min 0,000 mm 3,0 UV-I 322 W/m² 17,2 °C 22,1 °C 11,3 km/h (2 Bft)
24.06.2017 13:20 21,9 °C 22,1 °C 74 % 1014,2 hPa 0,0 mm 8,9 km/h (2 Bft) NW 309 ° 0 min 0,000 mm 2,7 UV-I 265 W/m² 17,0 °C 21,9 °C 19,3 km/h (3 Bft)
24.06.2017 13:21 21,9 °C 21,9 °C 74 % 1014,1 hPa 0,0 mm 10,6 km/h (2 Bft) NW 312 ° 0 min 0,000 mm 2,6 UV-I 248 W/m² 17,0 °C 21,9 °C 14,5 km/h (3 Bft)
24.06.2017 13:22 21,8 °C 21,9 °C 75 % 1014,2 hPa 0,0 mm 5,1 km/h (1 Bft) W 263 ° 0 min 0,000 mm 2,5 UV-I 225 W/m² 17,2 °C 21,8 °C 9,7 km/h (2 Bft)
24.06.2017 13:23 21,8 °C 21,8 °C 76 % 1014,2 hPa 0,0 mm 5,6 km/h (1 Bft) W-SW 240 ° 0 min 0,000 mm 2,5 UV-I 234 W/m² 17,4 °C 21,8 °C 6,4 km/h (2 Bft)
24.06.2017 13:24 21,8 °C 21,8 °C 75 % 1014,2 hPa 0,0 mm 7,6 km/h (2 Bft) W-NW 288 ° 0 min 0,000 mm 2,9 UV-I 260 W/m² 17,2 °C 21,8 °C 11,3 km/h (2 Bft)
24.06.2017 13:25 21,7 °C 21,8 °C 74 % 1014,2 hPa 0,0 mm 5,6 km/h (1 Bft) NW 323 ° 0 min 0,000 mm 3,1 UV-I 283 W/m² 16,9 °C 21,7 °C 8,0 km/h (2 Bft)
24.06.2017 13:26 21,7 °C 21,7 °C 75 % 1014,1 hPa 0,0 mm 6,4 km/h (2 Bft) NW 311 ° 1 min 0,000 mm 3,7 UV-I 341 W/m² 17,1 °C 21,7 °C 9,7 km/h (2 Bft)
24.06.2017 13:27 21,7 °C 21,7 °C 75 % 1014,2 hPa 0,0 mm 8,4 km/h (2 Bft) NW 325 ° 1 min 0,000 mm 4,3 UV-I 341 W/m² 17,1 °C 21,7 °C 16,1 km/h (3 Bft)
24.06.2017 13:28 21,7 °C 21,7 °C 74 % 1014,2 hPa 0,0 mm 5,8 km/h (2 Bft) NW 322 ° 1 min 0,000 mm 4,3 UV-I 441 W/m² 16,9 °C 21,7 °C 11,3 km/h (2 Bft)
24.06.2017 13:29 21,7 °C 21,7 °C 75 % 1014,2 hPa 0,0 mm 7,6 km/h (2 Bft) W-NW 301 ° 1 min 0,000 mm 3,6 UV-I 330 W/m² 17,1 °C 21,7 °C 12,9 km/h (3 Bft)
24.06.2017 13:30 21,7 °C 21,7 °C 76 % 1014,2 hPa 0,0 mm 8,2 km/h (2 Bft) N 355 ° 1 min 0,000 mm 2,9 UV-I 311 W/m² 17,3 °C 21,7 °C 16,1 km/h (3 Bft)
24.06.2017 13:31 21,7 °C 21,7 °C 74 % 1014,3 hPa 0,0 mm 7,1 km/h (2 Bft) W-NW 299 ° 1 min 0,000 mm 3,0 UV-I 323 W/m² 16,9 °C 21,7 °C 14,5 km/h (3 Bft)
24.06.2017 13:32 21,6 °C 21,7 °C 74 % 1014,2 hPa 0,0 mm 8,3 km/h (2 Bft) W-NW 292 ° 1 min 0,000 mm 3,1 UV-I 346 W/m² 16,8 °C 21,6 °C 16,1 km/h (3 Bft)
24.06.2017 13:33 21,6 °C 21,6 °C 75 % 1014,3 hPa 0,0 mm 4,8 km/h (1 Bft) N-NW 328 ° 1 min 0,000 mm 3,0 UV-I 336 W/m² 17,0 °C 21,6 °C 6,4 km/h (2 Bft)
24.06.2017 13:34 21,6 °C 21,6 °C 75 % 1014,2 hPa 0,0 mm 8,1 km/h (2 Bft) NW 308 ° 1 min 0,000 mm 2,8 UV-I 336 W/m² 17,0 °C 21,6 °C 12,9 km/h (3 Bft)
24.06.2017 13:35 21,6 °C 21,6 °C 75 % 1014,2 hPa 0,0 mm 8,7 km/h (2 Bft) NW 315 ° 1 min 0,000 mm 2,9 UV-I 334 W/m² 17,0 °C 21,6 °C 14,5 km/h (3 Bft)
24.06.2017 13:36 21,6 °C 21,6 °C 76 % 1014,2 hPa 0,0 mm 8,5 km/h (2 Bft) W-NW 286 ° 1 min 0,000 mm 2,8 UV-I 323 W/m² 17,2 °C 21,6 °C 12,9 km/h (3 Bft)
24.06.2017 13:37 21,6 °C 21,6 °C 76 % 1014,2 hPa 0,0 mm 6,7 km/h (2 Bft) W 277 ° 1 min 0,000 mm 2,8 UV-I 311 W/m² 17,2 °C 21,6 °C 14,5 km/h (3 Bft)
24.06.2017 13:38 21,6 °C 21,6 °C 74 % 1014,2 hPa 0,0 mm 9,1 km/h (2 Bft) N-NW 327 ° 1 min 0,000 mm 2,9 UV-I 322 W/m² 16,8 °C 21,6 °C 14,5 km/h (3 Bft)
24.06.2017 13:39 21,6 °C 21,6 °C 74 % 1014,2 hPa 0,0 mm 7,2 km/h (2 Bft) W-NW 302 ° 1 min 0,000 mm 3,1 UV-I 338 W/m² 16,8 °C 21,6 °C 12,9 km/h (3 Bft)
24.06.2017 13:40 21,6 °C 21,6 °C 74 % 1014,2 hPa 0,0 mm 7,3 km/h (2 Bft) W 281 ° 1 min 0,000 mm 3,0 UV-I 330 W/m² 16,8 °C 21,6 °C 12,9 km/h (3 Bft)
24.06.2017 13:41 21,6 °C 21,6 °C 76 % 1014,2 hPa 0,0 mm 4,2 km/h (1 Bft) NW 306 ° 1 min 0,000 mm 2,9 UV-I 330 W/m² 17,2 °C 21,6 °C 6,4 km/h (2 Bft)
24.06.2017 13:42 21,6 °C 21,6 °C 75 % 1014,2 hPa 0,0 mm 7,1 km/h (2 Bft) W-NW 295 ° 1 min 0,000 mm 3,4 UV-I 362 W/m² 17,0 °C 21,6 °C 11,3 km/h (2 Bft)
24.06.2017 13:43 21,6 °C 21,6 °C 75 % 1014,1 hPa 0,0 mm 7,6 km/h (2 Bft) W 263 ° 1 min 0,000 mm 3,7 UV-I 388 W/m² 17,0 °C 21,6 °C 11,3 km/h (2 Bft)
24.06.2017 13:44 21,6 °C 21,6 °C 74 % 1014,1 hPa 0,0 mm 7,2 km/h (2 Bft) W-NW 302 ° 1 min 0,000 mm 3,9 UV-I 413 W/m² 16,8 °C 21,6 °C 16,1 km/h (3 Bft)
24.06.2017 13:45 21,7 °C 21,7 °C 76 % 1014,1 hPa 0,0 mm 10,2 km/h (2 Bft) W 269 ° 1 min 0,000 mm 4,0 UV-I 424 W/m² 17,3 °C 21,7 °C 14,5 km/h (3 Bft)
24.06.2017 13:46 21,8 °C 21,8 °C 76 % 1014,1 hPa 0,0 mm 6,4 km/h (2 Bft) W-SW 252 ° 1 min 0,000 mm 4,6 UV-I 580 W/m² 17,4 °C 21,8 °C 9,7 km/h (2 Bft)
24.06.2017 13:47 21,9 °C 21,9 °C 76 % 1014,1 hPa 0,0 mm 8,9 km/h (2 Bft) W 263 ° 1 min 0,000 mm 5,4 UV-I 568 W/m² 17,5 °C 21,9 °C 16,1 km/h (3 Bft)
24.06.2017 13:48 22,0 °C 22,0 °C 75 % 1014,1 hPa 0,0 mm 5,1 km/h (1 Bft) W-NW 293 ° 1 min 0,000 mm 5,5 UV-I 668 W/m² 17,4 °C 22,0 °C 12,9 km/h (3 Bft)
24.06.2017 13:49 22,1 °C 22,1 °C 75 % 1014,1 hPa 0,0 mm 10,5 km/h (2 Bft) W-SW 253 ° 1 min 0,000 mm 5,4 UV-I 680 W/m² 17,5 °C 22,1 °C 14,5 km/h (3 Bft)
24.06.2017 13:50 22,2 °C 22,2 °C 74 % 1014,1 hPa 0,0 mm 6,9 km/h (2 Bft) W-NW 294 ° 1 min 0,000 mm 5,8 UV-I 659 W/m² 17,3 °C 22,2 °C 11,3 km/h (2 Bft)
24.06.2017 13:51 22,2 °C 22,2 °C 74 % 1014,1 hPa 0,0 mm 8,9 km/h (2 Bft) W-NW 294 ° 1 min 0,000 mm 4,8 UV-I 659 W/m² 17,3 °C 22,2 °C 12,9 km/h (3 Bft)
24.06.2017 13:52 22,2 °C 22,2 °C 74 % 1014,1 hPa 0,0 mm 4,8 km/h (1 Bft) S-SW 207 ° 1 min 0,000 mm 5,0 UV-I 659 W/m² 17,3 °C 22,2 °C 8,0 km/h (2 Bft)
24.06.2017 13:53 22,3 °C 22,3 °C 75 % 1014,1 hPa 0,0 mm 9,5 km/h (2 Bft) W 259 ° 1 min 0,000 mm 6,3 UV-I 659 W/m² 17,6 °C 22,3 °C 12,9 km/h (3 Bft)
24.06.2017 13:54 22,5 °C 22,5 °C 76 % 1014,0 hPa 0,0 mm 9,8 km/h (2 Bft) W 269 ° 1 min 0,000 mm 5,3 UV-I 659 W/m² 18,0 °C 22,5 °C 12,9 km/h (3 Bft)
24.06.2017 13:55 22,7 °C 22,7 °C 74 % 1014,0 hPa 0,0 mm 9,1 km/h (2 Bft) W-SW 256 ° 1 min 0,000 mm 5,3 UV-I 633 W/m² 17,8 °C 22,7 °C 16,1 km/h (3 Bft)
24.06.2017 13:56 22,7 °C 22,7 °C 74 % 1014,0 hPa 0,0 mm 12,5 km/h (3 Bft) W-SW 252 ° 1 min 0,000 mm 4,3 UV-I 633 W/m² 17,8 °C 22,7 °C 16,1 km/h (3 Bft)
24.06.2017 13:57 22,7 °C 22,7 °C 72 % 1014,0 hPa 0,0 mm 3,8 km/h (1 Bft) W 269 ° 1 min 0,000 mm 3,9 UV-I 438 W/m² 17,4 °C 22,7 °C 9,7 km/h (2 Bft)
24.06.2017 13:58 22,6 °C 22,7 °C 72 % 1014,0 hPa 0,0 mm 6,8 km/h (2 Bft) W-NW 287 ° 1 min 0,000 mm 3,7 UV-I 438 W/m² 17,3 °C 22,6 °C 11,3 km/h (2 Bft)
24.06.2017 13:59 22,5 °C 22,6 °C 74 % 1014,0 hPa 0,0 mm 7,1 km/h (2 Bft) SW 231 ° 1 min 0,000 mm 3,4 UV-I 329 W/m² 17,6 °C 22,5 °C 11,3 km/h (2 Bft)
24.06.2017 14:00 22,4 °C 22,5 °C 73 % 1014,0 hPa 0,0 mm 4,6 km/h (1 Bft) S 191 ° 0 min 0,000 mm 2,4 UV-I 276 W/m² 17,3 °C 22,4 °C 6,4 km/h (2 Bft)
24.06.2017 14:01 22,3 °C 22,4 °C 72 % 1014,0 hPa 0,0 mm 5,1 km/h (1 Bft) NW 304 ° 0 min 0,279 mm 2,2 UV-I 248 W/m² 17,0 °C 22,3 °C 8,0 km/h (2 Bft)
24.06.2017 14:02 22,2 °C 22,3 °C 74 % 1014,0 hPa 0,0 mm 3,2 km/h (1 Bft) NW 304 ° 0 min 0,000 mm 2,0 UV-I 230 W/m² 17,3 °C 22,2 °C 3,2 km/h (1 Bft)
24.06.2017 14:03 22,2 °C 22,3 °C 76 % 1014,0 hPa 0,0 mm 3,6 km/h (1 Bft) NW 310 ° 0 min 0,000 mm 2,0 UV-I 220 W/m² 17,8 °C 22,2 °C 4,8 km/h (1 Bft)
24.06.2017 14:04 22,1 °C 22,2 °C 75 % 1014,0 hPa 0,0 mm 5,0 km/h (1 Bft) NW 304 ° 0 min 0,000 mm 1,9 UV-I 204 W/m² 17,5 °C 22,1 °C 11,3 km/h (2 Bft)
24.06.2017 14:05 22,1 °C 22,1 °C 75 % 1014,0 hPa 0,0 mm 6,0 km/h (2 Bft) W 281 ° 0 min 0,000 mm 1,8 UV-I 200 W/m² 17,5 °C 22,1 °C 11,3 km/h (2 Bft)
24.06.2017 14:06 21,9 °C 22,1 °C 75 % 1014,0 hPa 0,0 mm 6,8 km/h (2 Bft) W-NW 285 ° 0 min 0,000 mm 1,9 UV-I 206 W/m² 17,3 °C 21,9 °C 14,5 km/h (3 Bft)
24.06.2017 14:07 21,9 °C 21,9 °C 75 % 1014,0 hPa 0,0 mm 6,0 km/h (2 Bft) W 279 ° 0 min 0,000 mm 2,0 UV-I 209 W/m² 17,3 °C 21,9 °C 11,3 km/h (2 Bft)
24.06.2017 14:08 21,8 °C 21,9 °C 77 % 1013,9 hPa 0,0 mm 5,7 km/h (1 Bft) W 274 ° 0 min 0,000 mm 2,0 UV-I 218 W/m² 17,6 °C 21,8 °C 9,7 km/h (2 Bft)
24.06.2017 14:09 21,8 °C 21,8 °C 77 % 1014,0 hPa 0,0 mm 8,8 km/h (2 Bft) W-SW 240 ° 0 min 0,000 mm 2,2 UV-I 239 W/m² 17,6 °C 21,8 °C 14,5 km/h (3 Bft)
24.06.2017 14:10 21,7 °C 21,8 °C 76 % 1014,0 hPa 0,0 mm 2,4 km/h (1 Bft) W-SW 248 ° 0 min 0,000 mm 2,4 UV-I 287 W/m² 17,3 °C 21,7 °C 4,8 km/h (1 Bft)
24.06.2017 14:11 21,7 °C 21,7 °C 76 % 1013,9 hPa 0,0 mm 2,9 km/h (1 Bft) S-SW 207 ° 1 min 0,000 mm 2,8 UV-I 292 W/m² 17,3 °C 21,7 °C 4,8 km/h (1 Bft)
24.06.2017 14:12 21,7 °C 21,7 °C 75 % 1013,9 hPa 0,0 mm 4,3 km/h (1 Bft) W 259 ° 0 min 0,000 mm 2,6 UV-I 269 W/m² 17,1 °C 21,7 °C 6,4 km/h (2 Bft)
24.06.2017 14:13 21,7 °C 21,7 °C 76 % 1013,9 hPa 0,0 mm 3,6 km/h (1 Bft) SW 234 ° 0 min 0,000 mm 2,6 UV-I 257 W/m² 17,3 °C 21,7 °C 4,8 km/h (1 Bft)
24.06.2017 14:14 21,7 °C 21,7 °C 77 % 1013,9 hPa 0,0 mm 2,3 km/h (1 Bft) W-SW 248 ° 0 min 0,000 mm 2,4 UV-I 258 W/m² 17,5 °C 21,7 °C 4,8 km/h (1 Bft)
24.06.2017 14:15 21,7 °C 21,7 °C 77 % 1013,9 hPa 0,0 mm 7,8 km/h (2 Bft) W 269 ° 0 min 0,000 mm 2,6 UV-I 278 W/m² 17,5 °C 21,7 °C 11,3 km/h (2 Bft)
24.06.2017 14:16 21,7 °C 21,8 °C 75 % 1013,9 hPa 0,0 mm 6,2 km/h (2 Bft) W-SW 253 ° 0 min 0,000 mm 2,7 UV-I 271 W/m² 17,1 °C 21,7 °C 9,7 km/h (2 Bft)
24.06.2017 14:17 21,7 °C 21,8 °C 75 % 1013,9 hPa 0,0 mm 6,1 km/h (2 Bft) W-SW 248 ° 0 min 0,000 mm 2,3 UV-I 250 W/m² 17,1 °C 21,7 °C 9,7 km/h (2 Bft)
24.06.2017 14:18 21,7 °C 21,7 °C 76 % 1013,9 hPa 0,0 mm 4,9 km/h (1 Bft) W-SW 254 ° 0 min 0,000 mm 2,3 UV-I 246 W/m² 17,3 °C 21,7 °C 11,3 km/h (2 Bft)
24.06.2017 14:19 21,7 °C 21,7 °C 76 % 1013,9 hPa 0,0 mm 5,6 km/h (1 Bft) W-SW 248 ° 0 min 0,000 mm 2,3 UV-I 244 W/m² 17,3 °C 21,7 °C 11,3 km/h (2 Bft)
24.06.2017 14:20 21,7 °C 21,7 °C 76 % 1013,8 hPa 0,0 mm 4,3 km/h (1 Bft) W 281 ° 0 min 0,000 mm 2,2 UV-I 236 W/m² 17,3 °C 21,7 °C 6,4 km/h (2 Bft)
24.06.2017 14:21 21,7 °C 21,7 °C 77 % 1013,9 hPa 0,0 mm 4,5 km/h (1 Bft) W 267 ° 0 min 0,000 mm 2,2 UV-I 214 W/m² 17,5 °C 21,7 °C 6,4 km/h (2 Bft)
24.06.2017 14:22 21,7 °C 21,7 °C 76 % 1013,9 hPa 0,0 mm 7,4 km/h (2 Bft) W 260 ° 0 min 0,000 mm 2,0 UV-I 197 W/m² 17,3 °C 21,7 °C 11,3 km/h (2 Bft)
24.06.2017 14:23 21,7 °C 21,7 °C 75 % 1013,9 hPa 0,0 mm 3,6 km/h (1 Bft) W 277 ° 0 min 0,000 mm 1,8 UV-I 199 W/m² 17,1 °C 21,7 °C 6,4 km/h (2 Bft)
24.06.2017 14:24 21,7 °C 21,7 °C 76 % 1013,9 hPa 0,0 mm 3,8 km/h (1 Bft) SW 227 ° 0 min 0,000 mm 1,9 UV-I 200 W/m² 17,3 °C 21,7 °C 6,4 km/h (2 Bft)
24.06.2017 14:25 21,7 °C 21,7 °C 76 % 1013,9 hPa 0,0 mm 7,9 km/h (2 Bft) W-NW 292 ° 0 min 0,000 mm 1,8 UV-I 193 W/m² 17,3 °C 21,7 °C 11,3 km/h (2 Bft)
24.06.2017 14:26 21,7 °C 21,7 °C 77 % 1013,9 hPa 0,0 mm 6,8 km/h (2 Bft) W-NW 284 ° 0 min 0,000 mm 1,8 UV-I 195 W/m² 17,5 °C 21,7 °C 11,3 km/h (2 Bft)
24.06.2017 14:27 21,7 °C 21,7 °C 76 % 1013,9 hPa 0,0 mm 4,3 km/h (1 Bft) W 277 ° 0 min 0,000 mm 2,0 UV-I 211 W/m² 17,3 °C 21,7 °C 6,4 km/h (2 Bft)
24.06.2017 14:28 21,7 °C 21,7 °C 77 % 1013,9 hPa 0,0 mm 4,5 km/h (1 Bft) W-NW 288 ° 0 min 0,000 mm 2,3 UV-I 288 W/m² 17,5 °C 21,7 °C 6,4 km/h (2 Bft)
24.06.2017 14:29 21,8 °C 21,8 °C 78 % 1013,8 hPa 0,0 mm 4,8 km/h (1 Bft) W-SW 249 ° 1 min 0,000 mm 3,0 UV-I 322 W/m² 17,8 °C 21,8 °C 8,0 km/h (2 Bft)
24.06.2017 14:30 21,8 °C 21,8 °C 78 % 1013,8 hPa 0,0 mm 9,8 km/h (2 Bft) W 279 ° 1 min 0,000 mm 3,1 UV-I 322 W/m² 17,8 °C 21,8 °C 17,7 km/h (3 Bft)
24.06.2017 14:31 21,8 °C 21,8 °C 77 % 1013,8 hPa 0,0 mm 10,6 km/h (2 Bft) NW 304 ° 1 min 0,000 mm 3,1 UV-I 327 W/m² 17,6 °C 21,8 °C 12,9 km/h (3 Bft)
24.06.2017 14:32 21,8 °C 21,8 °C 75 % 1013,8 hPa 0,0 mm 5,9 km/h (2 Bft) W-SW 258 ° 1 min 0,000 mm 3,1 UV-I 352 W/m² 17,2 °C 21,8 °C 8,0 km/h (2 Bft)
24.06.2017 14:33 21,8 °C 21,8 °C 75 % 1013,8 hPa 0,0 mm 5,0 km/h (1 Bft) W 261 ° 1 min 0,000 mm 3,2 UV-I 404 W/m² 17,2 °C 21,8 °C 8,0 km/h (2 Bft)
24.06.2017 14:34 21,9 °C 21,9 °C 76 % 1013,8 hPa 0,0 mm 11,2 km/h (2 Bft) W 263 ° 1 min 0,000 mm 3,5 UV-I 417 W/m² 17,5 °C 21,9 °C 14,5 km/h (3 Bft)
24.06.2017 14:35 21,9 °C 21,9 °C 76 % 1013,8 hPa 0,0 mm 4,9 km/h (1 Bft) W 280 ° 1 min 0,000 mm 3,0 UV-I 334 W/m² 17,5 °C 21,9 °C 11,3 km/h (2 Bft)
24.06.2017 14:36 22,0 °C 22,0 °C 76 % 1013,8 hPa 0,0 mm 6,6 km/h (2 Bft) W-SW 249 ° 1 min 0,000 mm 2,9 UV-I 313 W/m² 17,6 °C 22,0 °C 11,3 km/h (2 Bft)
24.06.2017 14:37 22,0 °C 22,1 °C 77 % 1013,7 hPa 0,0 mm 9,5 km/h (2 Bft) W 275 ° 0 min 0,000 mm 2,5 UV-I 287 W/m² 17,8 °C 22,0 °C 14,5 km/h (3 Bft)
24.06.2017 14:38 22,1 °C 22,1 °C 77 % 1013,8 hPa 0,0 mm 3,5 km/h (1 Bft) W-NW 299 ° 0 min 0,000 mm 2,0 UV-I 225 W/m² 17,9 °C 22,1 °C 4,8 km/h (1 Bft)
24.06.2017 14:39 22,1 °C 22,1 °C 77 % 1013,8 hPa 0,0 mm 3,7 km/h (1 Bft) NW 317 ° 0 min 0,000 mm 1,8 UV-I 218 W/m² 17,9 °C 22,1 °C 6,4 km/h (2 Bft)
24.06.2017 14:40 22,1 °C 22,1 °C 76 % 1013,8 hPa 0,0 mm 6,1 km/h (2 Bft) N-NW 328 ° 0 min 0,000 mm 2,1 UV-I 237 W/m² 17,7 °C 22,1 °C 12,9 km/h (3 Bft)
24.06.2017 14:41 22,0 °C 22,1 °C 76 % 1013,9 hPa 0,0 mm 3,8 km/h (1 Bft) NW 321 ° 0 min 0,000 mm 2,2 UV-I 250 W/m² 17,6 °C 22,0 °C 8,0 km/h (2 Bft)
24.06.2017 14:42 22,0 °C 22,0 °C 77 % 1013,8 hPa 0,0 mm 3,7 km/h (1 Bft) NW 324 ° 0 min 0,000 mm 2,3 UV-I 260 W/m² 17,8 °C 22,0 °C 6,4 km/h (2 Bft)
24.06.2017 14:43 22,0 °C 22,0 °C 77 % 1013,8 hPa 0,0 mm 3,7 km/h (1 Bft) NW 310 ° 0 min 0,000 mm 2,4 UV-I 264 W/m² 17,8 °C 22,0 °C 6,4 km/h (2 Bft)
24.06.2017 14:44 22,0 °C 22,0 °C 77 % 1013,8 hPa 0,0 mm 3,8 km/h (1 Bft) W-NW 288 ° 0 min 0,000 mm 2,5 UV-I 271 W/m² 17,8 °C 22,0 °C 6,4 km/h (2 Bft)
24.06.2017 14:45 22,0 °C 22,0 °C 76 % 1013,7 hPa 0,0 mm 7,7 km/h (2 Bft) W-NW 300 ° 0 min 0,000 mm 2,5 UV-I 274 W/m² 17,6 °C 22,0 °C 14,5 km/h (3 Bft)
24.06.2017 14:46 21,9 °C 22,0 °C 75 % 1013,7 hPa 0,0 mm 6,7 km/h (2 Bft) W-NW 283 ° 0 min 0,000 mm 2,4 UV-I 274 W/m² 17,3 °C 21,9 °C 12,9 km/h (3 Bft)
24.06.2017 14:47 21,9 °C 21,9 °C 75 % 1013,7 hPa 0,0 mm 6,3 km/h (2 Bft) NW 317 ° 0 min 0,000 mm 2,1 UV-I 237 W/m² 17,3 °C 21,9 °C 12,9 km/h (3 Bft)
24.06.2017 14:48 21,9 °C 21,9 °C 76 % 1013,7 hPa 0,0 mm 11,0 km/h (2 Bft) W-NW 296 ° 0 min 0,000 mm 2,1 UV-I 229 W/m² 17,5 °C 21,9 °C 14,5 km/h (3 Bft)
24.06.2017 14:49 21,8 °C 21,9 °C 75 % 1013,7 hPa 0,0 mm 5,5 km/h (1 Bft) NW 321 ° 0 min 0,000 mm 2,1 UV-I 255 W/m² 17,2 °C 21,8 °C 8,0 km/h (2 Bft)
24.06.2017 14:50 21,8 °C 21,8 °C 76 % 1013,7 hPa 0,0 mm 8,8 km/h (2 Bft) W 273 ° 0 min 0,000 mm 2,5 UV-I 272 W/m² 17,4 °C 21,8 °C 14,5 km/h (3 Bft)
24.06.2017 14:51 21,8 °C 21,8 °C 77 % 1013,7 hPa 0,0 mm 8,4 km/h (2 Bft) W-NW 290 ° 0 min 0,000 mm 2,4 UV-I 244 W/m² 17,6 °C 21,8 °C 11,3 km/h (2 Bft)
24.06.2017 14:52 21,8 °C 21,8 °C 76 % 1013,8 hPa 0,0 mm 9,3 km/h (2 Bft) NW 313 ° 0 min 0,000 mm 2,6 UV-I 279 W/m² 17,4 °C 21,8 °C 12,9 km/h (3 Bft)
24.06.2017 14:53 21,8 °C 21,9 °C 76 % 1013,8 hPa 0,0 mm 12,1 km/h (2 Bft) N-NW 335 ° 0 min 0,000 mm 4,1 UV-I 279 W/m² 17,4 °C 21,8 °C 17,7 km/h (3 Bft)
24.06.2017 14:54 21,9 °C 21,9 °C 76 % 1013,7 hPa 0,0 mm 13,4 km/h (3 Bft) NW 315 ° 1 min 0,000 mm 3,8 UV-I 445 W/m² 17,5 °C 21,9 °C 19,3 km/h (3 Bft)
24.06.2017 14:55 22,0 °C 22,0 °C 77 % 1013,8 hPa 0,0 mm 6,4 km/h (2 Bft) W-NW 284 ° 1 min 0,000 mm 3,8 UV-I 432 W/m² 17,8 °C 22,0 °C 12,9 km/h (3 Bft)
24.06.2017 14:56 22,1 °C 22,1 °C 76 % 1013,7 hPa 0,0 mm 8,0 km/h (2 Bft) N-NW 338 ° 1 min 0,000 mm 4,3 UV-I 432 W/m² 17,7 °C 22,1 °C 14,5 km/h (3 Bft)
24.06.2017 14:57 22,1 °C 22,1 °C 76 % 1013,7 hPa 0,0 mm 9,7 km/h (2 Bft) NW 319 ° 1 min 0,000 mm 3,9 UV-I 436 W/m² 17,7 °C 22,1 °C 16,1 km/h (3 Bft)
24.06.2017 14:58 22,2 °C 22,2 °C 76 % 1013,7 hPa 0,0 mm 7,1 km/h (2 Bft) NW 316 ° 1 min 0,000 mm 3,5 UV-I 392 W/m² 17,8 °C 22,2 °C 12,9 km/h (3 Bft)
24.06.2017 14:59 22,3 °C 22,3 °C 77 % 1013,7 hPa 0,0 mm 6,9 km/h (2 Bft) NW 318 ° 1 min 0,000 mm 3,5 UV-I 399 W/m² 18,1 °C 22,3 °C 12,9 km/h (3 Bft)
24.06.2017 15:00 22,3 °C 22,3 °C 77 % 1013,7 hPa 0,0 mm 6,2 km/h (2 Bft) NW 306 ° 1 min 0,000 mm 5,6 UV-I 399 W/m² 18,1 °C 22,3 °C 11,3 km/h (2 Bft)
24.06.2017 15:01 22,5 °C 22,5 °C 76 % 1013,7 hPa 0,0 mm 6,7 km/h (2 Bft) W-NW 286 ° 1 min 0,204 mm 4,2 UV-I 399 W/m² 18,0 °C 22,5 °C 11,3 km/h (2 Bft)
24.06.2017 15:02 22,6 °C 22,6 °C 76 % 1013,6 hPa 0,0 mm 8,3 km/h (2 Bft) W-NW 302 ° 1 min 0,000 mm 4,1 UV-I 466 W/m² 18,1 °C 22,6 °C 11,3 km/h (2 Bft)
24.06.2017 15:03 22,7 °C 22,7 °C 76 % 1013,7 hPa 0,0 mm 8,7 km/h (2 Bft) N-NW 327 ° 1 min 0,000 mm 4,9 UV-I 466 W/m² 18,2 °C 22,7 °C 16,1 km/h (3 Bft)
24.06.2017 15:04 22,7 °C 22,7 °C 75 % 1013,7 hPa 0,0 mm 10,0 km/h (2 Bft) N-NW 342 ° 1 min 0,000 mm 5,1 UV-I 466 W/m² 18,0 °C 22,7 °C 16,1 km/h (3 Bft)
24.06.2017 15:05 22,7 °C 22,7 °C 73 % 1013,7 hPa 0,0 mm 6,4 km/h (2 Bft) NW 325 ° 1 min 0,000 mm 3,9 UV-I 466 W/m² 17,6 °C 22,7 °C 11,3 km/h (2 Bft)
24.06.2017 15:06 22,6 °C 22,7 °C 73 % 1013,6 hPa 0,0 mm 9,2 km/h (2 Bft) N-NW 338 ° 1 min 0,000 mm 4,9 UV-I 388 W/m² 17,5 °C 22,6 °C 14,5 km/h (3 Bft)
24.06.2017 15:07 22,6 °C 22,6 °C 74 % 1013,6 hPa 0,0 mm 6,4 km/h (2 Bft) NW 323 ° 1 min 0,000 mm 4,9 UV-I 388 W/m² 17,7 °C 22,6 °C 11,3 km/h (2 Bft)
24.06.2017 15:08 22,5 °C 22,6 °C 74 % 1013,5 hPa 0,0 mm 7,7 km/h (2 Bft) NW 309 ° 1 min 0,000 mm 5,5 UV-I 388 W/m² 17,6 °C 22,5 °C 12,9 km/h (3 Bft)
24.06.2017 15:09 22,6 °C 22,6 °C 75 % 1013,5 hPa 0,0 mm 8,0 km/h (2 Bft) NW 320 ° 1 min 0,000 mm 5,9 UV-I 388 W/m² 17,9 °C 22,6 °C 12,9 km/h (3 Bft)
24.06.2017 15:10 22,6 °C 22,7 °C 76 % 1013,5 hPa 0,0 mm 7,8 km/h (2 Bft) N-NW 327 ° 1 min 0,000 mm 5,5 UV-I 388 W/m² 18,1 °C 22,6 °C 11,3 km/h (2 Bft)
24.06.2017 15:11 22,7 °C 22,7 °C 75 % 1013,5 hPa 0,0 mm 6,0 km/h (2 Bft) NW 309 ° 1 min 0,000 mm 4,1 UV-I 388 W/m² 18,0 °C 22,7 °C 11,3 km/h (2 Bft)
24.06.2017 15:12 22,7 °C 22,7 °C 73 % 1013,5 hPa 0,0 mm 7,3 km/h (2 Bft) N-NW 327 ° 1 min 0,000 mm 4,8 UV-I 388 W/m² 17,6 °C 22,7 °C 12,9 km/h (3 Bft)
24.06.2017 15:13 22,7 °C 22,7 °C 75 % 1013,5 hPa 0,0 mm 9,3 km/h (2 Bft) N-NW 335 ° 1 min 0,000 mm 5,7 UV-I 388 W/m² 18,0 °C 22,7 °C 14,5 km/h (3 Bft)
24.06.2017 15:14 22,7 °C 22,7 °C 74 % 1013,4 hPa 0,0 mm 4,7 km/h (1 Bft) NW 311 ° 1 min 0,000 mm 5,7 UV-I 786 W/m² 17,8 °C 22,7 °C 9,7 km/h (2 Bft)
24.06.2017 15:15 22,8 °C 22,8 °C 74 % 1013,5 hPa 0,0 mm 6,4 km/h (2 Bft) N-NW 334 ° 1 min 0,000 mm 5,5 UV-I 786 W/m² 17,9 °C 22,8 °C 11,3 km/h (2 Bft)
24.06.2017 15:16 22,8 °C 22,8 °C 74 % 1013,4 hPa 0,0 mm 3,8 km/h (1 Bft) N-NW 342 ° 1 min 0,000 mm 4,2 UV-I 786 W/m² 17,9 °C 22,8 °C 8,0 km/h (2 Bft)
24.06.2017 15:17 22,9 °C 22,9 °C 76 % 1013,4 hPa 0,0 mm 9,9 km/h (2 Bft) N-NW 330 ° 1 min 0,000 mm 4,0 UV-I 390 W/m² 18,4 °C 22,9 °C 16,1 km/h (3 Bft)
24.06.2017 15:18 22,9 °C 23,0 °C 74 % 1013,4 hPa 0,0 mm 13,0 km/h (3 Bft) W-NW 285 ° 1 min 0,000 mm 5,0 UV-I 390 W/m² 18,0 °C 22,9 °C 19,3 km/h (3 Bft)
24.06.2017 15:19 23,0 °C 23,0 °C 74 % 1013,4 hPa 0,0 mm 8,8 km/h (2 Bft) W 274 ° 1 min 0,000 mm 5,7 UV-I 390 W/m² 18,1 °C 23,0 °C 12,9 km/h (3 Bft)
24.06.2017 15:20 23,0 °C 23,0 °C 74 % 1013,4 hPa 0,0 mm 13,3 km/h (3 Bft) W-NW 284 ° 1 min 0,000 mm 5,2 UV-I 390 W/m² 18,1 °C 23,0 °C 16,1 km/h (3 Bft)
24.06.2017 15:21 23,0 °C 23,0 °C 74 % 1013,4 hPa 0,0 mm 11,6 km/h (2 Bft) NW 326 ° 1 min 0,000 mm 4,5 UV-I 390 W/m² 18,1 °C 23,0 °C 17,7 km/h (3 Bft)
24.06.2017 15:22 22,9 °C 23,0 °C 73 % 1013,4 hPa 0,0 mm 8,7 km/h (2 Bft) NW 308 ° 1 min 0,000 mm 4,5 UV-I 533 W/m² 17,8 °C 22,9 °C 11,3 km/h (2 Bft)
24.06.2017 15:23 22,9 °C 22,9 °C 74 % 1013,4 hPa 0,0 mm 10,8 km/h (2 Bft) N-NW 332 ° 1 min 0,000 mm 4,2 UV-I 533 W/m² 18,0 °C 22,9 °C 16,1 km/h (3 Bft)
24.06.2017 15:24 22,8 °C 22,9 °C 74 % 1013,4 hPa 0,0 mm 7,1 km/h (2 Bft) NW 317 ° 1 min 0,000 mm 4,1 UV-I 533 W/m² 17,9 °C 22,8 °C 16,1 km/h (3 Bft)
24.06.2017 15:25 22,7 °C 22,8 °C 72 % 1013,4 hPa 0,0 mm 6,2 km/h (2 Bft) W-NW 288 ° 1 min 0,000 mm 4,1 UV-I 533 W/m² 17,4 °C 22,7 °C 11,3 km/h (2 Bft)
24.06.2017 15:26 22,6 °C 22,7 °C 73 % 1013,4 hPa 0,0 mm 9,0 km/h (2 Bft) W-NW 294 ° 1 min 0,000 mm 5,3 UV-I 687 W/m² 17,5 °C 22,6 °C 14,5 km/h (3 Bft)
24.06.2017 15:27 22,6 °C 22,6 °C 74 % 1013,4 hPa 0,0 mm 4,7 km/h (1 Bft) W 261 ° 1 min 0,000 mm 5,7 UV-I 687 W/m² 17,7 °C 22,6 °C 6,4 km/h (2 Bft)
24.06.2017 15:28 22,6 °C 22,6 °C 72 % 1013,3 hPa 0,0 mm 5,4 km/h (1 Bft) NW 317 ° 1 min 0,000 mm 5,6 UV-I 782 W/m² 17,3 °C 22,6 °C 8,0 km/h (2 Bft)
24.06.2017 15:29 22,6 °C 22,6 °C 74 % 1013,4 hPa 0,0 mm 6,9 km/h (2 Bft) W-NW 290 ° 1 min 0,000 mm 5,4 UV-I 782 W/m² 17,7 °C 22,6 °C 8,0 km/h (2 Bft)
24.06.2017 15:30 22,8 °C 22,8 °C 76 % 1013,3 hPa 0,0 mm 5,2 km/h (1 Bft) W 275 ° 1 min 0,000 mm 5,4 UV-I 782 W/m² 18,3 °C 22,8 °C 8,0 km/h (2 Bft)
24.06.2017 15:31 23,0 °C 23,0 °C 75 % 1013,3 hPa 0,0 mm 7,0 km/h (2 Bft) W 274 ° 1 min 0,000 mm 5,4 UV-I 784 W/m² 18,3 °C 23,0 °C 12,9 km/h (3 Bft)
24.06.2017 15:32 23,0 °C 23,1 °C 73 % 1013,3 hPa 0,0 mm 6,3 km/h (2 Bft) W-NW 296 ° 1 min 0,000 mm 5,4 UV-I 838 W/m² 17,9 °C 23,0 °C 9,7 km/h (2 Bft)
24.06.2017 15:33 23,0 °C 23,1 °C 73 % 1013,3 hPa 0,0 mm 4,9 km/h (1 Bft) W-NW 290 ° 1 min 0,000 mm 5,8 UV-I 867 W/m² 17,9 °C 23,0 °C 6,4 km/h (2 Bft)
24.06.2017 15:34 23,0 °C 23,0 °C 74 % 1013,3 hPa 0,0 mm 8,7 km/h (2 Bft) W-NW 286 ° 1 min 0,000 mm 5,6 UV-I 853 W/m² 18,1 °C 23,0 °C 12,9 km/h (3 Bft)
24.06.2017 15:35 23,1 °C 23,1 °C 73 % 1013,3 hPa 0,0 mm 12,1 km/h (2 Bft) W-NW 296 ° 1 min 0,000 mm 5,4 UV-I 844 W/m² 18,0 °C 23,1 °C 16,1 km/h (3 Bft)
24.06.2017 15:36 23,1 °C 23,1 °C 74 % 1013,2 hPa 0,0 mm 11,2 km/h (2 Bft) W-NW 302 ° 1 min 0,000 mm 5,6 UV-I 853 W/m² 18,2 °C 23,1 °C 16,1 km/h (3 Bft)
24.06.2017 15:37 23,2 °C 23,2 °C 73 % 1013,2 hPa 0,0 mm 10,7 km/h (2 Bft) W-NW 283 ° 1 min 0,000 mm 5,4 UV-I 805 W/m² 18,1 °C 23,2 °C 16,1 km/h (3 Bft)
24.06.2017 15:38 23,2 °C 23,2 °C 72 % 1013,2 hPa 0,0 mm 12,3 km/h (3 Bft) W 281 ° 1 min 0,000 mm 5,5 UV-I 809 W/m² 17,9 °C 23,2 °C 16,1 km/h (3 Bft)
24.06.2017 15:39 23,2 °C 23,2 °C 72 % 1013,2 hPa 0,0 mm 11,7 km/h (2 Bft) NW 323 ° 1 min 0,000 mm 5,5 UV-I 809 W/m² 17,9 °C 23,2 °C 17,7 km/h (3 Bft)
24.06.2017 15:40 23,2 °C 23,2 °C 72 % 1013,2 hPa 0,0 mm 9,5 km/h (2 Bft) W-NW 284 ° 1 min 0,000 mm 5,2 UV-I 798 W/m² 17,9 °C 23,2 °C 14,5 km/h (3 Bft)
24.06.2017 15:41 23,1 °C 23,2 °C 73 % 1013,1 hPa 0,0 mm 10,3 km/h (2 Bft) W-NW 286 ° 1 min 0,000 mm 5,5 UV-I 733 W/m² 18,0 °C 23,1 °C 16,1 km/h (3 Bft)
24.06.2017 15:42 23,0 °C 23,1 °C 73 % 1013,2 hPa 0,0 mm 10,9 km/h (2 Bft) NW 304 ° 1 min 0,000 mm 4,7 UV-I 733 W/m² 17,9 °C 23,0 °C 17,7 km/h (3 Bft)
24.06.2017 15:43 23,0 °C 23,0 °C 73 % 1013,2 hPa 0,0 mm 9,3 km/h (2 Bft) W-NW 297 ° 1 min 0,000 mm 4,7 UV-I 733 W/m² 17,9 °C 23,0 °C 14,5 km/h (3 Bft)
24.06.2017 15:44 23,0 °C 23,0 °C 73 % 1013,2 hPa 0,0 mm 7,1 km/h (2 Bft) W 260 ° 1 min 0,000 mm 4,0 UV-I 550 W/m² 17,9 °C 23,0 °C 12,9 km/h (3 Bft)
24.06.2017 15:45 22,9 °C 23,0 °C 73 % 1013,2 hPa 0,0 mm 10,6 km/h (2 Bft) W-NW 292 ° 1 min 0,000 mm 4,8 UV-I 550 W/m² 17,8 °C 22,9 °C 14,5 km/h (3 Bft)
24.06.2017 15:46 22,9 °C 22,9 °C 74 % 1013,2 hPa 0,0 mm 10,4 km/h (2 Bft) NW 304 ° 1 min 0,000 mm 4,7 UV-I 733 W/m² 18,0 °C 22,9 °C 12,9 km/h (3 Bft)
24.06.2017 15:47 22,9 °C 22,9 °C 73 % 1013,2 hPa 0,0 mm 11,4 km/h (2 Bft) W 281 ° 1 min 0,000 mm 4,0 UV-I 733 W/m² 17,8 °C 22,9 °C 19,3 km/h (3 Bft)
24.06.2017 15:48 22,8 °C 22,9 °C 73 % 1013,2 hPa 0,0 mm 12,9 km/h (3 Bft) W-SW 251 ° 1 min 0,000 mm 4,4 UV-I 733 W/m² 17,7 °C 22,8 °C 16,1 km/h (3 Bft)
24.06.2017 15:49 22,8 °C 22,8 °C 74 % 1013,2 hPa 0,0 mm 9,7 km/h (2 Bft) NW 307 ° 1 min 0,000 mm 4,5 UV-I 613 W/m² 17,9 °C 22,8 °C 16,1 km/h (3 Bft)
24.06.2017 15:50 22,8 °C 22,8 °C 72 % 1013,2 hPa 0,0 mm 9,7 km/h (2 Bft) W-SW 256 ° 1 min 0,000 mm 4,8 UV-I 613 W/m² 17,5 °C 22,8 °C 12,9 km/h (3 Bft)
24.06.2017 15:51 22,8 °C 22,8 °C 74 % 1013,2 hPa 0,0 mm 5,0 km/h (1 Bft) W-NW 301 ° 0 min 0,000 mm 3,1 UV-I 206 W/m² 17,9 °C 22,8 °C 11,3 km/h (2 Bft)
24.06.2017 15:52 22,7 °C 22,8 °C 73 % 1013,2 hPa 0,0 mm 10,2 km/h (2 Bft) W 280 ° 0 min 0,000 mm 3,8 UV-I 206 W/m² 17,6 °C 22,7 °C 14,5 km/h (3 Bft)
24.06.2017 15:53 22,6 °C 22,7 °C 74 % 1013,1 hPa 0,0 mm 9,2 km/h (2 Bft) W-NW 288 ° 0 min 0,000 mm 3,8 UV-I 206 W/m² 17,7 °C 22,6 °C 12,9 km/h (3 Bft)
24.06.2017 15:54 22,5 °C 22,6 °C 74 % 1013,1 hPa 0,0 mm 12,4 km/h (3 Bft) W-SW 258 ° 0 min 0,000 mm 3,5 UV-I 206 W/m² 17,6 °C 22,5 °C 17,7 km/h (3 Bft)
24.06.2017 15:55 22,5 °C 22,6 °C 74 % 1013,1 hPa 0,0 mm 11,3 km/h (2 Bft) W 279 ° 0 min 0,000 mm 5,0 UV-I 206 W/m² 17,6 °C 22,5 °C 16,1 km/h (3 Bft)
24.06.2017 15:56 22,4 °C 22,5 °C 74 % 1013,0 hPa 0,0 mm 9,8 km/h (2 Bft) NW 305 ° 1 min 0,000 mm 4,9 UV-I 703 W/m² 17,5 °C 22,4 °C 16,1 km/h (3 Bft)
24.06.2017 15:57 22,5 °C 22,5 °C 74 % 1013,0 hPa 0,0 mm 8,3 km/h (2 Bft) W-NW 294 ° 1 min 0,000 mm 3,9 UV-I 703 W/m² 17,6 °C 22,5 °C 14,5 km/h (3 Bft)
24.06.2017 15:58 22,6 °C 22,6 °C 75 % 1013,0 hPa 0,0 mm 7,1 km/h (2 Bft) W 279 ° 1 min 0,000 mm 4,8 UV-I 703 W/m² 17,9 °C 22,6 °C 12,9 km/h (3 Bft)
24.06.2017 15:59 22,7 °C 22,7 °C 73 % 1013,0 hPa 0,0 mm 11,0 km/h (2 Bft) W-NW 292 ° 1 min 0,000 mm 4,8 UV-I 703 W/m² 17,6 °C 22,7 °C 17,7 km/h (3 Bft)
24.06.2017 16:00 22,6 °C 22,7 °C 72 % 1013,0 hPa 0,0 mm 9,0 km/h (2 Bft) W-NW 290 ° 1 min 0,000 mm 4,0 UV-I 703 W/m² 17,3 °C 22,6 °C 14,5 km/h (3 Bft)
24.06.2017 16:01 22,6 °C 22,6 °C 74 % 1013,0 hPa 0,0 mm 7,0 km/h (2 Bft) W 280 ° 1 min 0,406 mm 4,0 UV-I 703 W/m² 17,7 °C 22,6 °C 11,3 km/h (2 Bft)
24.06.2017 16:02 22,6 °C 22,6 °C 74 % 1013,0 hPa 0,0 mm 4,8 km/h (1 Bft) W 279 ° 1 min 0,000 mm 4,7 UV-I 671 W/m² 17,7 °C 22,6 °C 8,0 km/h (2 Bft)
24.06.2017 16:03 22,7 °C 22,7 °C 75 % 1012,9 hPa 0,0 mm 7,5 km/h (2 Bft) NW 311 ° 1 min 0,000 mm 4,7 UV-I 701 W/m² 18,0 °C 22,7 °C 9,7 km/h (2 Bft)
24.06.2017 16:04 22,7 °C 22,8 °C 75 % 1012,9 hPa 0,0 mm 10,7 km/h (2 Bft) NW 306 ° 1 min 0,000 mm 4,3 UV-I 701 W/m² 18,0 °C 22,7 °C 12,9 km/h (3 Bft)
24.06.2017 16:05 22,8 °C 22,8 °C 74 % 1013,0 hPa 0,0 mm 9,5 km/h (2 Bft) W-NW 285 ° 1 min 0,000 mm 4,8 UV-I 701 W/m² 17,9 °C 22,8 °C 12,9 km/h (3 Bft)
24.06.2017 16:06 22,9 °C 22,9 °C 75 % 1013,0 hPa 0,0 mm 7,6 km/h (2 Bft) W 261 ° 1 min 0,000 mm 3,9 UV-I 701 W/m² 18,2 °C 22,9 °C 12,9 km/h (3 Bft)
24.06.2017 16:07 23,0 °C 23,0 °C 74 % 1012,9 hPa 0,0 mm 7,8 km/h (2 Bft) W-SW 248 ° 1 min 0,000 mm 4,8 UV-I 784 W/m² 18,1 °C 23,0 °C 12,9 km/h (3 Bft)
24.06.2017 16:08 23,2 °C 23,2 °C 75 % 1012,9 hPa 0,0 mm 4,4 km/h (1 Bft) W-NW 293 ° 1 min 0,000 mm 3,8 UV-I 784 W/m² 18,5 °C 23,2 °C 6,4 km/h (2 Bft)
24.06.2017 16:09 23,3 °C 23,3 °C 75 % 1012,9 hPa 0,0 mm 10,8 km/h (2 Bft) W 271 ° 1 min 0,000 mm 3,2 UV-I 784 W/m² 18,6 °C 23,3 °C 16,1 km/h (3 Bft)
24.06.2017 16:10 23,3 °C 23,3 °C 73 % 1012,9 hPa 0,0 mm 5,5 km/h (1 Bft) W-NW 294 ° 1 min 0,000 mm 3,0 UV-I 302 W/m² 18,2 °C 23,3 °C 9,7 km/h (2 Bft)
24.06.2017 16:11 23,2 °C 23,3 °C 73 % 1012,9 hPa 0,0 mm 7,4 km/h (2 Bft) W-NW 300 ° 0 min 0,000 mm 2,8 UV-I 283 W/m² 18,1 °C 23,2 °C 11,3 km/h (2 Bft)
24.06.2017 16:12 23,1 °C 23,2 °C 73 % 1012,9 hPa 0,0 mm 2,1 km/h (1 Bft) W-NW 297 ° 1 min 0,000 mm 2,8 UV-I 294 W/m² 18,0 °C 23,1 °C 3,2 km/h (1 Bft)
24.06.2017 16:13 23,0 °C 23,1 °C 75 % 1012,9 hPa 0,0 mm 8,8 km/h (2 Bft) W-SW 250 ° 1 min 0,000 mm 2,8 UV-I 320 W/m² 18,3 °C 23,0 °C 16,1 km/h (3 Bft)
24.06.2017 16:14 23,0 °C 23,0 °C 74 % 1012,9 hPa 0,0 mm 3,5 km/h (1 Bft) W 262 ° 1 min 0,000 mm 2,8 UV-I 315 W/m² 18,1 °C 23,0 °C 6,4 km/h (2 Bft)
24.06.2017 16:15 22,9 °C 23,0 °C 75 % 1012,9 hPa 0,0 mm 8,4 km/h (2 Bft) W 281 ° 1 min 0,000 mm 2,7 UV-I 315 W/m² 18,2 °C 22,9 °C 16,1 km/h (3 Bft)
24.06.2017 16:16 22,8 °C 22,9 °C 74 % 1012,9 hPa 0,0 mm 6,4 km/h (2 Bft) NW 315 ° 1 min 0,000 mm 2,6 UV-I 302 W/m² 17,9 °C 22,8 °C 11,3 km/h (2 Bft)
24.06.2017 16:17 22,8 °C 22,8 °C 75 % 1012,9 hPa 0,0 mm 4,1 km/h (1 Bft) W-NW 302 ° 1 min 0,000 mm 2,6 UV-I 297 W/m² 18,1 °C 22,8 °C 6,4 km/h (2 Bft)
24.06.2017 16:18 22,8 °C 22,8 °C 75 % 1012,9 hPa 0,0 mm 5,6 km/h (1 Bft) NW 308 ° 0 min 0,000 mm 2,4 UV-I 285 W/m² 18,1 °C 22,8 °C 9,7 km/h (2 Bft)
24.06.2017 16:19 22,8 °C 22,8 °C 74 % 1012,9 hPa 0,0 mm 5,7 km/h (1 Bft) NW 309 ° 1 min 0,000 mm 2,4 UV-I 304 W/m² 17,9 °C 22,8 °C 16,1 km/h (3 Bft)
24.06.2017 16:20 22,8 °C 22,8 °C 74 % 1012,9 hPa 0,0 mm 10,7 km/h (2 Bft) W 267 ° 1 min 0,000 mm 2,4 UV-I 297 W/m² 17,9 °C 22,8 °C 14,5 km/h (3 Bft)
24.06.2017 16:21 22,9 °C 22,9 °C 74 % 1012,9 hPa 0,0 mm 7,4 km/h (2 Bft) W 273 ° 0 min 0,000 mm 2,4 UV-I 287 W/m² 18,0 °C 22,9 °C 14,5 km/h (3 Bft)
24.06.2017 16:22 22,9 °C 22,9 °C 74 % 1012,9 hPa 0,0 mm 5,7 km/h (1 Bft) W-SW 248 ° 0 min 0,000 mm 2,3 UV-I 281 W/m² 18,0 °C 22,9 °C 9,7 km/h (2 Bft)
24.06.2017 16:23 22,9 °C 22,9 °C 74 % 1012,9 hPa 0,0 mm 3,4 km/h (1 Bft) W-NW 290 ° 0 min 0,000 mm 2,1 UV-I 258 W/m² 18,0 °C 22,9 °C 4,8 km/h (1 Bft)
24.06.2017 16:24 22,8 °C 22,9 °C 75 % 1012,9 hPa 0,0 mm 11,9 km/h (2 Bft) W 262 ° 0 min 0,000 mm 2,1 UV-I 253 W/m² 18,1 °C 22,8 °C 20,9 km/h (4 Bft)
24.06.2017 16:25 22,8 °C 22,8 °C 74 % 1012,9 hPa 0,0 mm 11,5 km/h (2 Bft) W-NW 293 ° 1 min 0,000 mm 2,3 UV-I 306 W/m² 17,9 °C 22,8 °C 14,5 km/h (3 Bft)
24.06.2017 16:26 22,8 °C 22,8 °C 72 % 1012,9 hPa 0,0 mm 7,3 km/h (2 Bft) W-NW 290 ° 1 min 0,000 mm 2,7 UV-I 338 W/m² 17,5 °C 22,8 °C 12,9 km/h (3 Bft)
24.06.2017 16:27 22,7 °C 22,8 °C 74 % 1012,9 hPa 0,0 mm 2,7 km/h (1 Bft) W 270 ° 1 min 0,000 mm 2,8 UV-I 338 W/m² 17,8 °C 22,7 °C 6,4 km/h (2 Bft)
24.06.2017 16:28 22,8 °C 22,8 °C 74 % 1012,9 hPa 0,0 mm 2,4 km/h (1 Bft) W-NW 302 ° 1 min 0,000 mm 2,7 UV-I 320 W/m² 17,9 °C 22,8 °C 9,7 km/h (2 Bft)
24.06.2017 16:29 22,9 °C 22,9 °C 75 % 1012,9 hPa 0,0 mm 3,6 km/h (1 Bft) W 275 ° 1 min 0,000 mm 3,0 UV-I 352 W/m² 18,2 °C 22,9 °C 6,4 km/h (2 Bft)
24.06.2017 16:30 23,1 °C 23,1 °C 74 % 1012,9 hPa 0,0 mm 8,5 km/h (2 Bft) W-NW 288 ° 1 min 0,000 mm 3,1 UV-I 376 W/m² 18,2 °C 23,1 °C 14,5 km/h (3 Bft)
24.06.2017 16:31 23,2 °C 23,2 °C 73 % 1012,9 hPa 0,0 mm 6,5 km/h (2 Bft) W-NW 291 ° 1 min 0,000 mm 3,2 UV-I 390 W/m² 18,1 °C 23,2 °C 12,9 km/h (3 Bft)
24.06.2017 16:32 23,3 °C 23,3 °C 74 % 1012,9 hPa 0,0 mm 8,1 km/h (2 Bft) W-SW 258 ° 1 min 0,000 mm 3,3 UV-I 392 W/m² 18,4 °C 23,3 °C 14,5 km/h (3 Bft)
24.06.2017 16:33 23,3 °C 23,3 °C 74 % 1012,8 hPa 0,0 mm 6,1 km/h (2 Bft) SW 236 ° 1 min 0,000 mm 3,2 UV-I 346 W/m² 18,4 °C 23,3 °C 12,9 km/h (3 Bft)
24.06.2017 16:34 23,4 °C 23,4 °C 74 % 1012,9 hPa 0,0 mm 4,8 km/h (1 Bft) N-NW 329 ° 1 min 0,000 mm 3,2 UV-I 346 W/m² 18,5 °C 23,4 °C 6,4 km/h (2 Bft)
24.06.2017 16:35 23,5 °C 23,5 °C 73 % 1012,9 hPa 0,0 mm 5,5 km/h (1 Bft) NW 304 ° 1 min 0,000 mm 3,2 UV-I 339 W/m² 18,4 °C 23,5 °C 12,9 km/h (3 Bft)
24.06.2017 16:36 23,6 °C 23,6 °C 72 % 1012,9 hPa 0,0 mm 8,3 km/h (2 Bft) W 273 ° 0 min 0,000 mm 3,0 UV-I 287 W/m² 18,2 °C 23,6 °C 17,7 km/h (3 Bft)
24.06.2017 16:37 23,7 °C 23,7 °C 72 % 1012,9 hPa 0,0 mm 11,9 km/h (2 Bft) W 268 ° 1 min 0,000 mm 3,0 UV-I 323 W/m² 18,3 °C 23,7 °C 20,9 km/h (4 Bft)
24.06.2017 16:38 23,7 °C 23,7 °C 70 % 1012,9 hPa 0,0 mm 11,2 km/h (2 Bft) W-NW 292 ° 1 min 0,000 mm 3,0 UV-I 315 W/m² 17,9 °C 23,7 °C 19,3 km/h (3 Bft)
24.06.2017 16:39 23,5 °C 23,7 °C 69 % 1013,0 hPa 0,0 mm 12,0 km/h (2 Bft) NW 315 ° 1 min 0,000 mm 3,0 UV-I 308 W/m² 17,5 °C 23,5 °C 17,7 km/h (3 Bft)
24.06.2017 16:40 23,4 °C 23,5 °C 71 % 1012,9 hPa 0,0 mm 11,4 km/h (2 Bft) W-NW 298 ° 1 min 0,000 mm 2,9 UV-I 302 W/m² 17,8 °C 23,4 °C 16,1 km/h (3 Bft)
24.06.2017 16:41 23,4 °C 23,4 °C 71 % 1012,9 hPa 0,0 mm 11,5 km/h (2 Bft) NW 309 ° 1 min 0,000 mm 3,0 UV-I 315 W/m² 17,8 °C 23,4 °C 16,1 km/h (3 Bft)
24.06.2017 16:42 23,4 °C 23,4 °C 70 % 1012,9 hPa 0,0 mm 11,1 km/h (2 Bft) W-NW 296 ° 1 min 0,000 mm 2,9 UV-I 311 W/m² 17,6 °C 23,4 °C 14,5 km/h (3 Bft)
24.06.2017 16:43 23,4 °C 23,4 °C 70 % 1013,0 hPa 0,0 mm 11,0 km/h (2 Bft) W 267 ° 1 min 0,000 mm 2,9 UV-I 299 W/m² 17,6 °C 23,4 °C 14,5 km/h (3 Bft)
24.06.2017 16:44 23,4 °C 23,4 °C 70 % 1012,9 hPa 0,0 mm 13,9 km/h (3 Bft) W-NW 288 ° 0 min 0,000 mm 2,7 UV-I 272 W/m² 17,6 °C 23,4 °C 22,5 km/h (4 Bft)
24.06.2017 16:45 23,3 °C 23,4 °C 69 % 1012,9 hPa 0,0 mm 14,2 km/h (3 Bft) W-SW 250 ° 0 min 0,000 mm 2,8 UV-I 279 W/m² 17,3 °C 23,3 °C 19,3 km/h (3 Bft)
24.06.2017 16:46 23,2 °C 23,3 °C 70 % 1012,9 hPa 0,0 mm 8,4 km/h (2 Bft) W-NW 299 ° 0 min 0,000 mm 2,8 UV-I 283 W/m² 17,4 °C 23,2 °C 14,5 km/h (3 Bft)
24.06.2017 16:47 23,2 °C 23,2 °C 70 % 1012,9 hPa 0,0 mm 10,7 km/h (2 Bft) W 266 ° 1 min 0,000 mm 2,9 UV-I 302 W/m² 17,4 °C 23,2 °C 16,1 km/h (3 Bft)
24.06.2017 16:48 23,2 °C 23,2 °C 69 % 1012,9 hPa 0,0 mm 10,0 km/h (2 Bft) W-NW 285 ° 0 min 0,000 mm 2,8 UV-I 258 W/m² 17,2 °C 23,2 °C 14,5 km/h (3 Bft)
24.06.2017 16:49 23,1 °C 23,2 °C 70 % 1012,9 hPa 0,0 mm 10,7 km/h (2 Bft) W-NW 284 ° 0 min 0,000 mm 2,7 UV-I 267 W/m² 17,3 °C 23,1 °C 14,5 km/h (3 Bft)
24.06.2017 16:50 23,2 °C 23,2 °C 71 % 1012,9 hPa 0,0 mm 6,4 km/h (2 Bft) NW 311 ° 0 min 0,000 mm 2,6 UV-I 255 W/m² 17,6 °C 23,2 °C 8,0 km/h (2 Bft)
24.06.2017 16:51 23,2 °C 23,2 °C 71 % 1012,8 hPa 0,0 mm 7,6 km/h (2 Bft) W-SW 256 ° 0 min 0,000 mm 2,7 UV-I 265 W/m² 17,6 °C 23,2 °C 12,9 km/h (3 Bft)
24.06.2017 16:52 23,2 °C 23,2 °C 70 % 1012,8 hPa 0,0 mm 9,3 km/h (2 Bft) NW 311 ° 1 min 0,000 mm 2,9 UV-I 294 W/m² 17,4 °C 23,2 °C 14,5 km/h (3 Bft)
24.06.2017 16:53 23,2 °C 23,2 °C 70 % 1012,8 hPa 0,0 mm 10,1 km/h (2 Bft) W-SW 257 ° 0 min 0,000 mm 2,9 UV-I 287 W/m² 17,4 °C 23,2 °C 14,5 km/h (3 Bft)
24.06.2017 16:54 23,2 °C 23,2 °C 70 % 1012,7 hPa 0,0 mm 13,0 km/h (3 Bft) W 271 ° 0 min 0,000 mm 2,8 UV-I 257 W/m² 17,4 °C 23,2 °C 16,1 km/h (3 Bft)
24.06.2017 16:55 23,3 °C 23,3 °C 70 % 1012,8 hPa 0,0 mm 9,6 km/h (2 Bft) NW 309 ° 0 min 0,000 mm 2,8 UV-I 260 W/m² 17,5 °C 23,3 °C 14,5 km/h (3 Bft)
24.06.2017 16:56 23,4 °C 23,4 °C 71 % 1012,8 hPa 0,0 mm 8,9 km/h (2 Bft) W 260 ° 0 min 0,000 mm 2,7 UV-I 267 W/m² 17,8 °C 23,4 °C 14,5 km/h (3 Bft)
24.06.2017 16:57 23,4 °C 23,4 °C 70 % 1012,8 hPa 0,0 mm 8,2 km/h (2 Bft) W-NW 298 ° 0 min 0,000 mm 2,6 UV-I 241 W/m² 17,6 °C 23,4 °C 16,1 km/h (3 Bft)
24.06.2017 16:58 23,4 °C 23,4 °C 69 % 1012,8 hPa 0,0 mm 11,8 km/h (2 Bft) W 275 ° 0 min 0,000 mm 2,6 UV-I 232 W/m² 17,4 °C 23,4 °C 19,3 km/h (3 Bft)
24.06.2017 16:59 23,3 °C 23,4 °C 70 % 1012,7 hPa 0,0 mm 6,7 km/h (2 Bft) W-NW 299 ° 0 min 0,000 mm 2,8 UV-I 255 W/m² 17,5 °C 23,3 °C 9,7 km/h (2 Bft)
24.06.2017 17:00 23,4 °C 23,4 °C 72 % 1012,8 hPa 0,0 mm 11,4 km/h (2 Bft) W-NW 288 ° 0 min 0,000 mm 2,8 UV-I 253 W/m² 18,1 °C 23,4 °C 20,9 km/h (4 Bft)
24.06.2017 17:01 23,4 °C 23,4 °C 69 % 1012,7 hPa 0,0 mm 9,8 km/h (2 Bft) W-NW 293 ° 0 min 0,254 mm 2,7 UV-I 236 W/m² 17,4 °C 23,4 °C 12,9 km/h (3 Bft)
24.06.2017 17:02 23,4 °C 23,4 °C 72 % 1012,8 hPa 0,0 mm 5,6 km/h (1 Bft) N-NW 339 ° 0 min 0,000 mm 2,7 UV-I 216 W/m² 18,1 °C 23,4 °C 9,7 km/h (2 Bft)
24.06.2017 17:03 23,4 °C 23,4 °C 71 % 1012,8 hPa 0,0 mm 7,7 km/h (2 Bft) W-SW 258 ° 0 min 0,000 mm 2,6 UV-I 207 W/m² 17,8 °C 23,4 °C 12,9 km/h (3 Bft)
24.06.2017 17:04 23,4 °C 23,4 °C 70 % 1012,7 hPa 0,0 mm 4,2 km/h (1 Bft) W-NW 287 ° 0 min 0,000 mm 2,5 UV-I 206 W/m² 17,6 °C 23,4 °C 6,4 km/h (2 Bft)
24.06.2017 17:05 23,6 °C 23,6 °C 71 % 1012,8 hPa 0,0 mm 2,2 km/h (1 Bft) W-SW 255 ° 0 min 0,000 mm 2,5 UV-I 207 W/m² 18,0 °C 23,6 °C 3,2 km/h (1 Bft)
24.06.2017 17:06 23,6 °C 23,6 °C 71 % 1012,7 hPa 0,0 mm 5,4 km/h (1 Bft) W-NW 282 ° 0 min 0,000 mm 2,5 UV-I 200 W/m² 18,0 °C 23,6 °C 12,9 km/h (3 Bft)
24.06.2017 17:07 23,8 °C 23,8 °C 74 % 1012,7 hPa 0,0 mm 9,4 km/h (2 Bft) W 259 ° 0 min 0,000 mm 2,4 UV-I 190 W/m² 18,9 °C 23,8 °C 14,5 km/h (3 Bft)
24.06.2017 17:08 23,8 °C 23,8 °C 70 % 1012,7 hPa 0,0 mm 4,1 km/h (1 Bft) SW 232 ° 0 min 0,000 mm 2,4 UV-I 178 W/m² 18,0 °C 23,8 °C 6,4 km/h (2 Bft)
24.06.2017 17:09 23,8 °C 23,8 °C 72 % 1012,7 hPa 0,0 mm 5,1 km/h (1 Bft) W 281 ° 0 min 0,000 mm 2,4 UV-I 178 W/m² 18,4 °C 23,8 °C 8,0 km/h (2 Bft)
24.06.2017 17:10 23,8 °C 23,8 °C 70 % 1012,7 hPa 0,0 mm 5,3 km/h (1 Bft) NW 306 ° 0 min 0,000 mm 2,4 UV-I 176 W/m² 18,0 °C 23,8 °C 8,0 km/h (2 Bft)
24.06.2017 17:11 23,8 °C 23,8 °C 69 % 1012,7 hPa 0,0 mm 5,6 km/h (1 Bft) W-NW 291 ° 0 min 0,000 mm 2,4 UV-I 178 W/m² 17,8 °C 23,8 °C 9,7 km/h (2 Bft)
24.06.2017 17:12 23,7 °C 23,8 °C 69 % 1012,7 hPa 0,0 mm 6,9 km/h (2 Bft) W-NW 292 ° 0 min 0,000 mm 2,4 UV-I 174 W/m² 17,7 °C 23,7 °C 9,7 km/h (2 Bft)
24.06.2017 17:13 23,6 °C 23,7 °C 71 % 1012,7 hPa 0,0 mm 9,5 km/h (2 Bft) W-NW 302 ° 0 min 0,000 mm 2,4 UV-I 178 W/m² 18,0 °C 23,6 °C 12,9 km/h (3 Bft)
24.06.2017 17:14 23,6 °C 23,7 °C 70 % 1012,7 hPa 0,0 mm 9,5 km/h (2 Bft) W-NW 302 ° 0 min 0,000 mm 2,3 UV-I 179 W/m² 17,8 °C 23,6 °C 17,7 km/h (3 Bft)
24.06.2017 17:15 23,6 °C 23,6 °C 69 % 1012,7 hPa 0,0 mm 10,8 km/h (2 Bft) W-NW 287 ° 0 min 0,000 mm 2,3 UV-I 178 W/m² 17,6 °C 23,6 °C 16,1 km/h (3 Bft)
24.06.2017 17:16 23,4 °C 23,6 °C 70 % 1012,7 hPa 0,0 mm 11,3 km/h (2 Bft) W-NW 287 ° 0 min 0,000 mm 2,3 UV-I 171 W/m² 17,6 °C 23,4 °C 16,1 km/h (3 Bft)
24.06.2017 17:17 23,4 °C 23,4 °C 70 % 1012,7 hPa 0,0 mm 13,2 km/h (3 Bft) W-NW 285 ° 0 min 0,000 mm 2,3 UV-I 165 W/m² 17,6 °C 23,4 °C 17,7 km/h (3 Bft)
24.06.2017 17:18 23,4 °C 23,4 °C 69 % 1012,7 hPa 0,0 mm 9,9 km/h (2 Bft) W-NW 294 ° 0 min 0,000 mm 2,3 UV-I 158 W/m² 17,4 °C 23,4 °C 19,3 km/h (3 Bft)
24.06.2017 17:19 23,3 °C 23,4 °C 70 % 1012,7 hPa 0,0 mm 10,9 km/h (2 Bft) W-NW 291 ° 0 min 0,000 mm 2,2 UV-I 163 W/m² 17,5 °C 23,3 °C 16,1 km/h (3 Bft)
24.06.2017 17:20 23,3 °C 23,4 °C 69 % 1012,8 hPa 0,0 mm 15,3 km/h (3 Bft) W 279 ° 0 min 0,000 mm 2,2 UV-I 158 W/m² 17,3 °C 23,3 °C 20,9 km/h (4 Bft)
24.06.2017 17:21 23,2 °C 23,3 °C 69 % 1012,7 hPa 0,0 mm 10,0 km/h (2 Bft) NW 318 ° 0 min 0,000 mm 2,1 UV-I 151 W/m² 17,2 °C 23,2 °C 20,9 km/h (4 Bft)
24.06.2017 17:22 23,2 °C 23,2 °C 69 % 1012,8 hPa 0,0 mm 11,3 km/h (2 Bft) NW 318 ° 0 min 0,000 mm 2,1 UV-I 151 W/m² 17,2 °C 23,2 °C 14,5 km/h (3 Bft)
24.06.2017 17:23 23,0 °C 23,2 °C 68 % 1012,8 hPa 0,0 mm 14,5 km/h (3 Bft) W-NW 297 ° 0 min 0,000 mm 2,1 UV-I 149 W/m² 16,8 °C 23,0 °C 19,3 km/h (3 Bft)
24.06.2017 17:24 22,9 °C 23,0 °C 69 % 1012,8 hPa 0,0 mm 8,4 km/h (2 Bft) W-NW 283 ° 0 min 0,000 mm 2,2 UV-I 167 W/m² 16,9 °C 22,9 °C 16,1 km/h (3 Bft)
24.06.2017 17:25 22,9 °C 22,9 °C 70 % 1012,8 hPa 0,0 mm 9,5 km/h (2 Bft) W-NW 289 ° 0 min 0,000 mm 2,2 UV-I 178 W/m² 17,1 °C 22,9 °C 19,3 km/h (3 Bft)
24.06.2017 17:26 22,9 °C 22,9 °C 70 % 1012,8 hPa 0,0 mm 13,2 km/h (3 Bft) W-NW 284 ° 0 min 0,000 mm 2,2 UV-I 169 W/m² 17,1 °C 22,9 °C 17,7 km/h (3 Bft)
24.06.2017 17:27 22,9 °C 22,9 °C 70 % 1012,8 hPa 0,0 mm 10,8 km/h (2 Bft) W 269 ° 0 min 0,000 mm 2,2 UV-I 181 W/m² 17,1 °C 22,9 °C 17,7 km/h (3 Bft)
24.06.2017 17:28 23,0 °C 23,0 °C 70 % 1012,7 hPa 0,0 mm 13,1 km/h (3 Bft) W-NW 292 ° 0 min 0,000 mm 2,2 UV-I 160 W/m² 17,2 °C 23,0 °C 17,7 km/h (3 Bft)
24.06.2017 17:29 23,0 °C 23,1 °C 70 % 1012,7 hPa 0,0 mm 13,9 km/h (3 Bft) W 270 ° 0 min 0,000 mm 2,1 UV-I 162 W/m² 17,2 °C 23,0 °C 19,3 km/h (3 Bft)
24.06.2017 17:30 23,1 °C 23,1 °C 70 % 1012,7 hPa 0,0 mm 9,4 km/h (2 Bft) W-NW 291 ° 0 min 0,000 mm 2,1 UV-I 153 W/m² 17,3 °C 23,1 °C 14,5 km/h (3 Bft)
24.06.2017 17:31 23,2 °C 23,2 °C 70 % 1012,7 hPa 0,0 mm 11,8 km/h (2 Bft) W-NW 298 ° 0 min 0,000 mm 2,1 UV-I 158 W/m² 17,4 °C 23,2 °C 22,5 km/h (4 Bft)
24.06.2017 17:32 23,2 °C 23,2 °C 70 % 1012,7 hPa 0,0 mm 11,5 km/h (2 Bft) NW 306 ° 0 min 0,000 mm 2,0 UV-I 155 W/m² 17,4 °C 23,2 °C 19,3 km/h (3 Bft)
24.06.2017 17:33 23,3 °C 23,3 °C 70 % 1012,7 hPa 0,0 mm 8,1 km/h (2 Bft) NW 307 ° 0 min 0,000 mm 2,0 UV-I 139 W/m² 17,5 °C 23,3 °C 12,9 km/h (3 Bft)
24.06.2017 17:34 23,2 °C 23,3 °C 70 % 1012,8 hPa 0,0 mm 7,2 km/h (2 Bft) W-NW 296 ° 0 min 0,000 mm 1,9 UV-I 137 W/m² 17,4 °C 23,2 °C 12,9 km/h (3 Bft)
24.06.2017 17:35 23,2 °C 23,2 °C 70 % 1012,8 hPa 0,0 mm 5,8 km/h (2 Bft) W-SW 251 ° 0 min 0,000 mm 1,9 UV-I 142 W/m² 17,4 °C 23,2 °C 14,5 km/h (3 Bft)
24.06.2017 17:36 23,1 °C 23,2 °C 70 % 1012,8 hPa 0,0 mm 9,9 km/h (2 Bft) W-NW 296 ° 0 min 0,000 mm 1,8 UV-I 163 W/m² 17,3 °C 23,1 °C 16,1 km/h (3 Bft)
24.06.2017 17:37 23,1 °C 23,1 °C 71 % 1012,7 hPa 0,0 mm 7,7 km/h (2 Bft) W 263 ° 0 min 0,000 mm 1,8 UV-I 169 W/m² 17,5 °C 23,1 °C 14,5 km/h (3 Bft)
24.06.2017 17:38 22,9 °C 23,1 °C 69 % 1012,8 hPa 0,0 mm 6,9 km/h (2 Bft) W-NW 301 ° 0 min 0,000 mm 1,8 UV-I 172 W/m² 16,9 °C 22,9 °C 11,3 km/h (2 Bft)
24.06.2017 17:39 22,9 °C 22,9 °C 70 % 1012,7 hPa 0,0 mm 8,4 km/h (2 Bft) W 267 ° 0 min 0,000 mm 1,8 UV-I 160 W/m² 17,1 °C 22,9 °C 12,9 km/h (3 Bft)
24.06.2017 17:40 22,8 °C 22,9 °C 71 % 1012,8 hPa 0,0 mm 10,1 km/h (2 Bft) W-NW 298 ° 0 min 0,000 mm 1,7 UV-I 146 W/m² 17,3 °C 22,8 °C 14,5 km/h (3 Bft)
24.06.2017 17:41 22,8 °C 22,8 °C 71 % 1012,8 hPa 0,0 mm 10,0 km/h (2 Bft) W-NW 300 ° 0 min 0,000 mm 1,7 UV-I 153 W/m² 17,3 °C 22,8 °C 16,1 km/h (3 Bft)
24.06.2017 17:42 22,7 °C 22,8 °C 71 % 1012,8 hPa 0,0 mm 5,4 km/h (1 Bft) W-SW 245 ° 0 min 0,000 mm 1,7 UV-I 158 W/m² 17,2 °C 22,7 °C 9,7 km/h (2 Bft)
24.06.2017 17:43 22,7 °C 22,7 °C 71 % 1012,8 hPa 0,0 mm 5,5 km/h (1 Bft) W-NW 291 ° 0 min 0,000 mm 1,7 UV-I 167 W/m² 17,2 °C 22,7 °C 9,7 km/h (2 Bft)
24.06.2017 17:44 22,7 °C 22,7 °C 73 % 1012,8 hPa 0,0 mm 5,4 km/h (1 Bft) W-NW 292 ° 0 min 0,000 mm 1,6 UV-I 156 W/m² 17,6 °C 22,7 °C 8,0 km/h (2 Bft)
24.06.2017 17:45 22,7 °C 22,7 °C 72 % 1012,7 hPa 0,0 mm 11,6 km/h (2 Bft) W 279 ° 0 min 0,000 mm 1,5 UV-I 144 W/m² 17,4 °C 22,7 °C 16,1 km/h (3 Bft)
24.06.2017 17:46 22,6 °C 22,7 °C 71 % 1012,8 hPa 0,0 mm 10,2 km/h (2 Bft) W-NW 303 ° 0 min 0,000 mm 1,4 UV-I 139 W/m² 17,1 °C 22,6 °C 14,5 km/h (3 Bft)
24.06.2017 17:47 22,6 °C 22,6 °C 71 % 1012,8 hPa 0,0 mm 8,0 km/h (2 Bft) W 263 ° 0 min 0,000 mm 1,3 UV-I 139 W/m² 17,1 °C 22,6 °C 12,9 km/h (3 Bft)
24.06.2017 17:48 22,6 °C 22,6 °C 72 % 1012,8 hPa 0,0 mm 10,4 km/h (2 Bft) W-NW 298 ° 0 min 0,000 mm 1,4 UV-I 171 W/m² 17,3 °C 22,6 °C 12,9 km/h (3 Bft)
24.06.2017 17:49 22,6 °C 22,6 °C 71 % 1012,8 hPa 0,0 mm 7,1 km/h (2 Bft) W-NW 290 ° 0 min 0,000 mm 1,5 UV-I 171 W/m² 17,1 °C 22,6 °C 12,9 km/h (3 Bft)
24.06.2017 17:50 22,6 °C 22,6 °C 72 % 1012,6 hPa 0,0 mm 11,2 km/h (2 Bft) W 259 ° 0 min 0,000 mm 1,6 UV-I 197 W/m² 17,3 °C 22,6 °C 16,1 km/h (3 Bft)
24.06.2017 17:51 22,6 °C 22,6 °C 72 % 1012,7 hPa 0,0 mm 9,2 km/h (2 Bft) W 281 ° 0 min 0,000 mm 1,6 UV-I 185 W/m² 17,3 °C 22,6 °C 16,1 km/h (3 Bft)
24.06.2017 17:52 22,6 °C 22,6 °C 71 % 1012,7 hPa 0,0 mm 5,0 km/h (1 Bft) W-SW 256 ° 0 min 0,000 mm 1,7 UV-I 204 W/m² 17,1 °C 22,6 °C 6,4 km/h (2 Bft)
24.06.2017 17:53 22,6 °C 22,6 °C 71 % 1012,7 hPa 0,0 mm 7,3 km/h (2 Bft) W 280 ° 0 min 0,000 mm 1,6 UV-I 183 W/m² 17,1 °C 22,6 °C 11,3 km/h (2 Bft)
24.06.2017 17:54 22,6 °C 22,6 °C 72 % 1012,7 hPa 0,0 mm 5,6 km/h (1 Bft) W 265 ° 0 min 0,000 mm 1,5 UV-I 167 W/m² 17,3 °C 22,6 °C 9,7 km/h (2 Bft)
24.06.2017 17:55 22,6 °C 22,6 °C 72 % 1012,7 hPa 0,0 mm 4,2 km/h (1 Bft) W-SW 258 ° 0 min 0,000 mm 1,5 UV-I 172 W/m² 17,3 °C 22,6 °C 6,4 km/h (2 Bft)
24.06.2017 17:56 22,7 °C 22,7 °C 73 % 1012,8 hPa 0,0 mm 6,8 km/h (2 Bft) W-SW 244 ° 0 min 0,000 mm 1,4 UV-I 178 W/m² 17,6 °C 22,7 °C 12,9 km/h (3 Bft)
24.06.2017 17:57 22,7 °C 22,7 °C 72 % 1012,7 hPa 0,0 mm 6,3 km/h (2 Bft) W 260 ° 0 min 0,000 mm 1,4 UV-I 165 W/m² 17,4 °C 22,7 °C 14,5 km/h (3 Bft)
24.06.2017 17:58 22,7 °C 22,7 °C 71 % 1012,8 hPa 0,0 mm 10,8 km/h (2 Bft) NW 314 ° 0 min 0,000 mm 1,4 UV-I 206 W/m² 17,2 °C 22,7 °C 14,5 km/h (3 Bft)
24.06.2017 17:59 22,7 °C 22,7 °C 71 % 1012,8 hPa 0,0 mm 7,4 km/h (2 Bft) W 275 ° 0 min 0,000 mm 1,4 UV-I 230 W/m² 17,2 °C 22,7 °C 12,9 km/h (3 Bft)
24.06.2017 18:00 22,7 °C 22,7 °C 71 % 1012,8 hPa 0,0 mm 8,7 km/h (2 Bft) W 270 ° 0 min 0,000 mm 1,5 UV-I 237 W/m² 17,2 °C 22,7 °C 12,9 km/h (3 Bft)
24.06.2017 18:01 22,7 °C 22,7 °C 72 % 1012,7 hPa 0,0 mm 8,6 km/h (2 Bft) W-NW 293 ° 0 min 0,152 mm 1,5 UV-I 229 W/m² 17,4 °C 22,7 °C 14,5 km/h (3 Bft)
24.06.2017 18:02 22,7 °C 22,7 °C 70 % 1012,8 hPa 0,0 mm 7,6 km/h (2 Bft) W-NW 285 ° 0 min 0,000 mm 1,4 UV-I 214 W/m² 16,9 °C 22,7 °C 12,9 km/h (3 Bft)
24.06.2017 18:03 22,7 °C 22,8 °C 71 % 1012,7 hPa 0,0 mm 5,5 km/h (1 Bft) NW 314 ° 0 min 0,000 mm 1,4 UV-I 206 W/m² 17,2 °C 22,7 °C 9,7 km/h (2 Bft)
24.06.2017 18:04 22,8 °C 22,8 °C 71 % 1012,7 hPa 0,0 mm 9,9 km/h (2 Bft) W-SW 254 ° 0 min 0,000 mm 1,3 UV-I 188 W/m² 17,3 °C 22,8 °C 12,9 km/h (3 Bft)
24.06.2017 18:05 22,7 °C 22,8 °C 70 % 1012,7 hPa 0,0 mm 7,9 km/h (2 Bft) W-SW 246 ° 0 min 0,000 mm 1,3 UV-I 179 W/m² 16,9 °C 22,7 °C 14,5 km/h (3 Bft)
24.06.2017 18:06 22,7 °C 22,7 °C 70 % 1012,7 hPa 0,0 mm 4,1 km/h (1 Bft) W 259 ° 0 min 0,000 mm 1,2 UV-I 172 W/m² 16,9 °C 22,7 °C 11,3 km/h (2 Bft)
24.06.2017 18:07 22,7 °C 22,7 °C 71 % 1012,7 hPa 0,0 mm 9,7 km/h (2 Bft) W 279 ° 0 min 0,000 mm 1,1 UV-I 163 W/m² 17,2 °C 22,7 °C 12,9 km/h (3 Bft)
24.06.2017 18:08 22,7 °C 22,7 °C 72 % 1012,7 hPa 0,0 mm 2,0 km/h (1 Bft) W 263 ° 0 min 0,000 mm 1,1 UV-I 156 W/m² 17,4 °C 22,7 °C 4,8 km/h (1 Bft)
24.06.2017 18:09 22,7 °C 22,7 °C 72 % 1012,7 hPa 0,0 mm 2,7 km/h (1 Bft) W-NW 294 ° 0 min 0,000 mm 1,0 UV-I 153 W/m² 17,4 °C 22,7 °C 9,7 km/h (2 Bft)
24.06.2017 18:10 22,7 °C 22,7 °C 71 % 1012,7 hPa 0,0 mm 7,4 km/h (2 Bft) W 265 ° 0 min 0,000 mm 1,1 UV-I 158 W/m² 17,2 °C 22,7 °C 12,9 km/h (3 Bft)
24.06.2017 18:11 22,7 °C 22,7 °C 71 % 1012,7 hPa 0,0 mm 5,5 km/h (1 Bft) W-NW 285 ° 0 min 0,000 mm 1,1 UV-I 165 W/m² 17,2 °C 22,7 °C 9,7 km/h (2 Bft)
24.06.2017 18:12 22,7 °C 22,7 °C 72 % 1012,7 hPa 0,0 mm 4,5 km/h (1 Bft) W-NW 285 ° 0 min 0,000 mm 1,1 UV-I 169 W/m² 17,4 °C 22,7 °C 6,4 km/h (2 Bft)
24.06.2017 18:13 22,7 °C 22,7 °C 71 % 1012,7 hPa 0,0 mm 6,5 km/h (2 Bft) W-NW 284 ° 0 min 0,000 mm 1,1 UV-I 171 W/m² 17,2 °C 22,7 °C 14,5 km/h (3 Bft)
24.06.2017 18:14 22,7 °C 22,7 °C 71 % 1012,7 hPa 0,0 mm 6,2 km/h (2 Bft) W-NW 297 ° 0 min 0,000 mm 1,1 UV-I 167 W/m² 17,2 °C 22,7 °C 11,3 km/h (2 Bft)
24.06.2017 18:15 22,7 °C 22,8 °C 71 % 1012,7 hPa 0,0 mm 7,1 km/h (2 Bft) W-NW 289 ° 0 min 0,000 mm 1,1 UV-I 165 W/m² 17,2 °C 22,7 °C 11,3 km/h (2 Bft)
24.06.2017 18:16 22,7 °C 22,8 °C 71 % 1012,7 hPa 0,0 mm 5,4 km/h (1 Bft) S 191 ° 0 min 0,000 mm 1,2 UV-I 193 W/m² 17,2 °C 22,7 °C 11,3 km/h (2 Bft)
24.06.2017 18:17 22,7 °C 22,8 °C 71 % 1012,6 hPa 0,0 mm 4,5 km/h (1 Bft) W-SW 238 ° 0 min 0,000 mm 1,3 UV-I 197 W/m² 17,2 °C 22,7 °C 9,7 km/h (2 Bft)
24.06.2017 18:18 22,7 °C 22,7 °C 70 % 1012,6 hPa 0,0 mm 6,6 km/h (2 Bft) W 269 ° 0 min 0,000 mm 1,3 UV-I 193 W/m² 16,9 °C 22,7 °C 9,7 km/h (2 Bft)
24.06.2017 18:19 22,7 °C 22,7 °C 71 % 1012,6 hPa 0,0 mm 13,5 km/h (3 Bft) W 279 ° 0 min 0,000 mm 1,3 UV-I 200 W/m² 17,2 °C 22,7 °C 19,3 km/h (3 Bft)
24.06.2017 18:20 22,7 °C 22,7 °C 71 % 1012,6 hPa 0,0 mm 11,7 km/h (2 Bft) W-SW 240 ° 0 min 0,000 mm 1,4 UV-I 209 W/m² 17,2 °C 22,7 °C 19,3 km/h (3 Bft)
24.06.2017 18:21 22,7 °C 22,7 °C 71 % 1012,6 hPa 0,0 mm 7,5 km/h (2 Bft) W 261 ° 0 min 0,000 mm 1,4 UV-I 174 W/m² 17,2 °C 22,7 °C 12,9 km/h (3 Bft)
24.06.2017 18:22 22,7 °C 22,7 °C 71 % 1012,5 hPa 0,0 mm 5,8 km/h (2 Bft) NW 307 ° 0 min 0,000 mm 1,3 UV-I 134 W/m² 17,2 °C 22,7 °C 12,9 km/h (3 Bft)
24.06.2017 18:23 22,7 °C 22,7 °C 71 % 1012,5 hPa 0,0 mm 8,2 km/h (2 Bft) W 279 ° 0 min 0,000 mm 1,3 UV-I 141 W/m² 17,2 °C 22,7 °C 12,9 km/h (3 Bft)
24.06.2017 18:24 22,7 °C 22,7 °C 71 % 1012,6 hPa 0,0 mm 6,2 km/h (2 Bft) W-SW 249 ° 0 min 0,000 mm 1,3 UV-I 137 W/m² 17,2 °C 22,7 °C 11,3 km/h (2 Bft)
24.06.2017 18:25 22,6 °C 22,7 °C 72 % 1012,6 hPa 0,0 mm 4,5 km/h (1 Bft) W 267 ° 0 min 0,000 mm 1,2 UV-I 128 W/m² 17,3 °C 22,6 °C 6,4 km/h (2 Bft)
24.06.2017 18:26 22,6 °C 22,6 °C 72 % 1012,6 hPa 0,0 mm 11,6 km/h (2 Bft) SW 229 ° 0 min 0,000 mm 1,2 UV-I 130 W/m² 17,3 °C 22,6 °C 14,5 km/h (3 Bft)
24.06.2017 18:27 22,5 °C 22,6 °C 71 % 1012,6 hPa 0,0 mm 5,7 km/h (1 Bft) W 275 ° 0 min 0,000 mm 1,1 UV-I 141 W/m² 17,0 °C 22,5 °C 11,3 km/h (2 Bft)
24.06.2017 18:28 22,5 °C 22,5 °C 71 % 1012,6 hPa 0,0 mm 12,7 km/h (3 Bft) W-NW 285 ° 0 min 0,000 mm 1,1 UV-I 125 W/m² 17,0 °C 22,5 °C 14,5 km/h (3 Bft)
24.06.2017 18:29 22,4 °C 22,5 °C 71 % 1012,6 hPa 0,0 mm 7,0 km/h (2 Bft) W 263 ° 0 min 0,000 mm 1,1 UV-I 137 W/m² 16,9 °C 22,4 °C 12,9 km/h (3 Bft)
24.06.2017 18:30 22,4 °C 22,4 °C 71 % 1012,6 hPa 0,0 mm 6,0 km/h (2 Bft) W-NW 296 ° 0 min 0,000 mm 1,1 UV-I 148 W/m² 16,9 °C 22,4 °C 9,7 km/h (2 Bft)
24.06.2017 18:31 22,4 °C 22,4 °C 72 % 1012,6 hPa 0,0 mm 7,4 km/h (2 Bft) W 281 ° 0 min 0,000 mm 1,1 UV-I 142 W/m² 17,1 °C 22,4 °C 14,5 km/h (3 Bft)
24.06.2017 18:32 22,4 °C 22,4 °C 71 % 1012,6 hPa 0,0 mm 9,7 km/h (2 Bft) W-NW 282 ° 0 min 0,000 mm 1,1 UV-I 134 W/m² 16,9 °C 22,4 °C 14,5 km/h (3 Bft)
24.06.2017 18:33 22,4 °C 22,4 °C 71 % 1012,6 hPa 0,0 mm 8,9 km/h (2 Bft) SW 229 ° 0 min 0,000 mm 1,1 UV-I 127 W/m² 16,9 °C 22,4 °C 14,5 km/h (3 Bft)
24.06.2017 18:34 22,4 °C 22,4 °C 71 % 1012,6 hPa 0,0 mm 10,5 km/h (2 Bft) W-SW 251 ° 0 min 0,000 mm 1,1 UV-I 111 W/m² 16,9 °C 22,4 °C 17,7 km/h (3 Bft)
24.06.2017 18:35 22,3 °C 22,4 °C 71 % 1012,6 hPa 0,0 mm 11,1 km/h (2 Bft) W-NW 286 ° 0 min 0,000 mm 1,0 UV-I 111 W/m² 16,8 °C 22,3 °C 17,7 km/h (3 Bft)
24.06.2017 18:36 22,3 °C 22,4 °C 71 % 1012,6 hPa 0,0 mm 9,1 km/h (2 Bft) W-SW 251 ° 0 min 0,000 mm 1,0 UV-I 111 W/m² 16,8 °C 22,3 °C 16,1 km/h (3 Bft)
24.06.2017 18:37 22,3 °C 22,3 °C 70 % 1012,6 hPa 0,0 mm 11,3 km/h (2 Bft) W 271 ° 0 min 0,000 mm 1,0 UV-I 107 W/m² 16,6 °C 22,3 °C 16,1 km/h (3 Bft)
24.06.2017 18:38 22,3 °C 22,3 °C 71 % 1012,6 hPa 0,0 mm 9,1 km/h (2 Bft) W-NW 284 ° 0 min 0,000 mm 1,0 UV-I 105 W/m² 16,8 °C 22,3 °C 14,5 km/h (3 Bft)
24.06.2017 18:39 22,3 °C 22,3 °C 70 % 1012,6 hPa 0,0 mm 6,5 km/h (2 Bft) W-NW 300 ° 0 min 0,000 mm 1,0 UV-I 118 W/m² 16,6 °C 22,3 °C 14,5 km/h (3 Bft)
24.06.2017 18:40 22,3 °C 22,3 °C 70 % 1012,6 hPa 0,0 mm 7,1 km/h (2 Bft) W 277 ° 0 min 0,000 mm 1,0 UV-I 118 W/m² 16,6 °C 22,3 °C 14,5 km/h (3 Bft)
24.06.2017 18:41 22,2 °C 22,3 °C 71 % 1012,6 hPa 0,0 mm 10,7 km/h (2 Bft) W 275 ° 0 min 0,000 mm 1,0 UV-I 109 W/m² 16,7 °C 22,2 °C 14,5 km/h (3 Bft)
24.06.2017 18:42 22,2 °C 22,3 °C 71 % 1012,6 hPa 0,0 mm 4,4 km/h (1 Bft) W-NW 289 ° 0 min 0,000 mm 1,0 UV-I 105 W/m² 16,7 °C 22,2 °C 6,4 km/h (2 Bft)
24.06.2017 18:43 22,2 °C 22,2 °C 71 % 1012,6 hPa 0,0 mm 9,5 km/h (2 Bft) W 267 ° 0 min 0,000 mm 1,0 UV-I 109 W/m² 16,7 °C 22,2 °C 14,5 km/h (3 Bft)
24.06.2017 18:44 22,2 °C 22,2 °C 71 % 1012,5 hPa 0,0 mm 6,7 km/h (2 Bft) W-NW 294 ° 0 min 0,000 mm 1,0 UV-I 111 W/m² 16,7 °C 22,2 °C 11,3 km/h (2 Bft)
24.06.2017 18:45 22,2 °C 22,2 °C 72 % 1012,5 hPa 0,0 mm 4,9 km/h (1 Bft) W 261 ° 0 min 0,000 mm 1,0 UV-I 114 W/m² 16,9 °C 22,2 °C 9,7 km/h (2 Bft)
24.06.2017 18:46 22,2 °C 22,2 °C 71 % 1012,5 hPa 0,0 mm 7,4 km/h (2 Bft) W-SW 243 ° 0 min 0,000 mm 1,0 UV-I 105 W/m² 16,7 °C 22,2 °C 12,9 km/h (3 Bft)
24.06.2017 18:47 22,2 °C 22,2 °C 71 % 1012,5 hPa 0,0 mm 7,3 km/h (2 Bft) W-NW 284 ° 0 min 0,000 mm 1,0 UV-I 102 W/m² 16,7 °C 22,2 °C 12,9 km/h (3 Bft)
24.06.2017 18:48 22,1 °C 22,2 °C 71 % 1012,5 hPa 0,0 mm 7,4 km/h (2 Bft) W-SW 252 ° 0 min 0,000 mm 1,0 UV-I 107 W/m² 16,6 °C 22,1 °C 12,9 km/h (3 Bft)
24.06.2017 18:49 22,2 °C 22,2 °C 72 % 1012,5 hPa 0,0 mm 5,8 km/h (2 Bft) W 262 ° 0 min 0,000 mm 1,1 UV-I 104 W/m² 16,9 °C 22,2 °C 11,3 km/h (2 Bft)
24.06.2017 18:50 22,1 °C 22,2 °C 71 % 1012,4 hPa 0,0 mm 10,9 km/h (2 Bft) W-NW 284 ° 0 min 0,000 mm 1,1 UV-I 95 W/m² 16,6 °C 22,1 °C 16,1 km/h (3 Bft)
24.06.2017 18:51 22,1 °C 22,1 °C 71 % 1012,4 hPa 0,0 mm 8,9 km/h (2 Bft) W-NW 294 ° 0 min 0,000 mm 1,0 UV-I 84 W/m² 16,6 °C 22,1 °C 12,9 km/h (3 Bft)
24.06.2017 18:52 22,1 °C 22,1 °C 71 % 1012,4 hPa 0,0 mm 9,2 km/h (2 Bft) W-SW 240 ° 0 min 0,000 mm 1,1 UV-I 98 W/m² 16,6 °C 22,1 °C 12,9 km/h (3 Bft)
24.06.2017 18:53 22,1 °C 22,1 °C 72 % 1012,4 hPa 0,0 mm 7,8 km/h (2 Bft) NW 306 ° 0 min 0,000 mm 1,1 UV-I 120 W/m² 16,8 °C 22,1 °C 12,9 km/h (3 Bft)
24.06.2017 18:54 22,0 °C 22,1 °C 72 % 1012,4 hPa 0,0 mm 9,3 km/h (2 Bft) NW 306 ° 0 min 0,000 mm 1,1 UV-I 113 W/m² 16,7 °C 22,0 °C 16,1 km/h (3 Bft)
24.06.2017 18:55 22,1 °C 22,1 °C 71 % 1012,4 hPa 0,0 mm 11,3 km/h (2 Bft) W-NW 295 ° 0 min 0,000 mm 1,1 UV-I 146 W/m² 16,6 °C 22,1 °C 19,3 km/h (3 Bft)
24.06.2017 18:56 22,1 °C 22,1 °C 71 % 1012,3 hPa 0,0 mm 12,7 km/h (3 Bft) W 274 ° 0 min 0,000 mm 1,0 UV-I 135 W/m² 16,6 °C 22,1 °C 16,1 km/h (3 Bft)
24.06.2017 18:57 22,1 °C 22,1 °C 71 % 1012,4 hPa 0,0 mm 8,4 km/h (2 Bft) W 263 ° 0 min 0,000 mm 1,1 UV-I 98 W/m² 16,6 °C 22,1 °C 12,9 km/h (3 Bft)
24.06.2017 18:58 22,1 °C 22,1 °C 71 % 1012,3 hPa 0,0 mm 8,5 km/h (2 Bft) W-SW 243 ° 0 min 0,000 mm 1,1 UV-I 135 W/m² 16,6 °C 22,1 °C 17,7 km/h (3 Bft)
24.06.2017 18:59 22,1 °C 22,1 °C 71 % 1012,3 hPa 0,0 mm 7,2 km/h (2 Bft) W-SW 237 ° 0 min 0,000 mm 1,0 UV-I 95 W/m² 16,6 °C 22,1 °C 11,3 km/h (2 Bft)
24.06.2017 19:00 22,1 °C 22,1 °C 71 % 1012,3 hPa 0,0 mm 12,0 km/h (2 Bft) W-SW 254 ° 0 min 0,000 mm 1,1 UV-I 176 W/m² 16,6 °C 22,1 °C 22,5 km/h (4 Bft)
24.06.2017 19:01 22,1 °C 22,1 °C 71 % 1012,3 hPa 0,0 mm 11,3 km/h (2 Bft) W-NW 294 ° 0 min 0,127 mm 1,0 UV-I 86 W/m² 16,6 °C 22,1 °C 17,7 km/h (3 Bft)
24.06.2017 19:02 22,1 °C 22,1 °C 71 % 1012,4 hPa 0,0 mm 9,3 km/h (2 Bft) W-NW 293 ° 0 min 0,000 mm 1,0 UV-I 125 W/m² 16,6 °C 22,1 °C 14,5 km/h (3 Bft)
24.06.2017 19:03 22,1 °C 22,1 °C 71 % 1012,4 hPa 0,0 mm 13,9 km/h (3 Bft) W-SW 251 ° 0 min 0,000 mm 1,0 UV-I 83 W/m² 16,6 °C 22,1 °C 19,3 km/h (3 Bft)
24.06.2017 19:04 22,1 °C 22,1 °C 70 % 1012,4 hPa 0,0 mm 9,8 km/h (2 Bft) W-NW 288 ° 0 min 0,000 mm 0,9 UV-I 83 W/m² 16,4 °C 22,1 °C 16,1 km/h (3 Bft)
24.06.2017 19:05 22,0 °C 22,1 °C 71 % 1012,4 hPa 0,0 mm 5,9 km/h (2 Bft) W-NW 298 ° 0 min 0,000 mm 1,0 UV-I 111 W/m² 16,5 °C 22,0 °C 9,7 km/h (2 Bft)
24.06.2017 19:06 22,0 °C 22,0 °C 71 % 1012,5 hPa 0,0 mm 7,5 km/h (2 Bft) W 274 ° 0 min 0,000 mm 1,0 UV-I 120 W/m² 16,5 °C 22,0 °C 11,3 km/h (2 Bft)
24.06.2017 19:07 21,9 °C 22,0 °C 71 % 1012,5 hPa 0,0 mm 8,4 km/h (2 Bft) W 268 ° 0 min 0,000 mm 0,9 UV-I 77 W/m² 16,4 °C 21,9 °C 12,9 km/h (3 Bft)
24.06.2017 19:08 21,9 °C 22,0 °C 70 % 1012,4 hPa 0,0 mm 8,8 km/h (2 Bft) W-SW 258 ° 0 min 0,000 mm 1,0 UV-I 90 W/m² 16,2 °C 21,9 °C 14,5 km/h (3 Bft)
24.06.2017 19:09 21,9 °C 22,0 °C 71 % 1012,5 hPa 0,0 mm 7,0 km/h (2 Bft) W-NW 302 ° 0 min 0,000 mm 0,9 UV-I 72 W/m² 16,4 °C 21,9 °C 11,3 km/h (2 Bft)
24.06.2017 19:10 21,9 °C 21,9 °C 71 % 1012,4 hPa 0,0 mm 8,0 km/h (2 Bft) W 268 ° 0 min 0,000 mm 0,9 UV-I 72 W/m² 16,4 °C 21,9 °C 12,9 km/h (3 Bft)
24.06.2017 19:11 21,9 °C 21,9 °C 71 % 1012,4 hPa 0,0 mm 10,5 km/h (2 Bft) W-NW 303 ° 0 min 0,000 mm 0,9 UV-I 69 W/m² 16,4 °C 21,9 °C 20,9 km/h (4 Bft)
24.06.2017 19:12 21,8 °C 21,9 °C 71 % 1012,4 hPa 0,0 mm 6,8 km/h (2 Bft) W 279 ° 0 min 0,000 mm 0,9 UV-I 70 W/m² 16,3 °C 21,8 °C 12,9 km/h (3 Bft)
24.06.2017 19:13 21,8 °C 21,9 °C 71 % 1012,4 hPa 0,0 mm 9,6 km/h (2 Bft) SW 229 ° 0 min 0,000 mm 0,9 UV-I 74 W/m² 16,3 °C 21,8 °C 12,9 km/h (3 Bft)
24.06.2017 19:14 21,8 °C 21,8 °C 71 % 1012,4 hPa 0,0 mm 8,3 km/h (2 Bft) W-NW 294 ° 0 min 0,000 mm 0,9 UV-I 116 W/m² 16,3 °C 21,8 °C 16,1 km/h (3 Bft)
24.06.2017 19:15 21,8 °C 21,8 °C 71 % 1012,4 hPa 0,0 mm 10,1 km/h (2 Bft) W-SW 244 ° 0 min 0,000 mm 0,9 UV-I 156 W/m² 16,3 °C 21,8 °C 12,9 km/h (3 Bft)
24.06.2017 19:16 21,8 °C 21,8 °C 71 % 1012,4 hPa 0,0 mm 9,3 km/h (2 Bft) W 277 ° 0 min 0,000 mm 0,8 UV-I 67 W/m² 16,3 °C 21,8 °C 14,5 km/h (3 Bft)
24.06.2017 19:17 21,8 °C 21,8 °C 71 % 1012,3 hPa 0,0 mm 17,6 km/h (3 Bft) W 281 ° 0 min 0,000 mm 0,8 UV-I 63 W/m² 16,3 °C 21,8 °C 25,7 km/h (4 Bft)
24.06.2017 19:18 21,8 °C 21,8 °C 71 % 1012,3 hPa 0,0 mm 7,1 km/h (2 Bft) W 269 ° 0 min 0,000 mm 0,8 UV-I 60 W/m² 16,3 °C 21,8 °C 16,1 km/h (3 Bft)
24.06.2017 19:19 21,8 °C 21,8 °C 71 % 1012,4 hPa 0,0 mm 9,1 km/h (2 Bft) W-NW 286 ° 0 min 0,000 mm 0,8 UV-I 58 W/m² 16,3 °C 21,8 °C 16,1 km/h (3 Bft)
24.06.2017 19:20 21,7 °C 21,8 °C 71 % 1012,4 hPa 0,0 mm 18,0 km/h (3 Bft) W 280 ° 0 min 0,000 mm 0,8 UV-I 62 W/m² 16,2 °C 21,7 °C 22,5 km/h (4 Bft)
24.06.2017 19:21 21,7 °C 21,7 °C 70 % 1012,3 hPa 0,0 mm 14,8 km/h (3 Bft) W 273 ° 0 min 0,000 mm 0,8 UV-I 63 W/m² 16,0 °C 21,7 °C 20,9 km/h (4 Bft)
24.06.2017 19:22 21,7 °C 21,7 °C 70 % 1012,2 hPa 0,0 mm 10,2 km/h (2 Bft) W-NW 296 ° 0 min 0,000 mm 0,8 UV-I 62 W/m² 16,0 °C 21,7 °C 19,3 km/h (3 Bft)
24.06.2017 19:23 21,7 °C 21,7 °C 71 % 1012,3 hPa 0,0 mm 5,4 km/h (1 Bft) NW 324 ° 0 min 0,000 mm 0,8 UV-I 60 W/m² 16,2 °C 21,7 °C 12,9 km/h (3 Bft)
24.06.2017 19:24 21,7 °C 21,7 °C 71 % 1012,3 hPa 0,0 mm 14,4 km/h (3 Bft) W 265 ° 0 min 0,000 mm 0,8 UV-I 58 W/m² 16,2 °C 21,7 °C 19,3 km/h (3 Bft)
24.06.2017 19:25 21,7 °C 21,7 °C 71 % 1012,3 hPa 0,0 mm 12,8 km/h (3 Bft) W-SW 256 ° 0 min 0,000 mm 0,8 UV-I 63 W/m² 16,2 °C 21,7 °C 17,7 km/h (3 Bft)
24.06.2017 19:26 21,6 °C 21,7 °C 71 % 1012,3 hPa 0,0 mm 15,4 km/h (3 Bft) S-SW 211 ° 0 min 0,000 mm 0,7 UV-I 58 W/m² 16,1 °C 21,6 °C 25,7 km/h (4 Bft)
24.06.2017 19:27 21,6 °C 21,6 °C 71 % 1012,3 hPa 0,0 mm 12,3 km/h (3 Bft) W 259 ° 0 min 0,000 mm 0,7 UV-I 56 W/m² 16,1 °C 21,6 °C 20,9 km/h (4 Bft)
24.06.2017 19:28 21,6 °C 21,6 °C 71 % 1012,4 hPa 0,0 mm 17,7 km/h (3 Bft) W-SW 251 ° 0 min 0,000 mm 0,7 UV-I 76 W/m² 16,1 °C 21,6 °C 22,5 km/h (4 Bft)
24.06.2017 19:29 21,6 °C 21,6 °C 70 % 1012,4 hPa 0,0 mm 12,5 km/h (3 Bft) NW 305 ° 0 min 0,000 mm 0,7 UV-I 62 W/m² 15,9 °C 21,6 °C 19,3 km/h (3 Bft)
24.06.2017 19:30 21,6 °C 21,6 °C 71 % 1012,4 hPa 0,0 mm 14,2 km/h (3 Bft) W-NW 288 ° 0 min 0,000 mm 0,7 UV-I 109 W/m² 16,1 °C 21,6 °C 20,9 km/h (4 Bft)
24.06.2017 19:31 21,6 °C 21,6 °C 70 % 1012,4 hPa 0,0 mm 12,8 km/h (3 Bft) W 279 ° 0 min 0,000 mm 0,7 UV-I 123 W/m² 15,9 °C 21,6 °C 19,3 km/h (3 Bft)
24.06.2017 19:32 21,7 °C 21,7 °C 71 % 1012,4 hPa 0,0 mm 13,0 km/h (3 Bft) W 281 ° 0 min 0,000 mm 0,7 UV-I 123 W/m² 16,2 °C 21,7 °C 19,3 km/h (3 Bft)
24.06.2017 19:33 21,7 °C 21,7 °C 71 % 1012,4 hPa 0,0 mm 12,4 km/h (3 Bft) W-SW 247 ° 0 min 0,000 mm 0,7 UV-I 107 W/m² 16,2 °C 21,7 °C 19,3 km/h (3 Bft)
24.06.2017 19:34 21,7 °C 21,7 °C 71 % 1012,4 hPa 0,0 mm 9,8 km/h (2 Bft) W-NW 293 ° 0 min 0,000 mm 0,7 UV-I 91 W/m² 16,2 °C 21,7 °C 14,5 km/h (3 Bft)
24.06.2017 19:35 21,7 °C 21,7 °C 70 % 1012,4 hPa 0,0 mm 11,1 km/h (2 Bft) W-NW 290 ° 0 min 0,000 mm 0,7 UV-I 76 W/m² 16,0 °C 21,7 °C 16,1 km/h (3 Bft)
24.06.2017 19:36 21,7 °C 21,7 °C 70 % 1012,5 hPa 0,0 mm 11,9 km/h (2 Bft) NW 312 ° 0 min 0,000 mm 0,7 UV-I 62 W/m² 16,0 °C 21,7 °C 19,3 km/h (3 Bft)
24.06.2017 19:37 21,7 °C 21,7 °C 70 % 1012,4 hPa 0,0 mm 11,7 km/h (2 Bft) W 267 ° 0 min 0,000 mm 0,6 UV-I 58 W/m² 16,0 °C 21,7 °C 16,1 km/h (3 Bft)
24.06.2017 19:38 21,7 °C 21,7 °C 70 % 1012,4 hPa 0,0 mm 13,1 km/h (3 Bft) W-NW 288 ° 0 min 0,000 mm 0,6 UV-I 53 W/m² 16,0 °C 21,7 °C 20,9 km/h (4 Bft)
24.06.2017 19:39 21,7 °C 21,7 °C 70 % 1012,4 hPa 0,0 mm 12,1 km/h (2 Bft) W 267 ° 0 min 0,000 mm 0,0 UV-I 53 W/m² 16,0 °C 21,7 °C 17,7 km/h (3 Bft)
24.06.2017 19:40 21,7 °C 21,7 °C 70 % 1012,4 hPa 0,0 mm 12,3 km/h (3 Bft) SW 235 ° 0 min 0,000 mm 0,6 UV-I 81 W/m² 16,0 °C 21,7 °C 19,3 km/h (3 Bft)
24.06.2017 19:41 21,7 °C 21,7 °C 71 % 1012,4 hPa 0,0 mm 14,8 km/h (3 Bft) W 281 ° 0 min 0,000 mm 0,6 UV-I 98 W/m² 16,2 °C 21,7 °C 20,9 km/h (4 Bft)
24.06.2017 19:42 21,7 °C 21,7 °C 70 % 1012,4 hPa 0,0 mm 13,4 km/h (3 Bft) W-NW 286 ° 0 min 0,000 mm 0,6 UV-I 113 W/m² 16,0 °C 21,7 °C 20,9 km/h (4 Bft)
24.06.2017 19:43 21,7 °C 21,7 °C 70 % 1012,4 hPa 0,0 mm 11,4 km/h (2 Bft) NW 317 ° 0 min 0,000 mm 0,6 UV-I 113 W/m² 16,0 °C 21,7 °C 16,1 km/h (3 Bft)
24.06.2017 19:44 21,7 °C 21,7 °C 70 % 1012,3 hPa 0,0 mm 6,7 km/h (2 Bft) W-NW 284 ° 0 min 0,000 mm 0,6 UV-I 74 W/m² 16,0 °C 21,7 °C 11,3 km/h (2 Bft)
24.06.2017 19:45 21,7 °C 21,7 °C 71 % 1012,4 hPa 0,0 mm 9,2 km/h (2 Bft) W 261 ° 0 min 0,000 mm 0,6 UV-I 102 W/m² 16,2 °C 21,7 °C 14,5 km/h (3 Bft)
24.06.2017 19:46 21,7 °C 21,7 °C 71 % 1012,3 hPa 0,0 mm 7,0 km/h (2 Bft) W-NW 290 ° 0 min 0,000 mm 0,6 UV-I 84 W/m² 16,2 °C 21,7 °C 14,5 km/h (3 Bft)
24.06.2017 19:47 21,7 °C 21,7 °C 71 % 1012,3 hPa 0,0 mm 11,7 km/h (2 Bft) W 263 ° 0 min 0,000 mm 0,5 UV-I 79 W/m² 16,2 °C 21,7 °C 14,5 km/h (3 Bft)
24.06.2017 19:48 21,7 °C 21,7 °C 71 % 1012,3 hPa 0,0 mm 8,6 km/h (2 Bft) W 264 ° 0 min 0,000 mm 0,5 UV-I 77 W/m² 16,2 °C 21,7 °C 19,3 km/h (3 Bft)
24.06.2017 19:49 21,7 °C 21,7 °C 71 % 1012,3 hPa 0,0 mm 20,0 km/h (4 Bft) W 266 ° 0 min 0,000 mm 0,5 UV-I 60 W/m² 16,2 °C 21,7 °C 27,4 km/h (4 Bft)
24.06.2017 19:50 21,7 °C 21,7 °C 70 % 1012,4 hPa 0,0 mm 15,1 km/h (3 Bft) W 275 ° 0 min 0,000 mm 0,5 UV-I 91 W/m² 16,0 °C 21,7 °C 17,7 km/h (3 Bft)
24.06.2017 19:51 21,7 °C 21,7 °C 70 % 1012,4 hPa 0,0 mm 9,9 km/h (2 Bft) W 270 ° 0 min 0,000 mm 0,5 UV-I 90 W/m² 16,0 °C 21,7 °C 16,1 km/h (3 Bft)
24.06.2017 19:52 21,7 °C 21,7 °C 71 % 1012,3 hPa 0,0 mm 5,7 km/h (1 Bft) W-NW 286 ° 0 min 0,000 mm 0,5 UV-I 88 W/m² 16,2 °C 21,7 °C 11,3 km/h (2 Bft)
24.06.2017 19:53 21,7 °C 21,7 °C 71 % 1012,3 hPa 0,0 mm 9,3 km/h (2 Bft) W 271 ° 0 min 0,000 mm 0,5 UV-I 93 W/m² 16,2 °C 21,7 °C 14,5 km/h (3 Bft)
24.06.2017 19:54 21,7 °C 21,7 °C 70 % 1012,4 hPa 0,0 mm 13,6 km/h (3 Bft) W 272 ° 0 min 0,000 mm 0,5 UV-I 79 W/m² 16,0 °C 21,7 °C 19,3 km/h (3 Bft)
24.06.2017 19:55 21,7 °C 21,7 °C 70 % 1012,3 hPa 0,0 mm 12,3 km/h (3 Bft) W-SW 242 ° 0 min 0,000 mm 0,5 UV-I 84 W/m² 16,0 °C 21,7 °C 16,1 km/h (3 Bft)
24.06.2017 19:56 21,7 °C 21,7 °C 71 % 1012,3 hPa 0,0 mm 9,5 km/h (2 Bft) W-SW 252 ° 0 min 0,000 mm 0,5 UV-I 91 W/m² 16,2 °C 21,7 °C 16,1 km/h (3 Bft)
24.06.2017 19:57 21,7 °C 21,7 °C 70 % 1012,3 hPa 0,0 mm 7,5 km/h (2 Bft) SW 232 ° 0 min 0,000 mm 0,5 UV-I 88 W/m² 16,0 °C 21,7 °C 11,3 km/h (2 Bft)
24.06.2017 19:58 21,7 °C 21,7 °C 71 % 1012,4 hPa 0,0 mm 10,5 km/h (2 Bft) W 262 ° 0 min 0,000 mm 0,0 UV-I 90 W/m² 16,2 °C 21,7 °C 19,3 km/h (3 Bft)
24.06.2017 19:59 21,7 °C 21,7 °C 70 % 1012,4 hPa 0,0 mm 15,3 km/h (3 Bft) W-NW 297 ° 0 min 0,000 mm 0,0 UV-I 97 W/m² 16,0 °C 21,7 °C 20,9 km/h (4 Bft)
24.06.2017 20:00 21,7 °C 21,7 °C 70 % 1012,4 hPa 0,0 mm 15,2 km/h (3 Bft) W-NW 290 ° 0 min 0,000 mm 0,0 UV-I 100 W/m² 16,0 °C 21,7 °C 17,7 km/h (3 Bft)
24.06.2017 20:01 21,7 °C 21,7 °C 70 % 1012,4 hPa 0,0 mm 6,3 km/h (2 Bft) W 263 ° 0 min 0,102 mm 0,0 UV-I 100 W/m² 16,0 °C 21,7 °C 16,1 km/h (3 Bft)
24.06.2017 20:02 21,7 °C 21,7 °C 71 % 1012,4 hPa 0,0 mm 12,0 km/h (2 Bft) W 266 ° 0 min 0,000 mm 0,0 UV-I 102 W/m² 16,2 °C 21,7 °C 17,7 km/h (3 Bft)
24.06.2017 20:03 21,7 °C 21,8 °C 71 % 1012,4 hPa 0,0 mm 8,9 km/h (2 Bft) W 263 ° 0 min 0,000 mm 0,0 UV-I 104 W/m² 16,2 °C 21,7 °C 12,9 km/h (3 Bft)
24.06.2017 20:04 21,7 °C 21,7 °C 71 % 1012,4 hPa 0,0 mm 11,4 km/h (2 Bft) W-NW 296 ° 0 min 0,000 mm 0,0 UV-I 102 W/m² 16,2 °C 21,7 °C 17,7 km/h (3 Bft)
24.06.2017 20:05 21,7 °C 21,8 °C 71 % 1012,4 hPa 0,0 mm 9,5 km/h (2 Bft) W 273 ° 0 min 0,000 mm 0,0 UV-I 97 W/m² 16,2 °C 21,7 °C 17,7 km/h (3 Bft)
24.06.2017 20:06 21,7 °C 21,8 °C 71 % 1012,5 hPa 0,0 mm 6,6 km/h (2 Bft) W-SW 243 ° 0 min 0,000 mm 0,0 UV-I 93 W/m² 16,2 °C 21,7 °C 11,3 km/h (2 Bft)
24.06.2017 20:07 21,7 °C 21,8 °C 71 % 1012,5 hPa 0,0 mm 9,2 km/h (2 Bft) W 262 ° 0 min 0,000 mm 0,0 UV-I 88 W/m² 16,2 °C 21,7 °C 14,5 km/h (3 Bft)
24.06.2017 20:08 21,7 °C 21,8 °C 70 % 1012,5 hPa 0,0 mm 5,4 km/h (1 Bft) SW 227 ° 0 min 0,000 mm 0,0 UV-I 84 W/m² 16,0 °C 21,7 °C 8,0 km/h (2 Bft)
24.06.2017 20:09 21,7 °C 21,7 °C 71 % 1012,4 hPa 0,0 mm 8,4 km/h (2 Bft) W 271 ° 0 min 0,000 mm 0,0 UV-I 81 W/m² 16,2 °C 21,7 °C 12,9 km/h (3 Bft)
24.06.2017 20:10 21,7 °C 21,7 °C 71 % 1012,4 hPa 0,0 mm 6,8 km/h (2 Bft) W-NW 296 ° 0 min 0,000 mm 0,0 UV-I 77 W/m² 16,2 °C 21,7 °C 12,9 km/h (3 Bft)
24.06.2017 20:11 21,7 °C 21,7 °C 71 % 1012,5 hPa 0,0 mm 7,8 km/h (2 Bft) W-SW 255 ° 0 min 0,000 mm 0,0 UV-I 76 W/m² 16,2 °C 21,7 °C 14,5 km/h (3 Bft)
24.06.2017 20:12 21,7 °C 21,7 °C 71 % 1012,4 hPa 0,0 mm 9,2 km/h (2 Bft) W-NW 301 ° 0 min 0,000 mm 0,0 UV-I 76 W/m² 16,2 °C 21,7 °C 17,7 km/h (3 Bft)
24.06.2017 20:13 21,6 °C 21,7 °C 71 % 1012,5 hPa 0,0 mm 9,9 km/h (2 Bft) NW 310 ° 0 min 0,000 mm 0,0 UV-I 76 W/m² 16,1 °C 21,6 °C 14,5 km/h (3 Bft)
24.06.2017 20:14 21,6 °C 21,7 °C 71 % 1012,5 hPa 0,0 mm 6,1 km/h (2 Bft) W 273 ° 0 min 0,000 mm 0,0 UV-I 76 W/m² 16,1 °C 21,6 °C 12,9 km/h (3 Bft)
24.06.2017 20:15 21,6 °C 21,7 °C 71 % 1012,5 hPa 0,0 mm 12,9 km/h (3 Bft) W-NW 290 ° 0 min 0,000 mm 0,0 UV-I 74 W/m² 16,1 °C 21,6 °C 17,7 km/h (3 Bft)
24.06.2017 20:16 21,7 °C 21,7 °C 71 % 1012,4 hPa 0,0 mm 11,6 km/h (2 Bft) W 273 ° 0 min 0,000 mm 0,0 UV-I 70 W/m² 16,2 °C 21,7 °C 22,5 km/h (4 Bft)
24.06.2017 20:17 21,6 °C 21,7 °C 71 % 1012,4 hPa 0,0 mm 5,3 km/h (1 Bft) W 280 ° 0 min 0,000 mm 0,0 UV-I 70 W/m² 16,1 °C 21,6 °C 9,7 km/h (2 Bft)
24.06.2017 20:18 21,6 °C 21,6 °C 71 % 1012,4 hPa 0,0 mm 14,0 km/h (3 Bft) W 275 ° 0 min 0,000 mm 0,0 UV-I 69 W/m² 16,1 °C 21,6 °C 19,3 km/h (3 Bft)
24.06.2017 20:19 21,6 °C 21,6 °C 71 % 1012,5 hPa 0,0 mm 12,9 km/h (3 Bft) W-SW 244 ° 0 min 0,000 mm 0,0 UV-I 63 W/m² 16,1 °C 21,6 °C 17,7 km/h (3 Bft)
24.06.2017 20:20 21,6 °C 21,6 °C 71 % 1012,5 hPa 0,0 mm 10,4 km/h (2 Bft) W-SW 258 ° 0 min 0,000 mm 0,0 UV-I 60 W/m² 16,1 °C 21,6 °C 12,9 km/h (3 Bft)
24.06.2017 20:21 21,5 °C 21,6 °C 71 % 1012,4 hPa 0,0 mm 9,8 km/h (2 Bft) W-NW 296 ° 0 min 0,000 mm 0,0 UV-I 58 W/m² 16,0 °C 21,5 °C 12,9 km/h (3 Bft)
24.06.2017 20:22 21,5 °C 21,5 °C 71 % 1012,4 hPa 0,0 mm 4,3 km/h (1 Bft) W 268 ° 0 min 0,000 mm 0,0 UV-I 56 W/m² 16,0 °C 21,5 °C 6,4 km/h (2 Bft)
24.06.2017 20:23 21,4 °C 21,5 °C 72 % 1012,4 hPa 0,0 mm 4,2 km/h (1 Bft) W-SW 248 ° 0 min 0,000 mm 0,0 UV-I 56 W/m² 16,1 °C 21,4 °C 4,8 km/h (1 Bft)
24.06.2017 20:24 21,4 °C 21,4 °C 71 % 1012,5 hPa 0,0 mm 8,3 km/h (2 Bft) W-SW 248 ° 0 min 0,000 mm 0,0 UV-I 54 W/m² 15,9 °C 21,4 °C 14,5 km/h (3 Bft)
24.06.2017 20:25 21,4 °C 21,4 °C 73 % 1012,6 hPa 0,0 mm 13,3 km/h (3 Bft) W 281 ° 0 min 0,000 mm 0,0 UV-I 51 W/m² 16,4 °C 21,4 °C 17,7 km/h (3 Bft)
24.06.2017 20:26 21,3 °C 21,4 °C 72 % 1012,5 hPa 0,0 mm 5,9 km/h (2 Bft) W-NW 293 ° 0 min 0,000 mm 0,0 UV-I 49 W/m² 16,0 °C 21,3 °C 9,7 km/h (2 Bft)
24.06.2017 20:27 21,3 °C 21,3 °C 72 % 1012,5 hPa 0,0 mm 11,5 km/h (2 Bft) W 268 ° 0 min 0,000 mm 0,0 UV-I 49 W/m² 16,0 °C 21,3 °C 16,1 km/h (3 Bft)
24.06.2017 20:28 21,3 °C 21,3 °C 72 % 1012,6 hPa 0,0 mm 9,1 km/h (2 Bft) W 265 ° 0 min 0,000 mm 0,0 UV-I 49 W/m² 16,0 °C 21,3 °C 14,5 km/h (3 Bft)
24.06.2017 20:29 21,3 °C 21,3 °C 72 % 1012,5 hPa 0,0 mm 8,4 km/h (2 Bft) W 266 ° 0 min 0,000 mm 0,0 UV-I 49 W/m² 16,0 °C 21,3 °C 14,5 km/h (3 Bft)
24.06.2017 20:30 21,2 °C 21,3 °C 72 % 1012,5 hPa 0,0 mm 7,0 km/h (2 Bft) W 276 ° 0 min 0,000 mm 0,0 UV-I 49 W/m² 15,9 °C 21,2 °C 12,9 km/h (3 Bft)
24.06.2017 20:31 21,2 °C 21,2 °C 72 % 1012,6 hPa 0,0 mm 8,0 km/h (2 Bft) W-NW 288 ° 0 min 0,000 mm 0,0 UV-I 46 W/m² 15,9 °C 21,2 °C 11,3 km/h (2 Bft)
24.06.2017 20:32 21,2 °C 21,2 °C 72 % 1012,6 hPa 0,0 mm 3,0 km/h (1 Bft) W 263 ° 0 min 0,000 mm 0,0 UV-I 44 W/m² 15,9 °C 21,2 °C 9,7 km/h (2 Bft)
24.06.2017 20:33 21,2 °C 21,2 °C 73 % 1012,6 hPa 0,0 mm 6,0 km/h (2 Bft) NW 309 ° 0 min 0,000 mm 0,0 UV-I 44 W/m² 16,2 °C 21,2 °C 11,3 km/h (2 Bft)
24.06.2017 20:34 21,1 °C 21,2 °C 73 % 1012,6 hPa 0,0 mm 8,2 km/h (2 Bft) W-SW 254 ° 0 min 0,000 mm 0,0 UV-I 42 W/m² 16,1 °C 21,1 °C 12,9 km/h (3 Bft)
24.06.2017 20:35 21,1 °C 21,1 °C 72 % 1012,6 hPa 0,0 mm 8,1 km/h (2 Bft) NW 306 ° 0 min 0,000 mm 0,0 UV-I 40 W/m² 15,8 °C 21,1 °C 14,5 km/h (3 Bft)
24.06.2017 20:36 21,1 °C 21,1 °C 72 % 1012,6 hPa 0,0 mm 5,2 km/h (1 Bft) W-NW 284 ° 0 min 0,000 mm 0,0 UV-I 39 W/m² 15,8 °C 21,1 °C 9,7 km/h (2 Bft)
24.06.2017 20:37 21,1 °C 21,1 °C 73 % 1012,6 hPa 0,0 mm 6,0 km/h (2 Bft) W 279 ° 0 min 0,000 mm 0,0 UV-I 33 W/m² 16,1 °C 21,1 °C 9,7 km/h (2 Bft)
24.06.2017 20:38 21,0 °C 21,1 °C 73 % 1012,5 hPa 0,0 mm 5,8 km/h (2 Bft) W-SW 257 ° 0 min 0,000 mm 0,0 UV-I 33 W/m² 16,0 °C 21,0 °C 9,7 km/h (2 Bft)
24.06.2017 20:39 20,9 °C 21,0 °C 73 % 1012,6 hPa 0,0 mm 8,7 km/h (2 Bft) W-NW 293 ° 0 min 0,000 mm 0,0 UV-I 32 W/m² 15,9 °C 20,9 °C 12,9 km/h (3 Bft)
24.06.2017 20:40 20,8 °C 20,9 °C 73 % 1012,5 hPa 0,0 mm 4,5 km/h (1 Bft) W-SW 250 ° 0 min 0,000 mm 0,0 UV-I 32 W/m² 15,8 °C 20,8 °C 9,7 km/h (2 Bft)
24.06.2017 20:41 20,8 °C 20,8 °C 73 % 1012,6 hPa 0,0 mm 8,3 km/h (2 Bft) W 281 ° 0 min 0,000 mm 0,0 UV-I 30 W/m² 15,8 °C 20,8 °C 11,3 km/h (2 Bft)
24.06.2017 20:42 20,8 °C 20,8 °C 73 % 1012,6 hPa 0,0 mm 6,2 km/h (2 Bft) SW 229 ° 0 min 0,000 mm 0,0 UV-I 28 W/m² 15,8 °C 20,8 °C 12,9 km/h (3 Bft)
24.06.2017 20:43 20,8 °C 20,8 °C 73 % 1012,6 hPa 0,0 mm 5,6 km/h (1 Bft) W 267 ° 0 min 0,000 mm 0,0 UV-I 28 W/m² 15,8 °C 20,8 °C 9,7 km/h (2 Bft)
24.06.2017 20:44 20,8 °C 20,8 °C 73 % 1012,7 hPa 0,0 mm 4,6 km/h (1 Bft) W-NW 296 ° 0 min 0,000 mm 0,0 UV-I 28 W/m² 15,8 °C 20,8 °C 6,4 km/h (2 Bft)
24.06.2017 20:45 20,7 °C 20,8 °C 74 % 1012,7 hPa 0,0 mm 3,8 km/h (1 Bft) W-NW 302 ° 0 min 0,000 mm 0,0 UV-I 28 W/m² 15,9 °C 20,7 °C 6,4 km/h (2 Bft)
24.06.2017 20:46 20,6 °C 20,7 °C 74 % 1012,7 hPa 0,0 mm 6,2 km/h (2 Bft) W-SW 254 ° 0 min 0,000 mm 0,0 UV-I 28 W/m² 15,8 °C 20,6 °C 9,7 km/h (2 Bft)
24.06.2017 20:47 20,6 °C 20,7 °C 74 % 1012,7 hPa 0,0 mm 3,8 km/h (1 Bft) W 269 ° 0 min 0,000 mm 0,0 UV-I 26 W/m² 15,8 °C 20,6 °C 6,4 km/h (2 Bft)
24.06.2017 20:48 20,5 °C 20,6 °C 74 % 1012,7 hPa 0,0 mm 6,8 km/h (2 Bft) W 273 ° 0 min 0,000 mm 0,0 UV-I 26 W/m² 15,7 °C 20,5 °C 9,7 km/h (2 Bft)
24.06.2017 20:49 20,5 °C 20,6 °C 75 % 1012,7 hPa 0,0 mm 4,0 km/h (1 Bft) W-SW 257 ° 0 min 0,000 mm 0,0 UV-I 25 W/m² 15,9 °C 20,5 °C 8,0 km/h (2 Bft)
24.06.2017 20:50 20,4 °C 20,5 °C 75 % 1012,6 hPa 0,0 mm 5,1 km/h (1 Bft) W-NW 299 ° 0 min 0,000 mm 0,0 UV-I 25 W/m² 15,8 °C 20,4 °C 11,3 km/h (2 Bft)
24.06.2017 20:51 20,4 °C 20,4 °C 74 % 1012,7 hPa 0,0 mm 6,5 km/h (2 Bft) W-SW 254 ° 0 min 0,000 mm 0,0 UV-I 25 W/m² 15,6 °C 20,4 °C 11,3 km/h (2 Bft)
24.06.2017 20:52 20,4 °C 20,4 °C 75 % 1012,7 hPa 0,0 mm 7,4 km/h (2 Bft) W 277 ° 0 min 0,000 mm 0,0 UV-I 23 W/m² 15,8 °C 20,4 °C 14,5 km/h (3 Bft)
24.06.2017 20:53 20,4 °C 20,4 °C 75 % 1012,8 hPa 0,0 mm 7,7 km/h (2 Bft) W-NW 284 ° 0 min 0,000 mm 0,0 UV-I 23 W/m² 15,8 °C 20,4 °C 12,9 km/h (3 Bft)
24.06.2017 20:54 20,4 °C 20,4 °C 75 % 1012,7 hPa 0,0 mm 5,3 km/h (1 Bft) W 272 ° 0 min 0,000 mm 0,0 UV-I 23 W/m² 15,8 °C 20,4 °C 12,9 km/h (3 Bft)
24.06.2017 20:55 20,4 °C 20,4 °C 75 % 1012,7 hPa 0,0 mm 8,4 km/h (2 Bft) W 279 ° 0 min 0,000 mm 0,0 UV-I 21 W/m² 15,8 °C 20,4 °C 14,5 km/h (3 Bft)
24.06.2017 20:56 20,3 °C 20,4 °C 75 % 1012,8 hPa 0,0 mm 3,8 km/h (1 Bft) W-SW 246 ° 0 min 0,000 mm 0,0 UV-I 21 W/m² 15,7 °C 20,3 °C 6,4 km/h (2 Bft)
24.06.2017 20:57 20,3 °C 20,3 °C 75 % 1012,8 hPa 0,0 mm 4,9 km/h (1 Bft) W 271 ° 0 min 0,000 mm 0,0 UV-I 21 W/m² 15,7 °C 20,3 °C 6,4 km/h (2 Bft)
24.06.2017 20:58 20,3 °C 20,3 °C 75 % 1012,7 hPa 0,0 mm 4,9 km/h (1 Bft) W 273 ° 0 min 0,000 mm 0,0 UV-I 19 W/m² 15,7 °C 20,3 °C 9,7 km/h (2 Bft)
24.06.2017 20:59 20,2 °C 20,3 °C 75 % 1012,8 hPa 0,0 mm 3,8 km/h (1 Bft) W 269 ° 0 min 0,000 mm 0,0 UV-I 19 W/m² 15,6 °C 20,2 °C 6,4 km/h (2 Bft)
24.06.2017 21:00 20,2 °C 20,2 °C 75 % 1012,8 hPa 0,0 mm 1,9 km/h (1 Bft) W 269 ° 0 min 0,051 mm 0,0 UV-I 18 W/m² 15,6 °C 20,2 °C 3,2 km/h (1 Bft)
24.06.2017 21:01 20,2 °C 20,2 °C 75 % 1012,8 hPa 0,0 mm 3,3 km/h (1 Bft) W 273 ° 0 min 0,000 mm 0,0 UV-I 18 W/m² 15,6 °C 20,2 °C 4,8 km/h (1 Bft)
24.06.2017 21:02 20,2 °C 20,2 °C 75 % 1012,8 hPa 0,0 mm 2,9 km/h (1 Bft) W 278 ° 0 min 0,000 mm 0,0 UV-I 18 W/m² 15,6 °C 20,2 °C 6,4 km/h (2 Bft)
24.06.2017 21:03 20,2 °C 20,2 °C 75 % 1012,8 hPa 0,0 mm 1,3 km/h (1 Bft) W-NW 298 ° 0 min 0,000 mm 0,0 UV-I 16 W/m² 15,6 °C 20,2 °C 4,8 km/h (1 Bft)
24.06.2017 21:04 20,2 °C 20,2 °C 75 % 1012,8 hPa 0,0 mm 1,9 km/h (1 Bft) W 267 ° 0 min 0,000 mm 0,0 UV-I 16 W/m² 15,6 °C 20,2 °C 6,4 km/h (2 Bft)
24.06.2017 21:05 20,2 °C 20,2 °C 75 % 1012,8 hPa 0,0 mm 0,9 km/h (0 Bft) W 267 ° 0 min 0,000 mm 0,0 UV-I 16 W/m² 15,6 °C 20,2 °C 3,2 km/h (1 Bft)
24.06.2017 21:06 20,2 °C 20,2 °C 75 % 1012,8 hPa 0,0 mm 1,5 km/h (1 Bft) S-SW 210 ° 0 min 0,000 mm 0,0 UV-I 14 W/m² 15,6 °C 20,2 °C 6,4 km/h (2 Bft)
24.06.2017 21:07 20,2 °C 20,2 °C 75 % 1012,8 hPa 0,0 mm 3,4 km/h (1 Bft) W-SW 240 ° 0 min 0,000 mm 0,0 UV-I 14 W/m² 15,6 °C 20,2 °C 6,4 km/h (2 Bft)
24.06.2017 21:08 20,1 °C 20,2 °C 75 % 1012,8 hPa 0,0 mm 5,1 km/h (1 Bft) S-SW 211 ° 0 min 0,000 mm 0,0 UV-I 12 W/m² 15,5 °C 20,1 °C 8,0 km/h (2 Bft)
24.06.2017 21:09 20,2 °C 20,2 °C 75 % 1012,8 hPa 0,0 mm 1,9 km/h (1 Bft) S-SW 211 ° 0 min 0,000 mm 0,0 UV-I 12 W/m² 15,6 °C 20,2 °C 4,8 km/h (1 Bft)
24.06.2017 21:10 20,2 °C 20,2 °C 75 % 1012,8 hPa 0,0 mm 0,3 km/h (0 Bft) S-SW 211 ° 0 min 0,000 mm 0,0 UV-I 12 W/m² 15,6 °C 20,2 °C 1,6 km/h (1 Bft)
24.06.2017 21:11 20,2 °C 20,3 °C 75 % 1012,9 hPa 0,0 mm 2,6 km/h (1 Bft) SW 234 ° 0 min 0,000 mm 0,0 UV-I 12 W/m² 15,6 °C 20,2 °C 6,4 km/h (2 Bft)
24.06.2017 21:12 20,2 °C 20,2 °C 75 % 1012,8 hPa 0,0 mm 2,5 km/h (1 Bft) SW 234 ° 0 min 0,000 mm 0,0 UV-I 11 W/m² 15,6 °C 20,2 °C 4,8 km/h (1 Bft)
24.06.2017 21:13 20,2 °C 20,2 °C 75 % 1012,9 hPa 0,0 mm 2,4 km/h (1 Bft) SW 234 ° 0 min 0,000 mm 0,0 UV-I 11 W/m² 15,6 °C 20,2 °C 4,8 km/h (1 Bft)
24.06.2017 21:14 20,2 °C 20,2 °C 75 % 1012,9 hPa 0,0 mm 0,1 km/h (0 Bft) SW 234 ° 0 min 0,000 mm 0,0 UV-I 11 W/m² 15,6 °C 20,2 °C 1,6 km/h (1 Bft)
24.06.2017 21:15 20,2 °C 20,2 °C 75 % 1012,9 hPa 0,0 mm 0,7 km/h (0 Bft) SW 234 ° 0 min 0,000 mm 0,0 UV-I 9 W/m² 15,6 °C 20,2 °C 1,6 km/h (1 Bft)
24.06.2017 21:16 20,1 °C 20,2 °C 75 % 1012,9 hPa 0,0 mm 3,4 km/h (1 Bft) SW 219 ° 0 min 0,000 mm 0,0 UV-I 9 W/m² 15,5 °C 20,1 °C 4,8 km/h (1 Bft)
24.06.2017 21:17 20,1 °C 20,1 °C 75 % 1012,9 hPa 0,0 mm 4,4 km/h (1 Bft) S 190 ° 0 min 0,000 mm 0,0 UV-I 9 W/m² 15,5 °C 20,1 °C 8,0 km/h (2 Bft)
24.06.2017 21:18 20,1 °C 20,1 °C 75 % 1012,9 hPa 0,0 mm 3,0 km/h (1 Bft) S 190 ° 0 min 0,000 mm 0,0 UV-I 9 W/m² 15,5 °C 20,1 °C 6,4 km/h (2 Bft)
24.06.2017 21:19 20,1 °C 20,1 °C 75 % 1013,0 hPa 0,0 mm 2,8 km/h (1 Bft) W-SW 248 ° 0 min 0,000 mm 0,0 UV-I 7 W/m² 15,5 °C 20,1 °C 4,8 km/h (1 Bft)
24.06.2017 21:20 20,1 °C 20,2 °C 75 % 1013,0 hPa 0,0 mm 4,4 km/h (1 Bft) W-SW 248 ° 0 min 0,000 mm 0,0 UV-I 7 W/m² 15,5 °C 20,1 °C 8,0 km/h (2 Bft)
24.06.2017 21:21 20,1 °C 20,1 °C 76 % 1013,0 hPa 0,0 mm 2,5 km/h (1 Bft) SW 226 ° 0 min 0,000 mm 0,0 UV-I 7 W/m² 15,7 °C 20,1 °C 6,4 km/h (2 Bft)
24.06.2017 21:22 20,1 °C 20,1 °C 76 % 1013,0 hPa 0,0 mm 1,3 km/h (1 Bft) SW 223 ° 0 min 0,000 mm 0,0 UV-I 7 W/m² 15,7 °C 20,1 °C 3,2 km/h (1 Bft)
24.06.2017 21:23 20,1 °C 20,1 °C 76 % 1013,1 hPa 0,0 mm 3,7 km/h (1 Bft) S-SW 213 ° 0 min 0,000 mm 0,0 UV-I 7 W/m² 15,7 °C 20,1 °C 6,4 km/h (2 Bft)
24.06.2017 21:24 20,0 °C 20,1 °C 76 % 1013,1 hPa 0,0 mm 2,9 km/h (1 Bft) SW 220 ° 0 min 0,000 mm 0,0 UV-I 7 W/m² 15,6 °C 20,0 °C 4,8 km/h (1 Bft)
24.06.2017 21:25 20,0 °C 20,0 °C 75 % 1013,1 hPa 0,0 mm 3,6 km/h (1 Bft) S 186 ° 0 min 0,000 mm 0,0 UV-I 5 W/m² 15,4 °C 20,0 °C 4,8 km/h (1 Bft)
24.06.2017 21:26 19,9 °C 20,0 °C 76 % 1013,0 hPa 0,0 mm 3,1 km/h (1 Bft) W-SW 240 ° 0 min 0,000 mm 0,0 UV-I 5 W/m² 15,5 °C 19,9 °C 4,8 km/h (1 Bft)
24.06.2017 21:27 19,9 °C 19,9 °C 76 % 1013,1 hPa 0,0 mm 2,2 km/h (1 Bft) S 188 ° 0 min 0,000 mm 0,0 UV-I 5 W/m² 15,5 °C 19,9 °C 4,8 km/h (1 Bft)
24.06.2017 21:28 19,9 °C 19,9 °C 76 % 1013,1 hPa 0,0 mm 2,2 km/h (1 Bft) SW 236 ° 0 min 0,000 mm 0,0 UV-I 5 W/m² 15,5 °C 19,9 °C 4,8 km/h (1 Bft)
24.06.2017 21:29 19,9 °C 19,9 °C 76 % 1013,0 hPa 0,0 mm 4,4 km/h (1 Bft) SW 224 ° 0 min 0,000 mm 0,0 UV-I 5 W/m² 15,5 °C 19,9 °C 6,4 km/h (2 Bft)
24.06.2017 21:30 19,8 °C 19,9 °C 76 % 1013,0 hPa 0,0 mm 2,4 km/h (1 Bft) SW 225 ° 0 min 0,000 mm 0,0 UV-I 0 W/m² 15,4 °C 19,8 °C 4,8 km/h (1 Bft)
24.06.2017 21:31 19,8 °C 19,8 °C 76 % 1013,0 hPa 0,0 mm 1,3 km/h (1 Bft) SW 225 ° 0 min 0,000 mm 0,0 UV-I 0 W/m² 15,4 °C 19,8 °C 1,6 km/h (1 Bft)
24.06.2017 21:32 19,8 °C 19,8 °C 76 % 1013,0 hPa 0,0 mm 3,4 km/h (1 Bft) W-SW 240 ° 0 min 0,000 mm 0,0 UV-I 0 W/m² 15,4 °C 19,8 °C 9,7 km/h (2 Bft)
24.06.2017 21:33 19,8 °C 19,8 °C 77 % 1013,0 hPa 0,0 mm 3,4 km/h (1 Bft) W 263 ° 0 min 0,000 mm 0,0 UV-I 0 W/m² 15,6 °C 19,8 °C 12,9 km/h (3 Bft)
24.06.2017 21:34 19,7 °C 19,8 °C 77 % 1013,0 hPa 0,0 mm 6,6 km/h (2 Bft) W 259 ° 0 min 0,000 mm 0,0 UV-I 0 W/m² 15,5 °C 19,7 °C 11,3 km/h (2 Bft)
24.06.2017 21:35 19,7 °C 19,7 °C 77 % 1013,1 hPa 0,0 mm 1,2 km/h (1 Bft) W 271 ° 0 min 0,000 mm 0,0 UV-I 0 W/m² 15,5 °C 19,7 °C 3,2 km/h (1 Bft)
24.06.2017 21:36 19,7 °C 19,7 °C 77 % 1013,1 hPa 0,0 mm 3,5 km/h (1 Bft) W-SW 251 ° 0 min 0,000 mm 0,0 UV-I 0 W/m² 15,5 °C 19,7 °C 6,4 km/h (2 Bft)
24.06.2017 21:37 19,6 °C 19,7 °C 77 % 1013,1 hPa 0,0 mm 4,8 km/h (1 Bft) W 279 ° 0 min 0,000 mm 0,0 UV-I 0 W/m² 15,5 °C 19,6 °C 14,5 km/h (3 Bft)
24.06.2017 21:38 19,6 °C 19,6 °C 77 % 1013,1 hPa 0,0 mm 6,4 km/h (2 Bft) W-SW 247 ° 0 min 0,000 mm 0,0 UV-I 0 W/m² 15,5 °C 19,6 °C 12,9 km/h (3 Bft)
24.06.2017 21:39 19,5 °C 19,6 °C 77 % 1013,1 hPa 0,0 mm 3,9 km/h (1 Bft) W 261 ° 0 min 0,000 mm 0,0 UV-I 0 W/m² 15,4 °C 19,5 °C 9,7 km/h (2 Bft)
24.06.2017 21:40 19,5 °C 19,5 °C 77 % 1013,2 hPa 0,0 mm 3,4 km/h (1 Bft) W 260 ° 0 min 0,000 mm 0,0 UV-I 0 W/m² 15,4 °C 19,5 °C 4,8 km/h (1 Bft)
24.06.2017 21:41 19,4 °C 19,5 °C 78 % 1013,2 hPa 0,0 mm 5,8 km/h (2 Bft) SW 224 ° 0 min 0,000 mm 0,0 UV-I 0 W/m² 15,5 °C 19,4 °C 12,9 km/h (3 Bft)
24.06.2017 21:42 19,4 °C 19,4 °C 78 % 1013,3 hPa 0,0 mm 5,0 km/h (1 Bft) W 271 ° 0 min 0,000 mm 0,0 UV-I 0 W/m² 15,5 °C 19,4 °C 9,7 km/h (2 Bft)
24.06.2017 21:43 19,4 °C 19,4 °C 78 % 1013,3 hPa 0,0 mm 5,9 km/h (2 Bft) W 259 ° 0 min 0,000 mm 0,0 UV-I 0 W/m² 15,5 °C 19,4 °C 11,3 km/h (2 Bft)
24.06.2017 21:44 19,4 °C 19,4 °C 78 % 1013,3 hPa 0,0 mm 3,3 km/h (1 Bft) SW 235 ° 0 min 0,000 mm 0,0 UV-I 0 W/m² 15,5 °C 19,4 °C 4,8 km/h (1 Bft)
24.06.2017 21:45 19,5 °C 19,5 °C 78 % 1013,3 hPa 0,0 mm 2,9 km/h (1 Bft) SW 232 ° 0 min 0,000 mm 0,0 UV-I 0 W/m² 15,6 °C 19,5 °C 4,8 km/h (1 Bft)
24.06.2017 21:46 19,5 °C 19,5 °C 78 % 1013,2 hPa 0,0 mm 3,2 km/h (1 Bft) W 259 ° 0 min 0,000 mm 0,0 UV-I 0 W/m² 15,6 °C 19,5 °C 4,8 km/h (1 Bft)
24.06.2017 21:47 19,5 °C 19,5 °C 78 % 1013,3 hPa 0,0 mm 3,9 km/h (1 Bft) W 269 ° 0 min 0,000 mm 0,0 UV-I 0 W/m² 15,6 °C 19,5 °C 6,4 km/h (2 Bft)
24.06.2017 21:48 19,4 °C 19,5 °C 78 % 1013,2 hPa 0,0 mm 6,9 km/h (2 Bft) W-SW 246 ° 0 min 0,000 mm 0,0 UV-I 0 W/m² 15,5 °C 19,4 °C 11,3 km/h (2 Bft)
24.06.2017 21:49 19,4 °C 19,4 °C 78 % 1013,3 hPa 0,0 mm 4,9 km/h (1 Bft) W 261 ° 0 min 0,000 mm 0,0 UV-I 0 W/m² 15,5 °C 19,4 °C 8,0 km/h (2 Bft)
24.06.2017 21:50 19,4 °C 19,4 °C 78 % 1013,3 hPa 0,0 mm 3,1 km/h (1 Bft) W 265 ° 0 min 0,000 mm 0,0 UV-I 0 W/m² 15,5 °C 19,4 °C 6,4 km/h (2 Bft)
24.06.2017 21:51 19,4 °C 19,4 °C 78 % 1013,3 hPa 0,0 mm 3,2 km/h (1 Bft) W-SW 258 ° 0 min 0,000 mm 0,0 UV-I 0 W/m² 15,5 °C 19,4 °C 4,8 km/h (1 Bft)
24.06.2017 21:52 19,4 °C 19,4 °C 78 % 1013,3 hPa 0,0 mm 3,4 km/h (1 Bft) W-SW 242 ° 0 min 0,000 mm 0,0 UV-I 0 W/m² 15,5 °C 19,4 °C 8,0 km/h (2 Bft)
24.06.2017 21:53 19,3 °C 19,4 °C 78 % 1013,3 hPa 0,0 mm 5,0 km/h (1 Bft) W 263 ° 0 min 0,000 mm 0,0 UV-I 0 W/m² 15,4 °C 19,3 °C 6,4 km/h (2 Bft)
24.06.2017 21:54 19,3 °C 19,3 °C 78 % 1013,3 hPa 0,0 mm 2,4 km/h (1 Bft) W 262 ° 0 min 0,000 mm 0,0 UV-I 0 W/m² 15,4 °C 19,3 °C 4,8 km/h (1 Bft)
24.06.2017 21:55 19,2 °C 19,3 °C 79 % 1013,3 hPa 0,0 mm 3,1 km/h (1 Bft) W 263 ° 0 min 0,000 mm 0,0 UV-I 0 W/m² 15,5 °C 19,2 °C 4,8 km/h (1 Bft)
24.06.2017 21:56 19,2 °C 19,2 °C 79 % 1013,3 hPa 0,0 mm 1,9 km/h (1 Bft) W 263 ° 0 min 0,000 mm 0,0 UV-I 0 W/m² 15,5 °C 19,2 °C 4,8 km/h (1 Bft)
24.06.2017 21:57 19,1 °C 19,2 °C 79 % 1013,3 hPa 0,0 mm 4,6 km/h (1 Bft) W 259 ° 0 min 0,000 mm 0,0 UV-I 0 W/m² 15,4 °C 19,1 °C 8,0 km/h (2 Bft)
24.06.2017 21:58 19,1 °C 19,1 °C 79 % 1013,3 hPa 0,0 mm 4,4 km/h (1 Bft) W-SW 242 ° 0 min 0,000 mm 0,0 UV-I 0 W/m² 15,4 °C 19,1 °C 9,7 km/h (2 Bft)
24.06.2017 21:59 19,2 °C 19,2 °C 79 % 1013,2 hPa 0,0 mm 2,5 km/h (1 Bft) W 264 ° 0 min 0,000 mm 0,0 UV-I 0 W/m² 15,5 °C 19,2 °C 4,8 km/h (1 Bft)
24.06.2017 22:00 19,2 °C 19,2 °C 79 % 1013,3 hPa 0,0 mm 5,4 km/h (1 Bft) W-SW 251 ° 0 min 0,000 mm 0,0 UV-I 0 W/m² 15,5 °C 19,2 °C 11,3 km/h (2 Bft)
24.06.2017 22:01 19,2 °C 19,2 °C 79 % 1013,3 hPa 0,0 mm 4,6 km/h (1 Bft) W 281 ° 0 min 0,025 mm 0,0 UV-I 0 W/m² 15,5 °C 19,2 °C 11,3 km/h (2 Bft)
24.06.2017 22:02 19,1 °C 19,2 °C 79 % 1013,3 hPa 0,0 mm 5,7 km/h (1 Bft) W 267 ° 0 min 0,000 mm 0,0 UV-I 0 W/m² 15,4 °C 19,1 °C 11,3 km/h (2 Bft)
24.06.2017 22:03 19,1 °C 19,1 °C 79 % 1013,3 hPa 0,0 mm 0,4 km/h (0 Bft) W 265 ° 0 min 0,000 mm 0,0 UV-I 0 W/m² 15,4 °C 19,1 °C 1,6 km/h (1 Bft)
24.06.2017 22:04 19,1 °C 19,1 °C 79 % 1013,3 hPa 0,0 mm 4,4 km/h (1 Bft) W-NW 284 ° 0 min 0,000 mm 0,0 UV-I 0 W/m² 15,4 °C 19,1 °C 6,4 km/h (2 Bft)
24.06.2017 22:05 19,0 °C 19,1 °C 79 % 1013,2 hPa 0,0 mm 5,0 km/h (1 Bft) W 269 ° 0 min 0,000 mm 0,0 UV-I 0 W/m² 15,3 °C 19,0 °C 11,3 km/h (2 Bft)
24.06.2017 22:06 19,1 °C 19,1 °C 79 % 1013,3 hPa 0,0 mm 3,7 km/h (1 Bft) W 270 ° 0 min 0,000 mm 0,0 UV-I 0 W/m² 15,4 °C 19,1 °C 4,8 km/h (1 Bft)
24.06.2017 22:07 19,1 °C 19,1 °C 79 % 1013,2 hPa 0,0 mm 4,8 km/h (1 Bft) W 271 ° 0 min 0,000 mm 0,0 UV-I 0 W/m² 15,4 °C 19,1 °C 9,7 km/h (2 Bft)
24.06.2017 22:08 19,1 °C 19,1 °C 79 % 1013,3 hPa 0,0 mm 8,9 km/h (2 Bft) W 272 ° 0 min 0,000 mm 0,0 UV-I 0 W/m² 15,4 °C 19,1 °C 12,9 km/h (3 Bft)
24.06.2017 22:09 19,1 °C 19,1 °C 79 % 1013,3 hPa 0,0 mm 3,3 km/h (1 Bft) W-SW 258 ° 0 min 0,000 mm 0,0 UV-I 0 W/m² 15,4 °C 19,1 °C 11,3 km/h (2 Bft)
24.06.2017 22:10 19,1 °C 19,1 °C 79 % 1013,3 hPa 0,0 mm 5,6 km/h (1 Bft) W 278 ° 0 min 0,000 mm 0,0 UV-I 0 W/m² 15,4 °C 19,1 °C 11,3 km/h (2 Bft)
24.06.2017 22:11 19,1 °C 19,1 °C 79 % 1013,3 hPa 0,0 mm 5,8 km/h (2 Bft) W-SW 258 ° 0 min 0,000 mm 0,0 UV-I 0 W/m² 15,4 °C 19,1 °C 11,3 km/h (2 Bft)
24.06.2017 22:12 19,1 °C 19,1 °C 79 % 1013,3 hPa 0,0 mm 4,8 km/h (1 Bft) W-SW 254 ° 0 min 0,000 mm 0,0 UV-I 0 W/m² 15,4 °C 19,1 °C 6,4 km/h (2 Bft)
24.06.2017 22:13 19,1 °C 19,1 °C 79 % 1013,3 hPa 0,0 mm 8,4 km/h (2 Bft) W-SW 251 ° 0 min 0,000 mm 0,0 UV-I 0 W/m² 15,4 °C 19,1 °C 14,5 km/h (3 Bft)
24.06.2017 22:14 19,1 °C 19,1 °C 79 % 1013,3 hPa 0,0 mm 6,1 km/h (2 Bft) W 261 ° 0 min 0,000 mm 0,0 UV-I 0 W/m² 15,4 °C 19,1 °C 11,3 km/h (2 Bft)
24.06.2017 22:15 19,0 °C 19,1 °C 80 % 1013,3 hPa 0,0 mm 5,3 km/h (1 Bft) W 280 ° 0 min 0,000 mm 0,0 UV-I 0 W/m² 15,5 °C 19,0 °C 12,9 km/h (3 Bft)
24.06.2017 22:16 19,0 °C 19,1 °C 80 % 1013,3 hPa 0,0 mm 5,4 km/h (1 Bft) W-SW 252 ° 0 min 0,000 mm 0,0 UV-I 0 W/m² 15,5 °C 19,0 °C 9,7 km/h (2 Bft)
24.06.2017 22:17 19,0 °C 19,0 °C 80 % 1013,3 hPa 0,0 mm 3,1 km/h (1 Bft) W 281 ° 0 min 0,000 mm 0,0 UV-I 0 W/m² 15,5 °C 19,0 °C 4,8 km/h (1 Bft)
24.06.2017 22:18 18,9 °C 19,0 °C 80 % 1013,3 hPa 0,0 mm 4,1 km/h (1 Bft) W 260 ° 0 min 0,000 mm 0,0 UV-I 0 W/m² 15,4 °C 18,9 °C 6,4 km/h (2 Bft)
24.06.2017 22:19 18,9 °C 18,9 °C 80 % 1013,3 hPa 0,0 mm 3,6 km/h (1 Bft) W 265 ° 0 min 0,000 mm 0,0 UV-I 0 W/m² 15,4 °C 18,9 °C 4,8 km/h (1 Bft)
24.06.2017 22:20 18,9 °C 18,9 °C 80 % 1013,3 hPa 0,0 mm 4,8 km/h (1 Bft) W 271 ° 0 min 0,000 mm 0,0 UV-I 0 W/m² 15,4 °C 18,9 °C 6,4 km/h (2 Bft)
24.06.2017 22:21 18,9 °C 18,9 °C 80 % 1013,3 hPa 0,0 mm 3,0 km/h (1 Bft) W-SW 237 ° 0 min 0,000 mm 0,0 UV-I 0 W/m² 15,4 °C 18,9 °C 3,2 km/h (1 Bft)
24.06.2017 22:22 18,8 °C 18,9 °C 80 % 1013,3 hPa 0,0 mm 3,8 km/h (1 Bft) W 269 ° 0 min 0,000 mm 0,0 UV-I 0 W/m² 15,3 °C 18,8 °C 6,4 km/h (2 Bft)
24.06.2017 22:23 18,8 °C 18,8 °C 80 % 1013,3 hPa 0,0 mm 3,3 km/h (1 Bft) W 261 ° 0 min 0,000 mm 0,0 UV-I 0 W/m² 15,3 °C 18,8 °C 4,8 km/h (1 Bft)
24.06.2017 22:24 18,7 °C 18,8 °C 81 % 1013,3 hPa 0,0 mm 4,5 km/h (1 Bft) W-NW 282 ° 0 min 0,000 mm 0,0 UV-I 0 W/m² 15,4 °C 18,7 °C 6,4 km/h (2 Bft)
24.06.2017 22:25 18,6 °C 18,7 °C 81 % 1013,4 hPa 0,0 mm 4,2 km/h (1 Bft) W 271 ° 0 min 0,000 mm 0,0 UV-I 0 W/m² 15,3 °C 18,6 °C 6,4 km/h (2 Bft)
24.06.2017 22:26 18,6 °C 18,6 °C 81 % 1013,4 hPa 0,0 mm 4,2 km/h (1 Bft) W 272 ° 0 min 0,000 mm 0,0 UV-I 0 W/m² 15,3 °C 18,6 °C 6,4 km/h (2 Bft)
24.06.2017 22:27 18,6 °C 18,6 °C 81 % 1013,4 hPa 0,0 mm 2,6 km/h (1 Bft) W 272 ° 0 min 0,000 mm 0,0 UV-I 0 W/m² 15,3 °C 18,6 °C 4,8 km/h (1 Bft)
24.06.2017 22:28 18,6 °C 18,6 °C 81 % 1013,5 hPa 0,0 mm 2,5 km/h (1 Bft) W-NW 287 ° 0 min 0,000 mm 0,0 UV-I 0 W/m² 15,3 °C 18,6 °C 4,8 km/h (1 Bft)
24.06.2017 22:29 18,6 °C 18,6 °C 81 % 1013,5 hPa 0,0 mm 4,0 km/h (1 Bft) W-NW 299 ° 0 min 0,000 mm 0,0 UV-I 0 W/m² 15,3 °C 18,6 °C 4,8 km/h (1 Bft)
24.06.2017 22:30 18,6 °C 18,6 °C 81 % 1013,5 hPa 0,0 mm 3,0 km/h (1 Bft) W 277 ° 0 min 0,000 mm 0,0 UV-I 0 W/m² 15,3 °C 18,6 °C 4,8 km/h (1 Bft)
24.06.2017 22:31 18,6 °C 18,6 °C 81 % 1013,5 hPa 0,0 mm 2,5 km/h (1 Bft) W 265 ° 0 min 0,000 mm 0,0 UV-I 0 W/m² 15,3 °C 18,6 °C 6,4 km/h (2 Bft)
24.06.2017 22:32 18,6 °C 18,6 °C 81 % 1013,5 hPa 0,0 mm 3,8 km/h (1 Bft) W-SW 242 ° 0 min 0,000 mm 0,0 UV-I 0 W/m² 15,3 °C 18,6 °C 6,4 km/h (2 Bft)
24.06.2017 22:33 18,6 °C 18,6 °C 81 % 1013,6 hPa 0,0 mm 3,0 km/h (1 Bft) W-SW 257 ° 0 min 0,000 mm 0,0 UV-I 0 W/m² 15,3 °C 18,6 °C 4,8 km/h (1 Bft)
24.06.2017 22:34 18,6 °C 18,6 °C 81 % 1013,6 hPa 0,0 mm 2,1 km/h (1 Bft) W-SW 251 ° 0 min 0,000 mm 0,0 UV-I 0 W/m² 15,3 °C 18,6 °C 3,2 km/h (1 Bft)
24.06.2017 22:35 18,6 °C 18,6 °C 81 % 1013,6 hPa 0,0 mm 2,1 km/h (1 Bft) W 275 ° 0 min 0,000 mm 0,0 UV-I 0 W/m² 15,3 °C 18,6 °C 4,8 km/h (1 Bft)
24.06.2017 22:36 18,6 °C 18,6 °C 81 % 1013,6 hPa 0,0 mm 2,2 km/h (1 Bft) SW 236 ° 0 min 0,000 mm 0,0 UV-I 0 W/m² 15,3 °C 18,6 °C 3,2 km/h (1 Bft)
24.06.2017 22:37 18,6 °C 18,6 °C 81 % 1013,6 hPa 0,0 mm 2,4 km/h (1 Bft) W-SW 248 ° 0 min 0,000 mm 0,0 UV-I 0 W/m² 15,3 °C 18,6 °C 3,2 km/h (1 Bft)
24.06.2017 22:38 18,6 °C 18,6 °C 81 % 1013,6 hPa 0,0 mm 0,0 km/h (0 Bft) W-SW 248 ° 0 min 0,000 mm 0,0 UV-I 0 W/m² 15,3 °C 18,6 °C 0,0 km/h (0 Bft)
24.06.2017 22:39 18,6 °C 18,6 °C 81 % 1013,6 hPa 0,0 mm 0,0 km/h (0 Bft) W-SW 248 ° 0 min 0,000 mm 0,0 UV-I 0 W/m² 15,3 °C 18,6 °C 0,0 km/h (0 Bft)
24.06.2017 22:40 18,6 °C 18,6 °C 81 % 1013,7 hPa 0,0 mm 0,0 km/h (0 Bft) W-SW 248 ° 0 min 0,000 mm 0,0 UV-I 0 W/m² 15,3 °C 18,6 °C 0,0 km/h (0 Bft)
24.06.2017 22:41 18,6 °C 18,6 °C 81 % 1013,6 hPa 0,0 mm 0,0 km/h (0 Bft) W-SW 248 ° 0 min 0,000 mm 0,0 UV-I 0 W/m² 15,3 °C 18,6 °C 0,0 km/h (0 Bft)
24.06.2017 22:42 18,6 °C 18,6 °C 81 % 1013,6 hPa 0,0 mm 0,0 km/h (0 Bft) W-SW 248 ° 0 min 0,000 mm 0,0 UV-I 0 W/m² 15,3 °C 18,6 °C 0,0 km/h (0 Bft)
24.06.2017 22:43 18,6 °C 18,6 °C 81 % 1013,6 hPa 0,0 mm 0,0 km/h (0 Bft) W-SW 248 ° 0 min 0,000 mm 0,0 UV-I 0 W/m² 15,3 °C 18,6 °C 0,0 km/h (0 Bft)
24.06.2017 22:44 18,6 °C 18,6 °C 81 % 1013,6 hPa 0,0 mm 0,0 km/h (0 Bft) W-SW 248 ° 0 min 0,000 mm 0,0 UV-I 0 W/m² 15,3 °C 18,6 °C 0,0 km/h (0 Bft)
24.06.2017 22:45 18,6 °C 18,6 °C 81 % 1013,6 hPa 0,0 mm 0,0 km/h (0 Bft) W-SW 248 ° 0 min 0,000 mm 0,0 UV-I 0 W/m² 15,3 °C 18,6 °C 0,0 km/h (0 Bft)
24.06.2017 22:46 18,6 °C 18,6 °C 81 % 1013,6 hPa 0,0 mm 0,5 km/h (0 Bft) W-SW 248 ° 0 min 0,000 mm 0,0 UV-I 0 W/m² 15,3 °C 18,6 °C 1,6 km/h (1 Bft)
24.06.2017 22:47 18,5 °C 18,6 °C 81 % 1013,7 hPa 0,0 mm 0,4 km/h (0 Bft) W-SW 248 ° 0 min 0,000 mm 0,0 UV-I 0 W/m² 15,2 °C 18,5 °C 1,6 km/h (1 Bft)
24.06.2017 22:48 18,4 °C 18,5 °C 81 % 1013,7 hPa 0,0 mm 1,7 km/h (1 Bft) W-SW 248 ° 0 min 0,000 mm 0,0 UV-I 0 W/m² 15,1 °C 18,4 °C 4,8 km/h (1 Bft)
24.06.2017 22:49 18,4 °C 18,4 °C 81 % 1013,7 hPa 0,0 mm 0,3 km/h (0 Bft) W-SW 248 ° 0 min 0,000 mm 0,0 UV-I 0 W/m² 15,1 °C 18,4 °C 3,2 km/h (1 Bft)
24.06.2017 22:50 18,4 °C 18,4 °C 81 % 1013,7 hPa 0,0 mm 0,8 km/h (0 Bft) W-SW 248 ° 0 min 0,000 mm 0,0 UV-I 0 W/m² 15,1 °C 18,4 °C 1,6 km/h (1 Bft)
24.06.2017 22:51 18,4 °C 18,4 °C 81 % 1013,7 hPa 0,0 mm 0,4 km/h (0 Bft) W-SW 248 ° 0 min 0,000 mm 0,0 UV-I 0 W/m² 15,1 °C 18,4 °C 1,6 km/h (1 Bft)
24.06.2017 22:52 18,4 °C 18,4 °C 82 % 1013,7 hPa 0,0 mm 0,0 km/h (0 Bft) W-SW 248 ° 0 min 0,000 mm 0,0 UV-I 0 W/m² 15,3 °C 18,4 °C 0,0 km/h (0 Bft)
24.06.2017 22:53 18,4 °C 18,4 °C 82 % 1013,6 hPa 0,0 mm 0,3 km/h (0 Bft) W-SW 248 ° 0 min 0,000 mm 0,0 UV-I 0 W/m² 15,3 °C 18,4 °C 1,6 km/h (1 Bft)
24.06.2017 22:54 18,4 °C 18,4 °C 82 % 1013,7 hPa 0,0 mm 0,3 km/h (0 Bft) W-SW 248 ° 0 min 0,000 mm 0,0 UV-I 0 W/m² 15,3 °C 18,4 °C 1,6 km/h (1 Bft)
24.06.2017 22:55 18,4 °C 18,4 °C 82 % 1013,7 hPa 0,0 mm 0,8 km/h (0 Bft) W-SW 248 ° 0 min 0,000 mm 0,0 UV-I 0 W/m² 15,3 °C 18,4 °C 1,6 km/h (1 Bft)
24.06.2017 22:56 18,4 °C 18,4 °C 82 % 1013,6 hPa 0,0 mm 0,0 km/h (0 Bft) W-SW 248 ° 0 min 0,000 mm 0,0 UV-I 0 W/m² 15,3 °C 18,4 °C 0,0 km/h (0 Bft)
24.06.2017 22:57 18,4 °C 18,4 °C 82 % 1013,7 hPa 0,0 mm 0,0 km/h (0 Bft) W-SW 248 ° 0 min 0,000 mm 0,0 UV-I 0 W/m² 15,3 °C 18,4 °C 0,0 km/h (0 Bft)
24.06.2017 22:58 18,3 °C 18,4 °C 82 % 1013,7 hPa 0,0 mm 0,1 km/h (0 Bft) W-SW 248 ° 0 min 0,000 mm 0,0 UV-I 0 W/m² 15,2 °C 18,3 °C 1,6 km/h (1 Bft)
24.06.2017 22:59 18,3 °C 18,4 °C 81 % 1013,6 hPa 0,0 mm 0,2 km/h (0 Bft) W-SW 248 ° 0 min 0,000 mm 0,0 UV-I 0 W/m² 15,0 °C 18,3 °C 1,6 km/h (1 Bft)
24.06.2017 23:00 18,3 °C 18,3 °C 82 % 1013,7 hPa 0,0 mm 0,0 km/h (0 Bft) W-SW 248 ° 0 min 0,026 mm 0,0 UV-I 0 W/m² 15,2 °C 18,3 °C 0,0 km/h (0 Bft)
24.06.2017 23:01 18,3 °C 18,3 °C 82 % 1013,7 hPa 0,0 mm 0,0 km/h (0 Bft) W-SW 248 ° 0 min 0,000 mm 0,0 UV-I 0 W/m² 15,2 °C 18,3 °C 0,0 km/h (0 Bft)
24.06.2017 23:02 18,3 °C 18,3 °C 82 % 1013,7 hPa 0,0 mm 0,0 km/h (0 Bft) W-SW 248 ° 0 min 0,000 mm 0,0 UV-I 0 W/m² 15,2 °C 18,3 °C 0,0 km/h (0 Bft)
24.06.2017 23:03 18,3 °C 18,3 °C 82 % 1013,6 hPa 0,0 mm 0,0 km/h (0 Bft) W-SW 248 ° 0 min 0,000 mm 0,0 UV-I 0 W/m² 15,2 °C 18,3 °C 0,0 km/h (0 Bft)
24.06.2017 23:04 18,2 °C 18,3 °C 82 % 1013,6 hPa 0,0 mm 0,0 km/h (0 Bft) W-SW 248 ° 0 min 0,000 mm 0,0 UV-I 0 W/m² 15,1 °C 18,2 °C 0,0 km/h (0 Bft)
24.06.2017 23:05 18,2 °C 18,2 °C 82 % 1013,7 hPa 0,0 mm 0,0 km/h (0 Bft) W-SW 248 ° 0 min 0,000 mm 0,0 UV-I 0 W/m² 15,1 °C 18,2 °C 0,0 km/h (0 Bft)
24.06.2017 23:06 18,2 °C 18,2 °C 82 % 1013,6 hPa 0,0 mm 0,0 km/h (0 Bft) W-SW 248 ° 0 min 0,000 mm 0,0 UV-I 0 W/m² 15,1 °C 18,2 °C 0,0 km/h (0 Bft)
24.06.2017 23:07 18,2 °C 18,2 °C 82 % 1013,7 hPa 0,0 mm 0,0 km/h (0 Bft) W-SW 248 ° 0 min 0,000 mm 0,0 UV-I 0 W/m² 15,1 °C 18,2 °C 0,0 km/h (0 Bft)
24.06.2017 23:08 18,2 °C 18,2 °C 81 % 1013,6 hPa 0,0 mm 0,0 km/h (0 Bft) W-SW 248 ° 0 min 0,000 mm 0,0 UV-I 0 W/m² 14,9 °C 18,2 °C 0,0 km/h (0 Bft)
24.06.2017 23:09 18,2 °C 18,2 °C 81 % 1013,7 hPa 0,0 mm 0,0 km/h (0 Bft) W-SW 248 ° 0 min 0,000 mm 0,0 UV-I 0 W/m² 14,9 °C 18,2 °C 0,0 km/h (0 Bft)
24.06.2017 23:10 18,2 °C 18,2 °C 81 % 1013,6 hPa 0,0 mm 0,0 km/h (0 Bft) W-SW 248 ° 0 min 0,000 mm 0,0 UV-I 0 W/m² 14,9 °C 18,2 °C 0,0 km/h (0 Bft)
24.06.2017 23:11 18,1 °C 18,2 °C 81 % 1013,7 hPa 0,0 mm 0,0 km/h (0 Bft) W-SW 248 ° 0 min 0,000 mm 0,0 UV-I 0 W/m² 14,8 °C 18,1 °C 0,0 km/h (0 Bft)
24.06.2017 23:12 18,1 °C 18,1 °C 80 % 1013,6 hPa 0,0 mm 0,0 km/h (0 Bft) W-SW 248 ° 0 min 0,000 mm 0,0 UV-I 0 W/m² 14,6 °C 18,1 °C 0,0 km/h (0 Bft)
24.06.2017 23:13 17,9 °C 18,1 °C 81 % 1013,6 hPa 0,0 mm 0,0 km/h (0 Bft) W-SW 248 ° 0 min 0,000 mm 0,0 UV-I 0 W/m² 14,6 °C 17,9 °C 0,0 km/h (0 Bft)
24.06.2017 23:14 17,8 °C 17,9 °C 81 % 1013,7 hPa 0,0 mm 0,0 km/h (0 Bft) W-SW 248 ° 0 min 0,000 mm 0,0 UV-I 0 W/m² 14,5 °C 17,8 °C 0,0 km/h (0 Bft)
24.06.2017 23:15 17,8 °C 17,8 °C 81 % 1013,6 hPa 0,0 mm 0,0 km/h (0 Bft) W-SW 248 ° 0 min 0,000 mm 0,0 UV-I 0 W/m² 14,5 °C 17,8 °C 0,0 km/h (0 Bft)
24.06.2017 23:16 17,7 °C 17,8 °C 81 % 1013,6 hPa 0,0 mm 0,0 km/h (0 Bft) W-SW 248 ° 0 min 0,000 mm 0,0 UV-I 0 W/m² 14,4 °C 17,7 °C 0,0 km/h (0 Bft)
24.06.2017 23:17 17,6 °C 17,7 °C 81 % 1013,6 hPa 0,0 mm 0,0 km/h (0 Bft) W-SW 248 ° 0 min 0,000 mm 0,0 UV-I 0 W/m² 14,3 °C 17,6 °C 0,0 km/h (0 Bft)
24.06.2017 23:18 17,5 °C 17,6 °C 81 % 1013,6 hPa 0,0 mm 0,0 km/h (0 Bft) W-SW 248 ° 0 min 0,000 mm 0,0 UV-I 0 W/m² 14,2 °C 17,5 °C 0,0 km/h (0 Bft)
24.06.2017 23:19 17,5 °C 17,5 °C 82 % 1013,5 hPa 0,0 mm 0,0 km/h (0 Bft) W-SW 248 ° 0 min 0,000 mm 0,0 UV-I 0 W/m² 14,4 °C 17,5 °C 0,0 km/h (0 Bft)
24.06.2017 23:20 17,4 °C 17,5 °C 82 % 1013,4 hPa 0,0 mm 0,0 km/h (0 Bft) W-SW 248 ° 0 min 0,000 mm 0,0 UV-I 0 W/m² 14,3 °C 17,4 °C 0,0 km/h (0 Bft)
24.06.2017 23:21 17,3 °C 17,4 °C 82 % 1013,5 hPa 0,0 mm 0,0 km/h (0 Bft) W-SW 248 ° 0 min 0,000 mm 0,0 UV-I 0 W/m² 14,2 °C 17,3 °C 0,0 km/h (0 Bft)
24.06.2017 23:22 17,3 °C 17,3 °C 82 % 1013,5 hPa 0,0 mm 0,0 km/h (0 Bft) W-SW 248 ° 0 min 0,000 mm 0,0 UV-I 0 W/m² 14,2 °C 17,3 °C 0,0 km/h (0 Bft)
24.06.2017 23:23 17,2 °C 17,3 °C 82 % 1013,5 hPa 0,0 mm 0,0 km/h (0 Bft) W-SW 248 ° 0 min 0,000 mm 0,0 UV-I 0 W/m² 14,1 °C 17,2 °C 0,0 km/h (0 Bft)
24.06.2017 23:24 17,2 °C 17,3 °C 81 % 1013,5 hPa 0,0 mm 0,0 km/h (0 Bft) W-SW 248 ° 0 min 0,000 mm 0,0 UV-I 0 W/m² 13,9 °C 17,2 °C 0,0 km/h (0 Bft)
24.06.2017 23:25 17,3 °C 17,3 °C 81 % 1013,4 hPa 0,0 mm 0,0 km/h (0 Bft) W-SW 248 ° 0 min 0,000 mm 0,0 UV-I 0 W/m² 14,0 °C 17,3 °C 0,0 km/h (0 Bft)
24.06.2017 23:26 17,3 °C 17,3 °C 80 % 1013,5 hPa 0,0 mm 0,0 km/h (0 Bft) W-SW 248 ° 0 min 0,000 mm 0,0 UV-I 0 W/m² 13,8 °C 17,3 °C 0,0 km/h (0 Bft)
24.06.2017 23:27 17,3 °C 17,3 °C 80 % 1013,5 hPa 0,0 mm 0,0 km/h (0 Bft) W-SW 248 ° 0 min 0,000 mm 0,0 UV-I 0 W/m² 13,8 °C 17,3 °C 0,0 km/h (0 Bft)
24.06.2017 23:28 17,3 °C 17,3 °C 80 % 1013,5 hPa 0,0 mm 0,0 km/h (0 Bft) W-SW 248 ° 0 min 0,000 mm 0,0 UV-I 0 W/m² 13,8 °C 17,3 °C 0,0 km/h (0 Bft)
24.06.2017 23:29 17,3 °C 17,3 °C 81 % 1013,4 hPa 0,0 mm 0,0 km/h (0 Bft) W-SW 248 ° 0 min 0,000 mm 0,0 UV-I 0 W/m² 14,0 °C 17,3 °C 0,0 km/h (0 Bft)
24.06.2017 23:30 17,2 °C 17,3 °C 80 % 1013,4 hPa 0,0 mm 0,0 km/h (0 Bft) W-SW 248 ° 0 min 0,000 mm 0,0 UV-I 0 W/m² 13,7 °C 17,2 °C 0,0 km/h (0 Bft)
24.06.2017 23:31 17,1 °C 17,2 °C 80 % 1013,4 hPa 0,0 mm 0,0 km/h (0 Bft) W-SW 248 ° 0 min 0,000 mm 0,0 UV-I 0 W/m² 13,6 °C 17,1 °C 0,0 km/h (0 Bft)
24.06.2017 23:32 17,0 °C 17,1 °C 80 % 1013,4 hPa 0,0 mm 0,0 km/h (0 Bft) W-SW 248 ° 0 min 0,000 mm 0,0 UV-I 0 W/m² 13,5 °C 17,0 °C 0,0 km/h (0 Bft)
24.06.2017 23:33 16,9 °C 17,0 °C 80 % 1013,4 hPa 0,0 mm 0,0 km/h (0 Bft) W-SW 248 ° 0 min 0,000 mm 0,0 UV-I 0 W/m² 13,4 °C 16,9 °C 0,0 km/h (0 Bft)
24.06.2017 23:34 16,9 °C 16,9 °C 81 % 1013,4 hPa 0,0 mm 0,0 km/h (0 Bft) W-SW 248 ° 0 min 0,000 mm 0,0 UV-I 0 W/m² 13,6 °C 16,9 °C 0,0 km/h (0 Bft)
24.06.2017 23:35 16,9 °C 16,9 °C 81 % 1013,4 hPa 0,0 mm 0,0 km/h (0 Bft) W-SW 248 ° 0 min 0,000 mm 0,0 UV-I 0 W/m² 13,6 °C 16,9 °C 0,0 km/h (0 Bft)
24.06.2017 23:36 16,8 °C 16,9 °C 81 % 1013,4 hPa 0,0 mm 0,0 km/h (0 Bft) W-SW 248 ° 0 min 0,000 mm 0,0 UV-I 0 W/m² 13,5 °C 16,8 °C 0,0 km/h (0 Bft)
24.06.2017 23:37 16,8 °C 16,8 °C 81 % 1013,4 hPa 0,0 mm 0,0 km/h (0 Bft) W-SW 248 ° 0 min 0,000 mm 0,0 UV-I 0 W/m² 13,5 °C 16,8 °C 0,0 km/h (0 Bft)
24.06.2017 23:38 16,7 °C 16,8 °C 81 % 1013,4 hPa 0,0 mm 0,0 km/h (0 Bft) W-SW 248 ° 0 min 0,000 mm 0,0 UV-I 0 W/m² 13,4 °C 16,7 °C 0,0 km/h (0 Bft)
24.06.2017 23:39 16,6 °C 16,7 °C 83 % 1013,4 hPa 0,0 mm 0,0 km/h (0 Bft) W-SW 248 ° 0 min 0,000 mm 0,0 UV-I 0 W/m² 13,7 °C 16,6 °C 0,0 km/h (0 Bft)
24.06.2017 23:40 16,6 °C 16,6 °C 83 % 1013,4 hPa 0,0 mm 0,0 km/h (0 Bft) W-SW 248 ° 0 min 0,000 mm 0,0 UV-I 0 W/m² 13,7 °C 16,6 °C 0,0 km/h (0 Bft)
24.06.2017 23:41 16,6 °C 16,6 °C 83 % 1013,4 hPa 0,0 mm 0,0 km/h (0 Bft) W-SW 248 ° 0 min 0,000 mm 0,0 UV-I 0 W/m² 13,7 °C 16,6 °C 0,0 km/h (0 Bft)
24.06.2017 23:42 16,6 °C 16,6 °C 81 % 1013,4 hPa 0,0 mm 0,1 km/h (0 Bft) W-SW 248 ° 0 min 0,000 mm 0,0 UV-I 0 W/m² 13,3 °C 16,6 °C 1,6 km/h (1 Bft)
24.06.2017 23:43 16,6 °C 16,6 °C 81 % 1013,4 hPa 0,0 mm 2,1 km/h (1 Bft) W-SW 248 ° 0 min 0,000 mm 0,0 UV-I 0 W/m² 13,3 °C 16,6 °C 3,2 km/h (1 Bft)
24.06.2017 23:44 16,6 °C 16,6 °C 81 % 1013,5 hPa 0,0 mm 2,3 km/h (1 Bft) W-SW 248 ° 0 min 0,000 mm 0,0 UV-I 0 W/m² 13,3 °C 16,6 °C 3,2 km/h (1 Bft)
24.06.2017 23:45 16,6 °C 16,6 °C 81 % 1013,4 hPa 0,0 mm 0,9 km/h (0 Bft) W-SW 248 ° 0 min 0,000 mm 0,0 UV-I 0 W/m² 13,3 °C 16,6 °C 1,6 km/h (1 Bft)
24.06.2017 23:46 16,6 °C 16,6 °C 81 % 1013,4 hPa 0,0 mm 1,9 km/h (1 Bft) W-SW 248 ° 0 min 0,000 mm 0,0 UV-I 0 W/m² 13,3 °C 16,6 °C 3,2 km/h (1 Bft)
24.06.2017 23:47 16,6 °C 16,6 °C 81 % 1013,4 hPa 0,0 mm 1,6 km/h (1 Bft) W-SW 248 ° 0 min 0,000 mm 0,0 UV-I 0 W/m² 13,3 °C 16,6 °C 3,2 km/h (1 Bft)
24.06.2017 23:48 16,6 °C 16,6 °C 80 % 1013,4 hPa 0,0 mm 1,6 km/h (1 Bft) W-SW 248 ° 0 min 0,000 mm 0,0 UV-I 0 W/m² 13,1 °C 16,6 °C 3,2 km/h (1 Bft)
24.06.2017 23:49 16,4 °C 16,6 °C 81 % 1013,4 hPa 0,0 mm 2,8 km/h (1 Bft) W-SW 248 ° 0 min 0,000 mm 0,0 UV-I 0 W/m² 13,1 °C 16,4 °C 3,2 km/h (1 Bft)
24.06.2017 23:50 16,3 °C 16,4 °C 81 % 1013,4 hPa 0,0 mm 1,1 km/h (1 Bft) W-SW 248 ° 0 min 0,000 mm 0,0 UV-I 0 W/m² 13,0 °C 16,3 °C 3,2 km/h (1 Bft)
24.06.2017 23:51 16,3 °C 16,3 °C 81 % 1013,4 hPa 0,0 mm 0,7 km/h (0 Bft) W-SW 248 ° 0 min 0,000 mm 0,0 UV-I 0 W/m² 13,0 °C 16,3 °C 1,6 km/h (1 Bft)
24.06.2017 23:52 16,2 °C 16,3 °C 81 % 1013,4 hPa 0,0 mm 0,0 km/h (0 Bft) W-SW 248 ° 0 min 0,000 mm 0,0 UV-I 0 W/m² 12,9 °C 16,2 °C 0,0 km/h (0 Bft)
24.06.2017 23:53 16,2 °C 16,3 °C 81 % 1013,4 hPa 0,0 mm 0,0 km/h (0 Bft) W-SW 248 ° 0 min 0,000 mm 0,0 UV-I 0 W/m² 12,9 °C 16,2 °C 0,0 km/h (0 Bft)
24.06.2017 23:54 16,1 °C 16,2 °C 81 % 1013,5 hPa 0,0 mm 0,0 km/h (0 Bft) W-SW 248 ° 0 min 0,000 mm 0,0 UV-I 0 W/m² 12,8 °C 16,1 °C 0,0 km/h (0 Bft)
24.06.2017 23:55 16,0 °C 16,1 °C 81 % 1013,4 hPa 0,0 mm 0,0 km/h (0 Bft) W-SW 248 ° 0 min 0,000 mm 0,0 UV-I 0 W/m² 12,7 °C 16,0 °C 0,0 km/h (0 Bft)
24.06.2017 23:56 15,9 °C 16,0 °C 83 % 1013,5 hPa 0,0 mm 0,0 km/h (0 Bft) W-SW 248 ° 0 min 0,000 mm 0,0 UV-I 0 W/m² 13,0 °C 15,9 °C 0,0 km/h (0 Bft)
24.06.2017 23:57 15,8 °C 15,9 °C 85 % 1013,4 hPa 0,0 mm 0,0 km/h (0 Bft) W-SW 248 ° 0 min 0,000 mm 0,0 UV-I 0 W/m² 13,3 °C 15,8 °C 0,0 km/h (0 Bft)
24.06.2017 23:58 15,7 °C 15,8 °C 85 % 1013,5 hPa 0,0 mm 0,0 km/h (0 Bft) W-SW 248 ° 0 min 0,000 mm 0,0 UV-I 0 W/m² 13,2 °C 15,7 °C 0,0 km/h (0 Bft)
24.06.2017 23:59 15,6 °C 15,7 °C 85 % 1013,5 hPa 0,0 mm 0,0 km/h (0 Bft) W-SW 248 ° 0 min 0,000 mm 0,0 UV-I 0 W/m² 13,1 °C 15,6 °C 0,0 km/h (0 Bft)
_ Min-Zeit 05:56 05:56 17:23 19:22 - 23:59 - - - - - - 23:55 05:56 23:59
Minimum _ 15,2 °C 15,2 °C 68 % 1012,2 hPa - 0,0 km/h (0 Bft) - - - - - - 12,7 °C 15,2 °C 0,0 km/h (0 Bft)
_ Max-Zeit 17:11 17:12 07:10 09:26 23:59 19:49 - - 16:52 16:01 13:53 15:33 17:07 17:11 19:49
Maximum _ 23,8 °C 23,8 °C 88 % 1015,1 hPa 0,0 mm 20,0 km/h
W (4 Bft)
- - 1 min 0,406 mm 6,3 UV-I 867 W/m² 18,9 °C 23,8 °C 27,4 km/h
W (4 Bft)
Durchschnitt _ 19,9 °C 19,9 °C 77 % 1013,9 hPa #0,0 mm 3,6 km/h (1 Bft) W - #5:05 h #2,642 mm 2,4 UV-I 148 W/m² 15,6 °C 19,9 °C 6,0 km/h (2 Bft)